<?xml version="1.0" encoding="UTF-8" standalone="no" ?>
<gpx xmlns="http://www.topografix.com/GPX/1/1" xmlns:xsi="http://www.w3.org/2001/XMLSchema-instance" xsi:schemaLocation="http://www.topografix.com/GPX/1/1 http://www.topografix.com/GPX/1/1/gpx.xsd" version="1.1" creator="VisuGPX - https://www.visugpx.com">
  <metadata>
    <name>Jour 18 - Le Chemin Sauvage</name>
  </metadata>
  <trk>
    <name><![CDATA[2026-05-19 15:18:07]]></name>
    <trkseg>
      <trkpt lat="44.50644" lon="1.65442">
        <ele>154.91</ele>
        <time>2026-05-19T04:57:14Z</time>
      </trkpt>
      <trkpt lat="44.50644" lon="1.65442">
        <ele>154.91</ele>
        <time>2026-05-19T04:57:15Z</time>
      </trkpt>
      <trkpt lat="44.50641" lon="1.65441">
        <ele>155.87</ele>
        <time>2026-05-19T04:57:46Z</time>
      </trkpt>
      <trkpt lat="44.50636" lon="1.65436">
        <ele>154.43</ele>
        <time>2026-05-19T04:57:59Z</time>
      </trkpt>
      <trkpt lat="44.50634" lon="1.65433">
        <ele>154.43</ele>
        <time>2026-05-19T04:58:02Z</time>
      </trkpt>
      <trkpt lat="44.50633" lon="1.65415">
        <ele>154.43</ele>
        <time>2026-05-19T04:58:17Z</time>
      </trkpt>
      <trkpt lat="44.50632" lon="1.65413">
        <ele>154.43</ele>
        <time>2026-05-19T04:58:19Z</time>
      </trkpt>
      <trkpt lat="44.50631" lon="1.65407">
        <ele>154.43</ele>
        <time>2026-05-19T04:58:23Z</time>
      </trkpt>
      <trkpt lat="44.50621" lon="1.65395">
        <ele>154.43</ele>
        <time>2026-05-19T04:58:36Z</time>
      </trkpt>
      <trkpt lat="44.50619" lon="1.65397">
        <ele>154.43</ele>
        <time>2026-05-19T04:58:38Z</time>
      </trkpt>
      <trkpt lat="44.50611" lon="1.65399">
        <ele>155.39</ele>
        <time>2026-05-19T04:58:48Z</time>
      </trkpt>
      <trkpt lat="44.50602" lon="1.65392">
        <ele>155.39</ele>
        <time>2026-05-19T04:59:02Z</time>
      </trkpt>
      <trkpt lat="44.50602" lon="1.65396">
        <ele>155.39</ele>
        <time>2026-05-19T04:59:23Z</time>
      </trkpt>
      <trkpt lat="44.50602" lon="1.65406">
        <ele>155.39</ele>
        <time>2026-05-19T04:59:42Z</time>
      </trkpt>
      <trkpt lat="44.50603" lon="1.65417">
        <ele>155.39</ele>
        <time>2026-05-19T04:59:50Z</time>
      </trkpt>
      <trkpt lat="44.50602" lon="1.65423">
        <ele>155.39</ele>
        <time>2026-05-19T04:59:55Z</time>
      </trkpt>
      <trkpt lat="44.50602" lon="1.65428">
        <ele>153.95</ele>
        <time>2026-05-19T04:59:58Z</time>
      </trkpt>
      <trkpt lat="44.50602" lon="1.65436">
        <ele>154.91</ele>
        <time>2026-05-19T05:00:05Z</time>
      </trkpt>
      <trkpt lat="44.50599" lon="1.65432">
        <ele>155.39</ele>
        <time>2026-05-19T05:00:10Z</time>
      </trkpt>
      <trkpt lat="44.50589" lon="1.65417">
        <ele>157.79</ele>
        <time>2026-05-19T05:00:25Z</time>
      </trkpt>
      <trkpt lat="44.50589" lon="1.65417">
        <ele>157.79</ele>
        <time>2026-05-19T05:00:26Z</time>
      </trkpt>
      <trkpt lat="44.50577" lon="1.65409">
        <ele>160.2</ele>
        <time>2026-05-19T05:00:42Z</time>
      </trkpt>
      <trkpt lat="44.50573" lon="1.65401">
        <ele>162.12</ele>
        <time>2026-05-19T05:00:53Z</time>
      </trkpt>
      <trkpt lat="44.5057" lon="1.65396">
        <ele>163.08</ele>
        <time>2026-05-19T05:01:00Z</time>
      </trkpt>
      <trkpt lat="44.50563" lon="1.65387">
        <ele>164.52</ele>
        <time>2026-05-19T05:01:11Z</time>
      </trkpt>
      <trkpt lat="44.50559" lon="1.65385">
        <ele>165.48</ele>
        <time>2026-05-19T05:01:15Z</time>
      </trkpt>
      <trkpt lat="44.50557" lon="1.65382">
        <ele>165.96</ele>
        <time>2026-05-19T05:01:18Z</time>
      </trkpt>
      <trkpt lat="44.50546" lon="1.65372">
        <ele>168.37</ele>
        <time>2026-05-19T05:01:30Z</time>
      </trkpt>
      <trkpt lat="44.5054" lon="1.65372">
        <ele>169.33</ele>
        <time>2026-05-19T05:01:39Z</time>
      </trkpt>
      <trkpt lat="44.50537" lon="1.65369">
        <ele>169.81</ele>
        <time>2026-05-19T05:01:43Z</time>
      </trkpt>
      <trkpt lat="44.50536" lon="1.65366">
        <ele>169.81</ele>
        <time>2026-05-19T05:01:45Z</time>
      </trkpt>
      <trkpt lat="44.50531" lon="1.65349">
        <ele>170.29</ele>
        <time>2026-05-19T05:02:00Z</time>
      </trkpt>
      <trkpt lat="44.50529" lon="1.65344">
        <ele>170.29</ele>
        <time>2026-05-19T05:02:04Z</time>
      </trkpt>
      <trkpt lat="44.50529" lon="1.65338">
        <ele>170.29</ele>
        <time>2026-05-19T05:02:09Z</time>
      </trkpt>
      <trkpt lat="44.50529" lon="1.6533">
        <ele>170.29</ele>
        <time>2026-05-19T05:02:15Z</time>
      </trkpt>
      <trkpt lat="44.50528" lon="1.65323">
        <ele>170.29</ele>
        <time>2026-05-19T05:02:20Z</time>
      </trkpt>
      <trkpt lat="44.50524" lon="1.65313">
        <ele>170.29</ele>
        <time>2026-05-19T05:02:26Z</time>
      </trkpt>
      <trkpt lat="44.50522" lon="1.65304">
        <ele>170.29</ele>
        <time>2026-05-19T05:02:31Z</time>
      </trkpt>
      <trkpt lat="44.50518" lon="1.65294">
        <ele>170.29</ele>
        <time>2026-05-19T05:02:36Z</time>
      </trkpt>
      <trkpt lat="44.50515" lon="1.65279">
        <ele>171.73</ele>
        <time>2026-05-19T05:02:47Z</time>
      </trkpt>
      <trkpt lat="44.50513" lon="1.65268">
        <ele>173.17</ele>
        <time>2026-05-19T05:02:58Z</time>
      </trkpt>
      <trkpt lat="44.50509" lon="1.6526">
        <ele>175.58</ele>
        <time>2026-05-19T05:03:11Z</time>
      </trkpt>
      <trkpt lat="44.50508" lon="1.65248">
        <ele>177.5</ele>
        <time>2026-05-19T05:03:27Z</time>
      </trkpt>
      <trkpt lat="44.50511" lon="1.65227">
        <ele>180.38</ele>
        <time>2026-05-19T05:03:42Z</time>
      </trkpt>
      <trkpt lat="44.50511" lon="1.65216">
        <ele>182.79</ele>
        <time>2026-05-19T05:03:53Z</time>
      </trkpt>
      <trkpt lat="44.5051" lon="1.65211">
        <ele>182.79</ele>
        <time>2026-05-19T05:03:57Z</time>
      </trkpt>
      <trkpt lat="44.50507" lon="1.652">
        <ele>184.71</ele>
        <time>2026-05-19T05:04:09Z</time>
      </trkpt>
      <trkpt lat="44.50507" lon="1.65194">
        <ele>186.63</ele>
        <time>2026-05-19T05:04:23Z</time>
      </trkpt>
      <trkpt lat="44.50508" lon="1.65194">
        <ele>188.08</ele>
        <time>2026-05-19T05:04:25Z</time>
      </trkpt>
      <trkpt lat="44.50511" lon="1.65189">
        <ele>189.04</ele>
        <time>2026-05-19T05:04:41Z</time>
      </trkpt>
      <trkpt lat="44.50517" lon="1.65187">
        <ele>190.48</ele>
        <time>2026-05-19T05:04:57Z</time>
      </trkpt>
      <trkpt lat="44.50529" lon="1.65178">
        <ele>190.48</ele>
        <time>2026-05-19T05:05:14Z</time>
      </trkpt>
      <trkpt lat="44.50545" lon="1.65161">
        <ele>193.36</ele>
        <time>2026-05-19T05:05:35Z</time>
      </trkpt>
      <trkpt lat="44.50557" lon="1.65148">
        <ele>196.73</ele>
        <time>2026-05-19T05:05:52Z</time>
      </trkpt>
      <trkpt lat="44.50565" lon="1.65138">
        <ele>198.65</ele>
        <time>2026-05-19T05:06:08Z</time>
      </trkpt>
      <trkpt lat="44.50571" lon="1.65128">
        <ele>200.57</ele>
        <time>2026-05-19T05:06:23Z</time>
      </trkpt>
      <trkpt lat="44.50577" lon="1.65122">
        <ele>203.94</ele>
        <time>2026-05-19T05:06:38Z</time>
      </trkpt>
      <trkpt lat="44.50582" lon="1.6512">
        <ele>204.42</ele>
        <time>2026-05-19T05:06:54Z</time>
      </trkpt>
      <trkpt lat="44.50584" lon="1.65116">
        <ele>204.9</ele>
        <time>2026-05-19T05:07:24Z</time>
      </trkpt>
      <trkpt lat="44.50595" lon="1.65104">
        <ele>207.3</ele>
        <time>2026-05-19T05:07:42Z</time>
      </trkpt>
      <trkpt lat="44.50598" lon="1.651">
        <ele>207.78</ele>
        <time>2026-05-19T05:08:01Z</time>
      </trkpt>
      <trkpt lat="44.50607" lon="1.65092">
        <ele>208.74</ele>
        <time>2026-05-19T05:08:24Z</time>
      </trkpt>
      <trkpt lat="44.50616" lon="1.65082">
        <ele>210.19</ele>
        <time>2026-05-19T05:08:39Z</time>
      </trkpt>
      <trkpt lat="44.50624" lon="1.65073">
        <ele>212.59</ele>
        <time>2026-05-19T05:08:53Z</time>
      </trkpt>
      <trkpt lat="44.50625" lon="1.65072">
        <ele>213.07</ele>
        <time>2026-05-19T05:08:55Z</time>
      </trkpt>
      <trkpt lat="44.50629" lon="1.65068">
        <ele>213.55</ele>
        <time>2026-05-19T05:09:00Z</time>
      </trkpt>
      <trkpt lat="44.50631" lon="1.65066">
        <ele>213.55</ele>
        <time>2026-05-19T05:09:03Z</time>
      </trkpt>
      <trkpt lat="44.50638" lon="1.65052">
        <ele>215.95</ele>
        <time>2026-05-19T05:09:19Z</time>
      </trkpt>
      <trkpt lat="44.50644" lon="1.65038">
        <ele>217.88</ele>
        <time>2026-05-19T05:09:33Z</time>
      </trkpt>
      <trkpt lat="44.50646" lon="1.65032">
        <ele>218.84</ele>
        <time>2026-05-19T05:09:38Z</time>
      </trkpt>
      <trkpt lat="44.50652" lon="1.65021">
        <ele>219.32</ele>
        <time>2026-05-19T05:09:48Z</time>
      </trkpt>
      <trkpt lat="44.50654" lon="1.65019">
        <ele>219.32</ele>
        <time>2026-05-19T05:09:50Z</time>
      </trkpt>
      <trkpt lat="44.50663" lon="1.65007">
        <ele>220.28</ele>
        <time>2026-05-19T05:10:03Z</time>
      </trkpt>
      <trkpt lat="44.50664" lon="1.65005">
        <ele>220.28</ele>
        <time>2026-05-19T05:10:05Z</time>
      </trkpt>
      <trkpt lat="44.50668" lon="1.64992">
        <ele>222.2</ele>
        <time>2026-05-19T05:10:19Z</time>
      </trkpt>
      <trkpt lat="44.50674" lon="1.6498">
        <ele>224.61</ele>
        <time>2026-05-19T05:10:34Z</time>
      </trkpt>
      <trkpt lat="44.50678" lon="1.64969">
        <ele>227.01</ele>
        <time>2026-05-19T05:10:47Z</time>
      </trkpt>
      <trkpt lat="44.50684" lon="1.64956">
        <ele>227.97</ele>
        <time>2026-05-19T05:11:01Z</time>
      </trkpt>
      <trkpt lat="44.50689" lon="1.6495">
        <ele>228.93</ele>
        <time>2026-05-19T05:11:08Z</time>
      </trkpt>
      <trkpt lat="44.50697" lon="1.64943">
        <ele>228.93</ele>
        <time>2026-05-19T05:11:17Z</time>
      </trkpt>
      <trkpt lat="44.50706" lon="1.64931">
        <ele>228.93</ele>
        <time>2026-05-19T05:11:28Z</time>
      </trkpt>
      <trkpt lat="44.50708" lon="1.64929">
        <ele>228.93</ele>
        <time>2026-05-19T05:11:30Z</time>
      </trkpt>
      <trkpt lat="44.50713" lon="1.64919">
        <ele>228.93</ele>
        <time>2026-05-19T05:11:39Z</time>
      </trkpt>
      <trkpt lat="44.50716" lon="1.64913">
        <ele>229.41</ele>
        <time>2026-05-19T05:11:44Z</time>
      </trkpt>
      <trkpt lat="44.50724" lon="1.64898">
        <ele>229.89</ele>
        <time>2026-05-19T05:11:57Z</time>
      </trkpt>
      <trkpt lat="44.5073" lon="1.64886">
        <ele>230.85</ele>
        <time>2026-05-19T05:12:07Z</time>
      </trkpt>
      <trkpt lat="44.50734" lon="1.64875">
        <ele>232.78</ele>
        <time>2026-05-19T05:12:21Z</time>
      </trkpt>
      <trkpt lat="44.50735" lon="1.64872">
        <ele>234.22</ele>
        <time>2026-05-19T05:12:24Z</time>
      </trkpt>
      <trkpt lat="44.50738" lon="1.6486">
        <ele>236.14</ele>
        <time>2026-05-19T05:12:38Z</time>
      </trkpt>
      <trkpt lat="44.5074" lon="1.64846">
        <ele>238.06</ele>
        <time>2026-05-19T05:12:53Z</time>
      </trkpt>
      <trkpt lat="44.50743" lon="1.64835">
        <ele>240.95</ele>
        <time>2026-05-19T05:13:09Z</time>
      </trkpt>
      <trkpt lat="44.50742" lon="1.64826">
        <ele>243.35</ele>
        <time>2026-05-19T05:13:23Z</time>
      </trkpt>
      <trkpt lat="44.50744" lon="1.6482">
        <ele>245.27</ele>
        <time>2026-05-19T05:13:37Z</time>
      </trkpt>
      <trkpt lat="44.50744" lon="1.64814">
        <ele>245.27</ele>
        <time>2026-05-19T05:13:59Z</time>
      </trkpt>
      <trkpt lat="44.50744" lon="1.64814">
        <ele>245.75</ele>
        <time>2026-05-19T05:14:20Z</time>
      </trkpt>
      <trkpt lat="44.50743" lon="1.64812">
        <ele>245.75</ele>
        <time>2026-05-19T05:14:38Z</time>
      </trkpt>
      <trkpt lat="44.50742" lon="1.64813">
        <ele>245.75</ele>
        <time>2026-05-19T05:15:15Z</time>
      </trkpt>
      <trkpt lat="44.50743" lon="1.64813">
        <ele>245.75</ele>
        <time>2026-05-19T05:15:33Z</time>
      </trkpt>
      <trkpt lat="44.50746" lon="1.64807">
        <ele>245.75</ele>
        <time>2026-05-19T05:15:51Z</time>
      </trkpt>
      <trkpt lat="44.50749" lon="1.64794">
        <ele>247.68</ele>
        <time>2026-05-19T05:16:07Z</time>
      </trkpt>
      <trkpt lat="44.50753" lon="1.6478">
        <ele>249.6</ele>
        <time>2026-05-19T05:16:21Z</time>
      </trkpt>
      <trkpt lat="44.50758" lon="1.64762">
        <ele>251.52</ele>
        <time>2026-05-19T05:16:37Z</time>
      </trkpt>
      <trkpt lat="44.50763" lon="1.64746">
        <ele>253.44</ele>
        <time>2026-05-19T05:16:51Z</time>
      </trkpt>
      <trkpt lat="44.50767" lon="1.64733">
        <ele>254.41</ele>
        <time>2026-05-19T05:17:03Z</time>
      </trkpt>
      <trkpt lat="44.50768" lon="1.64721">
        <ele>256.33</ele>
        <time>2026-05-19T05:17:16Z</time>
      </trkpt>
      <trkpt lat="44.50772" lon="1.64711">
        <ele>257.77</ele>
        <time>2026-05-19T05:17:26Z</time>
      </trkpt>
      <trkpt lat="44.50772" lon="1.64694">
        <ele>259.21</ele>
        <time>2026-05-19T05:17:40Z</time>
      </trkpt>
      <trkpt lat="44.50772" lon="1.64682">
        <ele>262.1</ele>
        <time>2026-05-19T05:17:53Z</time>
      </trkpt>
      <trkpt lat="44.50769" lon="1.6467">
        <ele>264.02</ele>
        <time>2026-05-19T05:18:09Z</time>
      </trkpt>
      <trkpt lat="44.50765" lon="1.64659">
        <ele>267.38</ele>
        <time>2026-05-19T05:18:23Z</time>
      </trkpt>
      <trkpt lat="44.50765" lon="1.64639">
        <ele>268.83</ele>
        <time>2026-05-19T05:18:39Z</time>
      </trkpt>
      <trkpt lat="44.50766" lon="1.64623">
        <ele>270.75</ele>
        <time>2026-05-19T05:18:52Z</time>
      </trkpt>
      <trkpt lat="44.50766" lon="1.64618">
        <ele>271.23</ele>
        <time>2026-05-19T05:18:56Z</time>
      </trkpt>
      <trkpt lat="44.50766" lon="1.64595">
        <ele>272.67</ele>
        <time>2026-05-19T05:19:12Z</time>
      </trkpt>
      <trkpt lat="44.50768" lon="1.64576">
        <ele>274.11</ele>
        <time>2026-05-19T05:19:26Z</time>
      </trkpt>
      <trkpt lat="44.50769" lon="1.64568">
        <ele>275.07</ele>
        <time>2026-05-19T05:19:32Z</time>
      </trkpt>
      <trkpt lat="44.50767" lon="1.64561">
        <ele>275.07</ele>
        <time>2026-05-19T05:19:37Z</time>
      </trkpt>
      <trkpt lat="44.50767" lon="1.64545">
        <ele>276.04</ele>
        <time>2026-05-19T05:19:47Z</time>
      </trkpt>
      <trkpt lat="44.50767" lon="1.64538">
        <ele>276.52</ele>
        <time>2026-05-19T05:19:52Z</time>
      </trkpt>
      <trkpt lat="44.50768" lon="1.64517">
        <ele>278.44</ele>
        <time>2026-05-19T05:20:08Z</time>
      </trkpt>
      <trkpt lat="44.50768" lon="1.64513">
        <ele>279.4</ele>
        <time>2026-05-19T05:20:13Z</time>
      </trkpt>
      <trkpt lat="44.50766" lon="1.64505">
        <ele>280.84</ele>
        <time>2026-05-19T05:20:20Z</time>
      </trkpt>
      <trkpt lat="44.50761" lon="1.64488">
        <ele>283.73</ele>
        <time>2026-05-19T05:20:37Z</time>
      </trkpt>
      <trkpt lat="44.5076" lon="1.64473">
        <ele>285.17</ele>
        <time>2026-05-19T05:20:52Z</time>
      </trkpt>
      <trkpt lat="44.50756" lon="1.64464">
        <ele>285.65</ele>
        <time>2026-05-19T05:21:18Z</time>
      </trkpt>
      <trkpt lat="44.50745" lon="1.64456">
        <ele>287.57</ele>
        <time>2026-05-19T05:21:33Z</time>
      </trkpt>
      <trkpt lat="44.50742" lon="1.64449">
        <ele>287.57</ele>
        <time>2026-05-19T05:21:46Z</time>
      </trkpt>
      <trkpt lat="44.50739" lon="1.6444">
        <ele>289.97</ele>
        <time>2026-05-19T05:21:56Z</time>
      </trkpt>
      <trkpt lat="44.50755" lon="1.64426">
        <ele>289.97</ele>
        <time>2026-05-19T05:22:13Z</time>
      </trkpt>
      <trkpt lat="44.50758" lon="1.64423">
        <ele>289.97</ele>
        <time>2026-05-19T05:22:16Z</time>
      </trkpt>
      <trkpt lat="44.50761" lon="1.64422">
        <ele>289.97</ele>
        <time>2026-05-19T05:22:19Z</time>
      </trkpt>
      <trkpt lat="44.5077" lon="1.64421">
        <ele>289.97</ele>
        <time>2026-05-19T05:22:33Z</time>
      </trkpt>
      <trkpt lat="44.5077" lon="1.64421">
        <ele>289.97</ele>
        <time>2026-05-19T05:22:41Z</time>
      </trkpt>
      <trkpt lat="44.50771" lon="1.64423">
        <ele>289.49</ele>
        <time>2026-05-19T05:22:43Z</time>
      </trkpt>
      <trkpt lat="44.50777" lon="1.64434">
        <ele>289.49</ele>
        <time>2026-05-19T05:22:55Z</time>
      </trkpt>
      <trkpt lat="44.50778" lon="1.64435">
        <ele>289.49</ele>
        <time>2026-05-19T05:22:56Z</time>
      </trkpt>
      <trkpt lat="44.50785" lon="1.64433">
        <ele>289.49</ele>
        <time>2026-05-19T05:23:02Z</time>
      </trkpt>
      <trkpt lat="44.50806" lon="1.64431">
        <ele>289.49</ele>
        <time>2026-05-19T05:23:19Z</time>
      </trkpt>
      <trkpt lat="44.50822" lon="1.64432">
        <ele>290.46</ele>
        <time>2026-05-19T05:23:33Z</time>
      </trkpt>
      <trkpt lat="44.50837" lon="1.6443">
        <ele>290.94</ele>
        <time>2026-05-19T05:23:47Z</time>
      </trkpt>
      <trkpt lat="44.50847" lon="1.64425">
        <ele>292.38</ele>
        <time>2026-05-19T05:23:56Z</time>
      </trkpt>
      <trkpt lat="44.50858" lon="1.64411">
        <ele>293.82</ele>
        <time>2026-05-19T05:24:08Z</time>
      </trkpt>
      <trkpt lat="44.50863" lon="1.64398">
        <ele>293.82</ele>
        <time>2026-05-19T05:24:16Z</time>
      </trkpt>
      <trkpt lat="44.50856" lon="1.64386">
        <ele>295.74</ele>
        <time>2026-05-19T05:24:29Z</time>
      </trkpt>
      <trkpt lat="44.50841" lon="1.64377">
        <ele>297.67</ele>
        <time>2026-05-19T05:24:48Z</time>
      </trkpt>
      <trkpt lat="44.50835" lon="1.64369">
        <ele>298.15</ele>
        <time>2026-05-19T05:24:54Z</time>
      </trkpt>
      <trkpt lat="44.50832" lon="1.64363">
        <ele>299.11</ele>
        <time>2026-05-19T05:24:59Z</time>
      </trkpt>
      <trkpt lat="44.50824" lon="1.64348">
        <ele>300.07</ele>
        <time>2026-05-19T05:25:13Z</time>
      </trkpt>
      <trkpt lat="44.5082" lon="1.64343">
        <ele>301.03</ele>
        <time>2026-05-19T05:25:18Z</time>
      </trkpt>
      <trkpt lat="44.50811" lon="1.64326">
        <ele>302.95</ele>
        <time>2026-05-19T05:25:32Z</time>
      </trkpt>
      <trkpt lat="44.50806" lon="1.64309">
        <ele>303.91</ele>
        <time>2026-05-19T05:25:45Z</time>
      </trkpt>
      <trkpt lat="44.50802" lon="1.64297">
        <ele>305.36</ele>
        <time>2026-05-19T05:25:53Z</time>
      </trkpt>
      <trkpt lat="44.508" lon="1.64287">
        <ele>306.32</ele>
        <time>2026-05-19T05:26:00Z</time>
      </trkpt>
      <trkpt lat="44.50794" lon="1.64265">
        <ele>307.76</ele>
        <time>2026-05-19T05:26:15Z</time>
      </trkpt>
      <trkpt lat="44.50788" lon="1.64247">
        <ele>309.2</ele>
        <time>2026-05-19T05:26:28Z</time>
      </trkpt>
      <trkpt lat="44.50783" lon="1.64236">
        <ele>310.16</ele>
        <time>2026-05-19T05:26:36Z</time>
      </trkpt>
      <trkpt lat="44.5078" lon="1.64229">
        <ele>310.64</ele>
        <time>2026-05-19T05:26:40Z</time>
      </trkpt>
      <trkpt lat="44.50774" lon="1.64212">
        <ele>311.6</ele>
        <time>2026-05-19T05:26:53Z</time>
      </trkpt>
      <trkpt lat="44.50767" lon="1.64196">
        <ele>313.05</ele>
        <time>2026-05-19T05:27:06Z</time>
      </trkpt>
      <trkpt lat="44.50761" lon="1.64184">
        <ele>314.49</ele>
        <time>2026-05-19T05:27:20Z</time>
      </trkpt>
      <trkpt lat="44.50763" lon="1.64181">
        <ele>314.49</ele>
        <time>2026-05-19T05:27:56Z</time>
      </trkpt>
      <trkpt lat="44.50758" lon="1.64177">
        <ele>314.49</ele>
        <time>2026-05-19T05:28:01Z</time>
      </trkpt>
      <trkpt lat="44.50751" lon="1.64176">
        <ele>314.97</ele>
        <time>2026-05-19T05:28:06Z</time>
      </trkpt>
      <trkpt lat="44.50747" lon="1.64174">
        <ele>315.93</ele>
        <time>2026-05-19T05:28:10Z</time>
      </trkpt>
      <trkpt lat="44.50738" lon="1.64174">
        <ele>317.37</ele>
        <time>2026-05-19T05:28:19Z</time>
      </trkpt>
      <trkpt lat="44.50725" lon="1.64173">
        <ele>319.3</ele>
        <time>2026-05-19T05:28:32Z</time>
      </trkpt>
      <trkpt lat="44.50716" lon="1.64173">
        <ele>320.74</ele>
        <time>2026-05-19T05:28:43Z</time>
      </trkpt>
      <trkpt lat="44.50716" lon="1.64173">
        <ele>321.22</ele>
        <time>2026-05-19T05:29:01Z</time>
      </trkpt>
      <trkpt lat="44.50715" lon="1.64173">
        <ele>321.22</ele>
        <time>2026-05-19T05:29:25Z</time>
      </trkpt>
      <trkpt lat="44.50714" lon="1.64173">
        <ele>321.22</ele>
        <time>2026-05-19T05:29:41Z</time>
      </trkpt>
      <trkpt lat="44.50717" lon="1.64174">
        <ele>321.22</ele>
        <time>2026-05-19T05:30:07Z</time>
      </trkpt>
      <trkpt lat="44.5072" lon="1.64174">
        <ele>321.22</ele>
        <time>2026-05-19T05:30:39Z</time>
      </trkpt>
      <trkpt lat="44.50717" lon="1.64173">
        <ele>321.22</ele>
        <time>2026-05-19T05:31:07Z</time>
      </trkpt>
      <trkpt lat="44.50717" lon="1.64174">
        <ele>321.22</ele>
        <time>2026-05-19T05:31:32Z</time>
      </trkpt>
      <trkpt lat="44.50716" lon="1.64173">
        <ele>321.22</ele>
        <time>2026-05-19T05:32:00Z</time>
      </trkpt>
      <trkpt lat="44.50714" lon="1.64172">
        <ele>321.22</ele>
        <time>2026-05-19T05:32:20Z</time>
      </trkpt>
      <trkpt lat="44.50713" lon="1.64172">
        <ele>321.7</ele>
        <time>2026-05-19T05:32:46Z</time>
      </trkpt>
      <trkpt lat="44.50712" lon="1.64171">
        <ele>322.18</ele>
        <time>2026-05-19T05:33:06Z</time>
      </trkpt>
      <trkpt lat="44.50713" lon="1.64172">
        <ele>320.74</ele>
        <time>2026-05-19T05:33:15Z</time>
      </trkpt>
      <trkpt lat="44.50715" lon="1.64172">
        <ele>320.74</ele>
        <time>2026-05-19T05:33:29Z</time>
      </trkpt>
      <trkpt lat="44.50717" lon="1.64174">
        <ele>320.74</ele>
        <time>2026-05-19T05:33:48Z</time>
      </trkpt>
      <trkpt lat="44.50716" lon="1.64174">
        <ele>320.74</ele>
        <time>2026-05-19T05:34:16Z</time>
      </trkpt>
      <trkpt lat="44.50716" lon="1.64172">
        <ele>320.74</ele>
        <time>2026-05-19T05:34:32Z</time>
      </trkpt>
      <trkpt lat="44.50715" lon="1.64173">
        <ele>320.74</ele>
        <time>2026-05-19T05:34:55Z</time>
      </trkpt>
      <trkpt lat="44.5071" lon="1.64173">
        <ele>320.74</ele>
        <time>2026-05-19T05:35:11Z</time>
      </trkpt>
      <trkpt lat="44.5071" lon="1.64173">
        <ele>320.74</ele>
        <time>2026-05-19T05:35:12Z</time>
      </trkpt>
      <trkpt lat="44.50695" lon="1.64173">
        <ele>323.62</ele>
        <time>2026-05-19T05:35:26Z</time>
      </trkpt>
      <trkpt lat="44.50693" lon="1.64173">
        <ele>323.62</ele>
        <time>2026-05-19T05:35:28Z</time>
      </trkpt>
      <trkpt lat="44.50682" lon="1.64174">
        <ele>326.02</ele>
        <time>2026-05-19T05:35:40Z</time>
      </trkpt>
      <trkpt lat="44.50678" lon="1.64174">
        <ele>326.5</ele>
        <time>2026-05-19T05:35:44Z</time>
      </trkpt>
      <trkpt lat="44.50672" lon="1.64175">
        <ele>326.99</ele>
        <time>2026-05-19T05:35:50Z</time>
      </trkpt>
      <trkpt lat="44.50667" lon="1.64174">
        <ele>327.95</ele>
        <time>2026-05-19T05:35:55Z</time>
      </trkpt>
      <trkpt lat="44.50652" lon="1.64171">
        <ele>329.87</ele>
        <time>2026-05-19T05:36:10Z</time>
      </trkpt>
      <trkpt lat="44.50641" lon="1.64173">
        <ele>332.27</ele>
        <time>2026-05-19T05:36:21Z</time>
      </trkpt>
      <trkpt lat="44.50632" lon="1.64193">
        <ele>333.23</ele>
        <time>2026-05-19T05:36:35Z</time>
      </trkpt>
      <trkpt lat="44.50623" lon="1.64216">
        <ele>333.23</ele>
        <time>2026-05-19T05:36:49Z</time>
      </trkpt>
      <trkpt lat="44.50615" lon="1.64232">
        <ele>333.71</ele>
        <time>2026-05-19T05:37:01Z</time>
      </trkpt>
      <trkpt lat="44.50603" lon="1.64254">
        <ele>333.71</ele>
        <time>2026-05-19T05:37:16Z</time>
      </trkpt>
      <trkpt lat="44.50594" lon="1.64273">
        <ele>334.68</ele>
        <time>2026-05-19T05:37:29Z</time>
      </trkpt>
      <trkpt lat="44.50586" lon="1.6429">
        <ele>334.68</ele>
        <time>2026-05-19T05:37:41Z</time>
      </trkpt>
      <trkpt lat="44.50581" lon="1.64318">
        <ele>334.68</ele>
        <time>2026-05-19T05:37:56Z</time>
      </trkpt>
      <trkpt lat="44.50578" lon="1.64347">
        <ele>334.68</ele>
        <time>2026-05-19T05:38:11Z</time>
      </trkpt>
      <trkpt lat="44.50574" lon="1.64371">
        <ele>334.68</ele>
        <time>2026-05-19T05:38:24Z</time>
      </trkpt>
      <trkpt lat="44.50573" lon="1.64376">
        <ele>333.71</ele>
        <time>2026-05-19T05:38:27Z</time>
      </trkpt>
      <trkpt lat="44.50573" lon="1.64378">
        <ele>333.71</ele>
        <time>2026-05-19T05:38:28Z</time>
      </trkpt>
      <trkpt lat="44.5057" lon="1.64408">
        <ele>332.27</ele>
        <time>2026-05-19T05:38:44Z</time>
      </trkpt>
      <trkpt lat="44.50566" lon="1.64433">
        <ele>331.31</ele>
        <time>2026-05-19T05:38:59Z</time>
      </trkpt>
      <trkpt lat="44.50558" lon="1.64456">
        <ele>331.31</ele>
        <time>2026-05-19T05:39:13Z</time>
      </trkpt>
      <trkpt lat="44.50548" lon="1.64478">
        <ele>330.83</ele>
        <time>2026-05-19T05:39:27Z</time>
      </trkpt>
      <trkpt lat="44.50539" lon="1.64497">
        <ele>330.83</ele>
        <time>2026-05-19T05:39:39Z</time>
      </trkpt>
      <trkpt lat="44.50527" lon="1.64521">
        <ele>329.87</ele>
        <time>2026-05-19T05:39:54Z</time>
      </trkpt>
      <trkpt lat="44.50513" lon="1.64546">
        <ele>328.43</ele>
        <time>2026-05-19T05:40:11Z</time>
      </trkpt>
      <trkpt lat="44.505" lon="1.64566">
        <ele>326.99</ele>
        <time>2026-05-19T05:40:25Z</time>
      </trkpt>
      <trkpt lat="44.50488" lon="1.64581">
        <ele>326.02</ele>
        <time>2026-05-19T05:40:38Z</time>
      </trkpt>
      <trkpt lat="44.50474" lon="1.64596">
        <ele>325.06</ele>
        <time>2026-05-19T05:40:51Z</time>
      </trkpt>
      <trkpt lat="44.50457" lon="1.64607">
        <ele>324.58</ele>
        <time>2026-05-19T05:41:05Z</time>
      </trkpt>
      <trkpt lat="44.50436" lon="1.6461">
        <ele>324.1</ele>
        <time>2026-05-19T05:41:21Z</time>
      </trkpt>
      <trkpt lat="44.50414" lon="1.64608">
        <ele>324.1</ele>
        <time>2026-05-19T05:41:37Z</time>
      </trkpt>
      <trkpt lat="44.5041" lon="1.64607">
        <ele>325.06</ele>
        <time>2026-05-19T05:41:40Z</time>
      </trkpt>
      <trkpt lat="44.50396" lon="1.64601">
        <ele>326.02</ele>
        <time>2026-05-19T05:41:52Z</time>
      </trkpt>
      <trkpt lat="44.50382" lon="1.64598">
        <ele>327.95</ele>
        <time>2026-05-19T05:42:06Z</time>
      </trkpt>
      <trkpt lat="44.50364" lon="1.64588">
        <ele>329.87</ele>
        <time>2026-05-19T05:42:21Z</time>
      </trkpt>
      <trkpt lat="44.50349" lon="1.64582">
        <ele>330.83</ele>
        <time>2026-05-19T05:42:35Z</time>
      </trkpt>
      <trkpt lat="44.50328" lon="1.64577">
        <ele>331.79</ele>
        <time>2026-05-19T05:42:50Z</time>
      </trkpt>
      <trkpt lat="44.5031" lon="1.64577">
        <ele>332.75</ele>
        <time>2026-05-19T05:43:04Z</time>
      </trkpt>
      <trkpt lat="44.50293" lon="1.64576">
        <ele>333.71</ele>
        <time>2026-05-19T05:43:18Z</time>
      </trkpt>
      <trkpt lat="44.50277" lon="1.64577">
        <ele>334.2</ele>
        <time>2026-05-19T05:43:31Z</time>
      </trkpt>
      <trkpt lat="44.50257" lon="1.6458">
        <ele>334.68</ele>
        <time>2026-05-19T05:43:45Z</time>
      </trkpt>
      <trkpt lat="44.50239" lon="1.6459">
        <ele>335.16</ele>
        <time>2026-05-19T05:43:58Z</time>
      </trkpt>
      <trkpt lat="44.50234" lon="1.64594">
        <ele>335.16</ele>
        <time>2026-05-19T05:44:03Z</time>
      </trkpt>
      <trkpt lat="44.50218" lon="1.64603">
        <ele>333.71</ele>
        <time>2026-05-19T05:44:16Z</time>
      </trkpt>
      <trkpt lat="44.50203" lon="1.64613">
        <ele>333.23</ele>
        <time>2026-05-19T05:44:28Z</time>
      </trkpt>
      <trkpt lat="44.50187" lon="1.64629">
        <ele>331.31</ele>
        <time>2026-05-19T05:44:42Z</time>
      </trkpt>
      <trkpt lat="44.50172" lon="1.64639">
        <ele>330.35</ele>
        <time>2026-05-19T05:44:54Z</time>
      </trkpt>
      <trkpt lat="44.50152" lon="1.64642">
        <ele>329.39</ele>
        <time>2026-05-19T05:45:09Z</time>
      </trkpt>
      <trkpt lat="44.50146" lon="1.6464">
        <ele>329.39</ele>
        <time>2026-05-19T05:45:14Z</time>
      </trkpt>
      <trkpt lat="44.50125" lon="1.64637">
        <ele>329.39</ele>
        <time>2026-05-19T05:45:28Z</time>
      </trkpt>
      <trkpt lat="44.50121" lon="1.64636">
        <ele>329.39</ele>
        <time>2026-05-19T05:45:32Z</time>
      </trkpt>
      <trkpt lat="44.50103" lon="1.64629">
        <ele>330.83</ele>
        <time>2026-05-19T05:45:46Z</time>
      </trkpt>
      <trkpt lat="44.50099" lon="1.64626">
        <ele>331.79</ele>
        <time>2026-05-19T05:45:53Z</time>
      </trkpt>
      <trkpt lat="44.50091" lon="1.64604">
        <ele>333.23</ele>
        <time>2026-05-19T05:46:10Z</time>
      </trkpt>
      <trkpt lat="44.5009" lon="1.64594">
        <ele>334.2</ele>
        <time>2026-05-19T05:46:16Z</time>
      </trkpt>
      <trkpt lat="44.50084" lon="1.64569">
        <ele>336.12</ele>
        <time>2026-05-19T05:46:32Z</time>
      </trkpt>
      <trkpt lat="44.5008" lon="1.64562">
        <ele>336.6</ele>
        <time>2026-05-19T05:46:38Z</time>
      </trkpt>
      <trkpt lat="44.50078" lon="1.64554">
        <ele>337.08</ele>
        <time>2026-05-19T05:46:43Z</time>
      </trkpt>
      <trkpt lat="44.50072" lon="1.64544">
        <ele>338.04</ele>
        <time>2026-05-19T05:46:51Z</time>
      </trkpt>
      <trkpt lat="44.50066" lon="1.64538">
        <ele>338.04</ele>
        <time>2026-05-19T05:46:56Z</time>
      </trkpt>
      <trkpt lat="44.50045" lon="1.6453">
        <ele>338.52</ele>
        <time>2026-05-19T05:47:10Z</time>
      </trkpt>
      <trkpt lat="44.50039" lon="1.64528">
        <ele>338.52</ele>
        <time>2026-05-19T05:47:15Z</time>
      </trkpt>
      <trkpt lat="44.50019" lon="1.64521">
        <ele>338.52</ele>
        <time>2026-05-19T05:47:31Z</time>
      </trkpt>
      <trkpt lat="44.50004" lon="1.64509">
        <ele>338.52</ele>
        <time>2026-05-19T05:47:44Z</time>
      </trkpt>
      <trkpt lat="44.50003" lon="1.64508">
        <ele>338.52</ele>
        <time>2026-05-19T05:47:45Z</time>
      </trkpt>
      <trkpt lat="44.49995" lon="1.64505">
        <ele>337.08</ele>
        <time>2026-05-19T05:47:50Z</time>
      </trkpt>
      <trkpt lat="44.4998" lon="1.64495">
        <ele>337.08</ele>
        <time>2026-05-19T05:48:03Z</time>
      </trkpt>
      <trkpt lat="44.49962" lon="1.6448">
        <ele>336.12</ele>
        <time>2026-05-19T05:48:17Z</time>
      </trkpt>
      <trkpt lat="44.49942" lon="1.64466">
        <ele>335.16</ele>
        <time>2026-05-19T05:48:33Z</time>
      </trkpt>
      <trkpt lat="44.49923" lon="1.6445">
        <ele>334.68</ele>
        <time>2026-05-19T05:48:50Z</time>
      </trkpt>
      <trkpt lat="44.49905" lon="1.64436">
        <ele>333.71</ele>
        <time>2026-05-19T05:49:05Z</time>
      </trkpt>
      <trkpt lat="44.49904" lon="1.64434">
        <ele>333.71</ele>
        <time>2026-05-19T05:49:07Z</time>
      </trkpt>
      <trkpt lat="44.49887" lon="1.64411">
        <ele>333.71</ele>
        <time>2026-05-19T05:49:24Z</time>
      </trkpt>
      <trkpt lat="44.4987" lon="1.64393">
        <ele>332.27</ele>
        <time>2026-05-19T05:49:39Z</time>
      </trkpt>
      <trkpt lat="44.49869" lon="1.64391">
        <ele>332.27</ele>
        <time>2026-05-19T05:49:40Z</time>
      </trkpt>
      <trkpt lat="44.49855" lon="1.64372">
        <ele>330.35</ele>
        <time>2026-05-19T05:49:55Z</time>
      </trkpt>
      <trkpt lat="44.49852" lon="1.64369">
        <ele>331.31</ele>
        <time>2026-05-19T05:49:57Z</time>
      </trkpt>
      <trkpt lat="44.49846" lon="1.64362">
        <ele>330.35</ele>
        <time>2026-05-19T05:50:03Z</time>
      </trkpt>
      <trkpt lat="44.49834" lon="1.64342">
        <ele>328.91</ele>
        <time>2026-05-19T05:50:18Z</time>
      </trkpt>
      <trkpt lat="44.49819" lon="1.64311">
        <ele>326.99</ele>
        <time>2026-05-19T05:50:37Z</time>
      </trkpt>
      <trkpt lat="44.49817" lon="1.64302">
        <ele>326.5</ele>
        <time>2026-05-19T05:50:53Z</time>
      </trkpt>
      <trkpt lat="44.49819" lon="1.64302">
        <ele>326.5</ele>
        <time>2026-05-19T05:51:22Z</time>
      </trkpt>
      <trkpt lat="44.49817" lon="1.64299">
        <ele>326.5</ele>
        <time>2026-05-19T05:51:36Z</time>
      </trkpt>
      <trkpt lat="44.49811" lon="1.64275">
        <ele>326.02</ele>
        <time>2026-05-19T05:51:51Z</time>
      </trkpt>
      <trkpt lat="44.49791" lon="1.64262">
        <ele>325.06</ele>
        <time>2026-05-19T05:52:06Z</time>
      </trkpt>
      <trkpt lat="44.49786" lon="1.64262">
        <ele>325.06</ele>
        <time>2026-05-19T05:52:11Z</time>
      </trkpt>
      <trkpt lat="44.49761" lon="1.64262">
        <ele>323.14</ele>
        <time>2026-05-19T05:52:28Z</time>
      </trkpt>
      <trkpt lat="44.49754" lon="1.6426">
        <ele>322.66</ele>
        <time>2026-05-19T05:52:46Z</time>
      </trkpt>
      <trkpt lat="44.49745" lon="1.64251">
        <ele>322.66</ele>
        <time>2026-05-19T05:53:12Z</time>
      </trkpt>
      <trkpt lat="44.49729" lon="1.64238">
        <ele>322.18</ele>
        <time>2026-05-19T05:53:27Z</time>
      </trkpt>
      <trkpt lat="44.49713" lon="1.64226">
        <ele>321.22</ele>
        <time>2026-05-19T05:53:42Z</time>
      </trkpt>
      <trkpt lat="44.49709" lon="1.64227">
        <ele>320.74</ele>
        <time>2026-05-19T05:53:46Z</time>
      </trkpt>
      <trkpt lat="44.49692" lon="1.64231">
        <ele>317.85</ele>
        <time>2026-05-19T05:54:00Z</time>
      </trkpt>
      <trkpt lat="44.49672" lon="1.6423">
        <ele>314.97</ele>
        <time>2026-05-19T05:54:16Z</time>
      </trkpt>
      <trkpt lat="44.49662" lon="1.6423">
        <ele>314.49</ele>
        <time>2026-05-19T05:54:23Z</time>
      </trkpt>
      <trkpt lat="44.4965" lon="1.64234">
        <ele>312.57</ele>
        <time>2026-05-19T05:54:38Z</time>
      </trkpt>
      <trkpt lat="44.49646" lon="1.64232">
        <ele>313.05</ele>
        <time>2026-05-19T05:55:11Z</time>
      </trkpt>
      <trkpt lat="44.49643" lon="1.64233">
        <ele>313.05</ele>
        <time>2026-05-19T05:55:27Z</time>
      </trkpt>
      <trkpt lat="44.49624" lon="1.64233">
        <ele>310.16</ele>
        <time>2026-05-19T05:55:42Z</time>
      </trkpt>
      <trkpt lat="44.49611" lon="1.64237">
        <ele>308.72</ele>
        <time>2026-05-19T05:55:52Z</time>
      </trkpt>
      <trkpt lat="44.49594" lon="1.64248">
        <ele>306.32</ele>
        <time>2026-05-19T05:56:07Z</time>
      </trkpt>
      <trkpt lat="44.49583" lon="1.64254">
        <ele>303.91</ele>
        <time>2026-05-19T05:56:16Z</time>
      </trkpt>
      <trkpt lat="44.49563" lon="1.64265">
        <ele>301.03</ele>
        <time>2026-05-19T05:56:32Z</time>
      </trkpt>
      <trkpt lat="44.49553" lon="1.64269">
        <ele>299.11</ele>
        <time>2026-05-19T05:56:41Z</time>
      </trkpt>
      <trkpt lat="44.49537" lon="1.64279">
        <ele>296.22</ele>
        <time>2026-05-19T05:56:55Z</time>
      </trkpt>
      <trkpt lat="44.49522" lon="1.6429">
        <ele>293.82</ele>
        <time>2026-05-19T05:57:07Z</time>
      </trkpt>
      <trkpt lat="44.49518" lon="1.64296">
        <ele>292.86</ele>
        <time>2026-05-19T05:57:11Z</time>
      </trkpt>
      <trkpt lat="44.49512" lon="1.64302">
        <ele>291.9</ele>
        <time>2026-05-19T05:57:17Z</time>
      </trkpt>
      <trkpt lat="44.49498" lon="1.64313">
        <ele>289.49</ele>
        <time>2026-05-19T05:57:30Z</time>
      </trkpt>
      <trkpt lat="44.49493" lon="1.64317">
        <ele>288.53</ele>
        <time>2026-05-19T05:57:35Z</time>
      </trkpt>
      <trkpt lat="44.49489" lon="1.64321">
        <ele>288.05</ele>
        <time>2026-05-19T05:57:40Z</time>
      </trkpt>
      <trkpt lat="44.4947" lon="1.64328">
        <ele>284.69</ele>
        <time>2026-05-19T05:57:55Z</time>
      </trkpt>
      <trkpt lat="44.49468" lon="1.64329">
        <ele>284.21</ele>
        <time>2026-05-19T05:57:58Z</time>
      </trkpt>
      <trkpt lat="44.49461" lon="1.64331">
        <ele>283.25</ele>
        <time>2026-05-19T05:58:03Z</time>
      </trkpt>
      <trkpt lat="44.49459" lon="1.64331">
        <ele>283.25</ele>
        <time>2026-05-19T05:58:05Z</time>
      </trkpt>
      <trkpt lat="44.4944" lon="1.64337">
        <ele>279.88</ele>
        <time>2026-05-19T05:58:20Z</time>
      </trkpt>
      <trkpt lat="44.49423" lon="1.64345">
        <ele>277.96</ele>
        <time>2026-05-19T05:58:35Z</time>
      </trkpt>
      <trkpt lat="44.49403" lon="1.6435">
        <ele>275.07</ele>
        <time>2026-05-19T05:58:49Z</time>
      </trkpt>
      <trkpt lat="44.49384" lon="1.64349">
        <ele>272.19</ele>
        <time>2026-05-19T05:59:04Z</time>
      </trkpt>
      <trkpt lat="44.49362" lon="1.64342">
        <ele>268.83</ele>
        <time>2026-05-19T05:59:20Z</time>
      </trkpt>
      <trkpt lat="44.49353" lon="1.64339">
        <ele>267.38</ele>
        <time>2026-05-19T05:59:28Z</time>
      </trkpt>
      <trkpt lat="44.49336" lon="1.6435">
        <ele>264.98</ele>
        <time>2026-05-19T05:59:42Z</time>
      </trkpt>
      <trkpt lat="44.49342" lon="1.64377">
        <ele>264.5</ele>
        <time>2026-05-19T05:59:55Z</time>
      </trkpt>
      <trkpt lat="44.49348" lon="1.644">
        <ele>263.54</ele>
        <time>2026-05-19T06:00:08Z</time>
      </trkpt>
      <trkpt lat="44.49354" lon="1.64422">
        <ele>263.06</ele>
        <time>2026-05-19T06:00:21Z</time>
      </trkpt>
      <trkpt lat="44.49365" lon="1.64444">
        <ele>263.06</ele>
        <time>2026-05-19T06:00:36Z</time>
      </trkpt>
      <trkpt lat="44.49378" lon="1.64469">
        <ele>261.14</ele>
        <time>2026-05-19T06:00:52Z</time>
      </trkpt>
      <trkpt lat="44.49389" lon="1.64492">
        <ele>258.73</ele>
        <time>2026-05-19T06:01:05Z</time>
      </trkpt>
      <trkpt lat="44.49393" lon="1.64503">
        <ele>258.25</ele>
        <time>2026-05-19T06:01:11Z</time>
      </trkpt>
      <trkpt lat="44.49396" lon="1.6452">
        <ele>257.77</ele>
        <time>2026-05-19T06:01:20Z</time>
      </trkpt>
      <trkpt lat="44.49398" lon="1.64545">
        <ele>259.21</ele>
        <time>2026-05-19T06:01:35Z</time>
      </trkpt>
      <trkpt lat="44.49401" lon="1.6457">
        <ele>261.62</ele>
        <time>2026-05-19T06:01:50Z</time>
      </trkpt>
      <trkpt lat="44.49408" lon="1.64596">
        <ele>263.54</ele>
        <time>2026-05-19T06:02:06Z</time>
      </trkpt>
      <trkpt lat="44.49415" lon="1.64619">
        <ele>265.46</ele>
        <time>2026-05-19T06:02:21Z</time>
      </trkpt>
      <trkpt lat="44.49424" lon="1.64642">
        <ele>267.86</ele>
        <time>2026-05-19T06:02:37Z</time>
      </trkpt>
      <trkpt lat="44.49436" lon="1.64671">
        <ele>269.31</ele>
        <time>2026-05-19T06:02:54Z</time>
      </trkpt>
      <trkpt lat="44.49444" lon="1.64699">
        <ele>269.79</ele>
        <time>2026-05-19T06:03:10Z</time>
      </trkpt>
      <trkpt lat="44.49447" lon="1.64717">
        <ele>269.79</ele>
        <time>2026-05-19T06:03:22Z</time>
      </trkpt>
      <trkpt lat="44.49445" lon="1.64748">
        <ele>269.79</ele>
        <time>2026-05-19T06:03:38Z</time>
      </trkpt>
      <trkpt lat="44.49437" lon="1.64764">
        <ele>268.83</ele>
        <time>2026-05-19T06:03:47Z</time>
      </trkpt>
      <trkpt lat="44.49423" lon="1.64773">
        <ele>268.35</ele>
        <time>2026-05-19T06:03:58Z</time>
      </trkpt>
      <trkpt lat="44.49421" lon="1.64774">
        <ele>268.35</ele>
        <time>2026-05-19T06:04:01Z</time>
      </trkpt>
      <trkpt lat="44.4941" lon="1.64778">
        <ele>268.35</ele>
        <time>2026-05-19T06:04:09Z</time>
      </trkpt>
      <trkpt lat="44.49391" lon="1.64785">
        <ele>266.9</ele>
        <time>2026-05-19T06:04:24Z</time>
      </trkpt>
      <trkpt lat="44.49362" lon="1.64795">
        <ele>266.42</ele>
        <time>2026-05-19T06:04:43Z</time>
      </trkpt>
      <trkpt lat="44.4934" lon="1.648">
        <ele>265.94</ele>
        <time>2026-05-19T06:05:00Z</time>
      </trkpt>
      <trkpt lat="44.49315" lon="1.64803">
        <ele>264.98</ele>
        <time>2026-05-19T06:05:17Z</time>
      </trkpt>
      <trkpt lat="44.49288" lon="1.64807">
        <ele>264.5</ele>
        <time>2026-05-19T06:05:35Z</time>
      </trkpt>
      <trkpt lat="44.49268" lon="1.64805">
        <ele>264.5</ele>
        <time>2026-05-19T06:05:50Z</time>
      </trkpt>
      <trkpt lat="44.49248" lon="1.64802">
        <ele>264.5</ele>
        <time>2026-05-19T06:06:04Z</time>
      </trkpt>
      <trkpt lat="44.49236" lon="1.648">
        <ele>265.94</ele>
        <time>2026-05-19T06:06:15Z</time>
      </trkpt>
      <trkpt lat="44.49215" lon="1.64797">
        <ele>266.42</ele>
        <time>2026-05-19T06:06:32Z</time>
      </trkpt>
      <trkpt lat="44.49192" lon="1.64798">
        <ele>268.35</ele>
        <time>2026-05-19T06:06:50Z</time>
      </trkpt>
      <trkpt lat="44.49167" lon="1.64801">
        <ele>269.31</ele>
        <time>2026-05-19T06:07:08Z</time>
      </trkpt>
      <trkpt lat="44.49155" lon="1.64812">
        <ele>271.23</ele>
        <time>2026-05-19T06:07:24Z</time>
      </trkpt>
      <trkpt lat="44.49157" lon="1.64814">
        <ele>269.31</ele>
        <time>2026-05-19T06:07:30Z</time>
      </trkpt>
      <trkpt lat="44.49152" lon="1.64812">
        <ele>270.27</ele>
        <time>2026-05-19T06:07:53Z</time>
      </trkpt>
      <trkpt lat="44.49144" lon="1.64813">
        <ele>270.27</ele>
        <time>2026-05-19T06:08:09Z</time>
      </trkpt>
      <trkpt lat="44.49135" lon="1.64819">
        <ele>271.71</ele>
        <time>2026-05-19T06:08:17Z</time>
      </trkpt>
      <trkpt lat="44.49117" lon="1.64829">
        <ele>272.67</ele>
        <time>2026-05-19T06:08:33Z</time>
      </trkpt>
      <trkpt lat="44.491" lon="1.64835">
        <ele>274.11</ele>
        <time>2026-05-19T06:08:48Z</time>
      </trkpt>
      <trkpt lat="44.49079" lon="1.64842">
        <ele>275.07</ele>
        <time>2026-05-19T06:09:05Z</time>
      </trkpt>
      <trkpt lat="44.49057" lon="1.64847">
        <ele>276.52</ele>
        <time>2026-05-19T06:09:22Z</time>
      </trkpt>
      <trkpt lat="44.49036" lon="1.64856">
        <ele>277.48</ele>
        <time>2026-05-19T06:09:39Z</time>
      </trkpt>
      <trkpt lat="44.49013" lon="1.64861">
        <ele>278.92</ele>
        <time>2026-05-19T06:09:59Z</time>
      </trkpt>
      <trkpt lat="44.48984" lon="1.64865">
        <ele>280.36</ele>
        <time>2026-05-19T06:10:19Z</time>
      </trkpt>
      <trkpt lat="44.48959" lon="1.64866">
        <ele>280.84</ele>
        <time>2026-05-19T06:10:35Z</time>
      </trkpt>
      <trkpt lat="44.48936" lon="1.64871">
        <ele>280.84</ele>
        <time>2026-05-19T06:10:52Z</time>
      </trkpt>
      <trkpt lat="44.48918" lon="1.64873">
        <ele>280.84</ele>
        <time>2026-05-19T06:11:05Z</time>
      </trkpt>
      <trkpt lat="44.48895" lon="1.64863">
        <ele>280.84</ele>
        <time>2026-05-19T06:11:22Z</time>
      </trkpt>
      <trkpt lat="44.4887" lon="1.64856">
        <ele>279.88</ele>
        <time>2026-05-19T06:11:40Z</time>
      </trkpt>
      <trkpt lat="44.48845" lon="1.64848">
        <ele>278.92</ele>
        <time>2026-05-19T06:11:56Z</time>
      </trkpt>
      <trkpt lat="44.48823" lon="1.64836">
        <ele>277.96</ele>
        <time>2026-05-19T06:12:15Z</time>
      </trkpt>
      <trkpt lat="44.48802" lon="1.6482">
        <ele>277.48</ele>
        <time>2026-05-19T06:12:29Z</time>
      </trkpt>
      <trkpt lat="44.48782" lon="1.64807">
        <ele>276.52</ele>
        <time>2026-05-19T06:12:47Z</time>
      </trkpt>
      <trkpt lat="44.48758" lon="1.64796">
        <ele>276.04</ele>
        <time>2026-05-19T06:13:03Z</time>
      </trkpt>
      <trkpt lat="44.48738" lon="1.64795">
        <ele>274.11</ele>
        <time>2026-05-19T06:13:19Z</time>
      </trkpt>
      <trkpt lat="44.48712" lon="1.64793">
        <ele>271.71</ele>
        <time>2026-05-19T06:13:37Z</time>
      </trkpt>
      <trkpt lat="44.48692" lon="1.64792">
        <ele>269.31</ele>
        <time>2026-05-19T06:13:52Z</time>
      </trkpt>
      <trkpt lat="44.48688" lon="1.6479">
        <ele>269.79</ele>
        <time>2026-05-19T06:13:55Z</time>
      </trkpt>
      <trkpt lat="44.48667" lon="1.64789">
        <ele>267.38</ele>
        <time>2026-05-19T06:14:11Z</time>
      </trkpt>
      <trkpt lat="44.48646" lon="1.64782">
        <ele>264.5</ele>
        <time>2026-05-19T06:14:28Z</time>
      </trkpt>
      <trkpt lat="44.48629" lon="1.64775">
        <ele>262.58</ele>
        <time>2026-05-19T06:14:41Z</time>
      </trkpt>
      <trkpt lat="44.48614" lon="1.64772">
        <ele>260.17</ele>
        <time>2026-05-19T06:14:58Z</time>
      </trkpt>
      <trkpt lat="44.4861" lon="1.64769">
        <ele>259.21</ele>
        <time>2026-05-19T06:15:07Z</time>
      </trkpt>
      <trkpt lat="44.48609" lon="1.64769">
        <ele>259.21</ele>
        <time>2026-05-19T06:15:08Z</time>
      </trkpt>
      <trkpt lat="44.48607" lon="1.64769">
        <ele>258.73</ele>
        <time>2026-05-19T06:15:09Z</time>
      </trkpt>
      <trkpt lat="44.48586" lon="1.64778">
        <ele>256.33</ele>
        <time>2026-05-19T06:15:26Z</time>
      </trkpt>
      <trkpt lat="44.48571" lon="1.64797">
        <ele>253.44</ele>
        <time>2026-05-19T06:15:41Z</time>
      </trkpt>
      <trkpt lat="44.48559" lon="1.64819">
        <ele>250.56</ele>
        <time>2026-05-19T06:15:56Z</time>
      </trkpt>
      <trkpt lat="44.48549" lon="1.64842">
        <ele>248.16</ele>
        <time>2026-05-19T06:16:11Z</time>
      </trkpt>
      <trkpt lat="44.48546" lon="1.64842">
        <ele>247.68</ele>
        <time>2026-05-19T06:16:14Z</time>
      </trkpt>
      <trkpt lat="44.48545" lon="1.64841">
        <ele>247.68</ele>
        <time>2026-05-19T06:16:15Z</time>
      </trkpt>
      <trkpt lat="44.48531" lon="1.64837">
        <ele>244.31</ele>
        <time>2026-05-19T06:16:27Z</time>
      </trkpt>
      <trkpt lat="44.48527" lon="1.64831">
        <ele>242.87</ele>
        <time>2026-05-19T06:16:34Z</time>
      </trkpt>
      <trkpt lat="44.48521" lon="1.64808">
        <ele>239.51</ele>
        <time>2026-05-19T06:16:49Z</time>
      </trkpt>
      <trkpt lat="44.4852" lon="1.64804">
        <ele>239.51</ele>
        <time>2026-05-19T06:16:51Z</time>
      </trkpt>
      <trkpt lat="44.48519" lon="1.64802">
        <ele>239.02</ele>
        <time>2026-05-19T06:16:52Z</time>
      </trkpt>
      <trkpt lat="44.48517" lon="1.64801">
        <ele>239.02</ele>
        <time>2026-05-19T06:16:53Z</time>
      </trkpt>
      <trkpt lat="44.48516" lon="1.64801">
        <ele>238.54</ele>
        <time>2026-05-19T06:16:54Z</time>
      </trkpt>
      <trkpt lat="44.48514" lon="1.64801">
        <ele>238.54</ele>
        <time>2026-05-19T06:16:55Z</time>
      </trkpt>
      <trkpt lat="44.48513" lon="1.64802">
        <ele>238.54</ele>
        <time>2026-05-19T06:16:56Z</time>
      </trkpt>
      <trkpt lat="44.48509" lon="1.64809">
        <ele>237.58</ele>
        <time>2026-05-19T06:17:01Z</time>
      </trkpt>
      <trkpt lat="44.48507" lon="1.64811">
        <ele>237.1</ele>
        <time>2026-05-19T06:17:02Z</time>
      </trkpt>
      <trkpt lat="44.48499" lon="1.64828">
        <ele>236.14</ele>
        <time>2026-05-19T06:17:13Z</time>
      </trkpt>
      <trkpt lat="44.48499" lon="1.6483">
        <ele>235.66</ele>
        <time>2026-05-19T06:17:14Z</time>
      </trkpt>
      <trkpt lat="44.48499" lon="1.64832">
        <ele>235.66</ele>
        <time>2026-05-19T06:17:15Z</time>
      </trkpt>
      <trkpt lat="44.48495" lon="1.6484">
        <ele>234.22</ele>
        <time>2026-05-19T06:17:21Z</time>
      </trkpt>
      <trkpt lat="44.48492" lon="1.64841">
        <ele>234.22</ele>
        <time>2026-05-19T06:17:23Z</time>
      </trkpt>
      <trkpt lat="44.4849" lon="1.64841">
        <ele>233.26</ele>
        <time>2026-05-19T06:17:24Z</time>
      </trkpt>
      <trkpt lat="44.48484" lon="1.64848">
        <ele>232.3</ele>
        <time>2026-05-19T06:17:30Z</time>
      </trkpt>
      <trkpt lat="44.48482" lon="1.64853">
        <ele>231.81</ele>
        <time>2026-05-19T06:17:33Z</time>
      </trkpt>
      <trkpt lat="44.48481" lon="1.64855">
        <ele>231.81</ele>
        <time>2026-05-19T06:17:34Z</time>
      </trkpt>
      <trkpt lat="44.48479" lon="1.64856">
        <ele>231.33</ele>
        <time>2026-05-19T06:17:35Z</time>
      </trkpt>
      <trkpt lat="44.48467" lon="1.64859">
        <ele>228.45</ele>
        <time>2026-05-19T06:17:45Z</time>
      </trkpt>
      <trkpt lat="44.48463" lon="1.64862">
        <ele>227.49</ele>
        <time>2026-05-19T06:17:50Z</time>
      </trkpt>
      <trkpt lat="44.48462" lon="1.64862">
        <ele>227.01</ele>
        <time>2026-05-19T06:17:51Z</time>
      </trkpt>
      <trkpt lat="44.48458" lon="1.64863">
        <ele>226.05</ele>
        <time>2026-05-19T06:17:55Z</time>
      </trkpt>
      <trkpt lat="44.48456" lon="1.64863">
        <ele>225.57</ele>
        <time>2026-05-19T06:17:56Z</time>
      </trkpt>
      <trkpt lat="44.48455" lon="1.64864">
        <ele>225.57</ele>
        <time>2026-05-19T06:17:57Z</time>
      </trkpt>
      <trkpt lat="44.48442" lon="1.64863">
        <ele>222.68</ele>
        <time>2026-05-19T06:18:09Z</time>
      </trkpt>
      <trkpt lat="44.48441" lon="1.64863">
        <ele>222.68</ele>
        <time>2026-05-19T06:18:10Z</time>
      </trkpt>
      <trkpt lat="44.48439" lon="1.64862">
        <ele>221.72</ele>
        <time>2026-05-19T06:18:27Z</time>
      </trkpt>
      <trkpt lat="44.48435" lon="1.64865">
        <ele>221.24</ele>
        <time>2026-05-19T06:18:54Z</time>
      </trkpt>
      <trkpt lat="44.48423" lon="1.64877">
        <ele>218.84</ele>
        <time>2026-05-19T06:19:08Z</time>
      </trkpt>
      <trkpt lat="44.48407" lon="1.64886">
        <ele>215.47</ele>
        <time>2026-05-19T06:19:22Z</time>
      </trkpt>
      <trkpt lat="44.48393" lon="1.64899">
        <ele>212.59</ele>
        <time>2026-05-19T06:19:36Z</time>
      </trkpt>
      <trkpt lat="44.48392" lon="1.64897">
        <ele>212.59</ele>
        <time>2026-05-19T06:19:37Z</time>
      </trkpt>
      <trkpt lat="44.48391" lon="1.64896">
        <ele>212.11</ele>
        <time>2026-05-19T06:19:38Z</time>
      </trkpt>
      <trkpt lat="44.4839" lon="1.64894">
        <ele>211.15</ele>
        <time>2026-05-19T06:19:40Z</time>
      </trkpt>
      <trkpt lat="44.48389" lon="1.64893">
        <ele>211.15</ele>
        <time>2026-05-19T06:19:41Z</time>
      </trkpt>
      <trkpt lat="44.48389" lon="1.64891">
        <ele>211.15</ele>
        <time>2026-05-19T06:19:42Z</time>
      </trkpt>
      <trkpt lat="44.48388" lon="1.64884">
        <ele>210.67</ele>
        <time>2026-05-19T06:19:47Z</time>
      </trkpt>
      <trkpt lat="44.48388" lon="1.64882">
        <ele>210.19</ele>
        <time>2026-05-19T06:19:48Z</time>
      </trkpt>
      <trkpt lat="44.48393" lon="1.64857">
        <ele>207.78</ele>
        <time>2026-05-19T06:20:03Z</time>
      </trkpt>
      <trkpt lat="44.48396" lon="1.64828">
        <ele>204.9</ele>
        <time>2026-05-19T06:20:19Z</time>
      </trkpt>
      <trkpt lat="44.48398" lon="1.64802">
        <ele>202.49</ele>
        <time>2026-05-19T06:20:33Z</time>
      </trkpt>
      <trkpt lat="44.48399" lon="1.64778">
        <ele>199.61</ele>
        <time>2026-05-19T06:20:47Z</time>
      </trkpt>
      <trkpt lat="44.48392" lon="1.64784">
        <ele>198.65</ele>
        <time>2026-05-19T06:20:54Z</time>
      </trkpt>
      <trkpt lat="44.48377" lon="1.648">
        <ele>196.73</ele>
        <time>2026-05-19T06:21:08Z</time>
      </trkpt>
      <trkpt lat="44.4836" lon="1.64813">
        <ele>193.84</ele>
        <time>2026-05-19T06:21:22Z</time>
      </trkpt>
      <trkpt lat="44.48358" lon="1.64815">
        <ele>193.36</ele>
        <time>2026-05-19T06:21:25Z</time>
      </trkpt>
      <trkpt lat="44.48346" lon="1.64828">
        <ele>191.44</ele>
        <time>2026-05-19T06:21:36Z</time>
      </trkpt>
      <trkpt lat="44.48338" lon="1.64842">
        <ele>191.44</ele>
        <time>2026-05-19T06:21:45Z</time>
      </trkpt>
      <trkpt lat="44.48336" lon="1.64844">
        <ele>191.44</ele>
        <time>2026-05-19T06:21:47Z</time>
      </trkpt>
      <trkpt lat="44.48325" lon="1.64856">
        <ele>189.52</ele>
        <time>2026-05-19T06:21:57Z</time>
      </trkpt>
      <trkpt lat="44.48317" lon="1.6486">
        <ele>188.08</ele>
        <time>2026-05-19T06:22:04Z</time>
      </trkpt>
      <trkpt lat="44.48297" lon="1.64872">
        <ele>185.67</ele>
        <time>2026-05-19T06:22:21Z</time>
      </trkpt>
      <trkpt lat="44.48293" lon="1.64875">
        <ele>185.19</ele>
        <time>2026-05-19T06:22:25Z</time>
      </trkpt>
      <trkpt lat="44.48289" lon="1.64878">
        <ele>184.71</ele>
        <time>2026-05-19T06:22:28Z</time>
      </trkpt>
      <trkpt lat="44.48271" lon="1.64896">
        <ele>183.27</ele>
        <time>2026-05-19T06:22:45Z</time>
      </trkpt>
      <trkpt lat="44.48255" lon="1.64907">
        <ele>181.35</ele>
        <time>2026-05-19T06:22:58Z</time>
      </trkpt>
      <trkpt lat="44.48234" lon="1.64921">
        <ele>178.46</ele>
        <time>2026-05-19T06:23:16Z</time>
      </trkpt>
      <trkpt lat="44.48224" lon="1.64928">
        <ele>177.02</ele>
        <time>2026-05-19T06:23:24Z</time>
      </trkpt>
      <trkpt lat="44.48221" lon="1.6493">
        <ele>176.54</ele>
        <time>2026-05-19T06:23:26Z</time>
      </trkpt>
      <trkpt lat="44.48209" lon="1.64935">
        <ele>175.1</ele>
        <time>2026-05-19T06:23:36Z</time>
      </trkpt>
      <trkpt lat="44.48188" lon="1.64945">
        <ele>173.17</ele>
        <time>2026-05-19T06:23:52Z</time>
      </trkpt>
      <trkpt lat="44.48167" lon="1.6496">
        <ele>172.21</ele>
        <time>2026-05-19T06:24:09Z</time>
      </trkpt>
      <trkpt lat="44.48154" lon="1.64973">
        <ele>171.25</ele>
        <time>2026-05-19T06:24:20Z</time>
      </trkpt>
      <trkpt lat="44.48133" lon="1.64981">
        <ele>169.33</ele>
        <time>2026-05-19T06:24:36Z</time>
      </trkpt>
      <trkpt lat="44.48114" lon="1.64991">
        <ele>167.89</ele>
        <time>2026-05-19T06:24:51Z</time>
      </trkpt>
      <trkpt lat="44.48098" lon="1.65004">
        <ele>167.41</ele>
        <time>2026-05-19T06:25:07Z</time>
      </trkpt>
      <trkpt lat="44.48095" lon="1.65008">
        <ele>167.41</ele>
        <time>2026-05-19T06:25:32Z</time>
      </trkpt>
      <trkpt lat="44.4808" lon="1.65011">
        <ele>165.96</ele>
        <time>2026-05-19T06:25:48Z</time>
      </trkpt>
      <trkpt lat="44.48062" lon="1.65018">
        <ele>164.04</ele>
        <time>2026-05-19T06:26:03Z</time>
      </trkpt>
      <trkpt lat="44.4806" lon="1.65017">
        <ele>163.56</ele>
        <time>2026-05-19T06:26:05Z</time>
      </trkpt>
      <trkpt lat="44.48051" lon="1.65017">
        <ele>163.56</ele>
        <time>2026-05-19T06:26:11Z</time>
      </trkpt>
      <trkpt lat="44.48039" lon="1.65025">
        <ele>163.08</ele>
        <time>2026-05-19T06:26:21Z</time>
      </trkpt>
      <trkpt lat="44.48031" lon="1.65034">
        <ele>163.08</ele>
        <time>2026-05-19T06:26:27Z</time>
      </trkpt>
      <trkpt lat="44.4801" lon="1.65042">
        <ele>162.6</ele>
        <time>2026-05-19T06:26:44Z</time>
      </trkpt>
      <trkpt lat="44.47987" lon="1.65047">
        <ele>161.64</ele>
        <time>2026-05-19T06:26:59Z</time>
      </trkpt>
      <trkpt lat="44.47973" lon="1.65067">
        <ele>161.16</ele>
        <time>2026-05-19T06:27:17Z</time>
      </trkpt>
      <trkpt lat="44.47964" lon="1.65068">
        <ele>161.16</ele>
        <time>2026-05-19T06:27:23Z</time>
      </trkpt>
      <trkpt lat="44.47949" lon="1.65075">
        <ele>161.16</ele>
        <time>2026-05-19T06:27:36Z</time>
      </trkpt>
      <trkpt lat="44.47924" lon="1.65085">
        <ele>159.24</ele>
        <time>2026-05-19T06:27:53Z</time>
      </trkpt>
      <trkpt lat="44.4791" lon="1.65083">
        <ele>157.31</ele>
        <time>2026-05-19T06:28:03Z</time>
      </trkpt>
      <trkpt lat="44.47901" lon="1.65068">
        <ele>154.43</ele>
        <time>2026-05-19T06:28:16Z</time>
      </trkpt>
      <trkpt lat="44.47899" lon="1.65044">
        <ele>152.99</ele>
        <time>2026-05-19T06:28:30Z</time>
      </trkpt>
      <trkpt lat="44.47899" lon="1.65033">
        <ele>151.54</ele>
        <time>2026-05-19T06:28:37Z</time>
      </trkpt>
      <trkpt lat="44.47897" lon="1.65012">
        <ele>149.62</ele>
        <time>2026-05-19T06:28:48Z</time>
      </trkpt>
      <trkpt lat="44.47898" lon="1.64986">
        <ele>146.74</ele>
        <time>2026-05-19T06:29:03Z</time>
      </trkpt>
      <trkpt lat="44.47903" lon="1.64972">
        <ele>145.78</ele>
        <time>2026-05-19T06:29:11Z</time>
      </trkpt>
      <trkpt lat="44.4792" lon="1.64961">
        <ele>143.37</ele>
        <time>2026-05-19T06:29:25Z</time>
      </trkpt>
      <trkpt lat="44.47924" lon="1.64957">
        <ele>142.41</ele>
        <time>2026-05-19T06:29:30Z</time>
      </trkpt>
      <trkpt lat="44.47927" lon="1.64942">
        <ele>140.97</ele>
        <time>2026-05-19T06:29:40Z</time>
      </trkpt>
      <trkpt lat="44.47942" lon="1.64918">
        <ele>140.01</ele>
        <time>2026-05-19T06:29:56Z</time>
      </trkpt>
      <trkpt lat="44.47958" lon="1.64908">
        <ele>140.01</ele>
        <time>2026-05-19T06:30:10Z</time>
      </trkpt>
      <trkpt lat="44.47967" lon="1.64902">
        <ele>140.01</ele>
        <time>2026-05-19T06:30:18Z</time>
      </trkpt>
      <trkpt lat="44.47973" lon="1.64899">
        <ele>140.01</ele>
        <time>2026-05-19T06:30:23Z</time>
      </trkpt>
      <trkpt lat="44.47994" lon="1.64892">
        <ele>140.01</ele>
        <time>2026-05-19T06:30:39Z</time>
      </trkpt>
      <trkpt lat="44.48017" lon="1.64881">
        <ele>139.53</ele>
        <time>2026-05-19T06:30:56Z</time>
      </trkpt>
      <trkpt lat="44.48038" lon="1.64873">
        <ele>139.53</ele>
        <time>2026-05-19T06:31:11Z</time>
      </trkpt>
      <trkpt lat="44.48055" lon="1.64865">
        <ele>139.53</ele>
        <time>2026-05-19T06:31:25Z</time>
      </trkpt>
      <trkpt lat="44.48076" lon="1.64856">
        <ele>139.53</ele>
        <time>2026-05-19T06:31:41Z</time>
      </trkpt>
      <trkpt lat="44.48099" lon="1.64845">
        <ele>139.53</ele>
        <time>2026-05-19T06:31:58Z</time>
      </trkpt>
      <trkpt lat="44.4812" lon="1.64835">
        <ele>139.53</ele>
        <time>2026-05-19T06:32:15Z</time>
      </trkpt>
      <trkpt lat="44.48141" lon="1.64823">
        <ele>139.53</ele>
        <time>2026-05-19T06:32:33Z</time>
      </trkpt>
      <trkpt lat="44.48146" lon="1.64821">
        <ele>139.53</ele>
        <time>2026-05-19T06:32:36Z</time>
      </trkpt>
      <trkpt lat="44.48163" lon="1.64813">
        <ele>139.53</ele>
        <time>2026-05-19T06:32:49Z</time>
      </trkpt>
      <trkpt lat="44.48182" lon="1.64803">
        <ele>139.53</ele>
        <time>2026-05-19T06:33:04Z</time>
      </trkpt>
      <trkpt lat="44.48198" lon="1.64791">
        <ele>139.53</ele>
        <time>2026-05-19T06:33:20Z</time>
      </trkpt>
      <trkpt lat="44.48206" lon="1.64786">
        <ele>139.53</ele>
        <time>2026-05-19T06:33:29Z</time>
      </trkpt>
      <trkpt lat="44.48226" lon="1.64776">
        <ele>139.53</ele>
        <time>2026-05-19T06:33:46Z</time>
      </trkpt>
      <trkpt lat="44.48243" lon="1.64768">
        <ele>139.05</ele>
        <time>2026-05-19T06:33:59Z</time>
      </trkpt>
      <trkpt lat="44.48269" lon="1.64765">
        <ele>139.05</ele>
        <time>2026-05-19T06:34:18Z</time>
      </trkpt>
      <trkpt lat="44.48294" lon="1.64752">
        <ele>139.05</ele>
        <time>2026-05-19T06:34:37Z</time>
      </trkpt>
      <trkpt lat="44.48315" lon="1.64739">
        <ele>139.05</ele>
        <time>2026-05-19T06:34:55Z</time>
      </trkpt>
      <trkpt lat="44.48337" lon="1.64723">
        <ele>139.05</ele>
        <time>2026-05-19T06:35:11Z</time>
      </trkpt>
      <trkpt lat="44.48343" lon="1.64719">
        <ele>139.05</ele>
        <time>2026-05-19T06:35:15Z</time>
      </trkpt>
      <trkpt lat="44.48365" lon="1.64707">
        <ele>139.05</ele>
        <time>2026-05-19T06:35:29Z</time>
      </trkpt>
      <trkpt lat="44.48379" lon="1.64702">
        <ele>139.05</ele>
        <time>2026-05-19T06:35:43Z</time>
      </trkpt>
      <trkpt lat="44.48392" lon="1.64672">
        <ele>139.05</ele>
        <time>2026-05-19T06:36:03Z</time>
      </trkpt>
      <trkpt lat="44.48398" lon="1.64668">
        <ele>139.05</ele>
        <time>2026-05-19T06:36:13Z</time>
      </trkpt>
      <trkpt lat="44.48399" lon="1.64669">
        <ele>139.05</ele>
        <time>2026-05-19T06:36:14Z</time>
      </trkpt>
      <trkpt lat="44.48429" lon="1.64664">
        <ele>139.05</ele>
        <time>2026-05-19T06:36:36Z</time>
      </trkpt>
      <trkpt lat="44.48439" lon="1.64657">
        <ele>139.05</ele>
        <time>2026-05-19T06:36:46Z</time>
      </trkpt>
      <trkpt lat="44.4844" lon="1.64655">
        <ele>139.05</ele>
        <time>2026-05-19T06:36:47Z</time>
      </trkpt>
      <trkpt lat="44.48461" lon="1.64639">
        <ele>139.05</ele>
        <time>2026-05-19T06:37:02Z</time>
      </trkpt>
      <trkpt lat="44.48463" lon="1.64638">
        <ele>139.05</ele>
        <time>2026-05-19T06:37:03Z</time>
      </trkpt>
      <trkpt lat="44.48464" lon="1.64637">
        <ele>139.05</ele>
        <time>2026-05-19T06:37:04Z</time>
      </trkpt>
      <trkpt lat="44.48466" lon="1.64636">
        <ele>139.05</ele>
        <time>2026-05-19T06:37:05Z</time>
      </trkpt>
      <trkpt lat="44.48467" lon="1.64635">
        <ele>139.05</ele>
        <time>2026-05-19T06:37:06Z</time>
      </trkpt>
      <trkpt lat="44.48478" lon="1.64623">
        <ele>139.05</ele>
        <time>2026-05-19T06:37:20Z</time>
      </trkpt>
      <trkpt lat="44.48479" lon="1.64622">
        <ele>139.05</ele>
        <time>2026-05-19T06:37:21Z</time>
      </trkpt>
      <trkpt lat="44.48481" lon="1.64621">
        <ele>139.05</ele>
        <time>2026-05-19T06:37:22Z</time>
      </trkpt>
      <trkpt lat="44.48483" lon="1.6462">
        <ele>139.05</ele>
        <time>2026-05-19T06:37:23Z</time>
      </trkpt>
      <trkpt lat="44.48485" lon="1.64619">
        <ele>139.05</ele>
        <time>2026-05-19T06:37:24Z</time>
      </trkpt>
      <trkpt lat="44.48486" lon="1.64617">
        <ele>139.05</ele>
        <time>2026-05-19T06:37:25Z</time>
      </trkpt>
      <trkpt lat="44.48503" lon="1.64598">
        <ele>138.57</ele>
        <time>2026-05-19T06:37:39Z</time>
      </trkpt>
      <trkpt lat="44.48519" lon="1.64578">
        <ele>138.57</ele>
        <time>2026-05-19T06:37:56Z</time>
      </trkpt>
      <trkpt lat="44.48532" lon="1.64562">
        <ele>138.57</ele>
        <time>2026-05-19T06:38:10Z</time>
      </trkpt>
      <trkpt lat="44.48545" lon="1.64545">
        <ele>138.57</ele>
        <time>2026-05-19T06:38:22Z</time>
      </trkpt>
      <trkpt lat="44.48553" lon="1.64524">
        <ele>138.57</ele>
        <time>2026-05-19T06:38:36Z</time>
      </trkpt>
      <trkpt lat="44.48568" lon="1.64516">
        <ele>138.57</ele>
        <time>2026-05-19T06:38:58Z</time>
      </trkpt>
      <trkpt lat="44.48572" lon="1.64513">
        <ele>138.57</ele>
        <time>2026-05-19T06:39:00Z</time>
      </trkpt>
      <trkpt lat="44.48577" lon="1.64506">
        <ele>138.09</ele>
        <time>2026-05-19T06:39:04Z</time>
      </trkpt>
      <trkpt lat="44.48584" lon="1.64459">
        <ele>138.09</ele>
        <time>2026-05-19T06:39:21Z</time>
      </trkpt>
      <trkpt lat="44.48584" lon="1.64455">
        <ele>138.09</ele>
        <time>2026-05-19T06:39:22Z</time>
      </trkpt>
      <trkpt lat="44.48597" lon="1.64424">
        <ele>138.09</ele>
        <time>2026-05-19T06:39:37Z</time>
      </trkpt>
      <trkpt lat="44.48599" lon="1.64414">
        <ele>138.09</ele>
        <time>2026-05-19T06:39:40Z</time>
      </trkpt>
      <trkpt lat="44.48599" lon="1.64407">
        <ele>138.09</ele>
        <time>2026-05-19T06:39:44Z</time>
      </trkpt>
      <trkpt lat="44.48601" lon="1.64406">
        <ele>139.05</ele>
        <time>2026-05-19T06:39:45Z</time>
      </trkpt>
      <trkpt lat="44.48602" lon="1.64404">
        <ele>139.05</ele>
        <time>2026-05-19T06:39:46Z</time>
      </trkpt>
      <trkpt lat="44.48605" lon="1.64395">
        <ele>139.05</ele>
        <time>2026-05-19T06:39:53Z</time>
      </trkpt>
      <trkpt lat="44.48607" lon="1.64385">
        <ele>139.05</ele>
        <time>2026-05-19T06:40:00Z</time>
      </trkpt>
      <trkpt lat="44.48608" lon="1.64383">
        <ele>139.05</ele>
        <time>2026-05-19T06:40:01Z</time>
      </trkpt>
      <trkpt lat="44.48617" lon="1.64362">
        <ele>139.53</ele>
        <time>2026-05-19T06:40:16Z</time>
      </trkpt>
      <trkpt lat="44.4862" lon="1.64348">
        <ele>139.53</ele>
        <time>2026-05-19T06:40:21Z</time>
      </trkpt>
      <trkpt lat="44.4863" lon="1.64325">
        <ele>140.01</ele>
        <time>2026-05-19T06:40:34Z</time>
      </trkpt>
      <trkpt lat="44.4863" lon="1.64325">
        <ele>140.01</ele>
        <time>2026-05-19T06:40:46Z</time>
      </trkpt>
      <trkpt lat="44.48629" lon="1.64326">
        <ele>140.01</ele>
        <time>2026-05-19T06:40:47Z</time>
      </trkpt>
      <trkpt lat="44.48628" lon="1.64328">
        <ele>140.01</ele>
        <time>2026-05-19T06:40:48Z</time>
      </trkpt>
      <trkpt lat="44.48627" lon="1.64329">
        <ele>140.01</ele>
        <time>2026-05-19T06:40:49Z</time>
      </trkpt>
      <trkpt lat="44.48621" lon="1.64336">
        <ele>140.01</ele>
        <time>2026-05-19T06:40:54Z</time>
      </trkpt>
      <trkpt lat="44.48613" lon="1.64331">
        <ele>140.01</ele>
        <time>2026-05-19T06:41:10Z</time>
      </trkpt>
      <trkpt lat="44.48596" lon="1.64315">
        <ele>140.49</ele>
        <time>2026-05-19T06:41:26Z</time>
      </trkpt>
      <trkpt lat="44.48587" lon="1.64307">
        <ele>140.49</ele>
        <time>2026-05-19T06:41:36Z</time>
      </trkpt>
      <trkpt lat="44.48573" lon="1.64293">
        <ele>140.97</ele>
        <time>2026-05-19T06:41:50Z</time>
      </trkpt>
      <trkpt lat="44.48569" lon="1.64287">
        <ele>140.97</ele>
        <time>2026-05-19T06:41:54Z</time>
      </trkpt>
      <trkpt lat="44.48554" lon="1.64272">
        <ele>140.97</ele>
        <time>2026-05-19T06:42:08Z</time>
      </trkpt>
      <trkpt lat="44.48539" lon="1.64257">
        <ele>140.97</ele>
        <time>2026-05-19T06:42:23Z</time>
      </trkpt>
      <trkpt lat="44.48529" lon="1.64246">
        <ele>139.53</ele>
        <time>2026-05-19T06:42:32Z</time>
      </trkpt>
      <trkpt lat="44.48528" lon="1.6424">
        <ele>139.53</ele>
        <time>2026-05-19T06:42:46Z</time>
      </trkpt>
      <trkpt lat="44.48531" lon="1.64244">
        <ele>139.53</ele>
        <time>2026-05-19T06:43:02Z</time>
      </trkpt>
      <trkpt lat="44.48531" lon="1.64245">
        <ele>139.05</ele>
        <time>2026-05-19T06:43:10Z</time>
      </trkpt>
      <trkpt lat="44.48509" lon="1.64225">
        <ele>139.05</ele>
        <time>2026-05-19T06:43:26Z</time>
      </trkpt>
      <trkpt lat="44.48501" lon="1.6422">
        <ele>139.05</ele>
        <time>2026-05-19T06:43:38Z</time>
      </trkpt>
      <trkpt lat="44.48502" lon="1.64219">
        <ele>139.05</ele>
        <time>2026-05-19T06:43:45Z</time>
      </trkpt>
      <trkpt lat="44.48493" lon="1.64211">
        <ele>139.05</ele>
        <time>2026-05-19T06:43:55Z</time>
      </trkpt>
      <trkpt lat="44.48493" lon="1.64207">
        <ele>139.05</ele>
        <time>2026-05-19T06:44:05Z</time>
      </trkpt>
      <trkpt lat="44.48492" lon="1.64206">
        <ele>139.05</ele>
        <time>2026-05-19T06:44:13Z</time>
      </trkpt>
      <trkpt lat="44.4851" lon="1.64222">
        <ele>137.13</ele>
        <time>2026-05-19T06:44:29Z</time>
      </trkpt>
      <trkpt lat="44.48521" lon="1.64234">
        <ele>135.68</ele>
        <time>2026-05-19T06:44:40Z</time>
      </trkpt>
      <trkpt lat="44.48533" lon="1.64249">
        <ele>133.76</ele>
        <time>2026-05-19T06:44:58Z</time>
      </trkpt>
      <trkpt lat="44.48529" lon="1.64254">
        <ele>133.28</ele>
        <time>2026-05-19T06:45:33Z</time>
      </trkpt>
      <trkpt lat="44.48529" lon="1.64255">
        <ele>133.28</ele>
        <time>2026-05-19T06:45:45Z</time>
      </trkpt>
      <trkpt lat="44.48528" lon="1.64279">
        <ele>132.8</ele>
        <time>2026-05-19T06:46:00Z</time>
      </trkpt>
      <trkpt lat="44.48526" lon="1.643">
        <ele>132.8</ele>
        <time>2026-05-19T06:46:13Z</time>
      </trkpt>
      <trkpt lat="44.48525" lon="1.64305">
        <ele>132.32</ele>
        <time>2026-05-19T06:46:16Z</time>
      </trkpt>
      <trkpt lat="44.48521" lon="1.6433">
        <ele>132.32</ele>
        <time>2026-05-19T06:46:30Z</time>
      </trkpt>
      <trkpt lat="44.48513" lon="1.64357">
        <ele>132.32</ele>
        <time>2026-05-19T06:46:45Z</time>
      </trkpt>
      <trkpt lat="44.48511" lon="1.64365">
        <ele>132.32</ele>
        <time>2026-05-19T06:46:49Z</time>
      </trkpt>
      <trkpt lat="44.48499" lon="1.64394">
        <ele>132.32</ele>
        <time>2026-05-19T06:47:06Z</time>
      </trkpt>
      <trkpt lat="44.4849" lon="1.64416">
        <ele>132.32</ele>
        <time>2026-05-19T06:47:19Z</time>
      </trkpt>
      <trkpt lat="44.48473" lon="1.64441">
        <ele>131.84</ele>
        <time>2026-05-19T06:47:37Z</time>
      </trkpt>
      <trkpt lat="44.48471" lon="1.6445">
        <ele>131.84</ele>
        <time>2026-05-19T06:47:48Z</time>
      </trkpt>
      <trkpt lat="44.48464" lon="1.64451">
        <ele>131.84</ele>
        <time>2026-05-19T06:47:54Z</time>
      </trkpt>
      <trkpt lat="44.48456" lon="1.64457">
        <ele>131.84</ele>
        <time>2026-05-19T06:48:02Z</time>
      </trkpt>
      <trkpt lat="44.48445" lon="1.64466">
        <ele>133.28</ele>
        <time>2026-05-19T06:48:13Z</time>
      </trkpt>
      <trkpt lat="44.4844" lon="1.64466">
        <ele>133.28</ele>
        <time>2026-05-19T06:48:18Z</time>
      </trkpt>
      <trkpt lat="44.48417" lon="1.64465">
        <ele>133.28</ele>
        <time>2026-05-19T06:48:36Z</time>
      </trkpt>
      <trkpt lat="44.48396" lon="1.64481">
        <ele>133.76</ele>
        <time>2026-05-19T06:48:51Z</time>
      </trkpt>
      <trkpt lat="44.48379" lon="1.64498">
        <ele>133.76</ele>
        <time>2026-05-19T06:49:07Z</time>
      </trkpt>
      <trkpt lat="44.48361" lon="1.64511">
        <ele>133.76</ele>
        <time>2026-05-19T06:49:23Z</time>
      </trkpt>
      <trkpt lat="44.48344" lon="1.64523">
        <ele>133.76</ele>
        <time>2026-05-19T06:49:38Z</time>
      </trkpt>
      <trkpt lat="44.48323" lon="1.64538">
        <ele>133.76</ele>
        <time>2026-05-19T06:49:55Z</time>
      </trkpt>
      <trkpt lat="44.48321" lon="1.64539">
        <ele>132.32</ele>
        <time>2026-05-19T06:50:02Z</time>
      </trkpt>
      <trkpt lat="44.48311" lon="1.6455">
        <ele>133.76</ele>
        <time>2026-05-19T06:50:15Z</time>
      </trkpt>
      <trkpt lat="44.48299" lon="1.64553">
        <ele>133.76</ele>
        <time>2026-05-19T06:50:23Z</time>
      </trkpt>
      <trkpt lat="44.48283" lon="1.64558">
        <ele>133.76</ele>
        <time>2026-05-19T06:50:37Z</time>
      </trkpt>
      <trkpt lat="44.48265" lon="1.64564">
        <ele>133.76</ele>
        <time>2026-05-19T06:50:51Z</time>
      </trkpt>
      <trkpt lat="44.48244" lon="1.64567">
        <ele>133.76</ele>
        <time>2026-05-19T06:51:06Z</time>
      </trkpt>
      <trkpt lat="44.48222" lon="1.6457">
        <ele>134.24</ele>
        <time>2026-05-19T06:51:21Z</time>
      </trkpt>
      <trkpt lat="44.48198" lon="1.64572">
        <ele>134.24</ele>
        <time>2026-05-19T06:51:37Z</time>
      </trkpt>
      <trkpt lat="44.48175" lon="1.64574">
        <ele>134.24</ele>
        <time>2026-05-19T06:51:54Z</time>
      </trkpt>
      <trkpt lat="44.48154" lon="1.64581">
        <ele>134.24</ele>
        <time>2026-05-19T06:52:11Z</time>
      </trkpt>
      <trkpt lat="44.48131" lon="1.64587">
        <ele>133.28</ele>
        <time>2026-05-19T06:52:28Z</time>
      </trkpt>
      <trkpt lat="44.48113" lon="1.64593">
        <ele>133.28</ele>
        <time>2026-05-19T06:52:44Z</time>
      </trkpt>
      <trkpt lat="44.48109" lon="1.64593">
        <ele>133.28</ele>
        <time>2026-05-19T06:52:47Z</time>
      </trkpt>
      <trkpt lat="44.48089" lon="1.64592">
        <ele>133.28</ele>
        <time>2026-05-19T06:53:01Z</time>
      </trkpt>
      <trkpt lat="44.48063" lon="1.64588">
        <ele>133.28</ele>
        <time>2026-05-19T06:53:17Z</time>
      </trkpt>
      <trkpt lat="44.48043" lon="1.64583">
        <ele>133.28</ele>
        <time>2026-05-19T06:53:35Z</time>
      </trkpt>
      <trkpt lat="44.48025" lon="1.64584">
        <ele>133.28</ele>
        <time>2026-05-19T06:53:52Z</time>
      </trkpt>
      <trkpt lat="44.48023" lon="1.64584">
        <ele>134.72</ele>
        <time>2026-05-19T06:53:54Z</time>
      </trkpt>
      <trkpt lat="44.48002" lon="1.64588">
        <ele>134.24</ele>
        <time>2026-05-19T06:54:11Z</time>
      </trkpt>
      <trkpt lat="44.48001" lon="1.64588">
        <ele>134.24</ele>
        <time>2026-05-19T06:54:12Z</time>
      </trkpt>
      <trkpt lat="44.47979" lon="1.64585">
        <ele>135.2</ele>
        <time>2026-05-19T06:54:31Z</time>
      </trkpt>
      <trkpt lat="44.47969" lon="1.64585">
        <ele>135.2</ele>
        <time>2026-05-19T06:54:48Z</time>
      </trkpt>
      <trkpt lat="44.47966" lon="1.64588">
        <ele>135.2</ele>
        <time>2026-05-19T06:55:10Z</time>
      </trkpt>
      <trkpt lat="44.47949" lon="1.64584">
        <ele>135.2</ele>
        <time>2026-05-19T06:55:25Z</time>
      </trkpt>
      <trkpt lat="44.47926" lon="1.64573">
        <ele>133.76</ele>
        <time>2026-05-19T06:55:42Z</time>
      </trkpt>
      <trkpt lat="44.47907" lon="1.64568">
        <ele>133.28</ele>
        <time>2026-05-19T06:55:56Z</time>
      </trkpt>
      <trkpt lat="44.47889" lon="1.64567">
        <ele>133.28</ele>
        <time>2026-05-19T06:56:11Z</time>
      </trkpt>
      <trkpt lat="44.47888" lon="1.64568">
        <ele>133.28</ele>
        <time>2026-05-19T06:56:12Z</time>
      </trkpt>
      <trkpt lat="44.47877" lon="1.64573">
        <ele>133.28</ele>
        <time>2026-05-19T06:56:18Z</time>
      </trkpt>
      <trkpt lat="44.47858" lon="1.64554">
        <ele>132.8</ele>
        <time>2026-05-19T06:56:35Z</time>
      </trkpt>
      <trkpt lat="44.4784" lon="1.64543">
        <ele>132.8</ele>
        <time>2026-05-19T06:56:51Z</time>
      </trkpt>
      <trkpt lat="44.47826" lon="1.64541">
        <ele>132.8</ele>
        <time>2026-05-19T06:57:08Z</time>
      </trkpt>
      <trkpt lat="44.47819" lon="1.64539">
        <ele>132.8</ele>
        <time>2026-05-19T06:57:13Z</time>
      </trkpt>
      <trkpt lat="44.47814" lon="1.64537">
        <ele>132.8</ele>
        <time>2026-05-19T06:57:17Z</time>
      </trkpt>
      <trkpt lat="44.47793" lon="1.64528">
        <ele>132.8</ele>
        <time>2026-05-19T06:57:33Z</time>
      </trkpt>
      <trkpt lat="44.47774" lon="1.64521">
        <ele>134.72</ele>
        <time>2026-05-19T06:57:46Z</time>
      </trkpt>
      <trkpt lat="44.47761" lon="1.64522">
        <ele>134.72</ele>
        <time>2026-05-19T06:57:57Z</time>
      </trkpt>
      <trkpt lat="44.47746" lon="1.6452">
        <ele>134.72</ele>
        <time>2026-05-19T06:58:08Z</time>
      </trkpt>
      <trkpt lat="44.4774" lon="1.64518">
        <ele>134.72</ele>
        <time>2026-05-19T06:58:14Z</time>
      </trkpt>
      <trkpt lat="44.47737" lon="1.64518">
        <ele>134.72</ele>
        <time>2026-05-19T06:58:16Z</time>
      </trkpt>
      <trkpt lat="44.47733" lon="1.64517">
        <ele>134.72</ele>
        <time>2026-05-19T06:58:19Z</time>
      </trkpt>
      <trkpt lat="44.47728" lon="1.64518">
        <ele>133.76</ele>
        <time>2026-05-19T06:58:22Z</time>
      </trkpt>
      <trkpt lat="44.47725" lon="1.64524">
        <ele>133.76</ele>
        <time>2026-05-19T06:58:25Z</time>
      </trkpt>
      <trkpt lat="44.47717" lon="1.64531">
        <ele>133.76</ele>
        <time>2026-05-19T06:58:32Z</time>
      </trkpt>
      <trkpt lat="44.47713" lon="1.64532">
        <ele>133.76</ele>
        <time>2026-05-19T06:58:35Z</time>
      </trkpt>
      <trkpt lat="44.47709" lon="1.64531">
        <ele>133.76</ele>
        <time>2026-05-19T06:58:38Z</time>
      </trkpt>
      <trkpt lat="44.4769" lon="1.64531">
        <ele>133.76</ele>
        <time>2026-05-19T06:58:51Z</time>
      </trkpt>
      <trkpt lat="44.47678" lon="1.64534">
        <ele>133.28</ele>
        <time>2026-05-19T06:59:02Z</time>
      </trkpt>
      <trkpt lat="44.47662" lon="1.6454">
        <ele>132.8</ele>
        <time>2026-05-19T06:59:14Z</time>
      </trkpt>
      <trkpt lat="44.4766" lon="1.64541">
        <ele>132.8</ele>
        <time>2026-05-19T06:59:17Z</time>
      </trkpt>
      <trkpt lat="44.47658" lon="1.64541">
        <ele>132.8</ele>
        <time>2026-05-19T06:59:18Z</time>
      </trkpt>
      <trkpt lat="44.47656" lon="1.64541">
        <ele>132.8</ele>
        <time>2026-05-19T06:59:20Z</time>
      </trkpt>
      <trkpt lat="44.4764" lon="1.6454">
        <ele>132.8</ele>
        <time>2026-05-19T06:59:32Z</time>
      </trkpt>
      <trkpt lat="44.47638" lon="1.64541">
        <ele>132.8</ele>
        <time>2026-05-19T06:59:34Z</time>
      </trkpt>
      <trkpt lat="44.47637" lon="1.64542">
        <ele>132.8</ele>
        <time>2026-05-19T06:59:35Z</time>
      </trkpt>
      <trkpt lat="44.47636" lon="1.64543">
        <ele>132.8</ele>
        <time>2026-05-19T06:59:36Z</time>
      </trkpt>
      <trkpt lat="44.47617" lon="1.64543">
        <ele>132.8</ele>
        <time>2026-05-19T06:59:49Z</time>
      </trkpt>
      <trkpt lat="44.47612" lon="1.64542">
        <ele>132.8</ele>
        <time>2026-05-19T06:59:54Z</time>
      </trkpt>
      <trkpt lat="44.47587" lon="1.64544">
        <ele>132.8</ele>
        <time>2026-05-19T07:00:13Z</time>
      </trkpt>
      <trkpt lat="44.4757" lon="1.64554">
        <ele>132.8</ele>
        <time>2026-05-19T07:00:26Z</time>
      </trkpt>
      <trkpt lat="44.47554" lon="1.6456">
        <ele>132.8</ele>
        <time>2026-05-19T07:00:38Z</time>
      </trkpt>
      <trkpt lat="44.47541" lon="1.64571">
        <ele>132.8</ele>
        <time>2026-05-19T07:00:50Z</time>
      </trkpt>
      <trkpt lat="44.47538" lon="1.646">
        <ele>134.24</ele>
        <time>2026-05-19T07:01:03Z</time>
      </trkpt>
      <trkpt lat="44.47531" lon="1.64601">
        <ele>134.24</ele>
        <time>2026-05-19T07:01:09Z</time>
      </trkpt>
      <trkpt lat="44.47522" lon="1.64609">
        <ele>134.24</ele>
        <time>2026-05-19T07:01:18Z</time>
      </trkpt>
      <trkpt lat="44.4751" lon="1.6462">
        <ele>134.24</ele>
        <time>2026-05-19T07:01:30Z</time>
      </trkpt>
      <trkpt lat="44.47494" lon="1.64618">
        <ele>134.24</ele>
        <time>2026-05-19T07:01:45Z</time>
      </trkpt>
      <trkpt lat="44.47492" lon="1.64618">
        <ele>134.24</ele>
        <time>2026-05-19T07:01:47Z</time>
      </trkpt>
      <trkpt lat="44.47466" lon="1.64633">
        <ele>134.24</ele>
        <time>2026-05-19T07:02:04Z</time>
      </trkpt>
      <trkpt lat="44.47445" lon="1.64645">
        <ele>134.24</ele>
        <time>2026-05-19T07:02:16Z</time>
      </trkpt>
      <trkpt lat="44.4743" lon="1.64675">
        <ele>134.24</ele>
        <time>2026-05-19T07:02:34Z</time>
      </trkpt>
      <trkpt lat="44.47432" lon="1.64702">
        <ele>133.76</ele>
        <time>2026-05-19T07:02:54Z</time>
      </trkpt>
      <trkpt lat="44.47421" lon="1.64709">
        <ele>133.76</ele>
        <time>2026-05-19T07:03:18Z</time>
      </trkpt>
      <trkpt lat="44.47404" lon="1.64742">
        <ele>134.24</ele>
        <time>2026-05-19T07:03:35Z</time>
      </trkpt>
      <trkpt lat="44.47382" lon="1.64772">
        <ele>134.24</ele>
        <time>2026-05-19T07:03:56Z</time>
      </trkpt>
      <trkpt lat="44.47364" lon="1.64781">
        <ele>134.24</ele>
        <time>2026-05-19T07:04:13Z</time>
      </trkpt>
      <trkpt lat="44.47333" lon="1.64774">
        <ele>134.24</ele>
        <time>2026-05-19T07:04:30Z</time>
      </trkpt>
      <trkpt lat="44.47313" lon="1.64789">
        <ele>134.72</ele>
        <time>2026-05-19T07:04:48Z</time>
      </trkpt>
      <trkpt lat="44.47301" lon="1.64818">
        <ele>135.68</ele>
        <time>2026-05-19T07:05:07Z</time>
      </trkpt>
      <trkpt lat="44.47316" lon="1.64836">
        <ele>136.16</ele>
        <time>2026-05-19T07:05:09Z</time>
      </trkpt>
      <trkpt lat="44.47309" lon="1.64861">
        <ele>137.13</ele>
        <time>2026-05-19T07:05:25Z</time>
      </trkpt>
      <trkpt lat="44.47308" lon="1.64864">
        <ele>135.68</ele>
        <time>2026-05-19T07:05:27Z</time>
      </trkpt>
      <trkpt lat="44.4731" lon="1.64877">
        <ele>135.2</ele>
        <time>2026-05-19T07:05:34Z</time>
      </trkpt>
      <trkpt lat="44.4731" lon="1.6489">
        <ele>135.2</ele>
        <time>2026-05-19T07:05:39Z</time>
      </trkpt>
      <trkpt lat="44.47308" lon="1.64907">
        <ele>135.2</ele>
        <time>2026-05-19T07:05:48Z</time>
      </trkpt>
      <trkpt lat="44.47307" lon="1.6494">
        <ele>135.2</ele>
        <time>2026-05-19T07:06:04Z</time>
      </trkpt>
      <trkpt lat="44.47305" lon="1.64953">
        <ele>135.2</ele>
        <time>2026-05-19T07:06:11Z</time>
      </trkpt>
      <trkpt lat="44.47304" lon="1.6496">
        <ele>135.2</ele>
        <time>2026-05-19T07:06:15Z</time>
      </trkpt>
      <trkpt lat="44.47298" lon="1.64991">
        <ele>135.68</ele>
        <time>2026-05-19T07:06:32Z</time>
      </trkpt>
      <trkpt lat="44.47292" lon="1.65024">
        <ele>135.2</ele>
        <time>2026-05-19T07:06:49Z</time>
      </trkpt>
      <trkpt lat="44.47289" lon="1.65059">
        <ele>135.2</ele>
        <time>2026-05-19T07:07:06Z</time>
      </trkpt>
      <trkpt lat="44.47283" lon="1.65095">
        <ele>135.2</ele>
        <time>2026-05-19T07:07:23Z</time>
      </trkpt>
      <trkpt lat="44.47279" lon="1.65119">
        <ele>135.2</ele>
        <time>2026-05-19T07:07:38Z</time>
      </trkpt>
      <trkpt lat="44.47275" lon="1.65155">
        <ele>135.2</ele>
        <time>2026-05-19T07:07:55Z</time>
      </trkpt>
      <trkpt lat="44.47275" lon="1.65161">
        <ele>135.2</ele>
        <time>2026-05-19T07:07:59Z</time>
      </trkpt>
      <trkpt lat="44.47272" lon="1.65196">
        <ele>135.2</ele>
        <time>2026-05-19T07:08:17Z</time>
      </trkpt>
      <trkpt lat="44.47276" lon="1.65226">
        <ele>135.2</ele>
        <time>2026-05-19T07:08:33Z</time>
      </trkpt>
      <trkpt lat="44.47277" lon="1.65258">
        <ele>135.2</ele>
        <time>2026-05-19T07:08:50Z</time>
      </trkpt>
      <trkpt lat="44.47278" lon="1.65291">
        <ele>135.2</ele>
        <time>2026-05-19T07:09:08Z</time>
      </trkpt>
      <trkpt lat="44.47279" lon="1.65318">
        <ele>135.2</ele>
        <time>2026-05-19T07:09:22Z</time>
      </trkpt>
      <trkpt lat="44.47281" lon="1.65353">
        <ele>135.2</ele>
        <time>2026-05-19T07:09:39Z</time>
      </trkpt>
      <trkpt lat="44.47286" lon="1.65378">
        <ele>135.2</ele>
        <time>2026-05-19T07:09:54Z</time>
      </trkpt>
      <trkpt lat="44.47287" lon="1.65408">
        <ele>136.16</ele>
        <time>2026-05-19T07:10:11Z</time>
      </trkpt>
      <trkpt lat="44.4729" lon="1.65435">
        <ele>136.16</ele>
        <time>2026-05-19T07:10:26Z</time>
      </trkpt>
      <trkpt lat="44.47291" lon="1.65465">
        <ele>136.16</ele>
        <time>2026-05-19T07:10:40Z</time>
      </trkpt>
      <trkpt lat="44.47292" lon="1.65498">
        <ele>135.68</ele>
        <time>2026-05-19T07:10:56Z</time>
      </trkpt>
      <trkpt lat="44.47292" lon="1.65532">
        <ele>135.68</ele>
        <time>2026-05-19T07:11:14Z</time>
      </trkpt>
      <trkpt lat="44.47291" lon="1.65547">
        <ele>135.68</ele>
        <time>2026-05-19T07:11:23Z</time>
      </trkpt>
      <trkpt lat="44.47291" lon="1.65559">
        <ele>135.68</ele>
        <time>2026-05-19T07:11:29Z</time>
      </trkpt>
      <trkpt lat="44.47292" lon="1.65572">
        <ele>134.72</ele>
        <time>2026-05-19T07:11:37Z</time>
      </trkpt>
      <trkpt lat="44.47292" lon="1.65565">
        <ele>134.72</ele>
        <time>2026-05-19T07:11:42Z</time>
      </trkpt>
      <trkpt lat="44.47289" lon="1.65556">
        <ele>134.72</ele>
        <time>2026-05-19T07:11:51Z</time>
      </trkpt>
      <trkpt lat="44.47283" lon="1.65555">
        <ele>135.68</ele>
        <time>2026-05-19T07:11:57Z</time>
      </trkpt>
      <trkpt lat="44.47266" lon="1.65552">
        <ele>135.68</ele>
        <time>2026-05-19T07:12:11Z</time>
      </trkpt>
      <trkpt lat="44.47246" lon="1.65551">
        <ele>136.64</ele>
        <time>2026-05-19T07:12:26Z</time>
      </trkpt>
      <trkpt lat="44.47235" lon="1.6555">
        <ele>136.64</ele>
        <time>2026-05-19T07:12:34Z</time>
      </trkpt>
      <trkpt lat="44.47233" lon="1.6555">
        <ele>136.64</ele>
        <time>2026-05-19T07:12:36Z</time>
      </trkpt>
      <trkpt lat="44.47212" lon="1.65552">
        <ele>137.13</ele>
        <time>2026-05-19T07:12:52Z</time>
      </trkpt>
      <trkpt lat="44.47189" lon="1.65551">
        <ele>138.09</ele>
        <time>2026-05-19T07:13:09Z</time>
      </trkpt>
      <trkpt lat="44.47173" lon="1.65554">
        <ele>139.53</ele>
        <time>2026-05-19T07:13:23Z</time>
      </trkpt>
      <trkpt lat="44.47162" lon="1.6556">
        <ele>141.93</ele>
        <time>2026-05-19T07:13:37Z</time>
      </trkpt>
      <trkpt lat="44.47159" lon="1.65564">
        <ele>142.41</ele>
        <time>2026-05-19T07:13:41Z</time>
      </trkpt>
      <trkpt lat="44.4716" lon="1.65575">
        <ele>142.89</ele>
        <time>2026-05-19T07:13:55Z</time>
      </trkpt>
      <trkpt lat="44.47161" lon="1.65587">
        <ele>142.89</ele>
        <time>2026-05-19T07:14:02Z</time>
      </trkpt>
      <trkpt lat="44.47162" lon="1.65602">
        <ele>142.89</ele>
        <time>2026-05-19T07:14:11Z</time>
      </trkpt>
      <trkpt lat="44.4717" lon="1.65633">
        <ele>143.37</ele>
        <time>2026-05-19T07:14:27Z</time>
      </trkpt>
      <trkpt lat="44.47173" lon="1.65659">
        <ele>143.37</ele>
        <time>2026-05-19T07:14:40Z</time>
      </trkpt>
      <trkpt lat="44.47173" lon="1.65662">
        <ele>143.37</ele>
        <time>2026-05-19T07:14:42Z</time>
      </trkpt>
      <trkpt lat="44.47173" lon="1.65664">
        <ele>143.37</ele>
        <time>2026-05-19T07:14:43Z</time>
      </trkpt>
      <trkpt lat="44.47176" lon="1.65685">
        <ele>141.93</ele>
        <time>2026-05-19T07:14:55Z</time>
      </trkpt>
      <trkpt lat="44.47177" lon="1.65716">
        <ele>141.45</ele>
        <time>2026-05-19T07:15:09Z</time>
      </trkpt>
      <trkpt lat="44.47176" lon="1.65726">
        <ele>141.45</ele>
        <time>2026-05-19T07:15:23Z</time>
      </trkpt>
      <trkpt lat="44.47177" lon="1.6573">
        <ele>141.45</ele>
        <time>2026-05-19T07:15:38Z</time>
      </trkpt>
      <trkpt lat="44.47176" lon="1.65731">
        <ele>141.45</ele>
        <time>2026-05-19T07:15:39Z</time>
      </trkpt>
      <trkpt lat="44.47174" lon="1.6575">
        <ele>141.45</ele>
        <time>2026-05-19T07:15:53Z</time>
      </trkpt>
      <trkpt lat="44.47171" lon="1.65776">
        <ele>140.97</ele>
        <time>2026-05-19T07:16:07Z</time>
      </trkpt>
      <trkpt lat="44.47169" lon="1.65804">
        <ele>140.97</ele>
        <time>2026-05-19T07:16:22Z</time>
      </trkpt>
      <trkpt lat="44.47165" lon="1.65837">
        <ele>140.97</ele>
        <time>2026-05-19T07:16:39Z</time>
      </trkpt>
      <trkpt lat="44.47161" lon="1.65866">
        <ele>140.49</ele>
        <time>2026-05-19T07:16:55Z</time>
      </trkpt>
      <trkpt lat="44.47157" lon="1.65893">
        <ele>140.97</ele>
        <time>2026-05-19T07:17:11Z</time>
      </trkpt>
      <trkpt lat="44.4715" lon="1.65922">
        <ele>140.97</ele>
        <time>2026-05-19T07:17:27Z</time>
      </trkpt>
      <trkpt lat="44.47144" lon="1.65949">
        <ele>140.97</ele>
        <time>2026-05-19T07:17:42Z</time>
      </trkpt>
      <trkpt lat="44.4714" lon="1.65981">
        <ele>140.97</ele>
        <time>2026-05-19T07:17:58Z</time>
      </trkpt>
      <trkpt lat="44.47135" lon="1.66006">
        <ele>140.49</ele>
        <time>2026-05-19T07:18:13Z</time>
      </trkpt>
      <trkpt lat="44.4713" lon="1.66033">
        <ele>140.01</ele>
        <time>2026-05-19T07:18:29Z</time>
      </trkpt>
      <trkpt lat="44.47124" lon="1.66064">
        <ele>139.53</ele>
        <time>2026-05-19T07:18:46Z</time>
      </trkpt>
      <trkpt lat="44.47116" lon="1.6609">
        <ele>139.05</ele>
        <time>2026-05-19T07:19:01Z</time>
      </trkpt>
      <trkpt lat="44.47116" lon="1.66092">
        <ele>139.05</ele>
        <time>2026-05-19T07:19:02Z</time>
      </trkpt>
      <trkpt lat="44.47115" lon="1.66094">
        <ele>139.05</ele>
        <time>2026-05-19T07:19:03Z</time>
      </trkpt>
      <trkpt lat="44.47114" lon="1.66096">
        <ele>139.05</ele>
        <time>2026-05-19T07:19:04Z</time>
      </trkpt>
      <trkpt lat="44.47114" lon="1.66098">
        <ele>139.05</ele>
        <time>2026-05-19T07:19:05Z</time>
      </trkpt>
      <trkpt lat="44.47095" lon="1.66117">
        <ele>139.53</ele>
        <time>2026-05-19T07:19:21Z</time>
      </trkpt>
      <trkpt lat="44.47074" lon="1.66129">
        <ele>140.49</ele>
        <time>2026-05-19T07:19:39Z</time>
      </trkpt>
      <trkpt lat="44.47073" lon="1.6613">
        <ele>140.49</ele>
        <time>2026-05-19T07:19:40Z</time>
      </trkpt>
      <trkpt lat="44.47053" lon="1.66147">
        <ele>141.45</ele>
        <time>2026-05-19T07:19:58Z</time>
      </trkpt>
      <trkpt lat="44.47047" lon="1.66175">
        <ele>141.45</ele>
        <time>2026-05-19T07:20:12Z</time>
      </trkpt>
      <trkpt lat="44.47036" lon="1.66204">
        <ele>141.45</ele>
        <time>2026-05-19T07:20:26Z</time>
      </trkpt>
      <trkpt lat="44.47023" lon="1.66223">
        <ele>139.53</ele>
        <time>2026-05-19T07:20:40Z</time>
      </trkpt>
      <trkpt lat="44.47006" lon="1.66248">
        <ele>139.05</ele>
        <time>2026-05-19T07:20:57Z</time>
      </trkpt>
      <trkpt lat="44.46995" lon="1.66269">
        <ele>139.05</ele>
        <time>2026-05-19T07:21:11Z</time>
      </trkpt>
      <trkpt lat="44.46983" lon="1.66292">
        <ele>138.57</ele>
        <time>2026-05-19T07:21:25Z</time>
      </trkpt>
      <trkpt lat="44.46968" lon="1.66314">
        <ele>138.57</ele>
        <time>2026-05-19T07:21:43Z</time>
      </trkpt>
      <trkpt lat="44.46952" lon="1.66339">
        <ele>137.61</ele>
        <time>2026-05-19T07:22:01Z</time>
      </trkpt>
      <trkpt lat="44.46937" lon="1.66368">
        <ele>137.61</ele>
        <time>2026-05-19T07:22:20Z</time>
      </trkpt>
      <trkpt lat="44.46917" lon="1.66391">
        <ele>137.61</ele>
        <time>2026-05-19T07:22:39Z</time>
      </trkpt>
      <trkpt lat="44.46909" lon="1.6641">
        <ele>138.09</ele>
        <time>2026-05-19T07:22:51Z</time>
      </trkpt>
      <trkpt lat="44.46892" lon="1.66435">
        <ele>138.09</ele>
        <time>2026-05-19T07:23:10Z</time>
      </trkpt>
      <trkpt lat="44.46872" lon="1.6645">
        <ele>138.09</ele>
        <time>2026-05-19T07:23:28Z</time>
      </trkpt>
      <trkpt lat="44.46854" lon="1.66485">
        <ele>138.09</ele>
        <time>2026-05-19T07:23:48Z</time>
      </trkpt>
      <trkpt lat="44.4683" lon="1.66511">
        <ele>138.09</ele>
        <time>2026-05-19T07:24:07Z</time>
      </trkpt>
      <trkpt lat="44.46819" lon="1.66535">
        <ele>138.09</ele>
        <time>2026-05-19T07:24:20Z</time>
      </trkpt>
      <trkpt lat="44.46805" lon="1.6655">
        <ele>138.09</ele>
        <time>2026-05-19T07:24:34Z</time>
      </trkpt>
      <trkpt lat="44.46798" lon="1.66551">
        <ele>138.09</ele>
        <time>2026-05-19T07:24:39Z</time>
      </trkpt>
      <trkpt lat="44.46796" lon="1.66553">
        <ele>138.09</ele>
        <time>2026-05-19T07:24:41Z</time>
      </trkpt>
      <trkpt lat="44.46773" lon="1.6658">
        <ele>137.61</ele>
        <time>2026-05-19T07:24:58Z</time>
      </trkpt>
      <trkpt lat="44.46753" lon="1.66597">
        <ele>137.61</ele>
        <time>2026-05-19T07:25:13Z</time>
      </trkpt>
      <trkpt lat="44.46735" lon="1.66616">
        <ele>136.64</ele>
        <time>2026-05-19T07:25:30Z</time>
      </trkpt>
      <trkpt lat="44.46736" lon="1.6662">
        <ele>136.64</ele>
        <time>2026-05-19T07:25:33Z</time>
      </trkpt>
      <trkpt lat="44.46728" lon="1.66617">
        <ele>136.64</ele>
        <time>2026-05-19T07:25:49Z</time>
      </trkpt>
      <trkpt lat="44.46721" lon="1.66629">
        <ele>139.05</ele>
        <time>2026-05-19T07:26:13Z</time>
      </trkpt>
      <trkpt lat="44.46706" lon="1.66643">
        <ele>142.41</ele>
        <time>2026-05-19T07:26:31Z</time>
      </trkpt>
      <trkpt lat="44.46693" lon="1.66652">
        <ele>145.3</ele>
        <time>2026-05-19T07:26:49Z</time>
      </trkpt>
      <trkpt lat="44.46688" lon="1.66657">
        <ele>147.7</ele>
        <time>2026-05-19T07:27:02Z</time>
      </trkpt>
      <trkpt lat="44.46681" lon="1.66653">
        <ele>150.58</ele>
        <time>2026-05-19T07:27:20Z</time>
      </trkpt>
      <trkpt lat="44.46671" lon="1.66654">
        <ele>152.99</ele>
        <time>2026-05-19T07:27:37Z</time>
      </trkpt>
      <trkpt lat="44.46665" lon="1.66668">
        <ele>155.87</ele>
        <time>2026-05-19T07:27:54Z</time>
      </trkpt>
      <trkpt lat="44.46663" lon="1.66668">
        <ele>156.35</ele>
        <time>2026-05-19T07:28:09Z</time>
      </trkpt>
      <trkpt lat="44.46663" lon="1.66663">
        <ele>158.27</ele>
        <time>2026-05-19T07:28:29Z</time>
      </trkpt>
      <trkpt lat="44.46657" lon="1.66667">
        <ele>160.68</ele>
        <time>2026-05-19T07:28:49Z</time>
      </trkpt>
      <trkpt lat="44.46643" lon="1.66677">
        <ele>164.52</ele>
        <time>2026-05-19T07:29:09Z</time>
      </trkpt>
      <trkpt lat="44.46639" lon="1.66681">
        <ele>167.41</ele>
        <time>2026-05-19T07:29:27Z</time>
      </trkpt>
      <trkpt lat="44.46628" lon="1.6669">
        <ele>170.77</ele>
        <time>2026-05-19T07:29:45Z</time>
      </trkpt>
      <trkpt lat="44.46614" lon="1.6669">
        <ele>174.14</ele>
        <time>2026-05-19T07:30:05Z</time>
      </trkpt>
      <trkpt lat="44.46599" lon="1.66702">
        <ele>177.5</ele>
        <time>2026-05-19T07:30:25Z</time>
      </trkpt>
      <trkpt lat="44.46594" lon="1.66715">
        <ele>180.38</ele>
        <time>2026-05-19T07:30:44Z</time>
      </trkpt>
      <trkpt lat="44.46594" lon="1.66715">
        <ele>182.79</ele>
        <time>2026-05-19T07:31:01Z</time>
      </trkpt>
      <trkpt lat="44.46582" lon="1.66719">
        <ele>186.15</ele>
        <time>2026-05-19T07:31:18Z</time>
      </trkpt>
      <trkpt lat="44.46571" lon="1.66722">
        <ele>189.04</ele>
        <time>2026-05-19T07:31:34Z</time>
      </trkpt>
      <trkpt lat="44.46566" lon="1.66736">
        <ele>191.92</ele>
        <time>2026-05-19T07:31:54Z</time>
      </trkpt>
      <trkpt lat="44.46555" lon="1.66753">
        <ele>194.8</ele>
        <time>2026-05-19T07:32:11Z</time>
      </trkpt>
      <trkpt lat="44.46544" lon="1.66765">
        <ele>197.69</ele>
        <time>2026-05-19T07:32:29Z</time>
      </trkpt>
      <trkpt lat="44.46529" lon="1.66776">
        <ele>200.09</ele>
        <time>2026-05-19T07:32:47Z</time>
      </trkpt>
      <trkpt lat="44.46519" lon="1.66787">
        <ele>203.46</ele>
        <time>2026-05-19T07:33:04Z</time>
      </trkpt>
      <trkpt lat="44.46518" lon="1.66788">
        <ele>203.46</ele>
        <time>2026-05-19T07:33:05Z</time>
      </trkpt>
      <trkpt lat="44.4651" lon="1.66799">
        <ele>206.34</ele>
        <time>2026-05-19T07:33:24Z</time>
      </trkpt>
      <trkpt lat="44.46506" lon="1.66804">
        <ele>209.7</ele>
        <time>2026-05-19T07:33:38Z</time>
      </trkpt>
      <trkpt lat="44.46509" lon="1.66809">
        <ele>213.55</ele>
        <time>2026-05-19T07:33:54Z</time>
      </trkpt>
      <trkpt lat="44.46509" lon="1.66808">
        <ele>213.55</ele>
        <time>2026-05-19T07:33:55Z</time>
      </trkpt>
      <trkpt lat="44.46502" lon="1.66808">
        <ele>215.47</ele>
        <time>2026-05-19T07:34:08Z</time>
      </trkpt>
      <trkpt lat="44.46488" lon="1.66815">
        <ele>218.36</ele>
        <time>2026-05-19T07:34:26Z</time>
      </trkpt>
      <trkpt lat="44.46473" lon="1.66817">
        <ele>221.24</ele>
        <time>2026-05-19T07:34:43Z</time>
      </trkpt>
      <trkpt lat="44.46469" lon="1.66815">
        <ele>222.2</ele>
        <time>2026-05-19T07:34:47Z</time>
      </trkpt>
      <trkpt lat="44.46467" lon="1.66814">
        <ele>222.2</ele>
        <time>2026-05-19T07:34:48Z</time>
      </trkpt>
      <trkpt lat="44.46466" lon="1.66813">
        <ele>222.68</ele>
        <time>2026-05-19T07:34:49Z</time>
      </trkpt>
      <trkpt lat="44.4647" lon="1.66815">
        <ele>223.16</ele>
        <time>2026-05-19T07:34:51Z</time>
      </trkpt>
      <trkpt lat="44.46468" lon="1.66814">
        <ele>223.16</ele>
        <time>2026-05-19T07:34:52Z</time>
      </trkpt>
      <trkpt lat="44.46474" lon="1.66836">
        <ele>225.57</ele>
        <time>2026-05-19T07:35:05Z</time>
      </trkpt>
      <trkpt lat="44.46469" lon="1.66846">
        <ele>227.97</ele>
        <time>2026-05-19T07:35:15Z</time>
      </trkpt>
      <trkpt lat="44.4647" lon="1.66848">
        <ele>226.53</ele>
        <time>2026-05-19T07:35:19Z</time>
      </trkpt>
      <trkpt lat="44.46471" lon="1.66852">
        <ele>227.49</ele>
        <time>2026-05-19T07:35:24Z</time>
      </trkpt>
      <trkpt lat="44.46471" lon="1.66854">
        <ele>227.49</ele>
        <time>2026-05-19T07:35:25Z</time>
      </trkpt>
      <trkpt lat="44.46471" lon="1.66856">
        <ele>226.05</ele>
        <time>2026-05-19T07:35:27Z</time>
      </trkpt>
      <trkpt lat="44.4647" lon="1.6687">
        <ele>226.05</ele>
        <time>2026-05-19T07:35:41Z</time>
      </trkpt>
      <trkpt lat="44.46464" lon="1.66872">
        <ele>226.05</ele>
        <time>2026-05-19T07:35:56Z</time>
      </trkpt>
      <trkpt lat="44.46455" lon="1.66869">
        <ele>226.05</ele>
        <time>2026-05-19T07:36:07Z</time>
      </trkpt>
      <trkpt lat="44.46444" lon="1.66858">
        <ele>226.05</ele>
        <time>2026-05-19T07:36:22Z</time>
      </trkpt>
      <trkpt lat="44.46443" lon="1.66853">
        <ele>227.49</ele>
        <time>2026-05-19T07:36:26Z</time>
      </trkpt>
      <trkpt lat="44.46443" lon="1.66852">
        <ele>227.97</ele>
        <time>2026-05-19T07:36:27Z</time>
      </trkpt>
      <trkpt lat="44.46432" lon="1.66837">
        <ele>230.37</ele>
        <time>2026-05-19T07:36:45Z</time>
      </trkpt>
      <trkpt lat="44.46422" lon="1.66827">
        <ele>231.81</ele>
        <time>2026-05-19T07:36:59Z</time>
      </trkpt>
      <trkpt lat="44.4641" lon="1.66818">
        <ele>234.7</ele>
        <time>2026-05-19T07:37:15Z</time>
      </trkpt>
      <trkpt lat="44.46409" lon="1.66818">
        <ele>234.7</ele>
        <time>2026-05-19T07:37:16Z</time>
      </trkpt>
      <trkpt lat="44.46408" lon="1.66818">
        <ele>234.7</ele>
        <time>2026-05-19T07:37:17Z</time>
      </trkpt>
      <trkpt lat="44.46403" lon="1.66813">
        <ele>236.14</ele>
        <time>2026-05-19T07:37:25Z</time>
      </trkpt>
      <trkpt lat="44.46396" lon="1.66808">
        <ele>236.62</ele>
        <time>2026-05-19T07:37:38Z</time>
      </trkpt>
      <trkpt lat="44.46402" lon="1.66815">
        <ele>235.66</ele>
        <time>2026-05-19T07:37:50Z</time>
      </trkpt>
      <trkpt lat="44.46416" lon="1.66822">
        <ele>232.78</ele>
        <time>2026-05-19T07:38:04Z</time>
      </trkpt>
      <trkpt lat="44.46429" lon="1.66841">
        <ele>229.89</ele>
        <time>2026-05-19T07:38:19Z</time>
      </trkpt>
      <trkpt lat="44.46441" lon="1.66862">
        <ele>227.97</ele>
        <time>2026-05-19T07:38:34Z</time>
      </trkpt>
      <trkpt lat="44.46448" lon="1.66879">
        <ele>226.05</ele>
        <time>2026-05-19T07:38:52Z</time>
      </trkpt>
      <trkpt lat="44.46438" lon="1.6688">
        <ele>226.05</ele>
        <time>2026-05-19T07:39:06Z</time>
      </trkpt>
      <trkpt lat="44.46432" lon="1.66876">
        <ele>227.49</ele>
        <time>2026-05-19T07:39:13Z</time>
      </trkpt>
      <trkpt lat="44.46426" lon="1.66875">
        <ele>228.45</ele>
        <time>2026-05-19T07:39:22Z</time>
      </trkpt>
      <trkpt lat="44.46417" lon="1.66884">
        <ele>229.89</ele>
        <time>2026-05-19T07:39:34Z</time>
      </trkpt>
      <trkpt lat="44.46416" lon="1.66893">
        <ele>230.37</ele>
        <time>2026-05-19T07:39:43Z</time>
      </trkpt>
      <trkpt lat="44.46416" lon="1.66894">
        <ele>230.37</ele>
        <time>2026-05-19T07:39:44Z</time>
      </trkpt>
      <trkpt lat="44.46413" lon="1.66917">
        <ele>228.93</ele>
        <time>2026-05-19T07:39:58Z</time>
      </trkpt>
      <trkpt lat="44.46409" lon="1.6695">
        <ele>227.01</ele>
        <time>2026-05-19T07:40:16Z</time>
      </trkpt>
      <trkpt lat="44.46415" lon="1.66966">
        <ele>225.57</ele>
        <time>2026-05-19T07:40:27Z</time>
      </trkpt>
      <trkpt lat="44.46414" lon="1.66974">
        <ele>225.09</ele>
        <time>2026-05-19T07:40:51Z</time>
      </trkpt>
      <trkpt lat="44.46411" lon="1.66995">
        <ele>223.64</ele>
        <time>2026-05-19T07:41:07Z</time>
      </trkpt>
      <trkpt lat="44.46406" lon="1.66997">
        <ele>223.64</ele>
        <time>2026-05-19T07:41:22Z</time>
      </trkpt>
      <trkpt lat="44.46405" lon="1.66997">
        <ele>225.57</ele>
        <time>2026-05-19T07:41:24Z</time>
      </trkpt>
      <trkpt lat="44.46395" lon="1.67009">
        <ele>227.49</ele>
        <time>2026-05-19T07:41:41Z</time>
      </trkpt>
      <trkpt lat="44.46385" lon="1.67016">
        <ele>230.37</ele>
        <time>2026-05-19T07:41:58Z</time>
      </trkpt>
      <trkpt lat="44.46371" lon="1.67022">
        <ele>233.74</ele>
        <time>2026-05-19T07:42:19Z</time>
      </trkpt>
      <trkpt lat="44.46357" lon="1.67036">
        <ele>237.1</ele>
        <time>2026-05-19T07:42:39Z</time>
      </trkpt>
      <trkpt lat="44.46352" lon="1.67047">
        <ele>239.51</ele>
        <time>2026-05-19T07:42:52Z</time>
      </trkpt>
      <trkpt lat="44.46341" lon="1.6706">
        <ele>242.39</ele>
        <time>2026-05-19T07:43:12Z</time>
      </trkpt>
      <trkpt lat="44.46333" lon="1.67067">
        <ele>244.31</ele>
        <time>2026-05-19T07:43:36Z</time>
      </trkpt>
      <trkpt lat="44.46327" lon="1.67074">
        <ele>245.75</ele>
        <time>2026-05-19T07:43:46Z</time>
      </trkpt>
      <trkpt lat="44.46322" lon="1.67085">
        <ele>246.72</ele>
        <time>2026-05-19T07:43:55Z</time>
      </trkpt>
      <trkpt lat="44.46318" lon="1.67106">
        <ele>249.12</ele>
        <time>2026-05-19T07:44:10Z</time>
      </trkpt>
      <trkpt lat="44.46311" lon="1.67125">
        <ele>252</ele>
        <time>2026-05-19T07:44:28Z</time>
      </trkpt>
      <trkpt lat="44.46311" lon="1.67142">
        <ele>254.89</ele>
        <time>2026-05-19T07:44:46Z</time>
      </trkpt>
      <trkpt lat="44.46306" lon="1.67161">
        <ele>258.25</ele>
        <time>2026-05-19T07:45:04Z</time>
      </trkpt>
      <trkpt lat="44.46305" lon="1.67182">
        <ele>260.65</ele>
        <time>2026-05-19T07:45:21Z</time>
      </trkpt>
      <trkpt lat="44.46302" lon="1.67202">
        <ele>263.54</ele>
        <time>2026-05-19T07:45:38Z</time>
      </trkpt>
      <trkpt lat="44.46306" lon="1.67211">
        <ele>264.98</ele>
        <time>2026-05-19T07:45:56Z</time>
      </trkpt>
      <trkpt lat="44.46302" lon="1.67222">
        <ele>266.9</ele>
        <time>2026-05-19T07:46:18Z</time>
      </trkpt>
      <trkpt lat="44.46297" lon="1.67238">
        <ele>270.27</ele>
        <time>2026-05-19T07:46:35Z</time>
      </trkpt>
      <trkpt lat="44.46293" lon="1.67257">
        <ele>272.67</ele>
        <time>2026-05-19T07:46:52Z</time>
      </trkpt>
      <trkpt lat="44.4629" lon="1.6728">
        <ele>276.04</ele>
        <time>2026-05-19T07:47:11Z</time>
      </trkpt>
      <trkpt lat="44.46289" lon="1.67299">
        <ele>277.48</ele>
        <time>2026-05-19T07:47:29Z</time>
      </trkpt>
      <trkpt lat="44.46291" lon="1.67321">
        <ele>279.88</ele>
        <time>2026-05-19T07:47:44Z</time>
      </trkpt>
      <trkpt lat="44.46291" lon="1.67322">
        <ele>279.88</ele>
        <time>2026-05-19T07:47:45Z</time>
      </trkpt>
      <trkpt lat="44.46291" lon="1.67325">
        <ele>279.88</ele>
        <time>2026-05-19T07:47:46Z</time>
      </trkpt>
      <trkpt lat="44.46295" lon="1.67343">
        <ele>280.84</ele>
        <time>2026-05-19T07:48:00Z</time>
      </trkpt>
      <trkpt lat="44.46295" lon="1.67345">
        <ele>281.32</ele>
        <time>2026-05-19T07:48:02Z</time>
      </trkpt>
      <trkpt lat="44.46296" lon="1.67369">
        <ele>283.73</ele>
        <time>2026-05-19T07:48:22Z</time>
      </trkpt>
      <trkpt lat="44.46293" lon="1.67369">
        <ele>286.13</ele>
        <time>2026-05-19T07:48:38Z</time>
      </trkpt>
      <trkpt lat="44.46289" lon="1.67368">
        <ele>285.17</ele>
        <time>2026-05-19T07:49:03Z</time>
      </trkpt>
      <trkpt lat="44.46289" lon="1.67364">
        <ele>286.13</ele>
        <time>2026-05-19T07:49:11Z</time>
      </trkpt>
      <trkpt lat="44.46281" lon="1.67362">
        <ele>289.49</ele>
        <time>2026-05-19T07:49:26Z</time>
      </trkpt>
      <trkpt lat="44.46275" lon="1.67359">
        <ele>290.94</ele>
        <time>2026-05-19T07:49:47Z</time>
      </trkpt>
      <trkpt lat="44.46271" lon="1.67355">
        <ele>293.34</ele>
        <time>2026-05-19T07:49:58Z</time>
      </trkpt>
      <trkpt lat="44.46264" lon="1.6735">
        <ele>295.74</ele>
        <time>2026-05-19T07:50:13Z</time>
      </trkpt>
      <trkpt lat="44.46256" lon="1.67345">
        <ele>298.15</ele>
        <time>2026-05-19T07:50:29Z</time>
      </trkpt>
      <trkpt lat="44.46252" lon="1.67339">
        <ele>301.51</ele>
        <time>2026-05-19T07:50:42Z</time>
      </trkpt>
      <trkpt lat="44.46245" lon="1.6733">
        <ele>303.91</ele>
        <time>2026-05-19T07:50:57Z</time>
      </trkpt>
      <trkpt lat="44.46237" lon="1.67323">
        <ele>306.32</ele>
        <time>2026-05-19T07:51:13Z</time>
      </trkpt>
      <trkpt lat="44.46232" lon="1.67314">
        <ele>308.72</ele>
        <time>2026-05-19T07:51:27Z</time>
      </trkpt>
      <trkpt lat="44.46226" lon="1.673">
        <ele>311.6</ele>
        <time>2026-05-19T07:51:45Z</time>
      </trkpt>
      <trkpt lat="44.46218" lon="1.67279">
        <ele>314.01</ele>
        <time>2026-05-19T07:52:04Z</time>
      </trkpt>
      <trkpt lat="44.46209" lon="1.67264">
        <ele>315.93</ele>
        <time>2026-05-19T07:52:21Z</time>
      </trkpt>
      <trkpt lat="44.46201" lon="1.67245">
        <ele>318.33</ele>
        <time>2026-05-19T07:52:36Z</time>
      </trkpt>
      <trkpt lat="44.46198" lon="1.67223">
        <ele>320.74</ele>
        <time>2026-05-19T07:52:55Z</time>
      </trkpt>
      <trkpt lat="44.46196" lon="1.67212">
        <ele>320.74</ele>
        <time>2026-05-19T07:53:07Z</time>
      </trkpt>
      <trkpt lat="44.46182" lon="1.6721">
        <ele>320.74</ele>
        <time>2026-05-19T07:53:33Z</time>
      </trkpt>
      <trkpt lat="44.46186" lon="1.67206">
        <ele>321.22</ele>
        <time>2026-05-19T07:53:43Z</time>
      </trkpt>
      <trkpt lat="44.46187" lon="1.67194">
        <ele>322.66</ele>
        <time>2026-05-19T07:54:00Z</time>
      </trkpt>
      <trkpt lat="44.46184" lon="1.67196">
        <ele>324.1</ele>
        <time>2026-05-19T07:54:14Z</time>
      </trkpt>
      <trkpt lat="44.46186" lon="1.67194">
        <ele>324.1</ele>
        <time>2026-05-19T07:54:34Z</time>
      </trkpt>
      <trkpt lat="44.46184" lon="1.67193">
        <ele>324.1</ele>
        <time>2026-05-19T07:54:37Z</time>
      </trkpt>
      <trkpt lat="44.46178" lon="1.67183">
        <ele>326.5</ele>
        <time>2026-05-19T07:54:49Z</time>
      </trkpt>
      <trkpt lat="44.46174" lon="1.67175">
        <ele>328.43</ele>
        <time>2026-05-19T07:55:02Z</time>
      </trkpt>
      <trkpt lat="44.46169" lon="1.67167">
        <ele>331.31</ele>
        <time>2026-05-19T07:55:14Z</time>
      </trkpt>
      <trkpt lat="44.46164" lon="1.67161">
        <ele>332.75</ele>
        <time>2026-05-19T07:55:21Z</time>
      </trkpt>
      <trkpt lat="44.46161" lon="1.67154">
        <ele>333.71</ele>
        <time>2026-05-19T07:55:26Z</time>
      </trkpt>
      <trkpt lat="44.46154" lon="1.67156">
        <ele>335.64</ele>
        <time>2026-05-19T07:55:38Z</time>
      </trkpt>
      <trkpt lat="44.46148" lon="1.67157">
        <ele>338.04</ele>
        <time>2026-05-19T07:55:53Z</time>
      </trkpt>
      <trkpt lat="44.46142" lon="1.67157">
        <ele>339</ele>
        <time>2026-05-19T07:56:09Z</time>
      </trkpt>
      <trkpt lat="44.46131" lon="1.6715">
        <ele>340.92</ele>
        <time>2026-05-19T07:56:22Z</time>
      </trkpt>
      <trkpt lat="44.46124" lon="1.67159">
        <ele>341.41</ele>
        <time>2026-05-19T07:56:44Z</time>
      </trkpt>
      <trkpt lat="44.46121" lon="1.67161">
        <ele>341.41</ele>
        <time>2026-05-19T07:57:14Z</time>
      </trkpt>
      <trkpt lat="44.46121" lon="1.6716">
        <ele>341.41</ele>
        <time>2026-05-19T07:57:55Z</time>
      </trkpt>
      <trkpt lat="44.46106" lon="1.67153">
        <ele>342.85</ele>
        <time>2026-05-19T07:58:10Z</time>
      </trkpt>
      <trkpt lat="44.46104" lon="1.67152">
        <ele>342.85</ele>
        <time>2026-05-19T07:58:11Z</time>
      </trkpt>
      <trkpt lat="44.46097" lon="1.67151">
        <ele>342.85</ele>
        <time>2026-05-19T07:58:16Z</time>
      </trkpt>
      <trkpt lat="44.46093" lon="1.6715">
        <ele>342.85</ele>
        <time>2026-05-19T07:58:19Z</time>
      </trkpt>
      <trkpt lat="44.4609" lon="1.67151">
        <ele>342.85</ele>
        <time>2026-05-19T07:58:21Z</time>
      </trkpt>
      <trkpt lat="44.46072" lon="1.67137">
        <ele>342.85</ele>
        <time>2026-05-19T07:58:35Z</time>
      </trkpt>
      <trkpt lat="44.46066" lon="1.67135">
        <ele>341.41</ele>
        <time>2026-05-19T07:58:50Z</time>
      </trkpt>
      <trkpt lat="44.46068" lon="1.67131">
        <ele>341.41</ele>
        <time>2026-05-19T07:59:07Z</time>
      </trkpt>
      <trkpt lat="44.46063" lon="1.67129">
        <ele>341.41</ele>
        <time>2026-05-19T07:59:11Z</time>
      </trkpt>
      <trkpt lat="44.46058" lon="1.67129">
        <ele>341.41</ele>
        <time>2026-05-19T07:59:15Z</time>
      </trkpt>
      <trkpt lat="44.46039" lon="1.67127">
        <ele>340.92</ele>
        <time>2026-05-19T07:59:30Z</time>
      </trkpt>
      <trkpt lat="44.4602" lon="1.67121">
        <ele>339.96</ele>
        <time>2026-05-19T07:59:48Z</time>
      </trkpt>
      <trkpt lat="44.46002" lon="1.67119">
        <ele>340.92</ele>
        <time>2026-05-19T08:00:03Z</time>
      </trkpt>
      <trkpt lat="44.45983" lon="1.67124">
        <ele>342.37</ele>
        <time>2026-05-19T08:00:17Z</time>
      </trkpt>
      <trkpt lat="44.45966" lon="1.67133">
        <ele>343.33</ele>
        <time>2026-05-19T08:00:29Z</time>
      </trkpt>
      <trkpt lat="44.45942" lon="1.67138">
        <ele>344.77</ele>
        <time>2026-05-19T08:00:49Z</time>
      </trkpt>
      <trkpt lat="44.45925" lon="1.67127">
        <ele>344.77</ele>
        <time>2026-05-19T08:01:05Z</time>
      </trkpt>
      <trkpt lat="44.45914" lon="1.67108">
        <ele>344.77</ele>
        <time>2026-05-19T08:01:19Z</time>
      </trkpt>
      <trkpt lat="44.45911" lon="1.67102">
        <ele>344.77</ele>
        <time>2026-05-19T08:01:23Z</time>
      </trkpt>
      <trkpt lat="44.45909" lon="1.67101">
        <ele>343.33</ele>
        <time>2026-05-19T08:01:25Z</time>
      </trkpt>
      <trkpt lat="44.459" lon="1.67092">
        <ele>343.33</ele>
        <time>2026-05-19T08:01:34Z</time>
      </trkpt>
      <trkpt lat="44.45893" lon="1.67068">
        <ele>341.41</ele>
        <time>2026-05-19T08:01:49Z</time>
      </trkpt>
      <trkpt lat="44.45889" lon="1.67045">
        <ele>339.48</ele>
        <time>2026-05-19T08:02:04Z</time>
      </trkpt>
      <trkpt lat="44.45874" lon="1.6702">
        <ele>337.56</ele>
        <time>2026-05-19T08:02:20Z</time>
      </trkpt>
      <trkpt lat="44.45853" lon="1.67003">
        <ele>337.56</ele>
        <time>2026-05-19T08:02:35Z</time>
      </trkpt>
      <trkpt lat="44.4584" lon="1.66996">
        <ele>339.96</ele>
        <time>2026-05-19T08:02:48Z</time>
      </trkpt>
      <trkpt lat="44.45829" lon="1.66986">
        <ele>342.37</ele>
        <time>2026-05-19T08:03:01Z</time>
      </trkpt>
      <trkpt lat="44.45812" lon="1.66969">
        <ele>344.77</ele>
        <time>2026-05-19T08:03:20Z</time>
      </trkpt>
      <trkpt lat="44.45808" lon="1.66964">
        <ele>345.73</ele>
        <time>2026-05-19T08:03:25Z</time>
      </trkpt>
      <trkpt lat="44.45797" lon="1.66947">
        <ele>347.17</ele>
        <time>2026-05-19T08:03:39Z</time>
      </trkpt>
      <trkpt lat="44.45788" lon="1.66926">
        <ele>348.13</ele>
        <time>2026-05-19T08:03:53Z</time>
      </trkpt>
      <trkpt lat="44.45781" lon="1.66903">
        <ele>349.58</ele>
        <time>2026-05-19T08:04:11Z</time>
      </trkpt>
      <trkpt lat="44.4577" lon="1.66878">
        <ele>350.54</ele>
        <time>2026-05-19T08:04:28Z</time>
      </trkpt>
      <trkpt lat="44.45767" lon="1.66871">
        <ele>351.5</ele>
        <time>2026-05-19T08:04:33Z</time>
      </trkpt>
      <trkpt lat="44.45758" lon="1.66852">
        <ele>352.46</ele>
        <time>2026-05-19T08:04:46Z</time>
      </trkpt>
      <trkpt lat="44.45743" lon="1.66827">
        <ele>352.94</ele>
        <time>2026-05-19T08:05:04Z</time>
      </trkpt>
      <trkpt lat="44.45716" lon="1.66818">
        <ele>354.38</ele>
        <time>2026-05-19T08:05:22Z</time>
      </trkpt>
      <trkpt lat="44.45698" lon="1.66812">
        <ele>355.34</ele>
        <time>2026-05-19T08:05:38Z</time>
      </trkpt>
      <trkpt lat="44.45697" lon="1.66812">
        <ele>355.34</ele>
        <time>2026-05-19T08:05:39Z</time>
      </trkpt>
      <trkpt lat="44.45669" lon="1.66826">
        <ele>358.23</ele>
        <time>2026-05-19T08:05:57Z</time>
      </trkpt>
      <trkpt lat="44.45659" lon="1.66832">
        <ele>359.67</ele>
        <time>2026-05-19T08:06:06Z</time>
      </trkpt>
      <trkpt lat="44.45652" lon="1.66825">
        <ele>360.63</ele>
        <time>2026-05-19T08:06:16Z</time>
      </trkpt>
      <trkpt lat="44.4565" lon="1.66812">
        <ele>361.59</ele>
        <time>2026-05-19T08:06:32Z</time>
      </trkpt>
      <trkpt lat="44.45649" lon="1.66802">
        <ele>362.55</ele>
        <time>2026-05-19T08:06:48Z</time>
      </trkpt>
      <trkpt lat="44.45647" lon="1.66794">
        <ele>363.04</ele>
        <time>2026-05-19T08:06:53Z</time>
      </trkpt>
      <trkpt lat="44.45646" lon="1.66788">
        <ele>363.52</ele>
        <time>2026-05-19T08:06:56Z</time>
      </trkpt>
      <trkpt lat="44.45637" lon="1.66763">
        <ele>365.92</ele>
        <time>2026-05-19T08:07:15Z</time>
      </trkpt>
      <trkpt lat="44.4563" lon="1.66744">
        <ele>366.88</ele>
        <time>2026-05-19T08:07:25Z</time>
      </trkpt>
      <trkpt lat="44.45624" lon="1.66721">
        <ele>366.88</ele>
        <time>2026-05-19T08:07:39Z</time>
      </trkpt>
      <trkpt lat="44.45617" lon="1.6669">
        <ele>366.88</ele>
        <time>2026-05-19T08:07:56Z</time>
      </trkpt>
      <trkpt lat="44.45611" lon="1.66666">
        <ele>366.88</ele>
        <time>2026-05-19T08:08:10Z</time>
      </trkpt>
      <trkpt lat="44.456" lon="1.66637">
        <ele>366.88</ele>
        <time>2026-05-19T08:08:25Z</time>
      </trkpt>
      <trkpt lat="44.45589" lon="1.66608">
        <ele>367.36</ele>
        <time>2026-05-19T08:08:40Z</time>
      </trkpt>
      <trkpt lat="44.45577" lon="1.66585">
        <ele>367.84</ele>
        <time>2026-05-19T08:08:55Z</time>
      </trkpt>
      <trkpt lat="44.4557" lon="1.66579">
        <ele>367.84</ele>
        <time>2026-05-19T08:09:04Z</time>
      </trkpt>
      <trkpt lat="44.45548" lon="1.66581">
        <ele>366.4</ele>
        <time>2026-05-19T08:09:20Z</time>
      </trkpt>
      <trkpt lat="44.4553" lon="1.66584">
        <ele>364.96</ele>
        <time>2026-05-19T08:09:31Z</time>
      </trkpt>
      <trkpt lat="44.45515" lon="1.66586">
        <ele>364.48</ele>
        <time>2026-05-19T08:09:42Z</time>
      </trkpt>
      <trkpt lat="44.45513" lon="1.66587">
        <ele>364.48</ele>
        <time>2026-05-19T08:09:44Z</time>
      </trkpt>
      <trkpt lat="44.45486" lon="1.66584">
        <ele>363.52</ele>
        <time>2026-05-19T08:10:03Z</time>
      </trkpt>
      <trkpt lat="44.45464" lon="1.66576">
        <ele>362.55</ele>
        <time>2026-05-19T08:10:19Z</time>
      </trkpt>
      <trkpt lat="44.45442" lon="1.66563">
        <ele>361.11</ele>
        <time>2026-05-19T08:10:35Z</time>
      </trkpt>
      <trkpt lat="44.4542" lon="1.66564">
        <ele>359.67</ele>
        <time>2026-05-19T08:10:50Z</time>
      </trkpt>
      <trkpt lat="44.45399" lon="1.66565">
        <ele>358.71</ele>
        <time>2026-05-19T08:11:05Z</time>
      </trkpt>
      <trkpt lat="44.45379" lon="1.66564">
        <ele>357.27</ele>
        <time>2026-05-19T08:11:19Z</time>
      </trkpt>
      <trkpt lat="44.45354" lon="1.66562">
        <ele>356.31</ele>
        <time>2026-05-19T08:11:34Z</time>
      </trkpt>
      <trkpt lat="44.45329" lon="1.66569">
        <ele>354.38</ele>
        <time>2026-05-19T08:11:49Z</time>
      </trkpt>
      <trkpt lat="44.45313" lon="1.66568">
        <ele>353.42</ele>
        <time>2026-05-19T08:12:01Z</time>
      </trkpt>
      <trkpt lat="44.45307" lon="1.66566">
        <ele>352.94</ele>
        <time>2026-05-19T08:12:05Z</time>
      </trkpt>
      <trkpt lat="44.45301" lon="1.66564">
        <ele>352.46</ele>
        <time>2026-05-19T08:12:09Z</time>
      </trkpt>
      <trkpt lat="44.45301" lon="1.66566">
        <ele>352.46</ele>
        <time>2026-05-19T08:12:10Z</time>
      </trkpt>
      <trkpt lat="44.453" lon="1.66566">
        <ele>352.46</ele>
        <time>2026-05-19T08:12:11Z</time>
      </trkpt>
      <trkpt lat="44.45299" lon="1.66565">
        <ele>351.5</ele>
        <time>2026-05-19T08:12:12Z</time>
      </trkpt>
      <trkpt lat="44.45298" lon="1.66565">
        <ele>351.5</ele>
        <time>2026-05-19T08:12:13Z</time>
      </trkpt>
      <trkpt lat="44.45273" lon="1.66559">
        <ele>349.1</ele>
        <time>2026-05-19T08:12:36Z</time>
      </trkpt>
      <trkpt lat="44.45256" lon="1.66548">
        <ele>347.65</ele>
        <time>2026-05-19T08:12:49Z</time>
      </trkpt>
      <trkpt lat="44.45236" lon="1.66536">
        <ele>345.25</ele>
        <time>2026-05-19T08:13:04Z</time>
      </trkpt>
      <trkpt lat="44.45215" lon="1.66523">
        <ele>344.29</ele>
        <time>2026-05-19T08:13:19Z</time>
      </trkpt>
      <trkpt lat="44.45199" lon="1.66516">
        <ele>343.33</ele>
        <time>2026-05-19T08:13:35Z</time>
      </trkpt>
      <trkpt lat="44.45198" lon="1.66517">
        <ele>343.33</ele>
        <time>2026-05-19T08:13:48Z</time>
      </trkpt>
      <trkpt lat="44.45197" lon="1.66516">
        <ele>343.33</ele>
        <time>2026-05-19T08:13:49Z</time>
      </trkpt>
      <trkpt lat="44.45196" lon="1.66515">
        <ele>343.33</ele>
        <time>2026-05-19T08:13:50Z</time>
      </trkpt>
      <trkpt lat="44.45184" lon="1.66507">
        <ele>343.33</ele>
        <time>2026-05-19T08:14:05Z</time>
      </trkpt>
      <trkpt lat="44.45185" lon="1.66509">
        <ele>342.85</ele>
        <time>2026-05-19T08:14:35Z</time>
      </trkpt>
      <trkpt lat="44.45183" lon="1.66505">
        <ele>342.85</ele>
        <time>2026-05-19T08:14:41Z</time>
      </trkpt>
      <trkpt lat="44.45181" lon="1.66505">
        <ele>342.85</ele>
        <time>2026-05-19T08:14:42Z</time>
      </trkpt>
      <trkpt lat="44.45178" lon="1.66505">
        <ele>342.85</ele>
        <time>2026-05-19T08:14:46Z</time>
      </trkpt>
      <trkpt lat="44.45176" lon="1.66504">
        <ele>342.85</ele>
        <time>2026-05-19T08:14:47Z</time>
      </trkpt>
      <trkpt lat="44.45156" lon="1.66498">
        <ele>342.85</ele>
        <time>2026-05-19T08:15:02Z</time>
      </trkpt>
      <trkpt lat="44.45133" lon="1.66493">
        <ele>342.37</ele>
        <time>2026-05-19T08:15:18Z</time>
      </trkpt>
      <trkpt lat="44.45128" lon="1.66494">
        <ele>341.89</ele>
        <time>2026-05-19T08:15:22Z</time>
      </trkpt>
      <trkpt lat="44.45127" lon="1.66494">
        <ele>341.89</ele>
        <time>2026-05-19T08:15:23Z</time>
      </trkpt>
      <trkpt lat="44.45105" lon="1.66491">
        <ele>341.41</ele>
        <time>2026-05-19T08:15:38Z</time>
      </trkpt>
      <trkpt lat="44.45084" lon="1.66487">
        <ele>340.44</ele>
        <time>2026-05-19T08:15:53Z</time>
      </trkpt>
      <trkpt lat="44.45062" lon="1.66485">
        <ele>339.96</ele>
        <time>2026-05-19T08:16:08Z</time>
      </trkpt>
      <trkpt lat="44.45038" lon="1.66489">
        <ele>339.96</ele>
        <time>2026-05-19T08:16:26Z</time>
      </trkpt>
      <trkpt lat="44.4501" lon="1.66493">
        <ele>339.96</ele>
        <time>2026-05-19T08:16:45Z</time>
      </trkpt>
      <trkpt lat="44.44993" lon="1.66497">
        <ele>339.96</ele>
        <time>2026-05-19T08:16:59Z</time>
      </trkpt>
      <trkpt lat="44.44967" lon="1.66505">
        <ele>339.48</ele>
        <time>2026-05-19T08:17:17Z</time>
      </trkpt>
      <trkpt lat="44.4496" lon="1.66505">
        <ele>340.92</ele>
        <time>2026-05-19T08:17:24Z</time>
      </trkpt>
      <trkpt lat="44.44935" lon="1.66501">
        <ele>341.89</ele>
        <time>2026-05-19T08:17:43Z</time>
      </trkpt>
      <trkpt lat="44.44927" lon="1.66496">
        <ele>342.85</ele>
        <time>2026-05-19T08:17:51Z</time>
      </trkpt>
      <trkpt lat="44.44926" lon="1.66495">
        <ele>342.85</ele>
        <time>2026-05-19T08:17:52Z</time>
      </trkpt>
      <trkpt lat="44.44924" lon="1.66494">
        <ele>342.85</ele>
        <time>2026-05-19T08:17:53Z</time>
      </trkpt>
      <trkpt lat="44.44923" lon="1.66493">
        <ele>343.33</ele>
        <time>2026-05-19T08:17:54Z</time>
      </trkpt>
      <trkpt lat="44.44921" lon="1.66492">
        <ele>343.33</ele>
        <time>2026-05-19T08:17:55Z</time>
      </trkpt>
      <trkpt lat="44.44905" lon="1.6648">
        <ele>343.81</ele>
        <time>2026-05-19T08:18:09Z</time>
      </trkpt>
      <trkpt lat="44.44904" lon="1.66479">
        <ele>343.81</ele>
        <time>2026-05-19T08:18:11Z</time>
      </trkpt>
      <trkpt lat="44.44902" lon="1.66479">
        <ele>343.81</ele>
        <time>2026-05-19T08:18:12Z</time>
      </trkpt>
      <trkpt lat="44.4489" lon="1.66474">
        <ele>342.37</ele>
        <time>2026-05-19T08:18:21Z</time>
      </trkpt>
      <trkpt lat="44.44869" lon="1.66465">
        <ele>339.96</ele>
        <time>2026-05-19T08:18:37Z</time>
      </trkpt>
      <trkpt lat="44.44851" lon="1.66466">
        <ele>338.52</ele>
        <time>2026-05-19T08:18:50Z</time>
      </trkpt>
      <trkpt lat="44.44834" lon="1.66483">
        <ele>337.56</ele>
        <time>2026-05-19T08:19:04Z</time>
      </trkpt>
      <trkpt lat="44.44826" lon="1.66505">
        <ele>336.12</ele>
        <time>2026-05-19T08:19:17Z</time>
      </trkpt>
      <trkpt lat="44.44819" lon="1.66508">
        <ele>336.12</ele>
        <time>2026-05-19T08:19:22Z</time>
      </trkpt>
      <trkpt lat="44.44817" lon="1.66509">
        <ele>335.64</ele>
        <time>2026-05-19T08:19:39Z</time>
      </trkpt>
      <trkpt lat="44.44818" lon="1.66507">
        <ele>335.64</ele>
        <time>2026-05-19T08:20:02Z</time>
      </trkpt>
      <trkpt lat="44.44818" lon="1.66506">
        <ele>335.64</ele>
        <time>2026-05-19T08:20:03Z</time>
      </trkpt>
      <trkpt lat="44.44821" lon="1.665">
        <ele>335.64</ele>
        <time>2026-05-19T08:20:08Z</time>
      </trkpt>
      <trkpt lat="44.44822" lon="1.66498">
        <ele>335.64</ele>
        <time>2026-05-19T08:20:09Z</time>
      </trkpt>
      <trkpt lat="44.44822" lon="1.66497">
        <ele>335.64</ele>
        <time>2026-05-19T08:20:10Z</time>
      </trkpt>
      <trkpt lat="44.44822" lon="1.66494">
        <ele>335.64</ele>
        <time>2026-05-19T08:20:11Z</time>
      </trkpt>
      <trkpt lat="44.44822" lon="1.66493">
        <ele>335.16</ele>
        <time>2026-05-19T08:20:12Z</time>
      </trkpt>
      <trkpt lat="44.4482" lon="1.66488">
        <ele>335.16</ele>
        <time>2026-05-19T08:20:15Z</time>
      </trkpt>
      <trkpt lat="44.44818" lon="1.66486">
        <ele>335.16</ele>
        <time>2026-05-19T08:20:16Z</time>
      </trkpt>
      <trkpt lat="44.44817" lon="1.66485">
        <ele>335.16</ele>
        <time>2026-05-19T08:20:17Z</time>
      </trkpt>
      <trkpt lat="44.44815" lon="1.66485">
        <ele>334.68</ele>
        <time>2026-05-19T08:20:18Z</time>
      </trkpt>
      <trkpt lat="44.44814" lon="1.66484">
        <ele>334.68</ele>
        <time>2026-05-19T08:20:19Z</time>
      </trkpt>
      <trkpt lat="44.44812" lon="1.66483">
        <ele>334.68</ele>
        <time>2026-05-19T08:20:20Z</time>
      </trkpt>
      <trkpt lat="44.4481" lon="1.66483">
        <ele>334.2</ele>
        <time>2026-05-19T08:20:21Z</time>
      </trkpt>
      <trkpt lat="44.44798" lon="1.66481">
        <ele>333.23</ele>
        <time>2026-05-19T08:20:30Z</time>
      </trkpt>
      <trkpt lat="44.44788" lon="1.66481">
        <ele>332.27</ele>
        <time>2026-05-19T08:20:42Z</time>
      </trkpt>
      <trkpt lat="44.44766" lon="1.66481">
        <ele>331.31</ele>
        <time>2026-05-19T08:20:57Z</time>
      </trkpt>
      <trkpt lat="44.44749" lon="1.66478">
        <ele>330.83</ele>
        <time>2026-05-19T08:21:10Z</time>
      </trkpt>
      <trkpt lat="44.44726" lon="1.66469">
        <ele>330.35</ele>
        <time>2026-05-19T08:21:28Z</time>
      </trkpt>
      <trkpt lat="44.44707" lon="1.66458">
        <ele>330.35</ele>
        <time>2026-05-19T08:21:46Z</time>
      </trkpt>
      <trkpt lat="44.44687" lon="1.66445">
        <ele>332.27</ele>
        <time>2026-05-19T08:22:04Z</time>
      </trkpt>
      <trkpt lat="44.44668" lon="1.66437">
        <ele>333.71</ele>
        <time>2026-05-19T08:22:22Z</time>
      </trkpt>
      <trkpt lat="44.4465" lon="1.66431">
        <ele>336.6</ele>
        <time>2026-05-19T08:22:39Z</time>
      </trkpt>
      <trkpt lat="44.44643" lon="1.66429">
        <ele>337.08</ele>
        <time>2026-05-19T08:22:45Z</time>
      </trkpt>
      <trkpt lat="44.44632" lon="1.66428">
        <ele>337.56</ele>
        <time>2026-05-19T08:22:52Z</time>
      </trkpt>
      <trkpt lat="44.44627" lon="1.66431">
        <ele>338.04</ele>
        <time>2026-05-19T08:22:57Z</time>
      </trkpt>
      <trkpt lat="44.44616" lon="1.66451">
        <ele>338.52</ele>
        <time>2026-05-19T08:23:12Z</time>
      </trkpt>
      <trkpt lat="44.44612" lon="1.66455">
        <ele>339</ele>
        <time>2026-05-19T08:23:16Z</time>
      </trkpt>
      <trkpt lat="44.4461" lon="1.66457">
        <ele>339</ele>
        <time>2026-05-19T08:23:17Z</time>
      </trkpt>
      <trkpt lat="44.44594" lon="1.66468">
        <ele>339.96</ele>
        <time>2026-05-19T08:23:31Z</time>
      </trkpt>
      <trkpt lat="44.44587" lon="1.66471">
        <ele>340.44</ele>
        <time>2026-05-19T08:23:37Z</time>
      </trkpt>
      <trkpt lat="44.44585" lon="1.66472">
        <ele>340.44</ele>
        <time>2026-05-19T08:23:38Z</time>
      </trkpt>
      <trkpt lat="44.44565" lon="1.66484">
        <ele>340.92</ele>
        <time>2026-05-19T08:23:55Z</time>
      </trkpt>
      <trkpt lat="44.44547" lon="1.66497">
        <ele>342.37</ele>
        <time>2026-05-19T08:24:12Z</time>
      </trkpt>
      <trkpt lat="44.44545" lon="1.66498">
        <ele>342.37</ele>
        <time>2026-05-19T08:24:15Z</time>
      </trkpt>
      <trkpt lat="44.44525" lon="1.66505">
        <ele>343.33</ele>
        <time>2026-05-19T08:24:30Z</time>
      </trkpt>
      <trkpt lat="44.4452" lon="1.66507">
        <ele>343.81</ele>
        <time>2026-05-19T08:24:36Z</time>
      </trkpt>
      <trkpt lat="44.44518" lon="1.66507">
        <ele>343.81</ele>
        <time>2026-05-19T08:24:37Z</time>
      </trkpt>
      <trkpt lat="44.44517" lon="1.66506">
        <ele>343.81</ele>
        <time>2026-05-19T08:24:38Z</time>
      </trkpt>
      <trkpt lat="44.445" lon="1.66502">
        <ele>345.25</ele>
        <time>2026-05-19T08:24:54Z</time>
      </trkpt>
      <trkpt lat="44.44486" lon="1.665">
        <ele>348.13</ele>
        <time>2026-05-19T08:25:10Z</time>
      </trkpt>
      <trkpt lat="44.44472" lon="1.66498">
        <ele>350.06</ele>
        <time>2026-05-19T08:25:25Z</time>
      </trkpt>
      <trkpt lat="44.44466" lon="1.66496">
        <ele>351.02</ele>
        <time>2026-05-19T08:25:31Z</time>
      </trkpt>
      <trkpt lat="44.44465" lon="1.66496">
        <ele>351.02</ele>
        <time>2026-05-19T08:25:32Z</time>
      </trkpt>
      <trkpt lat="44.44452" lon="1.66492">
        <ele>352.46</ele>
        <time>2026-05-19T08:25:46Z</time>
      </trkpt>
      <trkpt lat="44.44451" lon="1.66492">
        <ele>352.94</ele>
        <time>2026-05-19T08:25:47Z</time>
      </trkpt>
      <trkpt lat="44.44443" lon="1.6649">
        <ele>353.9</ele>
        <time>2026-05-19T08:25:55Z</time>
      </trkpt>
      <trkpt lat="44.44442" lon="1.6649">
        <ele>353.9</ele>
        <time>2026-05-19T08:25:56Z</time>
      </trkpt>
      <trkpt lat="44.44432" lon="1.66487">
        <ele>354.38</ele>
        <time>2026-05-19T08:26:04Z</time>
      </trkpt>
      <trkpt lat="44.44431" lon="1.66486">
        <ele>354.86</ele>
        <time>2026-05-19T08:26:05Z</time>
      </trkpt>
      <trkpt lat="44.44429" lon="1.66486">
        <ele>354.86</ele>
        <time>2026-05-19T08:26:06Z</time>
      </trkpt>
      <trkpt lat="44.44407" lon="1.6647">
        <ele>355.34</ele>
        <time>2026-05-19T08:26:22Z</time>
      </trkpt>
      <trkpt lat="44.44388" lon="1.66446">
        <ele>355.83</ele>
        <time>2026-05-19T08:26:41Z</time>
      </trkpt>
      <trkpt lat="44.44373" lon="1.66431">
        <ele>356.31</ele>
        <time>2026-05-19T08:26:59Z</time>
      </trkpt>
      <trkpt lat="44.44368" lon="1.66423">
        <ele>356.31</ele>
        <time>2026-05-19T08:27:06Z</time>
      </trkpt>
      <trkpt lat="44.44368" lon="1.66422">
        <ele>356.31</ele>
        <time>2026-05-19T08:27:07Z</time>
      </trkpt>
      <trkpt lat="44.44358" lon="1.66395">
        <ele>356.31</ele>
        <time>2026-05-19T08:27:24Z</time>
      </trkpt>
      <trkpt lat="44.44354" lon="1.66392">
        <ele>354.86</ele>
        <time>2026-05-19T08:27:27Z</time>
      </trkpt>
      <trkpt lat="44.44333" lon="1.66379">
        <ele>355.34</ele>
        <time>2026-05-19T08:27:44Z</time>
      </trkpt>
      <trkpt lat="44.4431" lon="1.66356">
        <ele>354.86</ele>
        <time>2026-05-19T08:28:02Z</time>
      </trkpt>
      <trkpt lat="44.44308" lon="1.66354">
        <ele>354.86</ele>
        <time>2026-05-19T08:28:04Z</time>
      </trkpt>
      <trkpt lat="44.44307" lon="1.66352">
        <ele>354.86</ele>
        <time>2026-05-19T08:28:05Z</time>
      </trkpt>
      <trkpt lat="44.44306" lon="1.66351">
        <ele>354.86</ele>
        <time>2026-05-19T08:28:06Z</time>
      </trkpt>
      <trkpt lat="44.44305" lon="1.6635">
        <ele>354.86</ele>
        <time>2026-05-19T08:28:07Z</time>
      </trkpt>
      <trkpt lat="44.44305" lon="1.66348">
        <ele>354.86</ele>
        <time>2026-05-19T08:28:08Z</time>
      </trkpt>
      <trkpt lat="44.443" lon="1.66342">
        <ele>356.31</ele>
        <time>2026-05-19T08:28:15Z</time>
      </trkpt>
      <trkpt lat="44.44289" lon="1.66327">
        <ele>358.23</ele>
        <time>2026-05-19T08:28:34Z</time>
      </trkpt>
      <trkpt lat="44.44279" lon="1.66314">
        <ele>360.63</ele>
        <time>2026-05-19T08:28:49Z</time>
      </trkpt>
      <trkpt lat="44.44271" lon="1.66304">
        <ele>362.07</ele>
        <time>2026-05-19T08:28:58Z</time>
      </trkpt>
      <trkpt lat="44.4427" lon="1.66303">
        <ele>362.07</ele>
        <time>2026-05-19T08:28:59Z</time>
      </trkpt>
      <trkpt lat="44.44255" lon="1.66283">
        <ele>364.96</ele>
        <time>2026-05-19T08:29:17Z</time>
      </trkpt>
      <trkpt lat="44.44238" lon="1.66266">
        <ele>365.92</ele>
        <time>2026-05-19T08:29:33Z</time>
      </trkpt>
      <trkpt lat="44.44237" lon="1.66265">
        <ele>365.92</ele>
        <time>2026-05-19T08:29:34Z</time>
      </trkpt>
      <trkpt lat="44.44229" lon="1.66255">
        <ele>367.36</ele>
        <time>2026-05-19T08:29:43Z</time>
      </trkpt>
      <trkpt lat="44.44215" lon="1.66238">
        <ele>368.32</ele>
        <time>2026-05-19T08:29:58Z</time>
      </trkpt>
      <trkpt lat="44.44198" lon="1.6622">
        <ele>369.76</ele>
        <time>2026-05-19T08:30:17Z</time>
      </trkpt>
      <trkpt lat="44.44183" lon="1.66202">
        <ele>371.21</ele>
        <time>2026-05-19T08:30:33Z</time>
      </trkpt>
      <trkpt lat="44.44167" lon="1.66185">
        <ele>373.61</ele>
        <time>2026-05-19T08:30:49Z</time>
      </trkpt>
      <trkpt lat="44.44146" lon="1.66163">
        <ele>374.57</ele>
        <time>2026-05-19T08:31:08Z</time>
      </trkpt>
      <trkpt lat="44.44145" lon="1.66162">
        <ele>374.57</ele>
        <time>2026-05-19T08:31:09Z</time>
      </trkpt>
      <trkpt lat="44.44127" lon="1.66144">
        <ele>376.01</ele>
        <time>2026-05-19T08:31:26Z</time>
      </trkpt>
      <trkpt lat="44.44108" lon="1.6612">
        <ele>376.49</ele>
        <time>2026-05-19T08:31:43Z</time>
      </trkpt>
      <trkpt lat="44.441" lon="1.66108">
        <ele>376.97</ele>
        <time>2026-05-19T08:31:54Z</time>
      </trkpt>
      <trkpt lat="44.44099" lon="1.66106">
        <ele>376.97</ele>
        <time>2026-05-19T08:31:55Z</time>
      </trkpt>
      <trkpt lat="44.44092" lon="1.66093">
        <ele>377.45</ele>
        <time>2026-05-19T08:32:11Z</time>
      </trkpt>
      <trkpt lat="44.44087" lon="1.6608">
        <ele>377.45</ele>
        <time>2026-05-19T08:32:20Z</time>
      </trkpt>
      <trkpt lat="44.44077" lon="1.66054">
        <ele>376.01</ele>
        <time>2026-05-19T08:32:37Z</time>
      </trkpt>
      <trkpt lat="44.44076" lon="1.66042">
        <ele>376.01</ele>
        <time>2026-05-19T08:32:45Z</time>
      </trkpt>
      <trkpt lat="44.44075" lon="1.6604">
        <ele>376.01</ele>
        <time>2026-05-19T08:32:46Z</time>
      </trkpt>
      <trkpt lat="44.44075" lon="1.66037">
        <ele>376.01</ele>
        <time>2026-05-19T08:32:47Z</time>
      </trkpt>
      <trkpt lat="44.44072" lon="1.66017">
        <ele>375.05</ele>
        <time>2026-05-19T08:32:58Z</time>
      </trkpt>
      <trkpt lat="44.44072" lon="1.66015">
        <ele>375.05</ele>
        <time>2026-05-19T08:32:59Z</time>
      </trkpt>
      <trkpt lat="44.44071" lon="1.66012">
        <ele>375.05</ele>
        <time>2026-05-19T08:33:00Z</time>
      </trkpt>
      <trkpt lat="44.44068" lon="1.65982">
        <ele>374.57</ele>
        <time>2026-05-19T08:33:16Z</time>
      </trkpt>
      <trkpt lat="44.44067" lon="1.65952">
        <ele>373.61</ele>
        <time>2026-05-19T08:33:33Z</time>
      </trkpt>
      <trkpt lat="44.44067" lon="1.65948">
        <ele>373.61</ele>
        <time>2026-05-19T08:33:35Z</time>
      </trkpt>
      <trkpt lat="44.44068" lon="1.65946">
        <ele>373.61</ele>
        <time>2026-05-19T08:33:36Z</time>
      </trkpt>
      <trkpt lat="44.44067" lon="1.65944">
        <ele>373.61</ele>
        <time>2026-05-19T08:33:37Z</time>
      </trkpt>
      <trkpt lat="44.44067" lon="1.65942">
        <ele>373.61</ele>
        <time>2026-05-19T08:33:38Z</time>
      </trkpt>
      <trkpt lat="44.44066" lon="1.65939">
        <ele>373.61</ele>
        <time>2026-05-19T08:33:39Z</time>
      </trkpt>
      <trkpt lat="44.44052" lon="1.65912">
        <ele>373.61</ele>
        <time>2026-05-19T08:33:57Z</time>
      </trkpt>
      <trkpt lat="44.44048" lon="1.65905">
        <ele>375.05</ele>
        <time>2026-05-19T08:34:02Z</time>
      </trkpt>
      <trkpt lat="44.44033" lon="1.65887">
        <ele>376.49</ele>
        <time>2026-05-19T08:34:20Z</time>
      </trkpt>
      <trkpt lat="44.44013" lon="1.65871">
        <ele>378.42</ele>
        <time>2026-05-19T08:34:39Z</time>
      </trkpt>
      <trkpt lat="44.43993" lon="1.65852">
        <ele>379.86</ele>
        <time>2026-05-19T08:34:57Z</time>
      </trkpt>
      <trkpt lat="44.43979" lon="1.65837">
        <ele>382.26</ele>
        <time>2026-05-19T08:35:15Z</time>
      </trkpt>
      <trkpt lat="44.43973" lon="1.65824">
        <ele>385.15</ele>
        <time>2026-05-19T08:35:30Z</time>
      </trkpt>
      <trkpt lat="44.43963" lon="1.65808">
        <ele>386.11</ele>
        <time>2026-05-19T08:35:43Z</time>
      </trkpt>
      <trkpt lat="44.43949" lon="1.65781">
        <ele>386.59</ele>
        <time>2026-05-19T08:36:00Z</time>
      </trkpt>
      <trkpt lat="44.43936" lon="1.65752">
        <ele>383.7</ele>
        <time>2026-05-19T08:36:17Z</time>
      </trkpt>
      <trkpt lat="44.43925" lon="1.65728">
        <ele>382.26</ele>
        <time>2026-05-19T08:36:31Z</time>
      </trkpt>
      <trkpt lat="44.43916" lon="1.65699">
        <ele>380.34</ele>
        <time>2026-05-19T08:36:49Z</time>
      </trkpt>
      <trkpt lat="44.43904" lon="1.65683">
        <ele>379.38</ele>
        <time>2026-05-19T08:37:01Z</time>
      </trkpt>
      <trkpt lat="44.43903" lon="1.65682">
        <ele>379.38</ele>
        <time>2026-05-19T08:37:02Z</time>
      </trkpt>
      <trkpt lat="44.43886" lon="1.65665">
        <ele>377.94</ele>
        <time>2026-05-19T08:37:17Z</time>
      </trkpt>
      <trkpt lat="44.43862" lon="1.65637">
        <ele>376.97</ele>
        <time>2026-05-19T08:37:34Z</time>
      </trkpt>
      <trkpt lat="44.43844" lon="1.65623">
        <ele>376.01</ele>
        <time>2026-05-19T08:37:50Z</time>
      </trkpt>
      <trkpt lat="44.43842" lon="1.65621">
        <ele>376.01</ele>
        <time>2026-05-19T08:37:51Z</time>
      </trkpt>
      <trkpt lat="44.4384" lon="1.65619">
        <ele>376.01</ele>
        <time>2026-05-19T08:37:52Z</time>
      </trkpt>
      <trkpt lat="44.43825" lon="1.65604">
        <ele>374.09</ele>
        <time>2026-05-19T08:38:05Z</time>
      </trkpt>
      <trkpt lat="44.43811" lon="1.6559">
        <ele>372.65</ele>
        <time>2026-05-19T08:38:19Z</time>
      </trkpt>
      <trkpt lat="44.4379" lon="1.6558">
        <ele>369.28</ele>
        <time>2026-05-19T08:38:35Z</time>
      </trkpt>
      <trkpt lat="44.43782" lon="1.65574">
        <ele>368.8</ele>
        <time>2026-05-19T08:38:42Z</time>
      </trkpt>
      <trkpt lat="44.43781" lon="1.65574">
        <ele>368.32</ele>
        <time>2026-05-19T08:38:43Z</time>
      </trkpt>
      <trkpt lat="44.43761" lon="1.65564">
        <ele>366.4</ele>
        <time>2026-05-19T08:38:58Z</time>
      </trkpt>
      <trkpt lat="44.43751" lon="1.65562">
        <ele>365.92</ele>
        <time>2026-05-19T08:39:06Z</time>
      </trkpt>
      <trkpt lat="44.4375" lon="1.65562">
        <ele>365.92</ele>
        <time>2026-05-19T08:39:07Z</time>
      </trkpt>
      <trkpt lat="44.43748" lon="1.65561">
        <ele>365.44</ele>
        <time>2026-05-19T08:39:08Z</time>
      </trkpt>
      <trkpt lat="44.43746" lon="1.65561">
        <ele>365.44</ele>
        <time>2026-05-19T08:39:09Z</time>
      </trkpt>
      <trkpt lat="44.43745" lon="1.6556">
        <ele>365.44</ele>
        <time>2026-05-19T08:39:10Z</time>
      </trkpt>
      <trkpt lat="44.43743" lon="1.6556">
        <ele>365.44</ele>
        <time>2026-05-19T08:39:11Z</time>
      </trkpt>
      <trkpt lat="44.43742" lon="1.65559">
        <ele>365.44</ele>
        <time>2026-05-19T08:39:12Z</time>
      </trkpt>
      <trkpt lat="44.43738" lon="1.65562">
        <ele>364.96</ele>
        <time>2026-05-19T08:39:29Z</time>
      </trkpt>
      <trkpt lat="44.43737" lon="1.65562">
        <ele>364.96</ele>
        <time>2026-05-19T08:39:31Z</time>
      </trkpt>
      <trkpt lat="44.43736" lon="1.6556">
        <ele>364.96</ele>
        <time>2026-05-19T08:39:32Z</time>
      </trkpt>
      <trkpt lat="44.43719" lon="1.6555">
        <ele>364</ele>
        <time>2026-05-19T08:39:46Z</time>
      </trkpt>
      <trkpt lat="44.43709" lon="1.65547">
        <ele>364</ele>
        <time>2026-05-19T08:39:55Z</time>
      </trkpt>
      <trkpt lat="44.43708" lon="1.65546">
        <ele>364</ele>
        <time>2026-05-19T08:39:56Z</time>
      </trkpt>
      <trkpt lat="44.43706" lon="1.65546">
        <ele>364</ele>
        <time>2026-05-19T08:39:57Z</time>
      </trkpt>
      <trkpt lat="44.43687" lon="1.65536">
        <ele>364</ele>
        <time>2026-05-19T08:40:13Z</time>
      </trkpt>
      <trkpt lat="44.43664" lon="1.65525">
        <ele>364</ele>
        <time>2026-05-19T08:40:31Z</time>
      </trkpt>
      <trkpt lat="44.43647" lon="1.65519">
        <ele>364</ele>
        <time>2026-05-19T08:40:45Z</time>
      </trkpt>
      <trkpt lat="44.43624" lon="1.65519">
        <ele>365.44</ele>
        <time>2026-05-19T08:41:00Z</time>
      </trkpt>
      <trkpt lat="44.436" lon="1.6552">
        <ele>365.44</ele>
        <time>2026-05-19T08:41:17Z</time>
      </trkpt>
      <trkpt lat="44.4359" lon="1.65517">
        <ele>365.44</ele>
        <time>2026-05-19T08:41:27Z</time>
      </trkpt>
      <trkpt lat="44.43589" lon="1.65516">
        <ele>365.44</ele>
        <time>2026-05-19T08:41:28Z</time>
      </trkpt>
      <trkpt lat="44.43589" lon="1.65514">
        <ele>365.44</ele>
        <time>2026-05-19T08:41:29Z</time>
      </trkpt>
      <trkpt lat="44.43588" lon="1.65512">
        <ele>365.44</ele>
        <time>2026-05-19T08:41:30Z</time>
      </trkpt>
      <trkpt lat="44.43587" lon="1.65503">
        <ele>363.52</ele>
        <time>2026-05-19T08:41:36Z</time>
      </trkpt>
      <trkpt lat="44.43581" lon="1.6548">
        <ele>361.11</ele>
        <time>2026-05-19T08:41:49Z</time>
      </trkpt>
      <trkpt lat="44.43576" lon="1.6546">
        <ele>357.75</ele>
        <time>2026-05-19T08:42:03Z</time>
      </trkpt>
      <trkpt lat="44.43571" lon="1.65439">
        <ele>354.38</ele>
        <time>2026-05-19T08:42:18Z</time>
      </trkpt>
      <trkpt lat="44.43565" lon="1.65417">
        <ele>352.46</ele>
        <time>2026-05-19T08:42:33Z</time>
      </trkpt>
      <trkpt lat="44.43559" lon="1.65392">
        <ele>351.02</ele>
        <time>2026-05-19T08:42:50Z</time>
      </trkpt>
      <trkpt lat="44.43558" lon="1.65364">
        <ele>351.02</ele>
        <time>2026-05-19T08:43:04Z</time>
      </trkpt>
      <trkpt lat="44.43561" lon="1.65338">
        <ele>350.54</ele>
        <time>2026-05-19T08:43:18Z</time>
      </trkpt>
      <trkpt lat="44.43561" lon="1.65336">
        <ele>350.54</ele>
        <time>2026-05-19T08:43:19Z</time>
      </trkpt>
      <trkpt lat="44.43571" lon="1.6531">
        <ele>350.54</ele>
        <time>2026-05-19T08:43:34Z</time>
      </trkpt>
      <trkpt lat="44.43579" lon="1.65289">
        <ele>350.54</ele>
        <time>2026-05-19T08:43:49Z</time>
      </trkpt>
      <trkpt lat="44.43584" lon="1.65274">
        <ele>349.58</ele>
        <time>2026-05-19T08:43:58Z</time>
      </trkpt>
      <trkpt lat="44.43585" lon="1.65272">
        <ele>349.58</ele>
        <time>2026-05-19T08:43:59Z</time>
      </trkpt>
      <trkpt lat="44.43596" lon="1.65244">
        <ele>348.62</ele>
        <time>2026-05-19T08:44:15Z</time>
      </trkpt>
      <trkpt lat="44.43608" lon="1.65222">
        <ele>347.17</ele>
        <time>2026-05-19T08:44:30Z</time>
      </trkpt>
      <trkpt lat="44.43617" lon="1.65197">
        <ele>345.25</ele>
        <time>2026-05-19T08:44:44Z</time>
      </trkpt>
      <trkpt lat="44.43619" lon="1.65195">
        <ele>345.25</ele>
        <time>2026-05-19T08:44:46Z</time>
      </trkpt>
      <trkpt lat="44.43633" lon="1.65173">
        <ele>343.33</ele>
        <time>2026-05-19T08:45:02Z</time>
      </trkpt>
      <trkpt lat="44.43642" lon="1.65156">
        <ele>342.37</ele>
        <time>2026-05-19T08:45:15Z</time>
      </trkpt>
      <trkpt lat="44.43643" lon="1.65155">
        <ele>341.41</ele>
        <time>2026-05-19T08:45:16Z</time>
      </trkpt>
      <trkpt lat="44.43659" lon="1.65135">
        <ele>339.48</ele>
        <time>2026-05-19T08:45:32Z</time>
      </trkpt>
      <trkpt lat="44.43672" lon="1.6512">
        <ele>337.08</ele>
        <time>2026-05-19T08:45:45Z</time>
      </trkpt>
      <trkpt lat="44.43673" lon="1.65117">
        <ele>337.08</ele>
        <time>2026-05-19T08:45:48Z</time>
      </trkpt>
      <trkpt lat="44.43671" lon="1.65112">
        <ele>336.12</ele>
        <time>2026-05-19T08:46:02Z</time>
      </trkpt>
      <trkpt lat="44.43671" lon="1.6511">
        <ele>336.6</ele>
        <time>2026-05-19T08:46:12Z</time>
      </trkpt>
      <trkpt lat="44.4367" lon="1.65107">
        <ele>335.64</ele>
        <time>2026-05-19T08:46:15Z</time>
      </trkpt>
      <trkpt lat="44.43666" lon="1.65103">
        <ele>334.68</ele>
        <time>2026-05-19T08:46:20Z</time>
      </trkpt>
      <trkpt lat="44.43664" lon="1.65101">
        <ele>334.68</ele>
        <time>2026-05-19T08:46:22Z</time>
      </trkpt>
      <trkpt lat="44.43662" lon="1.65096">
        <ele>333.71</ele>
        <time>2026-05-19T08:46:27Z</time>
      </trkpt>
      <trkpt lat="44.43661" lon="1.65094">
        <ele>333.23</ele>
        <time>2026-05-19T08:46:28Z</time>
      </trkpt>
      <trkpt lat="44.4366" lon="1.65093">
        <ele>333.23</ele>
        <time>2026-05-19T08:46:29Z</time>
      </trkpt>
      <trkpt lat="44.43659" lon="1.65092">
        <ele>333.23</ele>
        <time>2026-05-19T08:46:30Z</time>
      </trkpt>
      <trkpt lat="44.43658" lon="1.6509">
        <ele>333.23</ele>
        <time>2026-05-19T08:46:31Z</time>
      </trkpt>
      <trkpt lat="44.43644" lon="1.65068">
        <ele>329.87</ele>
        <time>2026-05-19T08:46:46Z</time>
      </trkpt>
      <trkpt lat="44.4363" lon="1.65049">
        <ele>327.95</ele>
        <time>2026-05-19T08:47:01Z</time>
      </trkpt>
      <trkpt lat="44.43618" lon="1.65026">
        <ele>326.99</ele>
        <time>2026-05-19T08:47:16Z</time>
      </trkpt>
      <trkpt lat="44.43618" lon="1.65001">
        <ele>326.99</ele>
        <time>2026-05-19T08:47:30Z</time>
      </trkpt>
      <trkpt lat="44.43618" lon="1.65">
        <ele>326.99</ele>
        <time>2026-05-19T08:47:31Z</time>
      </trkpt>
      <trkpt lat="44.43618" lon="1.64998">
        <ele>326.99</ele>
        <time>2026-05-19T08:47:32Z</time>
      </trkpt>
      <trkpt lat="44.43619" lon="1.64968">
        <ele>328.43</ele>
        <time>2026-05-19T08:47:49Z</time>
      </trkpt>
      <trkpt lat="44.43619" lon="1.64966">
        <ele>328.43</ele>
        <time>2026-05-19T08:47:50Z</time>
      </trkpt>
      <trkpt lat="44.43624" lon="1.64934">
        <ele>329.87</ele>
        <time>2026-05-19T08:48:04Z</time>
      </trkpt>
      <trkpt lat="44.43628" lon="1.64906">
        <ele>331.79</ele>
        <time>2026-05-19T08:48:18Z</time>
      </trkpt>
      <trkpt lat="44.43628" lon="1.64899">
        <ele>332.75</ele>
        <time>2026-05-19T08:48:24Z</time>
      </trkpt>
      <trkpt lat="44.43627" lon="1.64897">
        <ele>333.23</ele>
        <time>2026-05-19T08:48:25Z</time>
      </trkpt>
      <trkpt lat="44.43627" lon="1.64895">
        <ele>333.23</ele>
        <time>2026-05-19T08:48:26Z</time>
      </trkpt>
      <trkpt lat="44.43619" lon="1.64882">
        <ele>333.23</ele>
        <time>2026-05-19T08:48:36Z</time>
      </trkpt>
      <trkpt lat="44.43618" lon="1.64881">
        <ele>333.23</ele>
        <time>2026-05-19T08:48:37Z</time>
      </trkpt>
      <trkpt lat="44.43604" lon="1.64858">
        <ele>333.23</ele>
        <time>2026-05-19T08:48:53Z</time>
      </trkpt>
      <trkpt lat="44.43593" lon="1.64841">
        <ele>333.71</ele>
        <time>2026-05-19T08:49:07Z</time>
      </trkpt>
      <trkpt lat="44.43592" lon="1.6484">
        <ele>333.71</ele>
        <time>2026-05-19T08:49:08Z</time>
      </trkpt>
      <trkpt lat="44.43589" lon="1.64825">
        <ele>334.2</ele>
        <time>2026-05-19T08:49:15Z</time>
      </trkpt>
      <trkpt lat="44.43588" lon="1.64824">
        <ele>334.2</ele>
        <time>2026-05-19T08:49:16Z</time>
      </trkpt>
      <trkpt lat="44.43584" lon="1.64817">
        <ele>334.2</ele>
        <time>2026-05-19T08:49:23Z</time>
      </trkpt>
      <trkpt lat="44.43564" lon="1.64794">
        <ele>335.16</ele>
        <time>2026-05-19T08:49:41Z</time>
      </trkpt>
      <trkpt lat="44.43562" lon="1.6479">
        <ele>333.71</ele>
        <time>2026-05-19T08:49:43Z</time>
      </trkpt>
      <trkpt lat="44.4356" lon="1.64784">
        <ele>333.23</ele>
        <time>2026-05-19T08:49:48Z</time>
      </trkpt>
      <trkpt lat="44.4356" lon="1.64782">
        <ele>333.23</ele>
        <time>2026-05-19T08:49:49Z</time>
      </trkpt>
      <trkpt lat="44.4355" lon="1.64753">
        <ele>330.83</ele>
        <time>2026-05-19T08:50:04Z</time>
      </trkpt>
      <trkpt lat="44.43542" lon="1.64734">
        <ele>328.91</ele>
        <time>2026-05-19T08:50:16Z</time>
      </trkpt>
      <trkpt lat="44.43524" lon="1.64712">
        <ele>326.5</ele>
        <time>2026-05-19T08:50:32Z</time>
      </trkpt>
      <trkpt lat="44.43505" lon="1.64697">
        <ele>325.06</ele>
        <time>2026-05-19T08:50:48Z</time>
      </trkpt>
      <trkpt lat="44.43488" lon="1.64681">
        <ele>324.58</ele>
        <time>2026-05-19T08:51:03Z</time>
      </trkpt>
      <trkpt lat="44.43469" lon="1.64663">
        <ele>324.58</ele>
        <time>2026-05-19T08:51:20Z</time>
      </trkpt>
      <trkpt lat="44.43455" lon="1.64642">
        <ele>324.58</ele>
        <time>2026-05-19T08:51:36Z</time>
      </trkpt>
      <trkpt lat="44.43443" lon="1.64619">
        <ele>326.5</ele>
        <time>2026-05-19T08:51:53Z</time>
      </trkpt>
      <trkpt lat="44.4344" lon="1.64603">
        <ele>328.43</ele>
        <time>2026-05-19T08:52:07Z</time>
      </trkpt>
      <trkpt lat="44.43429" lon="1.64591">
        <ele>329.39</ele>
        <time>2026-05-19T08:52:26Z</time>
      </trkpt>
      <trkpt lat="44.43428" lon="1.6459">
        <ele>329.39</ele>
        <time>2026-05-19T08:52:27Z</time>
      </trkpt>
      <trkpt lat="44.43427" lon="1.64589">
        <ele>329.39</ele>
        <time>2026-05-19T08:52:28Z</time>
      </trkpt>
      <trkpt lat="44.4341" lon="1.6458">
        <ele>330.83</ele>
        <time>2026-05-19T08:52:40Z</time>
      </trkpt>
      <trkpt lat="44.43404" lon="1.6458">
        <ele>330.83</ele>
        <time>2026-05-19T08:52:47Z</time>
      </trkpt>
      <trkpt lat="44.43402" lon="1.6458">
        <ele>330.83</ele>
        <time>2026-05-19T08:52:48Z</time>
      </trkpt>
      <trkpt lat="44.43384" lon="1.64578">
        <ele>331.79</ele>
        <time>2026-05-19T08:53:03Z</time>
      </trkpt>
      <trkpt lat="44.4338" lon="1.64577">
        <ele>332.27</ele>
        <time>2026-05-19T08:53:07Z</time>
      </trkpt>
      <trkpt lat="44.43379" lon="1.64576">
        <ele>332.27</ele>
        <time>2026-05-19T08:53:08Z</time>
      </trkpt>
      <trkpt lat="44.43377" lon="1.64576">
        <ele>332.27</ele>
        <time>2026-05-19T08:53:09Z</time>
      </trkpt>
      <trkpt lat="44.43376" lon="1.64575">
        <ele>332.27</ele>
        <time>2026-05-19T08:53:10Z</time>
      </trkpt>
      <trkpt lat="44.43375" lon="1.64574">
        <ele>332.75</ele>
        <time>2026-05-19T08:53:11Z</time>
      </trkpt>
      <trkpt lat="44.43354" lon="1.64567">
        <ele>332.75</ele>
        <time>2026-05-19T08:53:28Z</time>
      </trkpt>
      <trkpt lat="44.43338" lon="1.64567">
        <ele>331.79</ele>
        <time>2026-05-19T08:53:41Z</time>
      </trkpt>
      <trkpt lat="44.43315" lon="1.64569">
        <ele>330.83</ele>
        <time>2026-05-19T08:53:56Z</time>
      </trkpt>
      <trkpt lat="44.43292" lon="1.64581">
        <ele>329.87</ele>
        <time>2026-05-19T08:54:13Z</time>
      </trkpt>
      <trkpt lat="44.43269" lon="1.64585">
        <ele>328.43</ele>
        <time>2026-05-19T08:54:29Z</time>
      </trkpt>
      <trkpt lat="44.43268" lon="1.64584">
        <ele>328.43</ele>
        <time>2026-05-19T08:54:30Z</time>
      </trkpt>
      <trkpt lat="44.43267" lon="1.64584">
        <ele>328.43</ele>
        <time>2026-05-19T08:54:31Z</time>
      </trkpt>
      <trkpt lat="44.43244" lon="1.64578">
        <ele>328.43</ele>
        <time>2026-05-19T08:54:48Z</time>
      </trkpt>
      <trkpt lat="44.43222" lon="1.64574">
        <ele>328.43</ele>
        <time>2026-05-19T08:55:04Z</time>
      </trkpt>
      <trkpt lat="44.43205" lon="1.64571">
        <ele>329.87</ele>
        <time>2026-05-19T08:55:18Z</time>
      </trkpt>
      <trkpt lat="44.43193" lon="1.64572">
        <ele>331.79</ele>
        <time>2026-05-19T08:55:31Z</time>
      </trkpt>
      <trkpt lat="44.43191" lon="1.64573">
        <ele>332.27</ele>
        <time>2026-05-19T08:55:32Z</time>
      </trkpt>
      <trkpt lat="44.4319" lon="1.64573">
        <ele>332.27</ele>
        <time>2026-05-19T08:55:33Z</time>
      </trkpt>
      <trkpt lat="44.4318" lon="1.64575">
        <ele>333.23</ele>
        <time>2026-05-19T08:55:41Z</time>
      </trkpt>
      <trkpt lat="44.43168" lon="1.64569">
        <ele>335.64</ele>
        <time>2026-05-19T08:55:56Z</time>
      </trkpt>
      <trkpt lat="44.43167" lon="1.64568">
        <ele>335.64</ele>
        <time>2026-05-19T08:55:57Z</time>
      </trkpt>
      <trkpt lat="44.43157" lon="1.64562">
        <ele>337.56</ele>
        <time>2026-05-19T08:56:10Z</time>
      </trkpt>
      <trkpt lat="44.4315" lon="1.64559">
        <ele>338.52</ele>
        <time>2026-05-19T08:56:17Z</time>
      </trkpt>
      <trkpt lat="44.43148" lon="1.64558">
        <ele>338.52</ele>
        <time>2026-05-19T08:56:18Z</time>
      </trkpt>
      <trkpt lat="44.43147" lon="1.64558">
        <ele>338.52</ele>
        <time>2026-05-19T08:56:19Z</time>
      </trkpt>
      <trkpt lat="44.43131" lon="1.64551">
        <ele>340.92</ele>
        <time>2026-05-19T08:56:33Z</time>
      </trkpt>
      <trkpt lat="44.43126" lon="1.64547">
        <ele>341.41</ele>
        <time>2026-05-19T08:56:39Z</time>
      </trkpt>
      <trkpt lat="44.43125" lon="1.64546">
        <ele>342.37</ele>
        <time>2026-05-19T08:56:40Z</time>
      </trkpt>
      <trkpt lat="44.43114" lon="1.64537">
        <ele>343.81</ele>
        <time>2026-05-19T08:56:54Z</time>
      </trkpt>
      <trkpt lat="44.43112" lon="1.64536">
        <ele>344.29</ele>
        <time>2026-05-19T08:56:56Z</time>
      </trkpt>
      <trkpt lat="44.4311" lon="1.64536">
        <ele>344.29</ele>
        <time>2026-05-19T08:56:57Z</time>
      </trkpt>
      <trkpt lat="44.43105" lon="1.64533">
        <ele>345.25</ele>
        <time>2026-05-19T08:57:02Z</time>
      </trkpt>
      <trkpt lat="44.43104" lon="1.64533">
        <ele>345.25</ele>
        <time>2026-05-19T08:57:03Z</time>
      </trkpt>
      <trkpt lat="44.43102" lon="1.64532">
        <ele>345.25</ele>
        <time>2026-05-19T08:57:04Z</time>
      </trkpt>
      <trkpt lat="44.43101" lon="1.64531">
        <ele>345.25</ele>
        <time>2026-05-19T08:57:05Z</time>
      </trkpt>
      <trkpt lat="44.43097" lon="1.6453">
        <ele>345.73</ele>
        <time>2026-05-19T08:57:09Z</time>
      </trkpt>
      <trkpt lat="44.43095" lon="1.6453">
        <ele>345.73</ele>
        <time>2026-05-19T08:57:10Z</time>
      </trkpt>
      <trkpt lat="44.43077" lon="1.64526">
        <ele>348.13</ele>
        <time>2026-05-19T08:57:26Z</time>
      </trkpt>
      <trkpt lat="44.43063" lon="1.64522">
        <ele>350.06</ele>
        <time>2026-05-19T08:57:40Z</time>
      </trkpt>
      <trkpt lat="44.43044" lon="1.64519">
        <ele>351.5</ele>
        <time>2026-05-19T08:57:57Z</time>
      </trkpt>
      <trkpt lat="44.43031" lon="1.64517">
        <ele>353.42</ele>
        <time>2026-05-19T08:58:09Z</time>
      </trkpt>
      <trkpt lat="44.4303" lon="1.64517">
        <ele>353.42</ele>
        <time>2026-05-19T08:58:10Z</time>
      </trkpt>
      <trkpt lat="44.43012" lon="1.64514">
        <ele>354.86</ele>
        <time>2026-05-19T08:58:26Z</time>
      </trkpt>
      <trkpt lat="44.42991" lon="1.6451">
        <ele>356.31</ele>
        <time>2026-05-19T08:58:44Z</time>
      </trkpt>
      <trkpt lat="44.42972" lon="1.6451">
        <ele>359.19</ele>
        <time>2026-05-19T08:59:01Z</time>
      </trkpt>
      <trkpt lat="44.4297" lon="1.6451">
        <ele>359.67</ele>
        <time>2026-05-19T08:59:03Z</time>
      </trkpt>
      <trkpt lat="44.42965" lon="1.64509">
        <ele>360.63</ele>
        <time>2026-05-19T08:59:08Z</time>
      </trkpt>
      <trkpt lat="44.42955" lon="1.64509">
        <ele>361.11</ele>
        <time>2026-05-19T08:59:16Z</time>
      </trkpt>
      <trkpt lat="44.42954" lon="1.64509">
        <ele>362.07</ele>
        <time>2026-05-19T08:59:17Z</time>
      </trkpt>
      <trkpt lat="44.42946" lon="1.64508">
        <ele>362.55</ele>
        <time>2026-05-19T08:59:25Z</time>
      </trkpt>
      <trkpt lat="44.42945" lon="1.64508">
        <ele>363.04</ele>
        <time>2026-05-19T08:59:26Z</time>
      </trkpt>
      <trkpt lat="44.42939" lon="1.64506">
        <ele>364.48</ele>
        <time>2026-05-19T08:59:33Z</time>
      </trkpt>
      <trkpt lat="44.42936" lon="1.64506">
        <ele>364.48</ele>
        <time>2026-05-19T08:59:35Z</time>
      </trkpt>
      <trkpt lat="44.4292" lon="1.64505">
        <ele>365.92</ele>
        <time>2026-05-19T08:59:50Z</time>
      </trkpt>
      <trkpt lat="44.42902" lon="1.64502">
        <ele>367.36</ele>
        <time>2026-05-19T09:00:06Z</time>
      </trkpt>
      <trkpt lat="44.42881" lon="1.64491">
        <ele>368.32</ele>
        <time>2026-05-19T09:00:25Z</time>
      </trkpt>
      <trkpt lat="44.42865" lon="1.64477">
        <ele>368.8</ele>
        <time>2026-05-19T09:00:40Z</time>
      </trkpt>
      <trkpt lat="44.42852" lon="1.64463">
        <ele>368.8</ele>
        <time>2026-05-19T09:00:54Z</time>
      </trkpt>
      <trkpt lat="44.42851" lon="1.64462">
        <ele>368.8</ele>
        <time>2026-05-19T09:00:55Z</time>
      </trkpt>
      <trkpt lat="44.4285" lon="1.64462">
        <ele>369.28</ele>
        <time>2026-05-19T09:00:56Z</time>
      </trkpt>
      <trkpt lat="44.42831" lon="1.64449">
        <ele>370.24</ele>
        <time>2026-05-19T09:01:13Z</time>
      </trkpt>
      <trkpt lat="44.4283" lon="1.64448">
        <ele>370.24</ele>
        <time>2026-05-19T09:01:14Z</time>
      </trkpt>
      <trkpt lat="44.42823" lon="1.64444">
        <ele>370.73</ele>
        <time>2026-05-19T09:01:21Z</time>
      </trkpt>
      <trkpt lat="44.42821" lon="1.64443">
        <ele>371.21</ele>
        <time>2026-05-19T09:01:22Z</time>
      </trkpt>
      <trkpt lat="44.4282" lon="1.64443">
        <ele>371.21</ele>
        <time>2026-05-19T09:01:23Z</time>
      </trkpt>
      <trkpt lat="44.42818" lon="1.64443">
        <ele>371.21</ele>
        <time>2026-05-19T09:01:24Z</time>
      </trkpt>
      <trkpt lat="44.42817" lon="1.64442">
        <ele>371.21</ele>
        <time>2026-05-19T09:01:25Z</time>
      </trkpt>
      <trkpt lat="44.428" lon="1.64437">
        <ele>370.73</ele>
        <time>2026-05-19T09:01:38Z</time>
      </trkpt>
      <trkpt lat="44.42785" lon="1.64432">
        <ele>370.73</ele>
        <time>2026-05-19T09:01:51Z</time>
      </trkpt>
      <trkpt lat="44.42768" lon="1.64428">
        <ele>370.73</ele>
        <time>2026-05-19T09:02:03Z</time>
      </trkpt>
      <trkpt lat="44.42766" lon="1.64428">
        <ele>370.73</ele>
        <time>2026-05-19T09:02:04Z</time>
      </trkpt>
      <trkpt lat="44.42752" lon="1.64426">
        <ele>369.76</ele>
        <time>2026-05-19T09:02:17Z</time>
      </trkpt>
      <trkpt lat="44.4273" lon="1.64424">
        <ele>369.28</ele>
        <time>2026-05-19T09:02:34Z</time>
      </trkpt>
      <trkpt lat="44.42709" lon="1.64413">
        <ele>367.36</ele>
        <time>2026-05-19T09:02:52Z</time>
      </trkpt>
      <trkpt lat="44.42708" lon="1.64413">
        <ele>367.36</ele>
        <time>2026-05-19T09:02:53Z</time>
      </trkpt>
      <trkpt lat="44.42706" lon="1.64412">
        <ele>367.36</ele>
        <time>2026-05-19T09:02:54Z</time>
      </trkpt>
      <trkpt lat="44.42686" lon="1.64409">
        <ele>365.92</ele>
        <time>2026-05-19T09:03:10Z</time>
      </trkpt>
      <trkpt lat="44.42662" lon="1.64402">
        <ele>364.48</ele>
        <time>2026-05-19T09:03:26Z</time>
      </trkpt>
      <trkpt lat="44.42641" lon="1.644">
        <ele>362.55</ele>
        <time>2026-05-19T09:03:42Z</time>
      </trkpt>
      <trkpt lat="44.4264" lon="1.64399">
        <ele>362.55</ele>
        <time>2026-05-19T09:03:43Z</time>
      </trkpt>
      <trkpt lat="44.42638" lon="1.64399">
        <ele>362.55</ele>
        <time>2026-05-19T09:03:44Z</time>
      </trkpt>
      <trkpt lat="44.42624" lon="1.64394">
        <ele>361.59</ele>
        <time>2026-05-19T09:03:55Z</time>
      </trkpt>
      <trkpt lat="44.42622" lon="1.64393">
        <ele>361.59</ele>
        <time>2026-05-19T09:03:56Z</time>
      </trkpt>
      <trkpt lat="44.42621" lon="1.64393">
        <ele>361.59</ele>
        <time>2026-05-19T09:03:57Z</time>
      </trkpt>
      <trkpt lat="44.42608" lon="1.64386">
        <ele>359.67</ele>
        <time>2026-05-19T09:04:07Z</time>
      </trkpt>
      <trkpt lat="44.42606" lon="1.64384">
        <ele>359.67</ele>
        <time>2026-05-19T09:04:08Z</time>
      </trkpt>
      <trkpt lat="44.42605" lon="1.64383">
        <ele>359.67</ele>
        <time>2026-05-19T09:04:09Z</time>
      </trkpt>
      <trkpt lat="44.42603" lon="1.64373">
        <ele>358.23</ele>
        <time>2026-05-19T09:04:17Z</time>
      </trkpt>
      <trkpt lat="44.42604" lon="1.64371">
        <ele>358.23</ele>
        <time>2026-05-19T09:04:18Z</time>
      </trkpt>
      <trkpt lat="44.42604" lon="1.64369">
        <ele>357.75</ele>
        <time>2026-05-19T09:04:19Z</time>
      </trkpt>
      <trkpt lat="44.42604" lon="1.64367">
        <ele>357.75</ele>
        <time>2026-05-19T09:04:20Z</time>
      </trkpt>
      <trkpt lat="44.42604" lon="1.64365">
        <ele>357.75</ele>
        <time>2026-05-19T09:04:21Z</time>
      </trkpt>
      <trkpt lat="44.42606" lon="1.64359">
        <ele>357.75</ele>
        <time>2026-05-19T09:04:24Z</time>
      </trkpt>
      <trkpt lat="44.42608" lon="1.64352">
        <ele>356.79</ele>
        <time>2026-05-19T09:04:29Z</time>
      </trkpt>
      <trkpt lat="44.42608" lon="1.6435">
        <ele>356.79</ele>
        <time>2026-05-19T09:04:30Z</time>
      </trkpt>
      <trkpt lat="44.42608" lon="1.64348">
        <ele>356.31</ele>
        <time>2026-05-19T09:04:31Z</time>
      </trkpt>
      <trkpt lat="44.42609" lon="1.64346">
        <ele>356.31</ele>
        <time>2026-05-19T09:04:32Z</time>
      </trkpt>
      <trkpt lat="44.42609" lon="1.64344">
        <ele>356.31</ele>
        <time>2026-05-19T09:04:33Z</time>
      </trkpt>
      <trkpt lat="44.4261" lon="1.64342">
        <ele>356.31</ele>
        <time>2026-05-19T09:04:34Z</time>
      </trkpt>
      <trkpt lat="44.42617" lon="1.64321">
        <ele>354.38</ele>
        <time>2026-05-19T09:04:47Z</time>
      </trkpt>
      <trkpt lat="44.42626" lon="1.64294">
        <ele>352.46</ele>
        <time>2026-05-19T09:05:02Z</time>
      </trkpt>
      <trkpt lat="44.42626" lon="1.64292">
        <ele>352.46</ele>
        <time>2026-05-19T09:05:03Z</time>
      </trkpt>
      <trkpt lat="44.42627" lon="1.6429">
        <ele>352.46</ele>
        <time>2026-05-19T09:05:04Z</time>
      </trkpt>
      <trkpt lat="44.42628" lon="1.64288">
        <ele>351.98</ele>
        <time>2026-05-19T09:05:05Z</time>
      </trkpt>
      <trkpt lat="44.42629" lon="1.64287">
        <ele>351.98</ele>
        <time>2026-05-19T09:05:06Z</time>
      </trkpt>
      <trkpt lat="44.42628" lon="1.64265">
        <ele>349.58</ele>
        <time>2026-05-19T09:05:20Z</time>
      </trkpt>
      <trkpt lat="44.42626" lon="1.64264">
        <ele>349.58</ele>
        <time>2026-05-19T09:05:21Z</time>
      </trkpt>
      <trkpt lat="44.42624" lon="1.64264">
        <ele>349.58</ele>
        <time>2026-05-19T09:05:22Z</time>
      </trkpt>
      <trkpt lat="44.42605" lon="1.64261">
        <ele>346.21</ele>
        <time>2026-05-19T09:05:36Z</time>
      </trkpt>
      <trkpt lat="44.42585" lon="1.64262">
        <ele>343.81</ele>
        <time>2026-05-19T09:05:51Z</time>
      </trkpt>
      <trkpt lat="44.42566" lon="1.64263">
        <ele>342.37</ele>
        <time>2026-05-19T09:06:06Z</time>
      </trkpt>
      <trkpt lat="44.42542" lon="1.64269">
        <ele>341.41</ele>
        <time>2026-05-19T09:06:22Z</time>
      </trkpt>
      <trkpt lat="44.42529" lon="1.64278">
        <ele>340.44</ele>
        <time>2026-05-19T09:06:33Z</time>
      </trkpt>
      <trkpt lat="44.42528" lon="1.64279">
        <ele>340.44</ele>
        <time>2026-05-19T09:06:34Z</time>
      </trkpt>
      <trkpt lat="44.42525" lon="1.64279">
        <ele>339.96</ele>
        <time>2026-05-19T09:06:36Z</time>
      </trkpt>
      <trkpt lat="44.42524" lon="1.64279">
        <ele>339.96</ele>
        <time>2026-05-19T09:06:37Z</time>
      </trkpt>
      <trkpt lat="44.42522" lon="1.64279">
        <ele>339.96</ele>
        <time>2026-05-19T09:06:38Z</time>
      </trkpt>
      <trkpt lat="44.42505" lon="1.64287">
        <ele>337.08</ele>
        <time>2026-05-19T09:06:52Z</time>
      </trkpt>
      <trkpt lat="44.42486" lon="1.64296">
        <ele>335.64</ele>
        <time>2026-05-19T09:07:06Z</time>
      </trkpt>
      <trkpt lat="44.42467" lon="1.64303">
        <ele>334.2</ele>
        <time>2026-05-19T09:07:20Z</time>
      </trkpt>
      <trkpt lat="44.42463" lon="1.64303">
        <ele>333.23</ele>
        <time>2026-05-19T09:07:23Z</time>
      </trkpt>
      <trkpt lat="44.42448" lon="1.64307">
        <ele>332.75</ele>
        <time>2026-05-19T09:07:33Z</time>
      </trkpt>
      <trkpt lat="44.42447" lon="1.64308">
        <ele>332.27</ele>
        <time>2026-05-19T09:07:34Z</time>
      </trkpt>
      <trkpt lat="44.42446" lon="1.64309">
        <ele>332.27</ele>
        <time>2026-05-19T09:07:35Z</time>
      </trkpt>
      <trkpt lat="44.42444" lon="1.64309">
        <ele>332.27</ele>
        <time>2026-05-19T09:07:36Z</time>
      </trkpt>
      <trkpt lat="44.42442" lon="1.6431">
        <ele>331.31</ele>
        <time>2026-05-19T09:07:37Z</time>
      </trkpt>
      <trkpt lat="44.42426" lon="1.64319">
        <ele>330.35</ele>
        <time>2026-05-19T09:07:51Z</time>
      </trkpt>
      <trkpt lat="44.42419" lon="1.64323">
        <ele>330.35</ele>
        <time>2026-05-19T09:07:57Z</time>
      </trkpt>
      <trkpt lat="44.42418" lon="1.64324">
        <ele>329.87</ele>
        <time>2026-05-19T09:07:58Z</time>
      </trkpt>
      <trkpt lat="44.42396" lon="1.6433">
        <ele>327.95</ele>
        <time>2026-05-19T09:08:14Z</time>
      </trkpt>
      <trkpt lat="44.42378" lon="1.64336">
        <ele>326.5</ele>
        <time>2026-05-19T09:08:29Z</time>
      </trkpt>
      <trkpt lat="44.42358" lon="1.64344">
        <ele>325.54</ele>
        <time>2026-05-19T09:08:43Z</time>
      </trkpt>
      <trkpt lat="44.42353" lon="1.64347">
        <ele>324.58</ele>
        <time>2026-05-19T09:08:48Z</time>
      </trkpt>
      <trkpt lat="44.42352" lon="1.64348">
        <ele>324.58</ele>
        <time>2026-05-19T09:08:49Z</time>
      </trkpt>
      <trkpt lat="44.42351" lon="1.64349">
        <ele>324.58</ele>
        <time>2026-05-19T09:08:50Z</time>
      </trkpt>
      <trkpt lat="44.42349" lon="1.6435">
        <ele>324.58</ele>
        <time>2026-05-19T09:08:51Z</time>
      </trkpt>
      <trkpt lat="44.42348" lon="1.64352">
        <ele>324.58</ele>
        <time>2026-05-19T09:08:52Z</time>
      </trkpt>
      <trkpt lat="44.42347" lon="1.64354">
        <ele>324.1</ele>
        <time>2026-05-19T09:08:53Z</time>
      </trkpt>
      <trkpt lat="44.42336" lon="1.64368">
        <ele>322.66</ele>
        <time>2026-05-19T09:09:06Z</time>
      </trkpt>
      <trkpt lat="44.42335" lon="1.64369">
        <ele>322.66</ele>
        <time>2026-05-19T09:09:07Z</time>
      </trkpt>
      <trkpt lat="44.4233" lon="1.64371">
        <ele>321.7</ele>
        <time>2026-05-19T09:09:15Z</time>
      </trkpt>
      <trkpt lat="44.42334" lon="1.64354">
        <ele>320.74</ele>
        <time>2026-05-19T09:09:28Z</time>
      </trkpt>
      <trkpt lat="44.42336" lon="1.64335">
        <ele>318.81</ele>
        <time>2026-05-19T09:09:39Z</time>
      </trkpt>
      <trkpt lat="44.42327" lon="1.64317">
        <ele>317.37</ele>
        <time>2026-05-19T09:09:54Z</time>
      </trkpt>
      <trkpt lat="44.42318" lon="1.64311">
        <ele>317.37</ele>
        <time>2026-05-19T09:10:16Z</time>
      </trkpt>
      <trkpt lat="44.42318" lon="1.64309">
        <ele>318.81</ele>
        <time>2026-05-19T09:10:23Z</time>
      </trkpt>
      <trkpt lat="44.42315" lon="1.64308">
        <ele>317.37</ele>
        <time>2026-05-19T09:10:25Z</time>
      </trkpt>
      <trkpt lat="44.42307" lon="1.64309">
        <ele>315.93</ele>
        <time>2026-05-19T09:10:31Z</time>
      </trkpt>
      <trkpt lat="44.42285" lon="1.64316">
        <ele>315.45</ele>
        <time>2026-05-19T09:10:46Z</time>
      </trkpt>
      <trkpt lat="44.42265" lon="1.64327">
        <ele>314.01</ele>
        <time>2026-05-19T09:11:01Z</time>
      </trkpt>
      <trkpt lat="44.42248" lon="1.64331">
        <ele>313.05</ele>
        <time>2026-05-19T09:11:14Z</time>
      </trkpt>
      <trkpt lat="44.42235" lon="1.64333">
        <ele>312.09</ele>
        <time>2026-05-19T09:11:24Z</time>
      </trkpt>
      <trkpt lat="44.42216" lon="1.64334">
        <ele>310.64</ele>
        <time>2026-05-19T09:11:38Z</time>
      </trkpt>
      <trkpt lat="44.42195" lon="1.64337">
        <ele>308.72</ele>
        <time>2026-05-19T09:11:54Z</time>
      </trkpt>
      <trkpt lat="44.42186" lon="1.64339">
        <ele>307.76</ele>
        <time>2026-05-19T09:12:02Z</time>
      </trkpt>
      <trkpt lat="44.4218" lon="1.64339">
        <ele>307.28</ele>
        <time>2026-05-19T09:12:06Z</time>
      </trkpt>
      <trkpt lat="44.42157" lon="1.64337">
        <ele>305.84</ele>
        <time>2026-05-19T09:12:22Z</time>
      </trkpt>
      <trkpt lat="44.42138" lon="1.64334">
        <ele>305.36</ele>
        <time>2026-05-19T09:12:35Z</time>
      </trkpt>
      <trkpt lat="44.42125" lon="1.64333">
        <ele>304.88</ele>
        <time>2026-05-19T09:12:44Z</time>
      </trkpt>
      <trkpt lat="44.42109" lon="1.64329">
        <ele>304.39</ele>
        <time>2026-05-19T09:12:57Z</time>
      </trkpt>
      <trkpt lat="44.42103" lon="1.64329">
        <ele>304.39</ele>
        <time>2026-05-19T09:13:00Z</time>
      </trkpt>
      <trkpt lat="44.42092" lon="1.64328">
        <ele>303.43</ele>
        <time>2026-05-19T09:13:09Z</time>
      </trkpt>
      <trkpt lat="44.42072" lon="1.64333">
        <ele>301.51</ele>
        <time>2026-05-19T09:13:24Z</time>
      </trkpt>
      <trkpt lat="44.4206" lon="1.64331">
        <ele>301.51</ele>
        <time>2026-05-19T09:13:33Z</time>
      </trkpt>
      <trkpt lat="44.42041" lon="1.64329">
        <ele>300.55</ele>
        <time>2026-05-19T09:13:46Z</time>
      </trkpt>
      <trkpt lat="44.42038" lon="1.64328">
        <ele>300.55</ele>
        <time>2026-05-19T09:13:48Z</time>
      </trkpt>
      <trkpt lat="44.42018" lon="1.64323">
        <ele>299.59</ele>
        <time>2026-05-19T09:14:02Z</time>
      </trkpt>
      <trkpt lat="44.41997" lon="1.64319">
        <ele>298.15</ele>
        <time>2026-05-19T09:14:17Z</time>
      </trkpt>
      <trkpt lat="44.41976" lon="1.64318">
        <ele>298.15</ele>
        <time>2026-05-19T09:14:32Z</time>
      </trkpt>
      <trkpt lat="44.41969" lon="1.64315">
        <ele>297.67</ele>
        <time>2026-05-19T09:14:39Z</time>
      </trkpt>
      <trkpt lat="44.41948" lon="1.6432">
        <ele>296.22</ele>
        <time>2026-05-19T09:14:53Z</time>
      </trkpt>
      <trkpt lat="44.41929" lon="1.64328">
        <ele>296.22</ele>
        <time>2026-05-19T09:15:07Z</time>
      </trkpt>
      <trkpt lat="44.41917" lon="1.64331">
        <ele>294.78</ele>
        <time>2026-05-19T09:15:20Z</time>
      </trkpt>
      <trkpt lat="44.41916" lon="1.64332">
        <ele>294.78</ele>
        <time>2026-05-19T09:15:31Z</time>
      </trkpt>
      <trkpt lat="44.41897" lon="1.64336">
        <ele>294.3</ele>
        <time>2026-05-19T09:15:46Z</time>
      </trkpt>
      <trkpt lat="44.41877" lon="1.6434">
        <ele>292.86</ele>
        <time>2026-05-19T09:16:01Z</time>
      </trkpt>
      <trkpt lat="44.41869" lon="1.6434">
        <ele>291.42</ele>
        <time>2026-05-19T09:16:14Z</time>
      </trkpt>
      <trkpt lat="44.41852" lon="1.64338">
        <ele>290.94</ele>
        <time>2026-05-19T09:16:27Z</time>
      </trkpt>
      <trkpt lat="44.41834" lon="1.64331">
        <ele>289.01</ele>
        <time>2026-05-19T09:16:41Z</time>
      </trkpt>
      <trkpt lat="44.41834" lon="1.6433">
        <ele>289.01</ele>
        <time>2026-05-19T09:16:42Z</time>
      </trkpt>
      <trkpt lat="44.41816" lon="1.64316">
        <ele>287.57</ele>
        <time>2026-05-19T09:16:58Z</time>
      </trkpt>
      <trkpt lat="44.41808" lon="1.64314">
        <ele>286.61</ele>
        <time>2026-05-19T09:17:11Z</time>
      </trkpt>
      <trkpt lat="44.41809" lon="1.64315">
        <ele>286.61</ele>
        <time>2026-05-19T09:17:16Z</time>
      </trkpt>
      <trkpt lat="44.41804" lon="1.6431">
        <ele>286.61</ele>
        <time>2026-05-19T09:17:21Z</time>
      </trkpt>
      <trkpt lat="44.4178" lon="1.64302">
        <ele>286.61</ele>
        <time>2026-05-19T09:17:38Z</time>
      </trkpt>
      <trkpt lat="44.41759" lon="1.64294">
        <ele>285.65</ele>
        <time>2026-05-19T09:17:54Z</time>
      </trkpt>
      <trkpt lat="44.41736" lon="1.64294">
        <ele>285.17</ele>
        <time>2026-05-19T09:18:10Z</time>
      </trkpt>
      <trkpt lat="44.41719" lon="1.64299">
        <ele>284.69</ele>
        <time>2026-05-19T09:18:24Z</time>
      </trkpt>
      <trkpt lat="44.41698" lon="1.64295">
        <ele>284.69</ele>
        <time>2026-05-19T09:18:40Z</time>
      </trkpt>
      <trkpt lat="44.41677" lon="1.64295">
        <ele>285.65</ele>
        <time>2026-05-19T09:18:57Z</time>
      </trkpt>
      <trkpt lat="44.41663" lon="1.64295">
        <ele>286.61</ele>
        <time>2026-05-19T09:19:09Z</time>
      </trkpt>
      <trkpt lat="44.4166" lon="1.64295">
        <ele>286.61</ele>
        <time>2026-05-19T09:19:11Z</time>
      </trkpt>
      <trkpt lat="44.4164" lon="1.64295">
        <ele>287.57</ele>
        <time>2026-05-19T09:19:26Z</time>
      </trkpt>
      <trkpt lat="44.41622" lon="1.64298">
        <ele>288.53</ele>
        <time>2026-05-19T09:19:40Z</time>
      </trkpt>
      <trkpt lat="44.41603" lon="1.64301">
        <ele>289.49</ele>
        <time>2026-05-19T09:19:55Z</time>
      </trkpt>
      <trkpt lat="44.41585" lon="1.64304">
        <ele>289.97</ele>
        <time>2026-05-19T09:20:10Z</time>
      </trkpt>
      <trkpt lat="44.41567" lon="1.64309">
        <ele>290.46</ele>
        <time>2026-05-19T09:20:25Z</time>
      </trkpt>
      <trkpt lat="44.41565" lon="1.64309">
        <ele>290.46</ele>
        <time>2026-05-19T09:20:27Z</time>
      </trkpt>
      <trkpt lat="44.4154" lon="1.64318">
        <ele>291.42</ele>
        <time>2026-05-19T09:20:46Z</time>
      </trkpt>
      <trkpt lat="44.41532" lon="1.64322">
        <ele>291.9</ele>
        <time>2026-05-19T09:20:52Z</time>
      </trkpt>
      <trkpt lat="44.41515" lon="1.64328">
        <ele>292.86</ele>
        <time>2026-05-19T09:21:06Z</time>
      </trkpt>
      <trkpt lat="44.41498" lon="1.64334">
        <ele>293.34</ele>
        <time>2026-05-19T09:21:20Z</time>
      </trkpt>
      <trkpt lat="44.41476" lon="1.6434">
        <ele>293.34</ele>
        <time>2026-05-19T09:21:35Z</time>
      </trkpt>
      <trkpt lat="44.41457" lon="1.64341">
        <ele>293.82</ele>
        <time>2026-05-19T09:21:49Z</time>
      </trkpt>
      <trkpt lat="44.41444" lon="1.64347">
        <ele>294.3</ele>
        <time>2026-05-19T09:21:59Z</time>
      </trkpt>
      <trkpt lat="44.41443" lon="1.64347">
        <ele>294.3</ele>
        <time>2026-05-19T09:22:00Z</time>
      </trkpt>
      <trkpt lat="44.41442" lon="1.64348">
        <ele>294.3</ele>
        <time>2026-05-19T09:22:01Z</time>
      </trkpt>
      <trkpt lat="44.41423" lon="1.64361">
        <ele>294.3</ele>
        <time>2026-05-19T09:22:17Z</time>
      </trkpt>
      <trkpt lat="44.41401" lon="1.64373">
        <ele>294.3</ele>
        <time>2026-05-19T09:22:34Z</time>
      </trkpt>
      <trkpt lat="44.41385" lon="1.64379">
        <ele>294.3</ele>
        <time>2026-05-19T09:22:47Z</time>
      </trkpt>
      <trkpt lat="44.41371" lon="1.64379">
        <ele>292.86</ele>
        <time>2026-05-19T09:22:56Z</time>
      </trkpt>
      <trkpt lat="44.41353" lon="1.64378">
        <ele>292.38</ele>
        <time>2026-05-19T09:23:10Z</time>
      </trkpt>
      <trkpt lat="44.41335" lon="1.64376">
        <ele>291.42</ele>
        <time>2026-05-19T09:23:24Z</time>
      </trkpt>
      <trkpt lat="44.41315" lon="1.64371">
        <ele>289.49</ele>
        <time>2026-05-19T09:23:39Z</time>
      </trkpt>
      <trkpt lat="44.41295" lon="1.6437">
        <ele>288.05</ele>
        <time>2026-05-19T09:23:53Z</time>
      </trkpt>
      <trkpt lat="44.41275" lon="1.64371">
        <ele>286.61</ele>
        <time>2026-05-19T09:24:06Z</time>
      </trkpt>
      <trkpt lat="44.41256" lon="1.6437">
        <ele>285.17</ele>
        <time>2026-05-19T09:24:18Z</time>
      </trkpt>
      <trkpt lat="44.41235" lon="1.64367">
        <ele>283.73</ele>
        <time>2026-05-19T09:24:33Z</time>
      </trkpt>
      <trkpt lat="44.41216" lon="1.64366">
        <ele>281.32</ele>
        <time>2026-05-19T09:24:47Z</time>
      </trkpt>
      <trkpt lat="44.41197" lon="1.64371">
        <ele>279.88</ele>
        <time>2026-05-19T09:25:01Z</time>
      </trkpt>
      <trkpt lat="44.41178" lon="1.64379">
        <ele>279.4</ele>
        <time>2026-05-19T09:25:15Z</time>
      </trkpt>
      <trkpt lat="44.41159" lon="1.64374">
        <ele>279.4</ele>
        <time>2026-05-19T09:25:31Z</time>
      </trkpt>
      <trkpt lat="44.41156" lon="1.64373">
        <ele>280.36</ele>
        <time>2026-05-19T09:25:34Z</time>
      </trkpt>
      <trkpt lat="44.41155" lon="1.64373">
        <ele>280.36</ele>
        <time>2026-05-19T09:25:35Z</time>
      </trkpt>
      <trkpt lat="44.4114" lon="1.64368">
        <ele>281.8</ele>
        <time>2026-05-19T09:25:48Z</time>
      </trkpt>
      <trkpt lat="44.41126" lon="1.64366">
        <ele>283.25</ele>
        <time>2026-05-19T09:26:01Z</time>
      </trkpt>
      <trkpt lat="44.41125" lon="1.64366">
        <ele>283.73</ele>
        <time>2026-05-19T09:26:02Z</time>
      </trkpt>
      <trkpt lat="44.41107" lon="1.64364">
        <ele>284.69</ele>
        <time>2026-05-19T09:26:15Z</time>
      </trkpt>
      <trkpt lat="44.41102" lon="1.64364">
        <ele>285.17</ele>
        <time>2026-05-19T09:26:20Z</time>
      </trkpt>
      <trkpt lat="44.41101" lon="1.64364">
        <ele>285.17</ele>
        <time>2026-05-19T09:26:21Z</time>
      </trkpt>
      <trkpt lat="44.41099" lon="1.64364">
        <ele>285.17</ele>
        <time>2026-05-19T09:26:22Z</time>
      </trkpt>
      <trkpt lat="44.41098" lon="1.64364">
        <ele>285.17</ele>
        <time>2026-05-19T09:26:23Z</time>
      </trkpt>
      <trkpt lat="44.41096" lon="1.64364">
        <ele>285.17</ele>
        <time>2026-05-19T09:26:24Z</time>
      </trkpt>
      <trkpt lat="44.41094" lon="1.64364">
        <ele>285.17</ele>
        <time>2026-05-19T09:26:25Z</time>
      </trkpt>
      <trkpt lat="44.41089" lon="1.64363">
        <ele>285.65</ele>
        <time>2026-05-19T09:26:30Z</time>
      </trkpt>
      <trkpt lat="44.41088" lon="1.64363">
        <ele>285.65</ele>
        <time>2026-05-19T09:26:31Z</time>
      </trkpt>
      <trkpt lat="44.41087" lon="1.64363">
        <ele>286.13</ele>
        <time>2026-05-19T09:26:32Z</time>
      </trkpt>
      <trkpt lat="44.4107" lon="1.6436">
        <ele>286.61</ele>
        <time>2026-05-19T09:26:45Z</time>
      </trkpt>
      <trkpt lat="44.41048" lon="1.64357">
        <ele>286.13</ele>
        <time>2026-05-19T09:27:00Z</time>
      </trkpt>
      <trkpt lat="44.41028" lon="1.64354">
        <ele>286.13</ele>
        <time>2026-05-19T09:27:15Z</time>
      </trkpt>
      <trkpt lat="44.41021" lon="1.64353">
        <ele>284.69</ele>
        <time>2026-05-19T09:27:21Z</time>
      </trkpt>
      <trkpt lat="44.41005" lon="1.64351">
        <ele>284.69</ele>
        <time>2026-05-19T09:27:33Z</time>
      </trkpt>
      <trkpt lat="44.40999" lon="1.64352">
        <ele>284.21</ele>
        <time>2026-05-19T09:27:45Z</time>
      </trkpt>
      <trkpt lat="44.40999" lon="1.64354">
        <ele>284.21</ele>
        <time>2026-05-19T09:28:22Z</time>
      </trkpt>
      <trkpt lat="44.40999" lon="1.64353">
        <ele>284.21</ele>
        <time>2026-05-19T09:28:23Z</time>
      </trkpt>
      <trkpt lat="44.40994" lon="1.6435">
        <ele>284.21</ele>
        <time>2026-05-19T09:28:27Z</time>
      </trkpt>
      <trkpt lat="44.40993" lon="1.6435">
        <ele>284.21</ele>
        <time>2026-05-19T09:28:28Z</time>
      </trkpt>
      <trkpt lat="44.40971" lon="1.64344">
        <ele>283.73</ele>
        <time>2026-05-19T09:28:44Z</time>
      </trkpt>
      <trkpt lat="44.40954" lon="1.64341">
        <ele>283.25</ele>
        <time>2026-05-19T09:28:57Z</time>
      </trkpt>
      <trkpt lat="44.40932" lon="1.64339">
        <ele>282.28</ele>
        <time>2026-05-19T09:29:12Z</time>
      </trkpt>
      <trkpt lat="44.40914" lon="1.64339">
        <ele>281.32</ele>
        <time>2026-05-19T09:29:25Z</time>
      </trkpt>
      <trkpt lat="44.40894" lon="1.64342">
        <ele>280.36</ele>
        <time>2026-05-19T09:29:39Z</time>
      </trkpt>
      <trkpt lat="44.40874" lon="1.64346">
        <ele>279.88</ele>
        <time>2026-05-19T09:29:54Z</time>
      </trkpt>
      <trkpt lat="44.40853" lon="1.64345">
        <ele>279.88</ele>
        <time>2026-05-19T09:30:08Z</time>
      </trkpt>
      <trkpt lat="44.40836" lon="1.64335">
        <ele>279.88</ele>
        <time>2026-05-19T09:30:24Z</time>
      </trkpt>
      <trkpt lat="44.40821" lon="1.64326">
        <ele>281.32</ele>
        <time>2026-05-19T09:30:37Z</time>
      </trkpt>
      <trkpt lat="44.40816" lon="1.64323">
        <ele>281.32</ele>
        <time>2026-05-19T09:30:43Z</time>
      </trkpt>
      <trkpt lat="44.40815" lon="1.64322">
        <ele>281.32</ele>
        <time>2026-05-19T09:30:44Z</time>
      </trkpt>
      <trkpt lat="44.40799" lon="1.64314">
        <ele>282.77</ele>
        <time>2026-05-19T09:30:58Z</time>
      </trkpt>
      <trkpt lat="44.40788" lon="1.64304">
        <ele>283.73</ele>
        <time>2026-05-19T09:31:11Z</time>
      </trkpt>
      <trkpt lat="44.40773" lon="1.64291">
        <ele>285.17</ele>
        <time>2026-05-19T09:31:26Z</time>
      </trkpt>
      <trkpt lat="44.40757" lon="1.6428">
        <ele>286.13</ele>
        <time>2026-05-19T09:31:40Z</time>
      </trkpt>
      <trkpt lat="44.40755" lon="1.64278">
        <ele>286.61</ele>
        <time>2026-05-19T09:31:43Z</time>
      </trkpt>
      <trkpt lat="44.40754" lon="1.64277">
        <ele>286.61</ele>
        <time>2026-05-19T09:31:44Z</time>
      </trkpt>
      <trkpt lat="44.40735" lon="1.64264">
        <ele>287.57</ele>
        <time>2026-05-19T09:32:01Z</time>
      </trkpt>
      <trkpt lat="44.40729" lon="1.6426">
        <ele>287.09</ele>
        <time>2026-05-19T09:32:07Z</time>
      </trkpt>
      <trkpt lat="44.40728" lon="1.64258">
        <ele>287.09</ele>
        <time>2026-05-19T09:32:08Z</time>
      </trkpt>
      <trkpt lat="44.40727" lon="1.64256">
        <ele>287.09</ele>
        <time>2026-05-19T09:32:09Z</time>
      </trkpt>
      <trkpt lat="44.40726" lon="1.64254">
        <ele>287.09</ele>
        <time>2026-05-19T09:32:10Z</time>
      </trkpt>
      <trkpt lat="44.40723" lon="1.6425">
        <ele>287.09</ele>
        <time>2026-05-19T09:32:14Z</time>
      </trkpt>
      <trkpt lat="44.40722" lon="1.64248">
        <ele>287.09</ele>
        <time>2026-05-19T09:32:16Z</time>
      </trkpt>
      <trkpt lat="44.40721" lon="1.64247">
        <ele>287.09</ele>
        <time>2026-05-19T09:32:17Z</time>
      </trkpt>
      <trkpt lat="44.40706" lon="1.64224">
        <ele>287.09</ele>
        <time>2026-05-19T09:32:34Z</time>
      </trkpt>
      <trkpt lat="44.40702" lon="1.6422">
        <ele>285.65</ele>
        <time>2026-05-19T09:32:38Z</time>
      </trkpt>
      <trkpt lat="44.40684" lon="1.64201">
        <ele>284.69</ele>
        <time>2026-05-19T09:32:53Z</time>
      </trkpt>
      <trkpt lat="44.40667" lon="1.64183">
        <ele>283.73</ele>
        <time>2026-05-19T09:33:08Z</time>
      </trkpt>
      <trkpt lat="44.4065" lon="1.64163">
        <ele>281.32</ele>
        <time>2026-05-19T09:33:24Z</time>
      </trkpt>
      <trkpt lat="44.40632" lon="1.64146">
        <ele>279.88</ele>
        <time>2026-05-19T09:33:38Z</time>
      </trkpt>
      <trkpt lat="44.40616" lon="1.64131">
        <ele>278.44</ele>
        <time>2026-05-19T09:33:52Z</time>
      </trkpt>
      <trkpt lat="44.40594" lon="1.64119">
        <ele>277</ele>
        <time>2026-05-19T09:34:08Z</time>
      </trkpt>
      <trkpt lat="44.40574" lon="1.64111">
        <ele>275.56</ele>
        <time>2026-05-19T09:34:23Z</time>
      </trkpt>
      <trkpt lat="44.40557" lon="1.64109">
        <ele>274.59</ele>
        <time>2026-05-19T09:34:35Z</time>
      </trkpt>
      <trkpt lat="44.40534" lon="1.64112">
        <ele>273.63</ele>
        <time>2026-05-19T09:34:51Z</time>
      </trkpt>
      <trkpt lat="44.40517" lon="1.64133">
        <ele>273.63</ele>
        <time>2026-05-19T09:35:08Z</time>
      </trkpt>
      <trkpt lat="44.40499" lon="1.64151">
        <ele>273.15</ele>
        <time>2026-05-19T09:35:25Z</time>
      </trkpt>
      <trkpt lat="44.40485" lon="1.64177">
        <ele>273.15</ele>
        <time>2026-05-19T09:35:41Z</time>
      </trkpt>
      <trkpt lat="44.40479" lon="1.64207">
        <ele>273.15</ele>
        <time>2026-05-19T09:35:57Z</time>
      </trkpt>
      <trkpt lat="44.40474" lon="1.64233">
        <ele>274.11</ele>
        <time>2026-05-19T09:36:12Z</time>
      </trkpt>
      <trkpt lat="44.40467" lon="1.64244">
        <ele>274.11</ele>
        <time>2026-05-19T09:36:25Z</time>
      </trkpt>
      <trkpt lat="44.40467" lon="1.64245">
        <ele>273.63</ele>
        <time>2026-05-19T09:36:33Z</time>
      </trkpt>
      <trkpt lat="44.40467" lon="1.6425">
        <ele>273.63</ele>
        <time>2026-05-19T09:36:47Z</time>
      </trkpt>
      <trkpt lat="44.40467" lon="1.64252">
        <ele>273.63</ele>
        <time>2026-05-19T09:36:48Z</time>
      </trkpt>
      <trkpt lat="44.40454" lon="1.6427">
        <ele>273.63</ele>
        <time>2026-05-19T09:37:02Z</time>
      </trkpt>
      <trkpt lat="44.40449" lon="1.64279">
        <ele>273.63</ele>
        <time>2026-05-19T09:37:10Z</time>
      </trkpt>
      <trkpt lat="44.40437" lon="1.64298">
        <ele>275.07</ele>
        <time>2026-05-19T09:37:24Z</time>
      </trkpt>
      <trkpt lat="44.40436" lon="1.643">
        <ele>275.07</ele>
        <time>2026-05-19T09:37:26Z</time>
      </trkpt>
      <trkpt lat="44.40435" lon="1.64301">
        <ele>275.07</ele>
        <time>2026-05-19T09:37:27Z</time>
      </trkpt>
      <trkpt lat="44.40434" lon="1.64305">
        <ele>275.07</ele>
        <time>2026-05-19T09:37:30Z</time>
      </trkpt>
      <trkpt lat="44.40434" lon="1.64307">
        <ele>275.07</ele>
        <time>2026-05-19T09:37:31Z</time>
      </trkpt>
      <trkpt lat="44.40434" lon="1.64309">
        <ele>275.07</ele>
        <time>2026-05-19T09:37:32Z</time>
      </trkpt>
      <trkpt lat="44.40435" lon="1.64311">
        <ele>275.07</ele>
        <time>2026-05-19T09:37:33Z</time>
      </trkpt>
      <trkpt lat="44.40435" lon="1.64314">
        <ele>276.04</ele>
        <time>2026-05-19T09:37:35Z</time>
      </trkpt>
      <trkpt lat="44.40436" lon="1.64315">
        <ele>276.04</ele>
        <time>2026-05-19T09:37:36Z</time>
      </trkpt>
      <trkpt lat="44.40437" lon="1.64317">
        <ele>276.04</ele>
        <time>2026-05-19T09:37:41Z</time>
      </trkpt>
      <trkpt lat="44.40438" lon="1.64318">
        <ele>276.04</ele>
        <time>2026-05-19T09:37:42Z</time>
      </trkpt>
      <trkpt lat="44.4044" lon="1.64345">
        <ele>276.52</ele>
        <time>2026-05-19T09:37:58Z</time>
      </trkpt>
      <trkpt lat="44.40437" lon="1.64368">
        <ele>277.96</ele>
        <time>2026-05-19T09:38:13Z</time>
      </trkpt>
      <trkpt lat="44.40428" lon="1.64382">
        <ele>278.92</ele>
        <time>2026-05-19T09:38:25Z</time>
      </trkpt>
      <trkpt lat="44.4041" lon="1.6439">
        <ele>279.4</ele>
        <time>2026-05-19T09:38:39Z</time>
      </trkpt>
      <trkpt lat="44.4039" lon="1.64406">
        <ele>278.92</ele>
        <time>2026-05-19T09:38:55Z</time>
      </trkpt>
      <trkpt lat="44.4038" lon="1.64434">
        <ele>278.92</ele>
        <time>2026-05-19T09:39:10Z</time>
      </trkpt>
      <trkpt lat="44.40374" lon="1.64454">
        <ele>277.96</ele>
        <time>2026-05-19T09:39:24Z</time>
      </trkpt>
      <trkpt lat="44.40373" lon="1.64455">
        <ele>277.96</ele>
        <time>2026-05-19T09:39:25Z</time>
      </trkpt>
      <trkpt lat="44.40373" lon="1.64464">
        <ele>277.96</ele>
        <time>2026-05-19T09:39:39Z</time>
      </trkpt>
      <trkpt lat="44.40374" lon="1.64461">
        <ele>277.96</ele>
        <time>2026-05-19T09:39:43Z</time>
      </trkpt>
      <trkpt lat="44.40374" lon="1.64459">
        <ele>277.96</ele>
        <time>2026-05-19T09:39:44Z</time>
      </trkpt>
      <trkpt lat="44.40373" lon="1.6445">
        <ele>277.96</ele>
        <time>2026-05-19T09:39:48Z</time>
      </trkpt>
      <trkpt lat="44.4037" lon="1.64447">
        <ele>276.52</ele>
        <time>2026-05-19T09:39:52Z</time>
      </trkpt>
      <trkpt lat="44.40352" lon="1.64445">
        <ele>274.59</ele>
        <time>2026-05-19T09:40:05Z</time>
      </trkpt>
      <trkpt lat="44.40341" lon="1.64448">
        <ele>273.15</ele>
        <time>2026-05-19T09:40:12Z</time>
      </trkpt>
      <trkpt lat="44.40323" lon="1.64454">
        <ele>270.27</ele>
        <time>2026-05-19T09:40:26Z</time>
      </trkpt>
      <trkpt lat="44.40305" lon="1.64457">
        <ele>268.35</ele>
        <time>2026-05-19T09:40:39Z</time>
      </trkpt>
      <trkpt lat="44.40288" lon="1.64453">
        <ele>267.38</ele>
        <time>2026-05-19T09:40:53Z</time>
      </trkpt>
      <trkpt lat="44.40277" lon="1.64448">
        <ele>267.38</ele>
        <time>2026-05-19T09:41:06Z</time>
      </trkpt>
      <trkpt lat="44.40275" lon="1.64447">
        <ele>267.38</ele>
        <time>2026-05-19T09:41:16Z</time>
      </trkpt>
      <trkpt lat="44.40266" lon="1.64443">
        <ele>268.35</ele>
        <time>2026-05-19T09:41:25Z</time>
      </trkpt>
      <trkpt lat="44.40249" lon="1.64434">
        <ele>269.79</ele>
        <time>2026-05-19T09:41:39Z</time>
      </trkpt>
      <trkpt lat="44.40232" lon="1.64435">
        <ele>272.19</ele>
        <time>2026-05-19T09:41:54Z</time>
      </trkpt>
      <trkpt lat="44.40218" lon="1.64434">
        <ele>274.11</ele>
        <time>2026-05-19T09:42:08Z</time>
      </trkpt>
      <trkpt lat="44.40214" lon="1.64433">
        <ele>275.07</ele>
        <time>2026-05-19T09:42:22Z</time>
      </trkpt>
      <trkpt lat="44.40214" lon="1.64416">
        <ele>275.56</ele>
        <time>2026-05-19T09:42:37Z</time>
      </trkpt>
      <trkpt lat="44.40214" lon="1.64415">
        <ele>275.56</ele>
        <time>2026-05-19T09:42:38Z</time>
      </trkpt>
      <trkpt lat="44.40212" lon="1.64403">
        <ele>277</ele>
        <time>2026-05-19T09:42:46Z</time>
      </trkpt>
      <trkpt lat="44.40208" lon="1.64395">
        <ele>277.48</ele>
        <time>2026-05-19T09:43:00Z</time>
      </trkpt>
      <trkpt lat="44.40206" lon="1.64393">
        <ele>277.96</ele>
        <time>2026-05-19T09:43:18Z</time>
      </trkpt>
      <trkpt lat="44.40202" lon="1.64386">
        <ele>277.96</ele>
        <time>2026-05-19T09:43:31Z</time>
      </trkpt>
      <trkpt lat="44.40201" lon="1.64385">
        <ele>277.96</ele>
        <time>2026-05-19T09:43:35Z</time>
      </trkpt>
      <trkpt lat="44.40198" lon="1.6438">
        <ele>277.96</ele>
        <time>2026-05-19T09:43:40Z</time>
      </trkpt>
      <trkpt lat="44.40186" lon="1.64367">
        <ele>277.96</ele>
        <time>2026-05-19T09:43:51Z</time>
      </trkpt>
      <trkpt lat="44.40169" lon="1.64382">
        <ele>277.96</ele>
        <time>2026-05-19T09:44:06Z</time>
      </trkpt>
      <trkpt lat="44.40154" lon="1.64399">
        <ele>278.44</ele>
        <time>2026-05-19T09:44:18Z</time>
      </trkpt>
      <trkpt lat="44.40144" lon="1.64427">
        <ele>278.92</ele>
        <time>2026-05-19T09:44:34Z</time>
      </trkpt>
      <trkpt lat="44.40142" lon="1.64429">
        <ele>278.92</ele>
        <time>2026-05-19T09:44:38Z</time>
      </trkpt>
      <trkpt lat="44.40141" lon="1.6443">
        <ele>278.92</ele>
        <time>2026-05-19T09:44:39Z</time>
      </trkpt>
      <trkpt lat="44.40141" lon="1.64434">
        <ele>278.92</ele>
        <time>2026-05-19T09:44:42Z</time>
      </trkpt>
      <trkpt lat="44.40144" lon="1.64445">
        <ele>278.92</ele>
        <time>2026-05-19T09:44:49Z</time>
      </trkpt>
      <trkpt lat="44.40144" lon="1.64449">
        <ele>278.92</ele>
        <time>2026-05-19T09:45:03Z</time>
      </trkpt>
      <trkpt lat="44.40142" lon="1.64451">
        <ele>278.92</ele>
        <time>2026-05-19T09:45:27Z</time>
      </trkpt>
      <trkpt lat="44.40141" lon="1.64448">
        <ele>278.92</ele>
        <time>2026-05-19T09:45:43Z</time>
      </trkpt>
      <trkpt lat="44.40137" lon="1.64451">
        <ele>278.92</ele>
        <time>2026-05-19T09:46:08Z</time>
      </trkpt>
      <trkpt lat="44.40144" lon="1.64448">
        <ele>278.92</ele>
        <time>2026-05-19T09:46:22Z</time>
      </trkpt>
      <trkpt lat="44.40142" lon="1.64445">
        <ele>277.96</ele>
        <time>2026-05-19T09:46:30Z</time>
      </trkpt>
      <trkpt lat="44.40143" lon="1.64445">
        <ele>278.92</ele>
        <time>2026-05-19T09:46:36Z</time>
      </trkpt>
      <trkpt lat="44.40143" lon="1.64445">
        <ele>275.56</ele>
        <time>2026-05-19T09:46:37Z</time>
      </trkpt>
      <trkpt lat="44.40143" lon="1.64446">
        <ele>281.8</ele>
        <time>2026-05-19T09:46:39Z</time>
      </trkpt>
      <trkpt lat="44.40143" lon="1.64446">
        <ele>273.63</ele>
        <time>2026-05-19T09:46:40Z</time>
      </trkpt>
      <trkpt lat="44.40144" lon="1.64446">
        <ele>277.96</ele>
        <time>2026-05-19T09:46:42Z</time>
      </trkpt>
      <trkpt lat="44.40144" lon="1.64446">
        <ele>277.96</ele>
        <time>2026-05-19T09:46:43Z</time>
      </trkpt>
      <trkpt lat="44.40147" lon="1.64446">
        <ele>277.48</ele>
        <time>2026-05-19T09:46:54Z</time>
      </trkpt>
      <trkpt lat="44.40149" lon="1.64443">
        <ele>281.32</ele>
        <time>2026-05-19T09:47:12Z</time>
      </trkpt>
      <trkpt lat="44.40149" lon="1.64442">
        <ele>284.69</ele>
        <time>2026-05-19T09:47:13Z</time>
      </trkpt>
      <trkpt lat="44.40148" lon="1.64441">
        <ele>280.36</ele>
        <time>2026-05-19T09:47:14Z</time>
      </trkpt>
      <trkpt lat="44.40148" lon="1.6444">
        <ele>278.92</ele>
        <time>2026-05-19T09:47:16Z</time>
      </trkpt>
      <trkpt lat="44.40148" lon="1.6444">
        <ele>275.07</ele>
        <time>2026-05-19T09:47:18Z</time>
      </trkpt>
      <trkpt lat="44.40147" lon="1.6444">
        <ele>280.84</ele>
        <time>2026-05-19T09:47:19Z</time>
      </trkpt>
      <trkpt lat="44.40146" lon="1.64447">
        <ele>278.44</ele>
        <time>2026-05-19T09:47:40Z</time>
      </trkpt>
      <trkpt lat="44.40145" lon="1.64444">
        <ele>275.56</ele>
        <time>2026-05-19T09:47:53Z</time>
      </trkpt>
      <trkpt lat="44.40144" lon="1.64443">
        <ele>278.44</ele>
        <time>2026-05-19T09:47:56Z</time>
      </trkpt>
      <trkpt lat="44.40141" lon="1.64438">
        <ele>279.88</ele>
        <time>2026-05-19T09:48:25Z</time>
      </trkpt>
      <trkpt lat="44.40143" lon="1.64438">
        <ele>281.32</ele>
        <time>2026-05-19T09:48:35Z</time>
      </trkpt>
      <trkpt lat="44.40143" lon="1.64439">
        <ele>279.88</ele>
        <time>2026-05-19T09:48:37Z</time>
      </trkpt>
      <trkpt lat="44.40142" lon="1.64445">
        <ele>279.4</ele>
        <time>2026-05-19T09:49:14Z</time>
      </trkpt>
      <trkpt lat="44.40143" lon="1.64442">
        <ele>279.88</ele>
        <time>2026-05-19T09:49:29Z</time>
      </trkpt>
      <trkpt lat="44.40144" lon="1.64441">
        <ele>278.92</ele>
        <time>2026-05-19T09:49:37Z</time>
      </trkpt>
      <trkpt lat="44.40142" lon="1.64441">
        <ele>280.36</ele>
        <time>2026-05-19T09:50:17Z</time>
      </trkpt>
      <trkpt lat="44.40144" lon="1.64434">
        <ele>280.84</ele>
        <time>2026-05-19T09:50:56Z</time>
      </trkpt>
      <trkpt lat="44.40145" lon="1.64432">
        <ele>279.4</ele>
        <time>2026-05-19T09:51:05Z</time>
      </trkpt>
      <trkpt lat="44.40143" lon="1.64428">
        <ele>282.77</ele>
        <time>2026-05-19T09:51:34Z</time>
      </trkpt>
      <trkpt lat="44.40143" lon="1.64431">
        <ele>281.32</ele>
        <time>2026-05-19T09:51:40Z</time>
      </trkpt>
      <trkpt lat="44.40139" lon="1.64431">
        <ele>282.28</ele>
        <time>2026-05-19T09:52:14Z</time>
      </trkpt>
      <trkpt lat="44.40144" lon="1.64434">
        <ele>282.77</ele>
        <time>2026-05-19T09:52:48Z</time>
      </trkpt>
      <trkpt lat="44.40147" lon="1.64435">
        <ele>283.25</ele>
        <time>2026-05-19T09:53:26Z</time>
      </trkpt>
      <trkpt lat="44.4014" lon="1.64429">
        <ele>283.25</ele>
        <time>2026-05-19T09:54:05Z</time>
      </trkpt>
      <trkpt lat="44.40139" lon="1.64435">
        <ele>289.01</ele>
        <time>2026-05-19T09:54:35Z</time>
      </trkpt>
      <trkpt lat="44.40139" lon="1.64436">
        <ele>284.21</ele>
        <time>2026-05-19T09:54:36Z</time>
      </trkpt>
      <trkpt lat="44.40139" lon="1.64436">
        <ele>283.25</ele>
        <time>2026-05-19T09:54:38Z</time>
      </trkpt>
      <trkpt lat="44.40141" lon="1.64431">
        <ele>281.8</ele>
        <time>2026-05-19T09:54:58Z</time>
      </trkpt>
      <trkpt lat="44.40142" lon="1.64439">
        <ele>284.21</ele>
        <time>2026-05-19T09:55:39Z</time>
      </trkpt>
      <trkpt lat="44.40141" lon="1.64435">
        <ele>284.21</ele>
        <time>2026-05-19T09:55:53Z</time>
      </trkpt>
      <trkpt lat="44.40141" lon="1.64436">
        <ele>284.69</ele>
        <time>2026-05-19T09:56:08Z</time>
      </trkpt>
      <trkpt lat="44.40143" lon="1.64439">
        <ele>284.21</ele>
        <time>2026-05-19T09:56:40Z</time>
      </trkpt>
      <trkpt lat="44.40142" lon="1.64437">
        <ele>284.21</ele>
        <time>2026-05-19T09:57:06Z</time>
      </trkpt>
      <trkpt lat="44.40142" lon="1.64436">
        <ele>284.69</ele>
        <time>2026-05-19T09:57:39Z</time>
      </trkpt>
      <trkpt lat="44.40142" lon="1.64436">
        <ele>285.65</ele>
        <time>2026-05-19T09:58:24Z</time>
      </trkpt>
      <trkpt lat="44.40143" lon="1.64439">
        <ele>286.13</ele>
        <time>2026-05-19T09:59:05Z</time>
      </trkpt>
      <trkpt lat="44.40145" lon="1.64444">
        <ele>286.61</ele>
        <time>2026-05-19T09:59:50Z</time>
      </trkpt>
      <trkpt lat="44.4014" lon="1.64437">
        <ele>287.09</ele>
        <time>2026-05-19T10:00:21Z</time>
      </trkpt>
      <trkpt lat="44.40145" lon="1.64441">
        <ele>287.57</ele>
        <time>2026-05-19T10:00:50Z</time>
      </trkpt>
      <trkpt lat="44.40152" lon="1.64444">
        <ele>288.05</ele>
        <time>2026-05-19T10:01:27Z</time>
      </trkpt>
      <trkpt lat="44.40145" lon="1.64443">
        <ele>288.53</ele>
        <time>2026-05-19T10:02:04Z</time>
      </trkpt>
      <trkpt lat="44.40147" lon="1.64443">
        <ele>288.53</ele>
        <time>2026-05-19T10:02:31Z</time>
      </trkpt>
      <trkpt lat="44.40144" lon="1.6444">
        <ele>289.01</ele>
        <time>2026-05-19T10:03:04Z</time>
      </trkpt>
      <trkpt lat="44.40147" lon="1.64447">
        <ele>289.01</ele>
        <time>2026-05-19T10:03:48Z</time>
      </trkpt>
      <trkpt lat="44.40148" lon="1.64452">
        <ele>289.01</ele>
        <time>2026-05-19T10:04:18Z</time>
      </trkpt>
      <trkpt lat="44.40146" lon="1.64447">
        <ele>289.49</ele>
        <time>2026-05-19T10:05:00Z</time>
      </trkpt>
      <trkpt lat="44.40146" lon="1.64449">
        <ele>289.49</ele>
        <time>2026-05-19T10:05:49Z</time>
      </trkpt>
      <trkpt lat="44.40142" lon="1.64454">
        <ele>289.97</ele>
        <time>2026-05-19T10:06:26Z</time>
      </trkpt>
      <trkpt lat="44.40143" lon="1.64451">
        <ele>289.49</ele>
        <time>2026-05-19T10:06:49Z</time>
      </trkpt>
      <trkpt lat="44.4014" lon="1.6444">
        <ele>290.94</ele>
        <time>2026-05-19T10:07:24Z</time>
      </trkpt>
      <trkpt lat="44.40141" lon="1.64435">
        <ele>290.46</ele>
        <time>2026-05-19T10:07:59Z</time>
      </trkpt>
      <trkpt lat="44.40145" lon="1.64442">
        <ele>290.94</ele>
        <time>2026-05-19T10:08:41Z</time>
      </trkpt>
      <trkpt lat="44.40143" lon="1.64448">
        <ele>290.94</ele>
        <time>2026-05-19T10:09:13Z</time>
      </trkpt>
      <trkpt lat="44.40146" lon="1.64447">
        <ele>290.94</ele>
        <time>2026-05-19T10:09:50Z</time>
      </trkpt>
      <trkpt lat="44.40148" lon="1.64452">
        <ele>290.94</ele>
        <time>2026-05-19T10:10:26Z</time>
      </trkpt>
      <trkpt lat="44.40147" lon="1.64449">
        <ele>290.94</ele>
        <time>2026-05-19T10:11:07Z</time>
      </trkpt>
      <trkpt lat="44.40149" lon="1.64453">
        <ele>290.94</ele>
        <time>2026-05-19T10:11:39Z</time>
      </trkpt>
      <trkpt lat="44.40147" lon="1.64453">
        <ele>290.94</ele>
        <time>2026-05-19T10:12:15Z</time>
      </trkpt>
      <trkpt lat="44.40147" lon="1.64448">
        <ele>290.94</ele>
        <time>2026-05-19T10:12:46Z</time>
      </trkpt>
      <trkpt lat="44.40148" lon="1.6445">
        <ele>289.49</ele>
        <time>2026-05-19T10:13:11Z</time>
      </trkpt>
      <trkpt lat="44.40148" lon="1.6445">
        <ele>291.42</ele>
        <time>2026-05-19T10:13:16Z</time>
      </trkpt>
      <trkpt lat="44.40148" lon="1.6445">
        <ele>289.97</ele>
        <time>2026-05-19T10:13:18Z</time>
      </trkpt>
      <trkpt lat="44.40148" lon="1.64448">
        <ele>290.46</ele>
        <time>2026-05-19T10:13:42Z</time>
      </trkpt>
      <trkpt lat="44.40145" lon="1.64447">
        <ele>290.46</ele>
        <time>2026-05-19T10:14:19Z</time>
      </trkpt>
      <trkpt lat="44.40144" lon="1.64444">
        <ele>290.94</ele>
        <time>2026-05-19T10:14:45Z</time>
      </trkpt>
      <trkpt lat="44.40146" lon="1.64442">
        <ele>289.01</ele>
        <time>2026-05-19T10:15:08Z</time>
      </trkpt>
      <trkpt lat="44.40144" lon="1.64441">
        <ele>289.01</ele>
        <time>2026-05-19T10:15:20Z</time>
      </trkpt>
      <trkpt lat="44.40144" lon="1.64441">
        <ele>290.46</ele>
        <time>2026-05-19T10:15:22Z</time>
      </trkpt>
      <trkpt lat="44.40142" lon="1.64439">
        <ele>290.46</ele>
        <time>2026-05-19T10:15:56Z</time>
      </trkpt>
      <trkpt lat="44.40138" lon="1.64444">
        <ele>291.9</ele>
        <time>2026-05-19T10:16:24Z</time>
      </trkpt>
      <trkpt lat="44.40138" lon="1.64445">
        <ele>289.49</ele>
        <time>2026-05-19T10:16:26Z</time>
      </trkpt>
      <trkpt lat="44.40138" lon="1.64445">
        <ele>291.42</ele>
        <time>2026-05-19T10:16:28Z</time>
      </trkpt>
      <trkpt lat="44.40139" lon="1.64445">
        <ele>293.34</ele>
        <time>2026-05-19T10:16:48Z</time>
      </trkpt>
      <trkpt lat="44.40139" lon="1.64445">
        <ele>289.97</ele>
        <time>2026-05-19T10:16:49Z</time>
      </trkpt>
      <trkpt lat="44.40139" lon="1.64445">
        <ele>291.9</ele>
        <time>2026-05-19T10:16:50Z</time>
      </trkpt>
      <trkpt lat="44.40139" lon="1.64441">
        <ele>291.42</ele>
        <time>2026-05-19T10:17:00Z</time>
      </trkpt>
      <trkpt lat="44.40141" lon="1.64447">
        <ele>291.9</ele>
        <time>2026-05-19T10:17:39Z</time>
      </trkpt>
      <trkpt lat="44.40143" lon="1.64447">
        <ele>291.9</ele>
        <time>2026-05-19T10:18:15Z</time>
      </trkpt>
      <trkpt lat="44.40143" lon="1.64454">
        <ele>292.38</ele>
        <time>2026-05-19T10:18:51Z</time>
      </trkpt>
      <trkpt lat="44.40141" lon="1.64453">
        <ele>292.38</ele>
        <time>2026-05-19T10:19:28Z</time>
      </trkpt>
      <trkpt lat="44.40141" lon="1.64457">
        <ele>292.38</ele>
        <time>2026-05-19T10:20:02Z</time>
      </trkpt>
      <trkpt lat="44.40143" lon="1.64449">
        <ele>292.86</ele>
        <time>2026-05-19T10:20:33Z</time>
      </trkpt>
      <trkpt lat="44.40144" lon="1.64449">
        <ele>293.34</ele>
        <time>2026-05-19T10:21:01Z</time>
      </trkpt>
      <trkpt lat="44.40145" lon="1.64445">
        <ele>292.86</ele>
        <time>2026-05-19T10:21:18Z</time>
      </trkpt>
      <trkpt lat="44.40144" lon="1.64446">
        <ele>293.82</ele>
        <time>2026-05-19T10:21:21Z</time>
      </trkpt>
      <trkpt lat="44.40139" lon="1.64438">
        <ele>294.3</ele>
        <time>2026-05-19T10:21:51Z</time>
      </trkpt>
      <trkpt lat="44.40142" lon="1.64442">
        <ele>292.38</ele>
        <time>2026-05-19T10:21:58Z</time>
      </trkpt>
      <trkpt lat="44.40142" lon="1.64443">
        <ele>293.82</ele>
        <time>2026-05-19T10:22:03Z</time>
      </trkpt>
      <trkpt lat="44.4014" lon="1.64436">
        <ele>294.3</ele>
        <time>2026-05-19T10:22:46Z</time>
      </trkpt>
      <trkpt lat="44.40139" lon="1.64438">
        <ele>293.34</ele>
        <time>2026-05-19T10:22:57Z</time>
      </trkpt>
      <trkpt lat="44.40139" lon="1.6444">
        <ele>294.78</ele>
        <time>2026-05-19T10:23:10Z</time>
      </trkpt>
      <trkpt lat="44.40141" lon="1.64439">
        <ele>293.82</ele>
        <time>2026-05-19T10:23:24Z</time>
      </trkpt>
      <trkpt lat="44.40142" lon="1.64442">
        <ele>294.3</ele>
        <time>2026-05-19T10:23:39Z</time>
      </trkpt>
      <trkpt lat="44.40142" lon="1.64437">
        <ele>294.78</ele>
        <time>2026-05-19T10:24:04Z</time>
      </trkpt>
      <trkpt lat="44.40156" lon="1.64443">
        <ele>294.78</ele>
        <time>2026-05-19T10:24:44Z</time>
      </trkpt>
      <trkpt lat="44.40151" lon="1.64442">
        <ele>293.82</ele>
        <time>2026-05-19T10:25:03Z</time>
      </trkpt>
      <trkpt lat="44.40147" lon="1.64441">
        <ele>293.82</ele>
        <time>2026-05-19T10:25:39Z</time>
      </trkpt>
      <trkpt lat="44.40142" lon="1.64438">
        <ele>294.3</ele>
        <time>2026-05-19T10:26:18Z</time>
      </trkpt>
      <trkpt lat="44.4014" lon="1.64441">
        <ele>295.26</ele>
        <time>2026-05-19T10:26:51Z</time>
      </trkpt>
      <trkpt lat="44.40142" lon="1.64435">
        <ele>295.74</ele>
        <time>2026-05-19T10:27:31Z</time>
      </trkpt>
      <trkpt lat="44.40146" lon="1.64439">
        <ele>296.22</ele>
        <time>2026-05-19T10:27:42Z</time>
      </trkpt>
      <trkpt lat="44.40149" lon="1.64442">
        <ele>294.3</ele>
        <time>2026-05-19T10:28:06Z</time>
      </trkpt>
      <trkpt lat="44.40148" lon="1.64441">
        <ele>296.22</ele>
        <time>2026-05-19T10:28:16Z</time>
      </trkpt>
      <trkpt lat="44.4015" lon="1.64449">
        <ele>294.3</ele>
        <time>2026-05-19T10:28:53Z</time>
      </trkpt>
      <trkpt lat="44.40147" lon="1.64457">
        <ele>294.3</ele>
        <time>2026-05-19T10:29:20Z</time>
      </trkpt>
      <trkpt lat="44.40148" lon="1.64454">
        <ele>295.26</ele>
        <time>2026-05-19T10:29:36Z</time>
      </trkpt>
      <trkpt lat="44.40148" lon="1.64449">
        <ele>295.26</ele>
        <time>2026-05-19T10:30:14Z</time>
      </trkpt>
      <trkpt lat="44.40144" lon="1.64446">
        <ele>294.78</ele>
        <time>2026-05-19T10:30:41Z</time>
      </trkpt>
      <trkpt lat="44.40145" lon="1.64443">
        <ele>296.22</ele>
        <time>2026-05-19T10:30:53Z</time>
      </trkpt>
      <trkpt lat="44.40145" lon="1.64443">
        <ele>294.3</ele>
        <time>2026-05-19T10:31:27Z</time>
      </trkpt>
      <trkpt lat="44.40145" lon="1.64443">
        <ele>296.22</ele>
        <time>2026-05-19T10:31:36Z</time>
      </trkpt>
      <trkpt lat="44.40146" lon="1.64438">
        <ele>296.22</ele>
        <time>2026-05-19T10:32:13Z</time>
      </trkpt>
      <trkpt lat="44.40143" lon="1.64433">
        <ele>296.22</ele>
        <time>2026-05-19T10:32:51Z</time>
      </trkpt>
      <trkpt lat="44.40146" lon="1.64432">
        <ele>296.22</ele>
        <time>2026-05-19T10:33:23Z</time>
      </trkpt>
      <trkpt lat="44.40145" lon="1.64435">
        <ele>295.74</ele>
        <time>2026-05-19T10:33:35Z</time>
      </trkpt>
      <trkpt lat="44.40145" lon="1.64436">
        <ele>295.74</ele>
        <time>2026-05-19T10:33:49Z</time>
      </trkpt>
      <trkpt lat="44.40141" lon="1.64439">
        <ele>296.22</ele>
        <time>2026-05-19T10:34:24Z</time>
      </trkpt>
      <trkpt lat="44.4014" lon="1.64439">
        <ele>296.7</ele>
        <time>2026-05-19T10:35:01Z</time>
      </trkpt>
      <trkpt lat="44.40142" lon="1.64437">
        <ele>296.7</ele>
        <time>2026-05-19T10:35:35Z</time>
      </trkpt>
      <trkpt lat="44.40144" lon="1.64436">
        <ele>296.7</ele>
        <time>2026-05-19T10:36:04Z</time>
      </trkpt>
      <trkpt lat="44.4014" lon="1.64437">
        <ele>296.7</ele>
        <time>2026-05-19T10:36:46Z</time>
      </trkpt>
      <trkpt lat="44.4014" lon="1.64439">
        <ele>298.15</ele>
        <time>2026-05-19T10:36:56Z</time>
      </trkpt>
      <trkpt lat="44.4014" lon="1.6444">
        <ele>296.22</ele>
        <time>2026-05-19T10:36:58Z</time>
      </trkpt>
      <trkpt lat="44.40139" lon="1.64445">
        <ele>296.22</ele>
        <time>2026-05-19T10:37:27Z</time>
      </trkpt>
      <trkpt lat="44.40143" lon="1.64445">
        <ele>296.22</ele>
        <time>2026-05-19T10:38:00Z</time>
      </trkpt>
      <trkpt lat="44.40141" lon="1.64446">
        <ele>296.22</ele>
        <time>2026-05-19T10:38:10Z</time>
      </trkpt>
      <trkpt lat="44.40141" lon="1.64441">
        <ele>296.7</ele>
        <time>2026-05-19T10:38:39Z</time>
      </trkpt>
      <trkpt lat="44.40141" lon="1.64444">
        <ele>296.7</ele>
        <time>2026-05-19T10:39:01Z</time>
      </trkpt>
      <trkpt lat="44.40141" lon="1.64441">
        <ele>296.7</ele>
        <time>2026-05-19T10:39:26Z</time>
      </trkpt>
      <trkpt lat="44.40141" lon="1.64444">
        <ele>296.7</ele>
        <time>2026-05-19T10:39:57Z</time>
      </trkpt>
      <trkpt lat="44.4014" lon="1.64444">
        <ele>296.7</ele>
        <time>2026-05-19T10:40:22Z</time>
      </trkpt>
      <trkpt lat="44.40137" lon="1.64436">
        <ele>296.7</ele>
        <time>2026-05-19T10:40:41Z</time>
      </trkpt>
      <trkpt lat="44.40139" lon="1.6443">
        <ele>296.7</ele>
        <time>2026-05-19T10:41:02Z</time>
      </trkpt>
      <trkpt lat="44.40142" lon="1.64439">
        <ele>296.7</ele>
        <time>2026-05-19T10:41:17Z</time>
      </trkpt>
      <trkpt lat="44.4013" lon="1.64427">
        <ele>296.7</ele>
        <time>2026-05-19T10:41:54Z</time>
      </trkpt>
      <trkpt lat="44.40127" lon="1.64437">
        <ele>296.7</ele>
        <time>2026-05-19T10:42:10Z</time>
      </trkpt>
      <trkpt lat="44.40128" lon="1.64437">
        <ele>297.67</ele>
        <time>2026-05-19T10:42:25Z</time>
      </trkpt>
      <trkpt lat="44.4013" lon="1.64431">
        <ele>297.67</ele>
        <time>2026-05-19T10:42:39Z</time>
      </trkpt>
      <trkpt lat="44.4013" lon="1.64432">
        <ele>298.15</ele>
        <time>2026-05-19T10:42:50Z</time>
      </trkpt>
      <trkpt lat="44.4013" lon="1.64432">
        <ele>298.15</ele>
        <time>2026-05-19T10:42:51Z</time>
      </trkpt>
      <trkpt lat="44.4013" lon="1.64437">
        <ele>298.15</ele>
        <time>2026-05-19T10:42:55Z</time>
      </trkpt>
      <trkpt lat="44.40133" lon="1.64448">
        <ele>296.7</ele>
        <time>2026-05-19T10:42:59Z</time>
      </trkpt>
      <trkpt lat="44.40129" lon="1.64471">
        <ele>296.7</ele>
        <time>2026-05-19T10:43:13Z</time>
      </trkpt>
      <trkpt lat="44.40128" lon="1.64473">
        <ele>296.7</ele>
        <time>2026-05-19T10:43:15Z</time>
      </trkpt>
      <trkpt lat="44.40125" lon="1.64481">
        <ele>296.22</ele>
        <time>2026-05-19T10:43:22Z</time>
      </trkpt>
      <trkpt lat="44.40122" lon="1.6448">
        <ele>296.22</ele>
        <time>2026-05-19T10:43:25Z</time>
      </trkpt>
      <trkpt lat="44.40116" lon="1.64483">
        <ele>296.22</ele>
        <time>2026-05-19T10:43:35Z</time>
      </trkpt>
      <trkpt lat="44.40116" lon="1.64487">
        <ele>296.22</ele>
        <time>2026-05-19T10:43:39Z</time>
      </trkpt>
      <trkpt lat="44.40114" lon="1.64512">
        <ele>297.18</ele>
        <time>2026-05-19T10:43:53Z</time>
      </trkpt>
      <trkpt lat="44.40111" lon="1.64522">
        <ele>297.18</ele>
        <time>2026-05-19T10:43:59Z</time>
      </trkpt>
      <trkpt lat="44.40099" lon="1.64539">
        <ele>297.18</ele>
        <time>2026-05-19T10:44:12Z</time>
      </trkpt>
      <trkpt lat="44.40091" lon="1.64551">
        <ele>296.7</ele>
        <time>2026-05-19T10:44:23Z</time>
      </trkpt>
      <trkpt lat="44.40082" lon="1.64563">
        <ele>296.7</ele>
        <time>2026-05-19T10:44:34Z</time>
      </trkpt>
      <trkpt lat="44.40077" lon="1.64572">
        <ele>297.18</ele>
        <time>2026-05-19T10:44:41Z</time>
      </trkpt>
      <trkpt lat="44.40074" lon="1.64576">
        <ele>297.18</ele>
        <time>2026-05-19T10:44:45Z</time>
      </trkpt>
      <trkpt lat="44.40064" lon="1.64596">
        <ele>297.18</ele>
        <time>2026-05-19T10:44:59Z</time>
      </trkpt>
      <trkpt lat="44.40063" lon="1.64597">
        <ele>297.67</ele>
        <time>2026-05-19T10:45:01Z</time>
      </trkpt>
      <trkpt lat="44.40056" lon="1.64612">
        <ele>297.67</ele>
        <time>2026-05-19T10:45:10Z</time>
      </trkpt>
      <trkpt lat="44.40054" lon="1.64619">
        <ele>297.67</ele>
        <time>2026-05-19T10:45:14Z</time>
      </trkpt>
      <trkpt lat="44.40054" lon="1.64628">
        <ele>297.67</ele>
        <time>2026-05-19T10:45:20Z</time>
      </trkpt>
      <trkpt lat="44.40044" lon="1.64652">
        <ele>297.67</ele>
        <time>2026-05-19T10:45:33Z</time>
      </trkpt>
      <trkpt lat="44.4004" lon="1.64672">
        <ele>298.15</ele>
        <time>2026-05-19T10:45:45Z</time>
      </trkpt>
      <trkpt lat="44.40031" lon="1.64695">
        <ele>298.15</ele>
        <time>2026-05-19T10:45:59Z</time>
      </trkpt>
      <trkpt lat="44.40026" lon="1.64715">
        <ele>297.67</ele>
        <time>2026-05-19T10:46:11Z</time>
      </trkpt>
      <trkpt lat="44.40014" lon="1.64738">
        <ele>297.67</ele>
        <time>2026-05-19T10:46:24Z</time>
      </trkpt>
      <trkpt lat="44.40001" lon="1.64761">
        <ele>297.67</ele>
        <time>2026-05-19T10:46:37Z</time>
      </trkpt>
      <trkpt lat="44.3999" lon="1.64782">
        <ele>296.22</ele>
        <time>2026-05-19T10:46:51Z</time>
      </trkpt>
      <trkpt lat="44.39977" lon="1.64804">
        <ele>295.74</ele>
        <time>2026-05-19T10:47:06Z</time>
      </trkpt>
      <trkpt lat="44.39977" lon="1.64806">
        <ele>295.74</ele>
        <time>2026-05-19T10:47:07Z</time>
      </trkpt>
      <trkpt lat="44.39972" lon="1.64817">
        <ele>295.74</ele>
        <time>2026-05-19T10:47:13Z</time>
      </trkpt>
      <trkpt lat="44.39971" lon="1.6482">
        <ele>295.74</ele>
        <time>2026-05-19T10:47:14Z</time>
      </trkpt>
      <trkpt lat="44.39961" lon="1.64842">
        <ele>295.26</ele>
        <time>2026-05-19T10:47:28Z</time>
      </trkpt>
      <trkpt lat="44.39958" lon="1.6485">
        <ele>294.78</ele>
        <time>2026-05-19T10:47:33Z</time>
      </trkpt>
      <trkpt lat="44.39957" lon="1.64853">
        <ele>294.78</ele>
        <time>2026-05-19T10:47:35Z</time>
      </trkpt>
      <trkpt lat="44.39944" lon="1.64873">
        <ele>293.34</ele>
        <time>2026-05-19T10:47:49Z</time>
      </trkpt>
      <trkpt lat="44.39928" lon="1.64895">
        <ele>293.34</ele>
        <time>2026-05-19T10:48:06Z</time>
      </trkpt>
      <trkpt lat="44.39921" lon="1.64906">
        <ele>292.38</ele>
        <time>2026-05-19T10:48:15Z</time>
      </trkpt>
      <trkpt lat="44.39898" lon="1.64922">
        <ele>291.9</ele>
        <time>2026-05-19T10:48:31Z</time>
      </trkpt>
      <trkpt lat="44.39878" lon="1.64931">
        <ele>291.9</ele>
        <time>2026-05-19T10:48:45Z</time>
      </trkpt>
      <trkpt lat="44.3986" lon="1.64941">
        <ele>290.94</ele>
        <time>2026-05-19T10:48:59Z</time>
      </trkpt>
      <trkpt lat="44.39838" lon="1.64955">
        <ele>289.97</ele>
        <time>2026-05-19T10:49:16Z</time>
      </trkpt>
      <trkpt lat="44.39815" lon="1.64973">
        <ele>289.01</ele>
        <time>2026-05-19T10:49:34Z</time>
      </trkpt>
      <trkpt lat="44.39804" lon="1.64993">
        <ele>288.53</ele>
        <time>2026-05-19T10:49:49Z</time>
      </trkpt>
      <trkpt lat="44.39783" lon="1.65014">
        <ele>287.57</ele>
        <time>2026-05-19T10:50:07Z</time>
      </trkpt>
      <trkpt lat="44.39769" lon="1.65033">
        <ele>286.61</ele>
        <time>2026-05-19T10:50:21Z</time>
      </trkpt>
      <trkpt lat="44.39769" lon="1.6504">
        <ele>285.65</ele>
        <time>2026-05-19T10:50:35Z</time>
      </trkpt>
      <trkpt lat="44.3976" lon="1.65047">
        <ele>285.17</ele>
        <time>2026-05-19T10:51:12Z</time>
      </trkpt>
      <trkpt lat="44.39743" lon="1.65061">
        <ele>283.73</ele>
        <time>2026-05-19T10:51:28Z</time>
      </trkpt>
      <trkpt lat="44.39727" lon="1.65077">
        <ele>282.28</ele>
        <time>2026-05-19T10:51:43Z</time>
      </trkpt>
      <trkpt lat="44.39705" lon="1.65095">
        <ele>280.84</ele>
        <time>2026-05-19T10:52:00Z</time>
      </trkpt>
      <trkpt lat="44.39683" lon="1.65107">
        <ele>279.88</ele>
        <time>2026-05-19T10:52:16Z</time>
      </trkpt>
      <trkpt lat="44.39663" lon="1.65125">
        <ele>278.44</ele>
        <time>2026-05-19T10:52:34Z</time>
      </trkpt>
      <trkpt lat="44.39645" lon="1.65147">
        <ele>277</ele>
        <time>2026-05-19T10:52:51Z</time>
      </trkpt>
      <trkpt lat="44.39633" lon="1.65166">
        <ele>277</ele>
        <time>2026-05-19T10:53:04Z</time>
      </trkpt>
      <trkpt lat="44.39619" lon="1.65189">
        <ele>276.52</ele>
        <time>2026-05-19T10:53:20Z</time>
      </trkpt>
      <trkpt lat="44.39603" lon="1.65215">
        <ele>276.04</ele>
        <time>2026-05-19T10:53:37Z</time>
      </trkpt>
      <trkpt lat="44.39591" lon="1.65236">
        <ele>276.04</ele>
        <time>2026-05-19T10:53:53Z</time>
      </trkpt>
      <trkpt lat="44.39578" lon="1.65257">
        <ele>275.07</ele>
        <time>2026-05-19T10:54:10Z</time>
      </trkpt>
      <trkpt lat="44.39557" lon="1.65276">
        <ele>275.07</ele>
        <time>2026-05-19T10:54:29Z</time>
      </trkpt>
      <trkpt lat="44.39551" lon="1.65282">
        <ele>276.52</ele>
        <time>2026-05-19T10:54:34Z</time>
      </trkpt>
      <trkpt lat="44.39533" lon="1.65301">
        <ele>277</ele>
        <time>2026-05-19T10:54:53Z</time>
      </trkpt>
      <trkpt lat="44.39519" lon="1.65316">
        <ele>278.44</ele>
        <time>2026-05-19T10:55:08Z</time>
      </trkpt>
      <trkpt lat="44.39504" lon="1.65332">
        <ele>278.92</ele>
        <time>2026-05-19T10:55:23Z</time>
      </trkpt>
      <trkpt lat="44.39485" lon="1.65352">
        <ele>279.88</ele>
        <time>2026-05-19T10:55:38Z</time>
      </trkpt>
      <trkpt lat="44.39465" lon="1.65377">
        <ele>280.36</ele>
        <time>2026-05-19T10:55:55Z</time>
      </trkpt>
      <trkpt lat="44.39451" lon="1.65395">
        <ele>280.84</ele>
        <time>2026-05-19T10:56:09Z</time>
      </trkpt>
      <trkpt lat="44.39436" lon="1.65416">
        <ele>281.8</ele>
        <time>2026-05-19T10:56:23Z</time>
      </trkpt>
      <trkpt lat="44.39425" lon="1.6543">
        <ele>281.8</ele>
        <time>2026-05-19T10:56:35Z</time>
      </trkpt>
      <trkpt lat="44.39424" lon="1.65431">
        <ele>281.8</ele>
        <time>2026-05-19T10:56:36Z</time>
      </trkpt>
      <trkpt lat="44.39405" lon="1.6545">
        <ele>282.28</ele>
        <time>2026-05-19T10:56:51Z</time>
      </trkpt>
      <trkpt lat="44.3939" lon="1.65467">
        <ele>282.77</ele>
        <time>2026-05-19T10:57:05Z</time>
      </trkpt>
      <trkpt lat="44.39389" lon="1.65469">
        <ele>282.77</ele>
        <time>2026-05-19T10:57:07Z</time>
      </trkpt>
      <trkpt lat="44.39388" lon="1.6547">
        <ele>282.77</ele>
        <time>2026-05-19T10:57:08Z</time>
      </trkpt>
      <trkpt lat="44.39373" lon="1.65489">
        <ele>282.77</ele>
        <time>2026-05-19T10:57:23Z</time>
      </trkpt>
      <trkpt lat="44.39359" lon="1.65506">
        <ele>282.77</ele>
        <time>2026-05-19T10:57:37Z</time>
      </trkpt>
      <trkpt lat="44.39337" lon="1.65522">
        <ele>281.8</ele>
        <time>2026-05-19T10:57:55Z</time>
      </trkpt>
      <trkpt lat="44.39317" lon="1.65528">
        <ele>281.32</ele>
        <time>2026-05-19T10:58:10Z</time>
      </trkpt>
      <trkpt lat="44.39295" lon="1.65531">
        <ele>280.84</ele>
        <time>2026-05-19T10:58:28Z</time>
      </trkpt>
      <trkpt lat="44.39275" lon="1.6554">
        <ele>280.84</ele>
        <time>2026-05-19T10:58:44Z</time>
      </trkpt>
      <trkpt lat="44.39257" lon="1.65561">
        <ele>280.36</ele>
        <time>2026-05-19T10:59:01Z</time>
      </trkpt>
      <trkpt lat="44.3924" lon="1.65581">
        <ele>279.4</ele>
        <time>2026-05-19T10:59:15Z</time>
      </trkpt>
      <trkpt lat="44.39223" lon="1.65603">
        <ele>279.4</ele>
        <time>2026-05-19T10:59:31Z</time>
      </trkpt>
      <trkpt lat="44.39208" lon="1.65623">
        <ele>278.92</ele>
        <time>2026-05-19T10:59:47Z</time>
      </trkpt>
      <trkpt lat="44.39196" lon="1.65643">
        <ele>278.44</ele>
        <time>2026-05-19T11:00:02Z</time>
      </trkpt>
      <trkpt lat="44.39188" lon="1.65664">
        <ele>277.96</ele>
        <time>2026-05-19T11:00:16Z</time>
      </trkpt>
      <trkpt lat="44.39176" lon="1.65687">
        <ele>277</ele>
        <time>2026-05-19T11:00:32Z</time>
      </trkpt>
      <trkpt lat="44.39163" lon="1.65707">
        <ele>276.52</ele>
        <time>2026-05-19T11:00:47Z</time>
      </trkpt>
      <trkpt lat="44.39143" lon="1.65734">
        <ele>275.56</ele>
        <time>2026-05-19T11:01:05Z</time>
      </trkpt>
      <trkpt lat="44.39126" lon="1.65754">
        <ele>274.59</ele>
        <time>2026-05-19T11:01:21Z</time>
      </trkpt>
      <trkpt lat="44.39124" lon="1.65763">
        <ele>274.11</ele>
        <time>2026-05-19T11:01:32Z</time>
      </trkpt>
      <trkpt lat="44.39107" lon="1.65783">
        <ele>273.63</ele>
        <time>2026-05-19T11:01:47Z</time>
      </trkpt>
      <trkpt lat="44.39097" lon="1.65803">
        <ele>273.63</ele>
        <time>2026-05-19T11:02:02Z</time>
      </trkpt>
      <trkpt lat="44.39095" lon="1.65807">
        <ele>272.67</ele>
        <time>2026-05-19T11:02:04Z</time>
      </trkpt>
      <trkpt lat="44.3908" lon="1.6583">
        <ele>272.67</ele>
        <time>2026-05-19T11:02:20Z</time>
      </trkpt>
      <trkpt lat="44.39067" lon="1.65856">
        <ele>272.67</ele>
        <time>2026-05-19T11:02:36Z</time>
      </trkpt>
      <trkpt lat="44.39052" lon="1.65882">
        <ele>272.67</ele>
        <time>2026-05-19T11:02:53Z</time>
      </trkpt>
      <trkpt lat="44.39039" lon="1.65901">
        <ele>272.67</ele>
        <time>2026-05-19T11:03:08Z</time>
      </trkpt>
      <trkpt lat="44.39035" lon="1.65906">
        <ele>274.11</ele>
        <time>2026-05-19T11:03:14Z</time>
      </trkpt>
      <trkpt lat="44.39027" lon="1.65923">
        <ele>274.11</ele>
        <time>2026-05-19T11:03:28Z</time>
      </trkpt>
      <trkpt lat="44.39021" lon="1.65928">
        <ele>274.11</ele>
        <time>2026-05-19T11:03:33Z</time>
      </trkpt>
      <trkpt lat="44.39" lon="1.65951">
        <ele>275.56</ele>
        <time>2026-05-19T11:03:50Z</time>
      </trkpt>
      <trkpt lat="44.38984" lon="1.6597">
        <ele>276.52</ele>
        <time>2026-05-19T11:04:05Z</time>
      </trkpt>
      <trkpt lat="44.38978" lon="1.65992">
        <ele>277</ele>
        <time>2026-05-19T11:04:20Z</time>
      </trkpt>
      <trkpt lat="44.38963" lon="1.66021">
        <ele>277.48</ele>
        <time>2026-05-19T11:04:38Z</time>
      </trkpt>
      <trkpt lat="44.3895" lon="1.66041">
        <ele>277.96</ele>
        <time>2026-05-19T11:04:54Z</time>
      </trkpt>
      <trkpt lat="44.38939" lon="1.6606">
        <ele>277.96</ele>
        <time>2026-05-19T11:05:08Z</time>
      </trkpt>
      <trkpt lat="44.38926" lon="1.66077">
        <ele>278.44</ele>
        <time>2026-05-19T11:05:23Z</time>
      </trkpt>
      <trkpt lat="44.38905" lon="1.66102">
        <ele>278.44</ele>
        <time>2026-05-19T11:05:38Z</time>
      </trkpt>
      <trkpt lat="44.38886" lon="1.66116">
        <ele>278.44</ele>
        <time>2026-05-19T11:05:55Z</time>
      </trkpt>
      <trkpt lat="44.38865" lon="1.66132">
        <ele>277</ele>
        <time>2026-05-19T11:06:15Z</time>
      </trkpt>
      <trkpt lat="44.38851" lon="1.66147">
        <ele>277</ele>
        <time>2026-05-19T11:06:29Z</time>
      </trkpt>
      <trkpt lat="44.38837" lon="1.66158">
        <ele>277</ele>
        <time>2026-05-19T11:06:38Z</time>
      </trkpt>
      <trkpt lat="44.38835" lon="1.66159">
        <ele>277</ele>
        <time>2026-05-19T11:06:39Z</time>
      </trkpt>
      <trkpt lat="44.38814" lon="1.66174">
        <ele>276.52</ele>
        <time>2026-05-19T11:06:57Z</time>
      </trkpt>
      <trkpt lat="44.38795" lon="1.66188">
        <ele>276.04</ele>
        <time>2026-05-19T11:07:14Z</time>
      </trkpt>
      <trkpt lat="44.38772" lon="1.66205">
        <ele>275.56</ele>
        <time>2026-05-19T11:07:30Z</time>
      </trkpt>
      <trkpt lat="44.38763" lon="1.66213">
        <ele>275.07</ele>
        <time>2026-05-19T11:07:37Z</time>
      </trkpt>
      <trkpt lat="44.38762" lon="1.66215">
        <ele>275.07</ele>
        <time>2026-05-19T11:07:38Z</time>
      </trkpt>
      <trkpt lat="44.3876" lon="1.66216">
        <ele>275.07</ele>
        <time>2026-05-19T11:07:39Z</time>
      </trkpt>
      <trkpt lat="44.38746" lon="1.66234">
        <ele>274.59</ele>
        <time>2026-05-19T11:07:54Z</time>
      </trkpt>
      <trkpt lat="44.38745" lon="1.66235">
        <ele>274.11</ele>
        <time>2026-05-19T11:07:55Z</time>
      </trkpt>
      <trkpt lat="44.38725" lon="1.66258">
        <ele>273.15</ele>
        <time>2026-05-19T11:08:10Z</time>
      </trkpt>
      <trkpt lat="44.38715" lon="1.66273">
        <ele>272.67</ele>
        <time>2026-05-19T11:08:23Z</time>
      </trkpt>
      <trkpt lat="44.38697" lon="1.66299">
        <ele>271.71</ele>
        <time>2026-05-19T11:08:40Z</time>
      </trkpt>
      <trkpt lat="44.38706" lon="1.66309">
        <ele>271.71</ele>
        <time>2026-05-19T11:08:55Z</time>
      </trkpt>
      <trkpt lat="44.38706" lon="1.66307">
        <ele>271.23</ele>
        <time>2026-05-19T11:09:10Z</time>
      </trkpt>
      <trkpt lat="44.38705" lon="1.66307">
        <ele>269.79</ele>
        <time>2026-05-19T11:09:12Z</time>
      </trkpt>
      <trkpt lat="44.38705" lon="1.66308">
        <ele>273.63</ele>
        <time>2026-05-19T11:09:13Z</time>
      </trkpt>
      <trkpt lat="44.38705" lon="1.66308">
        <ele>273.63</ele>
        <time>2026-05-19T11:09:14Z</time>
      </trkpt>
      <trkpt lat="44.3869" lon="1.66322">
        <ele>271.23</ele>
        <time>2026-05-19T11:09:30Z</time>
      </trkpt>
      <trkpt lat="44.38674" lon="1.66336">
        <ele>271.23</ele>
        <time>2026-05-19T11:09:46Z</time>
      </trkpt>
      <trkpt lat="44.3866" lon="1.66349">
        <ele>272.67</ele>
        <time>2026-05-19T11:09:59Z</time>
      </trkpt>
      <trkpt lat="44.3866" lon="1.6636">
        <ele>273.15</ele>
        <time>2026-05-19T11:10:12Z</time>
      </trkpt>
      <trkpt lat="44.38657" lon="1.66354">
        <ele>273.63</ele>
        <time>2026-05-19T11:10:31Z</time>
      </trkpt>
      <trkpt lat="44.3865" lon="1.66348">
        <ele>273.63</ele>
        <time>2026-05-19T11:10:39Z</time>
      </trkpt>
      <trkpt lat="44.38648" lon="1.66348">
        <ele>273.63</ele>
        <time>2026-05-19T11:10:40Z</time>
      </trkpt>
      <trkpt lat="44.38626" lon="1.66349">
        <ele>274.11</ele>
        <time>2026-05-19T11:10:57Z</time>
      </trkpt>
      <trkpt lat="44.38605" lon="1.66347">
        <ele>274.11</ele>
        <time>2026-05-19T11:11:13Z</time>
      </trkpt>
      <trkpt lat="44.38604" lon="1.66347">
        <ele>274.11</ele>
        <time>2026-05-19T11:11:14Z</time>
      </trkpt>
      <trkpt lat="44.38602" lon="1.66347">
        <ele>274.11</ele>
        <time>2026-05-19T11:11:15Z</time>
      </trkpt>
      <trkpt lat="44.38578" lon="1.66341">
        <ele>274.59</ele>
        <time>2026-05-19T11:11:33Z</time>
      </trkpt>
      <trkpt lat="44.38552" lon="1.66339">
        <ele>274.59</ele>
        <time>2026-05-19T11:11:54Z</time>
      </trkpt>
      <trkpt lat="44.38528" lon="1.66338">
        <ele>273.15</ele>
        <time>2026-05-19T11:12:09Z</time>
      </trkpt>
      <trkpt lat="44.38507" lon="1.66327">
        <ele>273.15</ele>
        <time>2026-05-19T11:12:27Z</time>
      </trkpt>
      <trkpt lat="44.38488" lon="1.66315">
        <ele>274.11</ele>
        <time>2026-05-19T11:12:41Z</time>
      </trkpt>
      <trkpt lat="44.38469" lon="1.66302">
        <ele>274.59</ele>
        <time>2026-05-19T11:12:57Z</time>
      </trkpt>
      <trkpt lat="44.38455" lon="1.6629">
        <ele>275.07</ele>
        <time>2026-05-19T11:13:12Z</time>
      </trkpt>
      <trkpt lat="44.38431" lon="1.66276">
        <ele>275.07</ele>
        <time>2026-05-19T11:13:29Z</time>
      </trkpt>
      <trkpt lat="44.38407" lon="1.66264">
        <ele>275.56</ele>
        <time>2026-05-19T11:13:45Z</time>
      </trkpt>
      <trkpt lat="44.38388" lon="1.66253">
        <ele>275.56</ele>
        <time>2026-05-19T11:14:00Z</time>
      </trkpt>
      <trkpt lat="44.38386" lon="1.66252">
        <ele>275.56</ele>
        <time>2026-05-19T11:14:01Z</time>
      </trkpt>
      <trkpt lat="44.38383" lon="1.6625">
        <ele>275.56</ele>
        <time>2026-05-19T11:14:04Z</time>
      </trkpt>
      <trkpt lat="44.38363" lon="1.66238">
        <ele>275.56</ele>
        <time>2026-05-19T11:14:20Z</time>
      </trkpt>
      <trkpt lat="44.38356" lon="1.66232">
        <ele>275.07</ele>
        <time>2026-05-19T11:14:29Z</time>
      </trkpt>
      <trkpt lat="44.38355" lon="1.66231">
        <ele>275.07</ele>
        <time>2026-05-19T11:14:30Z</time>
      </trkpt>
      <trkpt lat="44.38353" lon="1.6623">
        <ele>275.07</ele>
        <time>2026-05-19T11:14:31Z</time>
      </trkpt>
      <trkpt lat="44.38335" lon="1.66214">
        <ele>276.04</ele>
        <time>2026-05-19T11:14:49Z</time>
      </trkpt>
      <trkpt lat="44.38316" lon="1.66203">
        <ele>276.52</ele>
        <time>2026-05-19T11:15:03Z</time>
      </trkpt>
      <trkpt lat="44.38294" lon="1.66191">
        <ele>277.48</ele>
        <time>2026-05-19T11:15:18Z</time>
      </trkpt>
      <trkpt lat="44.38278" lon="1.66175">
        <ele>278.44</ele>
        <time>2026-05-19T11:15:35Z</time>
      </trkpt>
      <trkpt lat="44.3826" lon="1.66156">
        <ele>278.92</ele>
        <time>2026-05-19T11:15:52Z</time>
      </trkpt>
      <trkpt lat="44.38245" lon="1.66143">
        <ele>280.36</ele>
        <time>2026-05-19T11:16:09Z</time>
      </trkpt>
      <trkpt lat="44.38244" lon="1.66142">
        <ele>280.36</ele>
        <time>2026-05-19T11:16:10Z</time>
      </trkpt>
      <trkpt lat="44.38242" lon="1.66141">
        <ele>280.36</ele>
        <time>2026-05-19T11:16:11Z</time>
      </trkpt>
      <trkpt lat="44.38226" lon="1.66127">
        <ele>281.32</ele>
        <time>2026-05-19T11:16:25Z</time>
      </trkpt>
      <trkpt lat="44.38224" lon="1.66125">
        <ele>281.32</ele>
        <time>2026-05-19T11:16:26Z</time>
      </trkpt>
      <trkpt lat="44.3821" lon="1.66099">
        <ele>282.28</ele>
        <time>2026-05-19T11:16:42Z</time>
      </trkpt>
      <trkpt lat="44.38207" lon="1.66091">
        <ele>283.25</ele>
        <time>2026-05-19T11:16:50Z</time>
      </trkpt>
      <trkpt lat="44.38205" lon="1.66089">
        <ele>283.25</ele>
        <time>2026-05-19T11:16:52Z</time>
      </trkpt>
      <trkpt lat="44.38196" lon="1.6607">
        <ele>284.21</ele>
        <time>2026-05-19T11:17:05Z</time>
      </trkpt>
      <trkpt lat="44.38187" lon="1.66047">
        <ele>285.17</ele>
        <time>2026-05-19T11:17:21Z</time>
      </trkpt>
      <trkpt lat="44.38173" lon="1.66021">
        <ele>286.13</ele>
        <time>2026-05-19T11:17:36Z</time>
      </trkpt>
      <trkpt lat="44.38166" lon="1.65996">
        <ele>287.09</ele>
        <time>2026-05-19T11:17:51Z</time>
      </trkpt>
      <trkpt lat="44.38163" lon="1.65982">
        <ele>287.09</ele>
        <time>2026-05-19T11:18:02Z</time>
      </trkpt>
      <trkpt lat="44.38162" lon="1.6598">
        <ele>287.57</ele>
        <time>2026-05-19T11:18:03Z</time>
      </trkpt>
      <trkpt lat="44.3815" lon="1.65958">
        <ele>287.09</ele>
        <time>2026-05-19T11:18:19Z</time>
      </trkpt>
      <trkpt lat="44.38139" lon="1.65947">
        <ele>287.09</ele>
        <time>2026-05-19T11:18:30Z</time>
      </trkpt>
      <trkpt lat="44.38138" lon="1.65947">
        <ele>287.57</ele>
        <time>2026-05-19T11:18:31Z</time>
      </trkpt>
      <trkpt lat="44.38121" lon="1.65933">
        <ele>287.57</ele>
        <time>2026-05-19T11:18:47Z</time>
      </trkpt>
      <trkpt lat="44.38101" lon="1.65913">
        <ele>288.53</ele>
        <time>2026-05-19T11:19:07Z</time>
      </trkpt>
      <trkpt lat="44.38095" lon="1.65908">
        <ele>288.05</ele>
        <time>2026-05-19T11:19:13Z</time>
      </trkpt>
      <trkpt lat="44.38094" lon="1.65907">
        <ele>288.53</ele>
        <time>2026-05-19T11:19:14Z</time>
      </trkpt>
      <trkpt lat="44.38092" lon="1.65906">
        <ele>288.05</ele>
        <time>2026-05-19T11:19:15Z</time>
      </trkpt>
      <trkpt lat="44.38091" lon="1.65905">
        <ele>288.05</ele>
        <time>2026-05-19T11:19:16Z</time>
      </trkpt>
      <trkpt lat="44.38089" lon="1.65904">
        <ele>288.53</ele>
        <time>2026-05-19T11:19:17Z</time>
      </trkpt>
      <trkpt lat="44.38088" lon="1.65903">
        <ele>288.53</ele>
        <time>2026-05-19T11:19:18Z</time>
      </trkpt>
      <trkpt lat="44.38068" lon="1.65888">
        <ele>289.49</ele>
        <time>2026-05-19T11:19:37Z</time>
      </trkpt>
      <trkpt lat="44.38051" lon="1.65876">
        <ele>289.49</ele>
        <time>2026-05-19T11:19:52Z</time>
      </trkpt>
      <trkpt lat="44.38036" lon="1.65861">
        <ele>290.46</ele>
        <time>2026-05-19T11:20:07Z</time>
      </trkpt>
      <trkpt lat="44.3803" lon="1.65858">
        <ele>290.46</ele>
        <time>2026-05-19T11:20:12Z</time>
      </trkpt>
      <trkpt lat="44.38028" lon="1.65857">
        <ele>290.46</ele>
        <time>2026-05-19T11:20:13Z</time>
      </trkpt>
      <trkpt lat="44.38015" lon="1.65846">
        <ele>291.42</ele>
        <time>2026-05-19T11:20:27Z</time>
      </trkpt>
      <trkpt lat="44.38008" lon="1.65842">
        <ele>291.42</ele>
        <time>2026-05-19T11:20:35Z</time>
      </trkpt>
      <trkpt lat="44.37985" lon="1.65829">
        <ele>292.38</ele>
        <time>2026-05-19T11:20:52Z</time>
      </trkpt>
      <trkpt lat="44.37966" lon="1.65815">
        <ele>292.86</ele>
        <time>2026-05-19T11:21:10Z</time>
      </trkpt>
      <trkpt lat="44.37963" lon="1.65813">
        <ele>292.86</ele>
        <time>2026-05-19T11:21:12Z</time>
      </trkpt>
      <trkpt lat="44.37961" lon="1.65812">
        <ele>293.34</ele>
        <time>2026-05-19T11:21:14Z</time>
      </trkpt>
      <trkpt lat="44.37959" lon="1.65811">
        <ele>293.34</ele>
        <time>2026-05-19T11:21:15Z</time>
      </trkpt>
      <trkpt lat="44.37949" lon="1.65803">
        <ele>293.34</ele>
        <time>2026-05-19T11:21:25Z</time>
      </trkpt>
      <trkpt lat="44.37946" lon="1.65797">
        <ele>293.34</ele>
        <time>2026-05-19T11:21:29Z</time>
      </trkpt>
      <trkpt lat="44.37944" lon="1.65795">
        <ele>293.34</ele>
        <time>2026-05-19T11:21:30Z</time>
      </trkpt>
      <trkpt lat="44.37937" lon="1.6578">
        <ele>294.3</ele>
        <time>2026-05-19T11:21:42Z</time>
      </trkpt>
      <trkpt lat="44.37929" lon="1.65762">
        <ele>294.78</ele>
        <time>2026-05-19T11:21:54Z</time>
      </trkpt>
      <trkpt lat="44.37923" lon="1.65745">
        <ele>295.74</ele>
        <time>2026-05-19T11:22:06Z</time>
      </trkpt>
      <trkpt lat="44.37922" lon="1.65743">
        <ele>295.74</ele>
        <time>2026-05-19T11:22:07Z</time>
      </trkpt>
      <trkpt lat="44.37921" lon="1.6574">
        <ele>295.74</ele>
        <time>2026-05-19T11:22:09Z</time>
      </trkpt>
      <trkpt lat="44.37921" lon="1.65738">
        <ele>295.74</ele>
        <time>2026-05-19T11:22:10Z</time>
      </trkpt>
      <trkpt lat="44.3792" lon="1.65736">
        <ele>295.74</ele>
        <time>2026-05-19T11:22:11Z</time>
      </trkpt>
      <trkpt lat="44.37913" lon="1.65713">
        <ele>296.7</ele>
        <time>2026-05-19T11:22:25Z</time>
      </trkpt>
      <trkpt lat="44.3791" lon="1.65699">
        <ele>297.18</ele>
        <time>2026-05-19T11:22:35Z</time>
      </trkpt>
      <trkpt lat="44.37909" lon="1.65697">
        <ele>297.18</ele>
        <time>2026-05-19T11:22:36Z</time>
      </trkpt>
      <trkpt lat="44.37908" lon="1.65694">
        <ele>297.18</ele>
        <time>2026-05-19T11:22:37Z</time>
      </trkpt>
      <trkpt lat="44.37907" lon="1.65692">
        <ele>297.18</ele>
        <time>2026-05-19T11:22:38Z</time>
      </trkpt>
      <trkpt lat="44.37906" lon="1.6569">
        <ele>297.18</ele>
        <time>2026-05-19T11:22:39Z</time>
      </trkpt>
      <trkpt lat="44.37901" lon="1.65672">
        <ele>297.67</ele>
        <time>2026-05-19T11:22:50Z</time>
      </trkpt>
      <trkpt lat="44.37894" lon="1.65654">
        <ele>298.15</ele>
        <time>2026-05-19T11:23:02Z</time>
      </trkpt>
      <trkpt lat="44.37888" lon="1.65635">
        <ele>298.63</ele>
        <time>2026-05-19T11:23:13Z</time>
      </trkpt>
      <trkpt lat="44.37887" lon="1.65634">
        <ele>298.63</ele>
        <time>2026-05-19T11:23:14Z</time>
      </trkpt>
      <trkpt lat="44.37888" lon="1.65628">
        <ele>298.63</ele>
        <time>2026-05-19T11:23:29Z</time>
      </trkpt>
      <trkpt lat="44.37889" lon="1.65624">
        <ele>298.63</ele>
        <time>2026-05-19T11:23:42Z</time>
      </trkpt>
      <trkpt lat="44.37888" lon="1.65623">
        <ele>298.63</ele>
        <time>2026-05-19T11:23:43Z</time>
      </trkpt>
      <trkpt lat="44.37887" lon="1.65621">
        <ele>298.63</ele>
        <time>2026-05-19T11:23:44Z</time>
      </trkpt>
      <trkpt lat="44.37886" lon="1.6562">
        <ele>298.63</ele>
        <time>2026-05-19T11:23:45Z</time>
      </trkpt>
      <trkpt lat="44.37885" lon="1.65618">
        <ele>298.63</ele>
        <time>2026-05-19T11:23:46Z</time>
      </trkpt>
      <trkpt lat="44.37877" lon="1.65601">
        <ele>300.07</ele>
        <time>2026-05-19T11:23:59Z</time>
      </trkpt>
      <trkpt lat="44.37874" lon="1.65597">
        <ele>299.59</ele>
        <time>2026-05-19T11:24:03Z</time>
      </trkpt>
      <trkpt lat="44.37872" lon="1.65596">
        <ele>300.07</ele>
        <time>2026-05-19T11:24:04Z</time>
      </trkpt>
      <trkpt lat="44.37871" lon="1.65595">
        <ele>300.55</ele>
        <time>2026-05-19T11:24:05Z</time>
      </trkpt>
      <trkpt lat="44.3787" lon="1.65593">
        <ele>300.55</ele>
        <time>2026-05-19T11:24:06Z</time>
      </trkpt>
      <trkpt lat="44.37868" lon="1.65592">
        <ele>300.55</ele>
        <time>2026-05-19T11:24:07Z</time>
      </trkpt>
      <trkpt lat="44.37867" lon="1.65591">
        <ele>300.55</ele>
        <time>2026-05-19T11:24:08Z</time>
      </trkpt>
      <trkpt lat="44.37866" lon="1.65589">
        <ele>300.55</ele>
        <time>2026-05-19T11:24:09Z</time>
      </trkpt>
      <trkpt lat="44.37864" lon="1.65588">
        <ele>300.55</ele>
        <time>2026-05-19T11:24:10Z</time>
      </trkpt>
      <trkpt lat="44.37851" lon="1.65573">
        <ele>301.03</ele>
        <time>2026-05-19T11:24:24Z</time>
      </trkpt>
      <trkpt lat="44.37841" lon="1.65556">
        <ele>301.99</ele>
        <time>2026-05-19T11:24:39Z</time>
      </trkpt>
      <trkpt lat="44.37832" lon="1.65545">
        <ele>301.99</ele>
        <time>2026-05-19T11:24:50Z</time>
      </trkpt>
      <trkpt lat="44.37831" lon="1.65544">
        <ele>301.99</ele>
        <time>2026-05-19T11:24:51Z</time>
      </trkpt>
      <trkpt lat="44.3783" lon="1.65542">
        <ele>301.99</ele>
        <time>2026-05-19T11:24:52Z</time>
      </trkpt>
      <trkpt lat="44.37815" lon="1.65526">
        <ele>301.99</ele>
        <time>2026-05-19T11:25:06Z</time>
      </trkpt>
      <trkpt lat="44.37809" lon="1.65513">
        <ele>301.51</ele>
        <time>2026-05-19T11:25:19Z</time>
      </trkpt>
      <trkpt lat="44.37809" lon="1.65512">
        <ele>301.51</ele>
        <time>2026-05-19T11:25:20Z</time>
      </trkpt>
      <trkpt lat="44.37807" lon="1.6551">
        <ele>301.51</ele>
        <time>2026-05-19T11:25:34Z</time>
      </trkpt>
      <trkpt lat="44.37807" lon="1.65507">
        <ele>302.47</ele>
        <time>2026-05-19T11:25:52Z</time>
      </trkpt>
      <trkpt lat="44.37805" lon="1.65506">
        <ele>302.47</ele>
        <time>2026-05-19T11:25:55Z</time>
      </trkpt>
      <trkpt lat="44.37795" lon="1.65503">
        <ele>301.99</ele>
        <time>2026-05-19T11:26:04Z</time>
      </trkpt>
      <trkpt lat="44.37794" lon="1.65505">
        <ele>301.99</ele>
        <time>2026-05-19T11:26:07Z</time>
      </trkpt>
      <trkpt lat="44.37794" lon="1.6551">
        <ele>301.99</ele>
        <time>2026-05-19T11:26:10Z</time>
      </trkpt>
      <trkpt lat="44.37773" lon="1.65527">
        <ele>301.99</ele>
        <time>2026-05-19T11:26:28Z</time>
      </trkpt>
      <trkpt lat="44.37772" lon="1.65528">
        <ele>301.99</ele>
        <time>2026-05-19T11:26:29Z</time>
      </trkpt>
      <trkpt lat="44.37771" lon="1.65529">
        <ele>301.99</ele>
        <time>2026-05-19T11:26:30Z</time>
      </trkpt>
      <trkpt lat="44.37769" lon="1.6553">
        <ele>301.99</ele>
        <time>2026-05-19T11:26:31Z</time>
      </trkpt>
      <trkpt lat="44.37768" lon="1.65531">
        <ele>301.99</ele>
        <time>2026-05-19T11:26:32Z</time>
      </trkpt>
      <trkpt lat="44.37767" lon="1.65532">
        <ele>301.99</ele>
        <time>2026-05-19T11:26:33Z</time>
      </trkpt>
      <trkpt lat="44.37766" lon="1.65533">
        <ele>301.99</ele>
        <time>2026-05-19T11:26:34Z</time>
      </trkpt>
      <trkpt lat="44.37759" lon="1.65541">
        <ele>301.99</ele>
        <time>2026-05-19T11:26:43Z</time>
      </trkpt>
      <trkpt lat="44.37758" lon="1.65542">
        <ele>301.99</ele>
        <time>2026-05-19T11:26:44Z</time>
      </trkpt>
      <trkpt lat="44.37756" lon="1.65543">
        <ele>301.99</ele>
        <time>2026-05-19T11:26:45Z</time>
      </trkpt>
      <trkpt lat="44.37755" lon="1.65543">
        <ele>301.99</ele>
        <time>2026-05-19T11:26:46Z</time>
      </trkpt>
      <trkpt lat="44.37753" lon="1.65544">
        <ele>301.99</ele>
        <time>2026-05-19T11:26:47Z</time>
      </trkpt>
      <trkpt lat="44.37752" lon="1.65545">
        <ele>301.99</ele>
        <time>2026-05-19T11:26:48Z</time>
      </trkpt>
      <trkpt lat="44.37746" lon="1.65548">
        <ele>301.99</ele>
        <time>2026-05-19T11:26:55Z</time>
      </trkpt>
      <trkpt lat="44.37729" lon="1.65562">
        <ele>301.99</ele>
        <time>2026-05-19T11:27:09Z</time>
      </trkpt>
      <trkpt lat="44.3771" lon="1.65578">
        <ele>301.99</ele>
        <time>2026-05-19T11:27:25Z</time>
      </trkpt>
      <trkpt lat="44.37692" lon="1.65595">
        <ele>301.99</ele>
        <time>2026-05-19T11:27:40Z</time>
      </trkpt>
      <trkpt lat="44.37689" lon="1.65598">
        <ele>300.55</ele>
        <time>2026-05-19T11:27:42Z</time>
      </trkpt>
      <trkpt lat="44.37668" lon="1.65615">
        <ele>300.07</ele>
        <time>2026-05-19T11:27:58Z</time>
      </trkpt>
      <trkpt lat="44.37651" lon="1.6563">
        <ele>299.11</ele>
        <time>2026-05-19T11:28:14Z</time>
      </trkpt>
      <trkpt lat="44.3763" lon="1.65643">
        <ele>298.15</ele>
        <time>2026-05-19T11:28:30Z</time>
      </trkpt>
      <trkpt lat="44.37612" lon="1.65659">
        <ele>298.15</ele>
        <time>2026-05-19T11:28:46Z</time>
      </trkpt>
      <trkpt lat="44.37591" lon="1.65678">
        <ele>297.18</ele>
        <time>2026-05-19T11:29:04Z</time>
      </trkpt>
      <trkpt lat="44.37574" lon="1.65691">
        <ele>296.22</ele>
        <time>2026-05-19T11:29:18Z</time>
      </trkpt>
      <trkpt lat="44.37568" lon="1.65695">
        <ele>296.22</ele>
        <time>2026-05-19T11:29:23Z</time>
      </trkpt>
      <trkpt lat="44.37567" lon="1.65696">
        <ele>295.74</ele>
        <time>2026-05-19T11:29:24Z</time>
      </trkpt>
      <trkpt lat="44.3756" lon="1.65703">
        <ele>295.74</ele>
        <time>2026-05-19T11:29:30Z</time>
      </trkpt>
      <trkpt lat="44.37549" lon="1.65713">
        <ele>294.3</ele>
        <time>2026-05-19T11:29:42Z</time>
      </trkpt>
      <trkpt lat="44.37547" lon="1.65714">
        <ele>294.3</ele>
        <time>2026-05-19T11:29:43Z</time>
      </trkpt>
      <trkpt lat="44.37525" lon="1.65724">
        <ele>293.82</ele>
        <time>2026-05-19T11:29:59Z</time>
      </trkpt>
      <trkpt lat="44.37519" lon="1.6573">
        <ele>293.34</ele>
        <time>2026-05-19T11:30:04Z</time>
      </trkpt>
      <trkpt lat="44.37498" lon="1.6575">
        <ele>291.9</ele>
        <time>2026-05-19T11:30:19Z</time>
      </trkpt>
      <trkpt lat="44.37483" lon="1.65774">
        <ele>290.94</ele>
        <time>2026-05-19T11:30:33Z</time>
      </trkpt>
      <trkpt lat="44.37473" lon="1.65813">
        <ele>289.49</ele>
        <time>2026-05-19T11:30:51Z</time>
      </trkpt>
      <trkpt lat="44.37467" lon="1.65833">
        <ele>289.01</ele>
        <time>2026-05-19T11:31:04Z</time>
      </trkpt>
      <trkpt lat="44.37463" lon="1.65847">
        <ele>289.01</ele>
        <time>2026-05-19T11:31:10Z</time>
      </trkpt>
      <trkpt lat="44.37462" lon="1.65849">
        <ele>289.01</ele>
        <time>2026-05-19T11:31:11Z</time>
      </trkpt>
      <trkpt lat="44.37462" lon="1.6585">
        <ele>289.01</ele>
        <time>2026-05-19T11:31:12Z</time>
      </trkpt>
      <trkpt lat="44.3746" lon="1.65858">
        <ele>288.53</ele>
        <time>2026-05-19T11:31:18Z</time>
      </trkpt>
      <trkpt lat="44.3746" lon="1.6586">
        <ele>288.53</ele>
        <time>2026-05-19T11:31:19Z</time>
      </trkpt>
      <trkpt lat="44.37459" lon="1.65862">
        <ele>288.53</ele>
        <time>2026-05-19T11:31:20Z</time>
      </trkpt>
      <trkpt lat="44.37459" lon="1.65864">
        <ele>288.53</ele>
        <time>2026-05-19T11:31:21Z</time>
      </trkpt>
      <trkpt lat="44.37458" lon="1.65866">
        <ele>288.53</ele>
        <time>2026-05-19T11:31:22Z</time>
      </trkpt>
      <trkpt lat="44.37454" lon="1.65894">
        <ele>287.57</ele>
        <time>2026-05-19T11:31:37Z</time>
      </trkpt>
      <trkpt lat="44.37448" lon="1.65924">
        <ele>286.61</ele>
        <time>2026-05-19T11:31:53Z</time>
      </trkpt>
      <trkpt lat="44.37444" lon="1.65951">
        <ele>286.13</ele>
        <time>2026-05-19T11:32:07Z</time>
      </trkpt>
      <trkpt lat="44.37443" lon="1.65955">
        <ele>286.13</ele>
        <time>2026-05-19T11:32:10Z</time>
      </trkpt>
      <trkpt lat="44.37443" lon="1.65957">
        <ele>285.65</ele>
        <time>2026-05-19T11:32:11Z</time>
      </trkpt>
      <trkpt lat="44.37443" lon="1.65959">
        <ele>285.65</ele>
        <time>2026-05-19T11:32:12Z</time>
      </trkpt>
      <trkpt lat="44.37443" lon="1.65962">
        <ele>285.65</ele>
        <time>2026-05-19T11:32:13Z</time>
      </trkpt>
      <trkpt lat="44.37442" lon="1.65964">
        <ele>285.65</ele>
        <time>2026-05-19T11:32:14Z</time>
      </trkpt>
      <trkpt lat="44.37441" lon="1.65966">
        <ele>285.65</ele>
        <time>2026-05-19T11:32:15Z</time>
      </trkpt>
      <trkpt lat="44.3744" lon="1.65968">
        <ele>285.65</ele>
        <time>2026-05-19T11:32:16Z</time>
      </trkpt>
      <trkpt lat="44.37439" lon="1.65971">
        <ele>285.65</ele>
        <time>2026-05-19T11:32:17Z</time>
      </trkpt>
      <trkpt lat="44.37433" lon="1.65995">
        <ele>284.69</ele>
        <time>2026-05-19T11:32:31Z</time>
      </trkpt>
      <trkpt lat="44.37428" lon="1.66016">
        <ele>284.21</ele>
        <time>2026-05-19T11:32:43Z</time>
      </trkpt>
      <trkpt lat="44.37422" lon="1.66041">
        <ele>283.25</ele>
        <time>2026-05-19T11:32:57Z</time>
      </trkpt>
      <trkpt lat="44.37419" lon="1.66067">
        <ele>282.77</ele>
        <time>2026-05-19T11:33:09Z</time>
      </trkpt>
      <trkpt lat="44.37418" lon="1.66069">
        <ele>282.77</ele>
        <time>2026-05-19T11:33:10Z</time>
      </trkpt>
      <trkpt lat="44.37412" lon="1.66093">
        <ele>282.28</ele>
        <time>2026-05-19T11:33:24Z</time>
      </trkpt>
      <trkpt lat="44.37401" lon="1.6611">
        <ele>282.28</ele>
        <time>2026-05-19T11:33:38Z</time>
      </trkpt>
      <trkpt lat="44.37386" lon="1.66123">
        <ele>282.28</ele>
        <time>2026-05-19T11:33:54Z</time>
      </trkpt>
      <trkpt lat="44.37374" lon="1.66132">
        <ele>282.28</ele>
        <time>2026-05-19T11:34:06Z</time>
      </trkpt>
      <trkpt lat="44.37372" lon="1.66134">
        <ele>283.73</ele>
        <time>2026-05-19T11:34:08Z</time>
      </trkpt>
      <trkpt lat="44.37361" lon="1.66142">
        <ele>284.21</ele>
        <time>2026-05-19T11:34:21Z</time>
      </trkpt>
      <trkpt lat="44.3736" lon="1.66143">
        <ele>284.21</ele>
        <time>2026-05-19T11:34:22Z</time>
      </trkpt>
      <trkpt lat="44.37346" lon="1.66152">
        <ele>284.69</ele>
        <time>2026-05-19T11:34:36Z</time>
      </trkpt>
      <trkpt lat="44.37328" lon="1.66167">
        <ele>286.13</ele>
        <time>2026-05-19T11:34:55Z</time>
      </trkpt>
      <trkpt lat="44.37308" lon="1.66181">
        <ele>287.57</ele>
        <time>2026-05-19T11:35:14Z</time>
      </trkpt>
      <trkpt lat="44.37293" lon="1.66194">
        <ele>288.05</ele>
        <time>2026-05-19T11:35:29Z</time>
      </trkpt>
      <trkpt lat="44.37273" lon="1.66208">
        <ele>289.01</ele>
        <time>2026-05-19T11:35:48Z</time>
      </trkpt>
      <trkpt lat="44.37254" lon="1.66222">
        <ele>290.94</ele>
        <time>2026-05-19T11:36:06Z</time>
      </trkpt>
      <trkpt lat="44.37235" lon="1.66232">
        <ele>291.9</ele>
        <time>2026-05-19T11:36:21Z</time>
      </trkpt>
      <trkpt lat="44.37218" lon="1.66242">
        <ele>293.82</ele>
        <time>2026-05-19T11:36:38Z</time>
      </trkpt>
      <trkpt lat="44.37195" lon="1.66248">
        <ele>294.78</ele>
        <time>2026-05-19T11:36:57Z</time>
      </trkpt>
      <trkpt lat="44.3717" lon="1.66243">
        <ele>296.22</ele>
        <time>2026-05-19T11:37:16Z</time>
      </trkpt>
      <trkpt lat="44.37164" lon="1.66241">
        <ele>297.67</ele>
        <time>2026-05-19T11:37:21Z</time>
      </trkpt>
      <trkpt lat="44.37144" lon="1.66241">
        <ele>298.63</ele>
        <time>2026-05-19T11:37:36Z</time>
      </trkpt>
      <trkpt lat="44.37131" lon="1.66244">
        <ele>299.59</ele>
        <time>2026-05-19T11:37:46Z</time>
      </trkpt>
      <trkpt lat="44.3713" lon="1.66245">
        <ele>299.59</ele>
        <time>2026-05-19T11:37:47Z</time>
      </trkpt>
      <trkpt lat="44.37128" lon="1.66245">
        <ele>299.59</ele>
        <time>2026-05-19T11:37:48Z</time>
      </trkpt>
      <trkpt lat="44.37111" lon="1.66257">
        <ele>300.07</ele>
        <time>2026-05-19T11:38:03Z</time>
      </trkpt>
      <trkpt lat="44.37102" lon="1.66262">
        <ele>300.55</ele>
        <time>2026-05-19T11:38:11Z</time>
      </trkpt>
      <trkpt lat="44.37101" lon="1.66263">
        <ele>301.03</ele>
        <time>2026-05-19T11:38:12Z</time>
      </trkpt>
      <trkpt lat="44.37099" lon="1.66264">
        <ele>301.03</ele>
        <time>2026-05-19T11:38:13Z</time>
      </trkpt>
      <trkpt lat="44.37077" lon="1.66278">
        <ele>301.51</ele>
        <time>2026-05-19T11:38:30Z</time>
      </trkpt>
      <trkpt lat="44.37059" lon="1.66292">
        <ele>301.99</ele>
        <time>2026-05-19T11:38:46Z</time>
      </trkpt>
      <trkpt lat="44.37042" lon="1.66304">
        <ele>302.47</ele>
        <time>2026-05-19T11:39:00Z</time>
      </trkpt>
      <trkpt lat="44.37041" lon="1.66306">
        <ele>302.47</ele>
        <time>2026-05-19T11:39:01Z</time>
      </trkpt>
      <trkpt lat="44.37039" lon="1.66306">
        <ele>302.47</ele>
        <time>2026-05-19T11:39:02Z</time>
      </trkpt>
      <trkpt lat="44.37038" lon="1.66307">
        <ele>302.47</ele>
        <time>2026-05-19T11:39:03Z</time>
      </trkpt>
      <trkpt lat="44.37036" lon="1.66308">
        <ele>302.47</ele>
        <time>2026-05-19T11:39:04Z</time>
      </trkpt>
      <trkpt lat="44.37012" lon="1.66327">
        <ele>302.47</ele>
        <time>2026-05-19T11:39:22Z</time>
      </trkpt>
      <trkpt lat="44.36989" lon="1.66342">
        <ele>302.95</ele>
        <time>2026-05-19T11:39:39Z</time>
      </trkpt>
      <trkpt lat="44.3697" lon="1.66354">
        <ele>303.43</ele>
        <time>2026-05-19T11:39:55Z</time>
      </trkpt>
      <trkpt lat="44.36956" lon="1.66364">
        <ele>303.43</ele>
        <time>2026-05-19T11:40:08Z</time>
      </trkpt>
      <trkpt lat="44.36955" lon="1.66365">
        <ele>303.43</ele>
        <time>2026-05-19T11:40:09Z</time>
      </trkpt>
      <trkpt lat="44.36949" lon="1.66369">
        <ele>303.43</ele>
        <time>2026-05-19T11:40:14Z</time>
      </trkpt>
      <trkpt lat="44.36948" lon="1.6637">
        <ele>303.43</ele>
        <time>2026-05-19T11:40:15Z</time>
      </trkpt>
      <trkpt lat="44.36926" lon="1.66386">
        <ele>304.88</ele>
        <time>2026-05-19T11:40:33Z</time>
      </trkpt>
      <trkpt lat="44.36905" lon="1.66404">
        <ele>304.88</ele>
        <time>2026-05-19T11:40:49Z</time>
      </trkpt>
      <trkpt lat="44.36895" lon="1.66413">
        <ele>305.36</ele>
        <time>2026-05-19T11:40:58Z</time>
      </trkpt>
      <trkpt lat="44.36891" lon="1.66418">
        <ele>305.84</ele>
        <time>2026-05-19T11:41:12Z</time>
      </trkpt>
      <trkpt lat="44.36885" lon="1.66418">
        <ele>304.88</ele>
        <time>2026-05-19T11:41:45Z</time>
      </trkpt>
      <trkpt lat="44.36884" lon="1.66418">
        <ele>307.28</ele>
        <time>2026-05-19T11:41:47Z</time>
      </trkpt>
      <trkpt lat="44.36877" lon="1.66421">
        <ele>307.28</ele>
        <time>2026-05-19T11:41:56Z</time>
      </trkpt>
      <trkpt lat="44.36866" lon="1.66434">
        <ele>307.28</ele>
        <time>2026-05-19T11:42:07Z</time>
      </trkpt>
      <trkpt lat="44.36865" lon="1.66436">
        <ele>307.28</ele>
        <time>2026-05-19T11:42:08Z</time>
      </trkpt>
      <trkpt lat="44.36856" lon="1.66444">
        <ele>307.28</ele>
        <time>2026-05-19T11:42:20Z</time>
      </trkpt>
      <trkpt lat="44.36842" lon="1.66463">
        <ele>307.76</ele>
        <time>2026-05-19T11:42:34Z</time>
      </trkpt>
      <trkpt lat="44.36823" lon="1.66485">
        <ele>307.76</ele>
        <time>2026-05-19T11:42:51Z</time>
      </trkpt>
      <trkpt lat="44.36808" lon="1.66499">
        <ele>307.76</ele>
        <time>2026-05-19T11:43:05Z</time>
      </trkpt>
      <trkpt lat="44.36791" lon="1.66513">
        <ele>306.32</ele>
        <time>2026-05-19T11:43:16Z</time>
      </trkpt>
      <trkpt lat="44.3678" lon="1.66526">
        <ele>306.32</ele>
        <time>2026-05-19T11:43:28Z</time>
      </trkpt>
      <trkpt lat="44.36768" lon="1.66535">
        <ele>306.32</ele>
        <time>2026-05-19T11:43:36Z</time>
      </trkpt>
      <trkpt lat="44.36767" lon="1.66536">
        <ele>306.32</ele>
        <time>2026-05-19T11:43:37Z</time>
      </trkpt>
      <trkpt lat="44.36762" lon="1.6654">
        <ele>305.84</ele>
        <time>2026-05-19T11:43:44Z</time>
      </trkpt>
      <trkpt lat="44.36761" lon="1.66541">
        <ele>305.84</ele>
        <time>2026-05-19T11:43:45Z</time>
      </trkpt>
      <trkpt lat="44.3676" lon="1.66543">
        <ele>305.84</ele>
        <time>2026-05-19T11:43:46Z</time>
      </trkpt>
      <trkpt lat="44.36758" lon="1.66544">
        <ele>305.84</ele>
        <time>2026-05-19T11:43:47Z</time>
      </trkpt>
      <trkpt lat="44.36758" lon="1.66545">
        <ele>305.84</ele>
        <time>2026-05-19T11:43:48Z</time>
      </trkpt>
      <trkpt lat="44.36742" lon="1.66564">
        <ele>305.84</ele>
        <time>2026-05-19T11:44:03Z</time>
      </trkpt>
      <trkpt lat="44.36726" lon="1.66586">
        <ele>305.36</ele>
        <time>2026-05-19T11:44:16Z</time>
      </trkpt>
      <trkpt lat="44.36711" lon="1.66601">
        <ele>305.36</ele>
        <time>2026-05-19T11:44:30Z</time>
      </trkpt>
      <trkpt lat="44.36696" lon="1.66617">
        <ele>304.88</ele>
        <time>2026-05-19T11:44:44Z</time>
      </trkpt>
      <trkpt lat="44.36693" lon="1.66619">
        <ele>304.88</ele>
        <time>2026-05-19T11:44:46Z</time>
      </trkpt>
      <trkpt lat="44.36691" lon="1.6662">
        <ele>304.88</ele>
        <time>2026-05-19T11:44:47Z</time>
      </trkpt>
      <trkpt lat="44.3669" lon="1.66621">
        <ele>304.88</ele>
        <time>2026-05-19T11:44:48Z</time>
      </trkpt>
      <trkpt lat="44.36688" lon="1.66622">
        <ele>304.88</ele>
        <time>2026-05-19T11:44:49Z</time>
      </trkpt>
      <trkpt lat="44.36687" lon="1.66623">
        <ele>304.88</ele>
        <time>2026-05-19T11:44:50Z</time>
      </trkpt>
      <trkpt lat="44.36686" lon="1.66624">
        <ele>304.88</ele>
        <time>2026-05-19T11:44:51Z</time>
      </trkpt>
      <trkpt lat="44.36666" lon="1.66636">
        <ele>303.43</ele>
        <time>2026-05-19T11:45:07Z</time>
      </trkpt>
      <trkpt lat="44.36649" lon="1.6664">
        <ele>303.43</ele>
        <time>2026-05-19T11:45:22Z</time>
      </trkpt>
      <trkpt lat="44.36634" lon="1.66641">
        <ele>301.99</ele>
        <time>2026-05-19T11:45:35Z</time>
      </trkpt>
      <trkpt lat="44.36612" lon="1.66644">
        <ele>301.03</ele>
        <time>2026-05-19T11:45:53Z</time>
      </trkpt>
      <trkpt lat="44.3659" lon="1.66648">
        <ele>301.03</ele>
        <time>2026-05-19T11:46:09Z</time>
      </trkpt>
      <trkpt lat="44.36568" lon="1.66654">
        <ele>301.03</ele>
        <time>2026-05-19T11:46:24Z</time>
      </trkpt>
      <trkpt lat="44.3655" lon="1.66666">
        <ele>301.03</ele>
        <time>2026-05-19T11:46:40Z</time>
      </trkpt>
      <trkpt lat="44.36539" lon="1.66674">
        <ele>301.03</ele>
        <time>2026-05-19T11:46:51Z</time>
      </trkpt>
      <trkpt lat="44.36538" lon="1.66675">
        <ele>301.03</ele>
        <time>2026-05-19T11:46:52Z</time>
      </trkpt>
      <trkpt lat="44.36537" lon="1.66677">
        <ele>301.03</ele>
        <time>2026-05-19T11:46:53Z</time>
      </trkpt>
      <trkpt lat="44.36535" lon="1.66678">
        <ele>301.03</ele>
        <time>2026-05-19T11:46:54Z</time>
      </trkpt>
      <trkpt lat="44.36534" lon="1.66679">
        <ele>301.03</ele>
        <time>2026-05-19T11:46:55Z</time>
      </trkpt>
      <trkpt lat="44.36533" lon="1.6668">
        <ele>301.03</ele>
        <time>2026-05-19T11:46:56Z</time>
      </trkpt>
      <trkpt lat="44.36514" lon="1.66691">
        <ele>301.99</ele>
        <time>2026-05-19T11:47:12Z</time>
      </trkpt>
      <trkpt lat="44.36494" lon="1.66701">
        <ele>302.47</ele>
        <time>2026-05-19T11:47:28Z</time>
      </trkpt>
      <trkpt lat="44.36492" lon="1.66702">
        <ele>302.47</ele>
        <time>2026-05-19T11:47:29Z</time>
      </trkpt>
      <trkpt lat="44.36476" lon="1.66706">
        <ele>302.95</ele>
        <time>2026-05-19T11:47:43Z</time>
      </trkpt>
      <trkpt lat="44.36453" lon="1.66705">
        <ele>303.91</ele>
        <time>2026-05-19T11:47:58Z</time>
      </trkpt>
      <trkpt lat="44.3645" lon="1.66706">
        <ele>303.91</ele>
        <time>2026-05-19T11:47:59Z</time>
      </trkpt>
      <trkpt lat="44.36448" lon="1.66706">
        <ele>303.91</ele>
        <time>2026-05-19T11:48:00Z</time>
      </trkpt>
      <trkpt lat="44.36447" lon="1.66707">
        <ele>303.91</ele>
        <time>2026-05-19T11:48:01Z</time>
      </trkpt>
      <trkpt lat="44.36445" lon="1.66707">
        <ele>303.91</ele>
        <time>2026-05-19T11:48:02Z</time>
      </trkpt>
      <trkpt lat="44.36443" lon="1.66708">
        <ele>303.91</ele>
        <time>2026-05-19T11:48:03Z</time>
      </trkpt>
      <trkpt lat="44.36442" lon="1.66709">
        <ele>303.91</ele>
        <time>2026-05-19T11:48:05Z</time>
      </trkpt>
      <trkpt lat="44.36443" lon="1.66709">
        <ele>303.91</ele>
        <time>2026-05-19T11:48:06Z</time>
      </trkpt>
      <trkpt lat="44.36452" lon="1.66708">
        <ele>303.91</ele>
        <time>2026-05-19T11:48:16Z</time>
      </trkpt>
      <trkpt lat="44.36467" lon="1.66704">
        <ele>303.91</ele>
        <time>2026-05-19T11:48:29Z</time>
      </trkpt>
      <trkpt lat="44.36486" lon="1.66701">
        <ele>303.91</ele>
        <time>2026-05-19T11:48:43Z</time>
      </trkpt>
      <trkpt lat="44.36489" lon="1.66699">
        <ele>302.47</ele>
        <time>2026-05-19T11:48:46Z</time>
      </trkpt>
      <trkpt lat="44.36513" lon="1.66687">
        <ele>301.99</ele>
        <time>2026-05-19T11:49:04Z</time>
      </trkpt>
      <trkpt lat="44.36531" lon="1.66676">
        <ele>301.51</ele>
        <time>2026-05-19T11:49:17Z</time>
      </trkpt>
      <trkpt lat="44.36548" lon="1.66666">
        <ele>301.03</ele>
        <time>2026-05-19T11:49:31Z</time>
      </trkpt>
      <trkpt lat="44.3655" lon="1.66665">
        <ele>301.03</ele>
        <time>2026-05-19T11:49:32Z</time>
      </trkpt>
      <trkpt lat="44.36551" lon="1.66664">
        <ele>301.03</ele>
        <time>2026-05-19T11:49:33Z</time>
      </trkpt>
      <trkpt lat="44.36571" lon="1.66658">
        <ele>301.03</ele>
        <time>2026-05-19T11:49:45Z</time>
      </trkpt>
      <trkpt lat="44.36591" lon="1.66655">
        <ele>301.03</ele>
        <time>2026-05-19T11:50:02Z</time>
      </trkpt>
      <trkpt lat="44.36611" lon="1.66655">
        <ele>301.03</ele>
        <time>2026-05-19T11:50:17Z</time>
      </trkpt>
      <trkpt lat="44.36635" lon="1.66653">
        <ele>302.95</ele>
        <time>2026-05-19T11:50:34Z</time>
      </trkpt>
      <trkpt lat="44.36654" lon="1.66646">
        <ele>303.91</ele>
        <time>2026-05-19T11:50:50Z</time>
      </trkpt>
      <trkpt lat="44.36678" lon="1.66639">
        <ele>304.39</ele>
        <time>2026-05-19T11:51:08Z</time>
      </trkpt>
      <trkpt lat="44.3668" lon="1.66639">
        <ele>304.88</ele>
        <time>2026-05-19T11:51:09Z</time>
      </trkpt>
      <trkpt lat="44.36681" lon="1.66638">
        <ele>304.88</ele>
        <time>2026-05-19T11:51:10Z</time>
      </trkpt>
      <trkpt lat="44.36684" lon="1.66639">
        <ele>304.88</ele>
        <time>2026-05-19T11:51:15Z</time>
      </trkpt>
      <trkpt lat="44.36683" lon="1.66641">
        <ele>304.88</ele>
        <time>2026-05-19T11:51:16Z</time>
      </trkpt>
      <trkpt lat="44.36683" lon="1.66643">
        <ele>304.88</ele>
        <time>2026-05-19T11:51:17Z</time>
      </trkpt>
      <trkpt lat="44.36689" lon="1.66653">
        <ele>304.88</ele>
        <time>2026-05-19T11:51:25Z</time>
      </trkpt>
      <trkpt lat="44.36691" lon="1.66654">
        <ele>304.88</ele>
        <time>2026-05-19T11:51:26Z</time>
      </trkpt>
      <trkpt lat="44.36693" lon="1.66654">
        <ele>304.88</ele>
        <time>2026-05-19T11:51:27Z</time>
      </trkpt>
      <trkpt lat="44.36694" lon="1.66654">
        <ele>304.88</ele>
        <time>2026-05-19T11:51:28Z</time>
      </trkpt>
      <trkpt lat="44.36696" lon="1.66654">
        <ele>304.88</ele>
        <time>2026-05-19T11:51:29Z</time>
      </trkpt>
      <trkpt lat="44.36697" lon="1.66655">
        <ele>304.88</ele>
        <time>2026-05-19T11:51:30Z</time>
      </trkpt>
      <trkpt lat="44.36712" lon="1.66659">
        <ele>304.88</ele>
        <time>2026-05-19T11:51:41Z</time>
      </trkpt>
      <trkpt lat="44.36714" lon="1.6666">
        <ele>304.88</ele>
        <time>2026-05-19T11:51:42Z</time>
      </trkpt>
      <trkpt lat="44.36732" lon="1.66663">
        <ele>304.88</ele>
        <time>2026-05-19T11:51:54Z</time>
      </trkpt>
      <trkpt lat="44.36734" lon="1.66666">
        <ele>303.43</ele>
        <time>2026-05-19T11:51:58Z</time>
      </trkpt>
      <trkpt lat="44.36735" lon="1.66667">
        <ele>303.43</ele>
        <time>2026-05-19T11:51:59Z</time>
      </trkpt>
      <trkpt lat="44.36736" lon="1.66676">
        <ele>303.43</ele>
        <time>2026-05-19T11:52:05Z</time>
      </trkpt>
      <trkpt lat="44.36732" lon="1.66686">
        <ele>303.43</ele>
        <time>2026-05-19T11:52:14Z</time>
      </trkpt>
      <trkpt lat="44.36732" lon="1.66688">
        <ele>303.43</ele>
        <time>2026-05-19T11:52:15Z</time>
      </trkpt>
      <trkpt lat="44.36719" lon="1.66714">
        <ele>302.95</ele>
        <time>2026-05-19T11:52:30Z</time>
      </trkpt>
      <trkpt lat="44.36714" lon="1.6674">
        <ele>302.95</ele>
        <time>2026-05-19T11:52:45Z</time>
      </trkpt>
      <trkpt lat="44.36707" lon="1.66762">
        <ele>302.95</ele>
        <time>2026-05-19T11:52:58Z</time>
      </trkpt>
      <trkpt lat="44.367" lon="1.66778">
        <ele>302.47</ele>
        <time>2026-05-19T11:53:09Z</time>
      </trkpt>
      <trkpt lat="44.367" lon="1.66779">
        <ele>302.47</ele>
        <time>2026-05-19T11:53:10Z</time>
      </trkpt>
      <trkpt lat="44.36699" lon="1.66781">
        <ele>302.47</ele>
        <time>2026-05-19T11:53:11Z</time>
      </trkpt>
      <trkpt lat="44.36691" lon="1.66806">
        <ele>302.47</ele>
        <time>2026-05-19T11:53:25Z</time>
      </trkpt>
      <trkpt lat="44.36686" lon="1.66837">
        <ele>302.47</ele>
        <time>2026-05-19T11:53:39Z</time>
      </trkpt>
      <trkpt lat="44.36681" lon="1.66849">
        <ele>302.47</ele>
        <time>2026-05-19T11:53:48Z</time>
      </trkpt>
      <trkpt lat="44.36678" lon="1.66856">
        <ele>302.47</ele>
        <time>2026-05-19T11:53:52Z</time>
      </trkpt>
      <trkpt lat="44.36677" lon="1.66858">
        <ele>302.47</ele>
        <time>2026-05-19T11:53:53Z</time>
      </trkpt>
      <trkpt lat="44.36675" lon="1.66869">
        <ele>302.47</ele>
        <time>2026-05-19T11:53:57Z</time>
      </trkpt>
      <trkpt lat="44.36675" lon="1.66881">
        <ele>303.91</ele>
        <time>2026-05-19T11:54:04Z</time>
      </trkpt>
      <trkpt lat="44.36671" lon="1.66905">
        <ele>303.91</ele>
        <time>2026-05-19T11:54:17Z</time>
      </trkpt>
      <trkpt lat="44.3667" lon="1.66911">
        <ele>303.91</ele>
        <time>2026-05-19T11:54:21Z</time>
      </trkpt>
      <trkpt lat="44.3667" lon="1.66922">
        <ele>303.91</ele>
        <time>2026-05-19T11:54:26Z</time>
      </trkpt>
      <trkpt lat="44.36668" lon="1.66939">
        <ele>303.91</ele>
        <time>2026-05-19T11:54:35Z</time>
      </trkpt>
      <trkpt lat="44.36668" lon="1.66941">
        <ele>303.91</ele>
        <time>2026-05-19T11:54:36Z</time>
      </trkpt>
      <trkpt lat="44.36668" lon="1.66951">
        <ele>303.91</ele>
        <time>2026-05-19T11:54:40Z</time>
      </trkpt>
      <trkpt lat="44.36668" lon="1.66954">
        <ele>303.91</ele>
        <time>2026-05-19T11:54:42Z</time>
      </trkpt>
      <trkpt lat="44.36665" lon="1.66974">
        <ele>302.47</ele>
        <time>2026-05-19T11:54:55Z</time>
      </trkpt>
      <trkpt lat="44.36664" lon="1.66993">
        <ele>301.99</ele>
        <time>2026-05-19T11:55:05Z</time>
      </trkpt>
      <trkpt lat="44.36664" lon="1.66995">
        <ele>301.99</ele>
        <time>2026-05-19T11:55:06Z</time>
      </trkpt>
      <trkpt lat="44.36663" lon="1.66998">
        <ele>301.99</ele>
        <time>2026-05-19T11:55:07Z</time>
      </trkpt>
      <trkpt lat="44.36657" lon="1.67027">
        <ele>301.51</ele>
        <time>2026-05-19T11:55:23Z</time>
      </trkpt>
      <trkpt lat="44.36653" lon="1.6705">
        <ele>301.51</ele>
        <time>2026-05-19T11:55:35Z</time>
      </trkpt>
      <trkpt lat="44.36648" lon="1.67078">
        <ele>301.51</ele>
        <time>2026-05-19T11:55:49Z</time>
      </trkpt>
      <trkpt lat="44.36643" lon="1.67111">
        <ele>301.51</ele>
        <time>2026-05-19T11:56:06Z</time>
      </trkpt>
      <trkpt lat="44.36637" lon="1.67138">
        <ele>301.51</ele>
        <time>2026-05-19T11:56:22Z</time>
      </trkpt>
      <trkpt lat="44.36631" lon="1.67164">
        <ele>301.51</ele>
        <time>2026-05-19T11:56:37Z</time>
      </trkpt>
      <trkpt lat="44.36626" lon="1.67194">
        <ele>301.51</ele>
        <time>2026-05-19T11:56:51Z</time>
      </trkpt>
      <trkpt lat="44.36623" lon="1.67214">
        <ele>301.03</ele>
        <time>2026-05-19T11:57:02Z</time>
      </trkpt>
      <trkpt lat="44.36621" lon="1.67233">
        <ele>301.03</ele>
        <time>2026-05-19T11:57:15Z</time>
      </trkpt>
      <trkpt lat="44.36618" lon="1.67244">
        <ele>301.03</ele>
        <time>2026-05-19T11:57:20Z</time>
      </trkpt>
      <trkpt lat="44.36615" lon="1.67266">
        <ele>301.03</ele>
        <time>2026-05-19T11:57:33Z</time>
      </trkpt>
      <trkpt lat="44.36607" lon="1.67295">
        <ele>301.03</ele>
        <time>2026-05-19T11:57:49Z</time>
      </trkpt>
      <trkpt lat="44.36603" lon="1.67316">
        <ele>300.55</ele>
        <time>2026-05-19T11:58:01Z</time>
      </trkpt>
      <trkpt lat="44.36603" lon="1.67319">
        <ele>300.55</ele>
        <time>2026-05-19T11:58:02Z</time>
      </trkpt>
      <trkpt lat="44.36597" lon="1.6735">
        <ele>300.07</ele>
        <time>2026-05-19T11:58:18Z</time>
      </trkpt>
      <trkpt lat="44.36588" lon="1.67367">
        <ele>299.59</ele>
        <time>2026-05-19T11:58:31Z</time>
      </trkpt>
      <trkpt lat="44.36583" lon="1.67367">
        <ele>299.59</ele>
        <time>2026-05-19T11:58:34Z</time>
      </trkpt>
      <trkpt lat="44.36582" lon="1.67368">
        <ele>299.59</ele>
        <time>2026-05-19T11:58:35Z</time>
      </trkpt>
      <trkpt lat="44.36562" lon="1.67369">
        <ele>300.55</ele>
        <time>2026-05-19T11:58:50Z</time>
      </trkpt>
      <trkpt lat="44.36549" lon="1.67368">
        <ele>300.55</ele>
        <time>2026-05-19T11:59:02Z</time>
      </trkpt>
      <trkpt lat="44.36547" lon="1.67367">
        <ele>300.55</ele>
        <time>2026-05-19T11:59:03Z</time>
      </trkpt>
      <trkpt lat="44.36529" lon="1.67364">
        <ele>301.03</ele>
        <time>2026-05-19T11:59:15Z</time>
      </trkpt>
      <trkpt lat="44.36512" lon="1.67371">
        <ele>301.03</ele>
        <time>2026-05-19T11:59:28Z</time>
      </trkpt>
      <trkpt lat="44.36494" lon="1.67377">
        <ele>299.59</ele>
        <time>2026-05-19T11:59:42Z</time>
      </trkpt>
      <trkpt lat="44.36489" lon="1.67381">
        <ele>299.11</ele>
        <time>2026-05-19T11:59:47Z</time>
      </trkpt>
      <trkpt lat="44.36472" lon="1.67383">
        <ele>298.63</ele>
        <time>2026-05-19T12:00:00Z</time>
      </trkpt>
      <trkpt lat="44.36459" lon="1.6739">
        <ele>298.15</ele>
        <time>2026-05-19T12:00:11Z</time>
      </trkpt>
      <trkpt lat="44.36448" lon="1.67408">
        <ele>296.7</ele>
        <time>2026-05-19T12:00:23Z</time>
      </trkpt>
      <trkpt lat="44.3643" lon="1.6742">
        <ele>295.26</ele>
        <time>2026-05-19T12:00:38Z</time>
      </trkpt>
      <trkpt lat="44.3641" lon="1.67431">
        <ele>293.82</ele>
        <time>2026-05-19T12:00:53Z</time>
      </trkpt>
      <trkpt lat="44.36393" lon="1.67439">
        <ele>292.38</ele>
        <time>2026-05-19T12:01:06Z</time>
      </trkpt>
      <trkpt lat="44.36384" lon="1.67444">
        <ele>291.42</ele>
        <time>2026-05-19T12:01:14Z</time>
      </trkpt>
      <trkpt lat="44.36382" lon="1.67443">
        <ele>291.42</ele>
        <time>2026-05-19T12:01:15Z</time>
      </trkpt>
      <trkpt lat="44.36363" lon="1.67434">
        <ele>289.97</ele>
        <time>2026-05-19T12:01:30Z</time>
      </trkpt>
      <trkpt lat="44.36344" lon="1.67421">
        <ele>288.53</ele>
        <time>2026-05-19T12:01:44Z</time>
      </trkpt>
      <trkpt lat="44.36326" lon="1.67413">
        <ele>287.09</ele>
        <time>2026-05-19T12:01:57Z</time>
      </trkpt>
      <trkpt lat="44.3632" lon="1.67413">
        <ele>287.57</ele>
        <time>2026-05-19T12:02:03Z</time>
      </trkpt>
      <trkpt lat="44.36319" lon="1.67413">
        <ele>287.57</ele>
        <time>2026-05-19T12:02:04Z</time>
      </trkpt>
      <trkpt lat="44.36301" lon="1.67413">
        <ele>287.57</ele>
        <time>2026-05-19T12:02:20Z</time>
      </trkpt>
      <trkpt lat="44.36284" lon="1.67415">
        <ele>289.01</ele>
        <time>2026-05-19T12:02:33Z</time>
      </trkpt>
      <trkpt lat="44.36263" lon="1.67413">
        <ele>289.01</ele>
        <time>2026-05-19T12:02:48Z</time>
      </trkpt>
      <trkpt lat="44.36257" lon="1.67413">
        <ele>289.01</ele>
        <time>2026-05-19T12:02:53Z</time>
      </trkpt>
      <trkpt lat="44.36255" lon="1.67413">
        <ele>289.49</ele>
        <time>2026-05-19T12:02:54Z</time>
      </trkpt>
      <trkpt lat="44.36237" lon="1.67411">
        <ele>289.49</ele>
        <time>2026-05-19T12:03:09Z</time>
      </trkpt>
      <trkpt lat="44.36217" lon="1.67407">
        <ele>289.97</ele>
        <time>2026-05-19T12:03:24Z</time>
      </trkpt>
      <trkpt lat="44.36203" lon="1.6741">
        <ele>289.97</ele>
        <time>2026-05-19T12:03:36Z</time>
      </trkpt>
      <trkpt lat="44.36202" lon="1.67411">
        <ele>289.97</ele>
        <time>2026-05-19T12:03:37Z</time>
      </trkpt>
      <trkpt lat="44.362" lon="1.67413">
        <ele>289.97</ele>
        <time>2026-05-19T12:03:38Z</time>
      </trkpt>
      <trkpt lat="44.36196" lon="1.67415">
        <ele>289.01</ele>
        <time>2026-05-19T12:03:51Z</time>
      </trkpt>
      <trkpt lat="44.36194" lon="1.67416">
        <ele>289.01</ele>
        <time>2026-05-19T12:04:11Z</time>
      </trkpt>
      <trkpt lat="44.36193" lon="1.67417">
        <ele>289.01</ele>
        <time>2026-05-19T12:04:16Z</time>
      </trkpt>
      <trkpt lat="44.36189" lon="1.67421">
        <ele>289.01</ele>
        <time>2026-05-19T12:04:21Z</time>
      </trkpt>
      <trkpt lat="44.36188" lon="1.67423">
        <ele>289.01</ele>
        <time>2026-05-19T12:04:22Z</time>
      </trkpt>
      <trkpt lat="44.36187" lon="1.67424">
        <ele>289.01</ele>
        <time>2026-05-19T12:04:23Z</time>
      </trkpt>
      <trkpt lat="44.36186" lon="1.67425">
        <ele>289.01</ele>
        <time>2026-05-19T12:04:24Z</time>
      </trkpt>
      <trkpt lat="44.36184" lon="1.67427">
        <ele>289.01</ele>
        <time>2026-05-19T12:04:25Z</time>
      </trkpt>
      <trkpt lat="44.36183" lon="1.67429">
        <ele>289.01</ele>
        <time>2026-05-19T12:04:26Z</time>
      </trkpt>
      <trkpt lat="44.36182" lon="1.6743">
        <ele>289.01</ele>
        <time>2026-05-19T12:04:27Z</time>
      </trkpt>
      <trkpt lat="44.36177" lon="1.67438">
        <ele>290.46</ele>
        <time>2026-05-19T12:04:34Z</time>
      </trkpt>
      <trkpt lat="44.36166" lon="1.67453">
        <ele>291.42</ele>
        <time>2026-05-19T12:04:46Z</time>
      </trkpt>
      <trkpt lat="44.36156" lon="1.67467">
        <ele>292.38</ele>
        <time>2026-05-19T12:04:57Z</time>
      </trkpt>
      <trkpt lat="44.36138" lon="1.67484">
        <ele>292.86</ele>
        <time>2026-05-19T12:05:10Z</time>
      </trkpt>
      <trkpt lat="44.36121" lon="1.67501">
        <ele>293.34</ele>
        <time>2026-05-19T12:05:25Z</time>
      </trkpt>
      <trkpt lat="44.36108" lon="1.67515">
        <ele>293.34</ele>
        <time>2026-05-19T12:05:38Z</time>
      </trkpt>
      <trkpt lat="44.3609" lon="1.67529">
        <ele>293.82</ele>
        <time>2026-05-19T12:05:51Z</time>
      </trkpt>
      <trkpt lat="44.36071" lon="1.67544">
        <ele>294.3</ele>
        <time>2026-05-19T12:06:06Z</time>
      </trkpt>
      <trkpt lat="44.36055" lon="1.67555">
        <ele>295.26</ele>
        <time>2026-05-19T12:06:20Z</time>
      </trkpt>
      <trkpt lat="44.36044" lon="1.67566">
        <ele>295.26</ele>
        <time>2026-05-19T12:06:33Z</time>
      </trkpt>
      <trkpt lat="44.36028" lon="1.67575">
        <ele>296.22</ele>
        <time>2026-05-19T12:06:47Z</time>
      </trkpt>
      <trkpt lat="44.3601" lon="1.67585">
        <ele>296.7</ele>
        <time>2026-05-19T12:07:03Z</time>
      </trkpt>
      <trkpt lat="44.35999" lon="1.6759">
        <ele>297.18</ele>
        <time>2026-05-19T12:07:12Z</time>
      </trkpt>
      <trkpt lat="44.35997" lon="1.6759">
        <ele>297.18</ele>
        <time>2026-05-19T12:07:13Z</time>
      </trkpt>
      <trkpt lat="44.35996" lon="1.67591">
        <ele>297.18</ele>
        <time>2026-05-19T12:07:14Z</time>
      </trkpt>
      <trkpt lat="44.35994" lon="1.67593">
        <ele>297.18</ele>
        <time>2026-05-19T12:07:15Z</time>
      </trkpt>
      <trkpt lat="44.35993" lon="1.67594">
        <ele>297.18</ele>
        <time>2026-05-19T12:07:16Z</time>
      </trkpt>
      <trkpt lat="44.3598" lon="1.67602">
        <ele>298.15</ele>
        <time>2026-05-19T12:07:27Z</time>
      </trkpt>
      <trkpt lat="44.35979" lon="1.67603">
        <ele>298.15</ele>
        <time>2026-05-19T12:07:28Z</time>
      </trkpt>
      <trkpt lat="44.35978" lon="1.67604">
        <ele>298.15</ele>
        <time>2026-05-19T12:07:29Z</time>
      </trkpt>
      <trkpt lat="44.35977" lon="1.67605">
        <ele>298.15</ele>
        <time>2026-05-19T12:07:30Z</time>
      </trkpt>
      <trkpt lat="44.35975" lon="1.67606">
        <ele>298.15</ele>
        <time>2026-05-19T12:07:31Z</time>
      </trkpt>
      <trkpt lat="44.35961" lon="1.67617">
        <ele>298.63</ele>
        <time>2026-05-19T12:07:43Z</time>
      </trkpt>
      <trkpt lat="44.35953" lon="1.67623">
        <ele>298.63</ele>
        <time>2026-05-19T12:07:57Z</time>
      </trkpt>
      <trkpt lat="44.35941" lon="1.6763">
        <ele>299.11</ele>
        <time>2026-05-19T12:08:19Z</time>
      </trkpt>
      <trkpt lat="44.35923" lon="1.6764">
        <ele>300.55</ele>
        <time>2026-05-19T12:08:33Z</time>
      </trkpt>
      <trkpt lat="44.35919" lon="1.67642">
        <ele>300.07</ele>
        <time>2026-05-19T12:08:39Z</time>
      </trkpt>
      <trkpt lat="44.35917" lon="1.67643">
        <ele>300.55</ele>
        <time>2026-05-19T12:08:40Z</time>
      </trkpt>
      <trkpt lat="44.35899" lon="1.67658">
        <ele>301.51</ele>
        <time>2026-05-19T12:08:56Z</time>
      </trkpt>
      <trkpt lat="44.35896" lon="1.67659">
        <ele>301.51</ele>
        <time>2026-05-19T12:08:59Z</time>
      </trkpt>
      <trkpt lat="44.35879" lon="1.6767">
        <ele>302.47</ele>
        <time>2026-05-19T12:09:13Z</time>
      </trkpt>
      <trkpt lat="44.35878" lon="1.67671">
        <ele>302.47</ele>
        <time>2026-05-19T12:09:14Z</time>
      </trkpt>
      <trkpt lat="44.35877" lon="1.67672">
        <ele>302.47</ele>
        <time>2026-05-19T12:09:15Z</time>
      </trkpt>
      <trkpt lat="44.35861" lon="1.67683">
        <ele>303.43</ele>
        <time>2026-05-19T12:09:28Z</time>
      </trkpt>
      <trkpt lat="44.35843" lon="1.67696">
        <ele>304.39</ele>
        <time>2026-05-19T12:09:41Z</time>
      </trkpt>
      <trkpt lat="44.35837" lon="1.67702">
        <ele>304.88</ele>
        <time>2026-05-19T12:09:47Z</time>
      </trkpt>
      <trkpt lat="44.35835" lon="1.67702">
        <ele>304.88</ele>
        <time>2026-05-19T12:09:48Z</time>
      </trkpt>
      <trkpt lat="44.35833" lon="1.67703">
        <ele>304.88</ele>
        <time>2026-05-19T12:09:49Z</time>
      </trkpt>
      <trkpt lat="44.3582" lon="1.67717">
        <ele>305.36</ele>
        <time>2026-05-19T12:10:02Z</time>
      </trkpt>
      <trkpt lat="44.35807" lon="1.67733">
        <ele>305.84</ele>
        <time>2026-05-19T12:10:17Z</time>
      </trkpt>
      <trkpt lat="44.35805" lon="1.67735">
        <ele>306.32</ele>
        <time>2026-05-19T12:10:19Z</time>
      </trkpt>
      <trkpt lat="44.35788" lon="1.67755">
        <ele>306.8</ele>
        <time>2026-05-19T12:10:35Z</time>
      </trkpt>
      <trkpt lat="44.35775" lon="1.67771">
        <ele>307.28</ele>
        <time>2026-05-19T12:10:50Z</time>
      </trkpt>
      <trkpt lat="44.35778" lon="1.67778">
        <ele>307.28</ele>
        <time>2026-05-19T12:11:00Z</time>
      </trkpt>
      <trkpt lat="44.3579" lon="1.67793">
        <ele>307.76</ele>
        <time>2026-05-19T12:11:12Z</time>
      </trkpt>
      <trkpt lat="44.35803" lon="1.67808">
        <ele>308.72</ele>
        <time>2026-05-19T12:11:25Z</time>
      </trkpt>
      <trkpt lat="44.35813" lon="1.67829">
        <ele>308.72</ele>
        <time>2026-05-19T12:11:39Z</time>
      </trkpt>
      <trkpt lat="44.35822" lon="1.67846">
        <ele>307.28</ele>
        <time>2026-05-19T12:11:49Z</time>
      </trkpt>
      <trkpt lat="44.35837" lon="1.67861">
        <ele>306.32</ele>
        <time>2026-05-19T12:12:02Z</time>
      </trkpt>
      <trkpt lat="44.35851" lon="1.67878">
        <ele>305.36</ele>
        <time>2026-05-19T12:12:15Z</time>
      </trkpt>
      <trkpt lat="44.35856" lon="1.67882">
        <ele>305.36</ele>
        <time>2026-05-19T12:12:19Z</time>
      </trkpt>
      <trkpt lat="44.35859" lon="1.67886">
        <ele>304.88</ele>
        <time>2026-05-19T12:12:22Z</time>
      </trkpt>
      <trkpt lat="44.35869" lon="1.67895">
        <ele>304.39</ele>
        <time>2026-05-19T12:12:35Z</time>
      </trkpt>
      <trkpt lat="44.35878" lon="1.67895">
        <ele>303.91</ele>
        <time>2026-05-19T12:12:54Z</time>
      </trkpt>
      <trkpt lat="44.35877" lon="1.67895">
        <ele>303.91</ele>
        <time>2026-05-19T12:13:00Z</time>
      </trkpt>
      <trkpt lat="44.35878" lon="1.67899">
        <ele>303.91</ele>
        <time>2026-05-19T12:13:05Z</time>
      </trkpt>
      <trkpt lat="44.35886" lon="1.6791">
        <ele>303.91</ele>
        <time>2026-05-19T12:13:16Z</time>
      </trkpt>
      <trkpt lat="44.35887" lon="1.67911">
        <ele>303.91</ele>
        <time>2026-05-19T12:13:17Z</time>
      </trkpt>
      <trkpt lat="44.35888" lon="1.67913">
        <ele>303.91</ele>
        <time>2026-05-19T12:13:18Z</time>
      </trkpt>
      <trkpt lat="44.3589" lon="1.67914">
        <ele>303.91</ele>
        <time>2026-05-19T12:13:19Z</time>
      </trkpt>
      <trkpt lat="44.35892" lon="1.67915">
        <ele>303.43</ele>
        <time>2026-05-19T12:13:20Z</time>
      </trkpt>
      <trkpt lat="44.35893" lon="1.67917">
        <ele>303.43</ele>
        <time>2026-05-19T12:13:21Z</time>
      </trkpt>
      <trkpt lat="44.35894" lon="1.67919">
        <ele>303.43</ele>
        <time>2026-05-19T12:13:22Z</time>
      </trkpt>
      <trkpt lat="44.35895" lon="1.67921">
        <ele>303.43</ele>
        <time>2026-05-19T12:13:23Z</time>
      </trkpt>
      <trkpt lat="44.35902" lon="1.67931">
        <ele>302.95</ele>
        <time>2026-05-19T12:13:32Z</time>
      </trkpt>
      <trkpt lat="44.35905" lon="1.67934">
        <ele>302.95</ele>
        <time>2026-05-19T12:13:34Z</time>
      </trkpt>
      <trkpt lat="44.3591" lon="1.67942">
        <ele>302.47</ele>
        <time>2026-05-19T12:13:39Z</time>
      </trkpt>
      <trkpt lat="44.35911" lon="1.67944">
        <ele>302.47</ele>
        <time>2026-05-19T12:13:40Z</time>
      </trkpt>
      <trkpt lat="44.35918" lon="1.67951">
        <ele>301.99</ele>
        <time>2026-05-19T12:13:47Z</time>
      </trkpt>
      <trkpt lat="44.35919" lon="1.67952">
        <ele>301.51</ele>
        <time>2026-05-19T12:13:48Z</time>
      </trkpt>
      <trkpt lat="44.35923" lon="1.67956">
        <ele>301.51</ele>
        <time>2026-05-19T12:13:51Z</time>
      </trkpt>
      <trkpt lat="44.35924" lon="1.67958">
        <ele>301.51</ele>
        <time>2026-05-19T12:13:52Z</time>
      </trkpt>
      <trkpt lat="44.35932" lon="1.67967">
        <ele>301.03</ele>
        <time>2026-05-19T12:13:59Z</time>
      </trkpt>
      <trkpt lat="44.35933" lon="1.67968">
        <ele>301.03</ele>
        <time>2026-05-19T12:14:00Z</time>
      </trkpt>
      <trkpt lat="44.35947" lon="1.67981">
        <ele>300.07</ele>
        <time>2026-05-19T12:14:12Z</time>
      </trkpt>
      <trkpt lat="44.35953" lon="1.67985">
        <ele>299.59</ele>
        <time>2026-05-19T12:14:16Z</time>
      </trkpt>
      <trkpt lat="44.35954" lon="1.67987">
        <ele>299.59</ele>
        <time>2026-05-19T12:14:17Z</time>
      </trkpt>
      <trkpt lat="44.35959" lon="1.68">
        <ele>299.11</ele>
        <time>2026-05-19T12:14:25Z</time>
      </trkpt>
      <trkpt lat="44.35961" lon="1.68001">
        <ele>299.11</ele>
        <time>2026-05-19T12:14:26Z</time>
      </trkpt>
      <trkpt lat="44.35962" lon="1.68002">
        <ele>298.63</ele>
        <time>2026-05-19T12:14:27Z</time>
      </trkpt>
      <trkpt lat="44.35964" lon="1.68002">
        <ele>298.63</ele>
        <time>2026-05-19T12:14:28Z</time>
      </trkpt>
      <trkpt lat="44.35965" lon="1.68004">
        <ele>298.63</ele>
        <time>2026-05-19T12:14:29Z</time>
      </trkpt>
      <trkpt lat="44.35965" lon="1.68006">
        <ele>298.63</ele>
        <time>2026-05-19T12:14:30Z</time>
      </trkpt>
      <trkpt lat="44.35966" lon="1.68008">
        <ele>298.63</ele>
        <time>2026-05-19T12:14:31Z</time>
      </trkpt>
      <trkpt lat="44.35967" lon="1.68009">
        <ele>298.63</ele>
        <time>2026-05-19T12:14:32Z</time>
      </trkpt>
      <trkpt lat="44.35984" lon="1.68024">
        <ele>298.15</ele>
        <time>2026-05-19T12:14:46Z</time>
      </trkpt>
      <trkpt lat="44.35997" lon="1.68042">
        <ele>297.18</ele>
        <time>2026-05-19T12:14:59Z</time>
      </trkpt>
      <trkpt lat="44.35998" lon="1.68043">
        <ele>297.18</ele>
        <time>2026-05-19T12:15:00Z</time>
      </trkpt>
      <trkpt lat="44.35999" lon="1.68044">
        <ele>297.18</ele>
        <time>2026-05-19T12:15:01Z</time>
      </trkpt>
      <trkpt lat="44.36009" lon="1.68058">
        <ele>296.7</ele>
        <time>2026-05-19T12:15:13Z</time>
      </trkpt>
      <trkpt lat="44.36017" lon="1.68065">
        <ele>295.74</ele>
        <time>2026-05-19T12:15:25Z</time>
      </trkpt>
      <trkpt lat="44.36024" lon="1.68073">
        <ele>295.74</ele>
        <time>2026-05-19T12:15:32Z</time>
      </trkpt>
      <trkpt lat="44.36026" lon="1.68075">
        <ele>295.74</ele>
        <time>2026-05-19T12:15:33Z</time>
      </trkpt>
      <trkpt lat="44.36028" lon="1.68077">
        <ele>295.74</ele>
        <time>2026-05-19T12:15:34Z</time>
      </trkpt>
      <trkpt lat="44.36029" lon="1.68079">
        <ele>295.74</ele>
        <time>2026-05-19T12:15:35Z</time>
      </trkpt>
      <trkpt lat="44.3603" lon="1.68081">
        <ele>295.74</ele>
        <time>2026-05-19T12:15:36Z</time>
      </trkpt>
      <trkpt lat="44.36032" lon="1.68082">
        <ele>295.74</ele>
        <time>2026-05-19T12:15:37Z</time>
      </trkpt>
      <trkpt lat="44.36045" lon="1.68101">
        <ele>295.74</ele>
        <time>2026-05-19T12:15:49Z</time>
      </trkpt>
      <trkpt lat="44.36053" lon="1.6811">
        <ele>295.74</ele>
        <time>2026-05-19T12:15:59Z</time>
      </trkpt>
      <trkpt lat="44.36054" lon="1.68111">
        <ele>295.74</ele>
        <time>2026-05-19T12:16:00Z</time>
      </trkpt>
      <trkpt lat="44.36055" lon="1.68112">
        <ele>295.74</ele>
        <time>2026-05-19T12:16:01Z</time>
      </trkpt>
      <trkpt lat="44.36057" lon="1.68113">
        <ele>295.74</ele>
        <time>2026-05-19T12:16:02Z</time>
      </trkpt>
      <trkpt lat="44.36059" lon="1.68114">
        <ele>295.74</ele>
        <time>2026-05-19T12:16:03Z</time>
      </trkpt>
      <trkpt lat="44.3607" lon="1.68124">
        <ele>295.74</ele>
        <time>2026-05-19T12:16:13Z</time>
      </trkpt>
      <trkpt lat="44.36079" lon="1.68134">
        <ele>297.18</ele>
        <time>2026-05-19T12:16:24Z</time>
      </trkpt>
      <trkpt lat="44.36093" lon="1.68145">
        <ele>297.67</ele>
        <time>2026-05-19T12:16:38Z</time>
      </trkpt>
      <trkpt lat="44.36095" lon="1.68146">
        <ele>297.67</ele>
        <time>2026-05-19T12:16:39Z</time>
      </trkpt>
      <trkpt lat="44.3611" lon="1.68159">
        <ele>298.15</ele>
        <time>2026-05-19T12:16:53Z</time>
      </trkpt>
      <trkpt lat="44.36112" lon="1.68161">
        <ele>298.15</ele>
        <time>2026-05-19T12:16:54Z</time>
      </trkpt>
      <trkpt lat="44.36113" lon="1.68163">
        <ele>298.15</ele>
        <time>2026-05-19T12:16:55Z</time>
      </trkpt>
      <trkpt lat="44.36115" lon="1.68165">
        <ele>298.15</ele>
        <time>2026-05-19T12:16:56Z</time>
      </trkpt>
      <trkpt lat="44.36116" lon="1.68166">
        <ele>298.63</ele>
        <time>2026-05-19T12:16:57Z</time>
      </trkpt>
      <trkpt lat="44.36129" lon="1.68179">
        <ele>298.63</ele>
        <time>2026-05-19T12:17:10Z</time>
      </trkpt>
      <trkpt lat="44.36145" lon="1.68193">
        <ele>298.63</ele>
        <time>2026-05-19T12:17:24Z</time>
      </trkpt>
      <trkpt lat="44.36158" lon="1.68206">
        <ele>299.11</ele>
        <time>2026-05-19T12:17:38Z</time>
      </trkpt>
      <trkpt lat="44.3616" lon="1.68207">
        <ele>299.11</ele>
        <time>2026-05-19T12:17:39Z</time>
      </trkpt>
      <trkpt lat="44.36164" lon="1.6821">
        <ele>299.11</ele>
        <time>2026-05-19T12:17:42Z</time>
      </trkpt>
      <trkpt lat="44.3618" lon="1.68228">
        <ele>299.59</ele>
        <time>2026-05-19T12:17:55Z</time>
      </trkpt>
      <trkpt lat="44.36181" lon="1.68229">
        <ele>299.59</ele>
        <time>2026-05-19T12:17:56Z</time>
      </trkpt>
      <trkpt lat="44.36193" lon="1.68241">
        <ele>300.07</ele>
        <time>2026-05-19T12:18:08Z</time>
      </trkpt>
      <trkpt lat="44.36204" lon="1.68254">
        <ele>301.03</ele>
        <time>2026-05-19T12:18:20Z</time>
      </trkpt>
      <trkpt lat="44.36205" lon="1.68254">
        <ele>301.03</ele>
        <time>2026-05-19T12:18:21Z</time>
      </trkpt>
      <trkpt lat="44.36206" lon="1.68256">
        <ele>301.03</ele>
        <time>2026-05-19T12:18:22Z</time>
      </trkpt>
      <trkpt lat="44.36215" lon="1.68267">
        <ele>301.99</ele>
        <time>2026-05-19T12:18:32Z</time>
      </trkpt>
      <trkpt lat="44.36225" lon="1.68279">
        <ele>302.47</ele>
        <time>2026-05-19T12:18:44Z</time>
      </trkpt>
      <trkpt lat="44.36228" lon="1.68283">
        <ele>302.95</ele>
        <time>2026-05-19T12:18:48Z</time>
      </trkpt>
      <trkpt lat="44.36238" lon="1.68296">
        <ele>303.91</ele>
        <time>2026-05-19T12:19:00Z</time>
      </trkpt>
      <trkpt lat="44.36244" lon="1.68295">
        <ele>303.91</ele>
        <time>2026-05-19T12:19:16Z</time>
      </trkpt>
      <trkpt lat="44.36245" lon="1.68297">
        <ele>303.91</ele>
        <time>2026-05-19T12:19:20Z</time>
      </trkpt>
      <trkpt lat="44.36245" lon="1.68298">
        <ele>303.91</ele>
        <time>2026-05-19T12:19:21Z</time>
      </trkpt>
      <trkpt lat="44.36254" lon="1.6831">
        <ele>304.88</ele>
        <time>2026-05-19T12:19:33Z</time>
      </trkpt>
      <trkpt lat="44.36264" lon="1.68329">
        <ele>305.84</ele>
        <time>2026-05-19T12:19:46Z</time>
      </trkpt>
      <trkpt lat="44.36266" lon="1.68334">
        <ele>305.84</ele>
        <time>2026-05-19T12:19:51Z</time>
      </trkpt>
      <trkpt lat="44.36267" lon="1.68336">
        <ele>306.32</ele>
        <time>2026-05-19T12:19:52Z</time>
      </trkpt>
      <trkpt lat="44.3628" lon="1.68354">
        <ele>306.8</ele>
        <time>2026-05-19T12:20:05Z</time>
      </trkpt>
      <trkpt lat="44.36294" lon="1.68376">
        <ele>306.8</ele>
        <time>2026-05-19T12:20:19Z</time>
      </trkpt>
      <trkpt lat="44.36302" lon="1.6839">
        <ele>305.36</ele>
        <time>2026-05-19T12:20:29Z</time>
      </trkpt>
      <trkpt lat="44.36303" lon="1.68392">
        <ele>305.36</ele>
        <time>2026-05-19T12:20:30Z</time>
      </trkpt>
      <trkpt lat="44.3632" lon="1.68411">
        <ele>302.95</ele>
        <time>2026-05-19T12:20:44Z</time>
      </trkpt>
      <trkpt lat="44.36327" lon="1.68417">
        <ele>301.99</ele>
        <time>2026-05-19T12:20:50Z</time>
      </trkpt>
      <trkpt lat="44.36328" lon="1.68418">
        <ele>301.99</ele>
        <time>2026-05-19T12:20:51Z</time>
      </trkpt>
      <trkpt lat="44.36333" lon="1.68422">
        <ele>301.03</ele>
        <time>2026-05-19T12:20:55Z</time>
      </trkpt>
      <trkpt lat="44.36347" lon="1.68435">
        <ele>299.11</ele>
        <time>2026-05-19T12:21:07Z</time>
      </trkpt>
      <trkpt lat="44.36353" lon="1.68441">
        <ele>298.63</ele>
        <time>2026-05-19T12:21:14Z</time>
      </trkpt>
      <trkpt lat="44.36354" lon="1.68443">
        <ele>298.15</ele>
        <time>2026-05-19T12:21:15Z</time>
      </trkpt>
      <trkpt lat="44.36365" lon="1.68458">
        <ele>297.18</ele>
        <time>2026-05-19T12:21:26Z</time>
      </trkpt>
      <trkpt lat="44.36367" lon="1.68459">
        <ele>296.7</ele>
        <time>2026-05-19T12:21:27Z</time>
      </trkpt>
      <trkpt lat="44.36381" lon="1.68477">
        <ele>296.22</ele>
        <time>2026-05-19T12:21:38Z</time>
      </trkpt>
      <trkpt lat="44.36394" lon="1.68492">
        <ele>295.26</ele>
        <time>2026-05-19T12:21:49Z</time>
      </trkpt>
      <trkpt lat="44.36395" lon="1.68494">
        <ele>295.26</ele>
        <time>2026-05-19T12:21:50Z</time>
      </trkpt>
      <trkpt lat="44.36409" lon="1.68512">
        <ele>293.82</ele>
        <time>2026-05-19T12:22:04Z</time>
      </trkpt>
      <trkpt lat="44.36418" lon="1.68524">
        <ele>293.82</ele>
        <time>2026-05-19T12:22:11Z</time>
      </trkpt>
      <trkpt lat="44.36434" lon="1.68541">
        <ele>292.38</ele>
        <time>2026-05-19T12:22:23Z</time>
      </trkpt>
      <trkpt lat="44.36436" lon="1.68542">
        <ele>292.38</ele>
        <time>2026-05-19T12:22:25Z</time>
      </trkpt>
      <trkpt lat="44.36437" lon="1.68543">
        <ele>292.38</ele>
        <time>2026-05-19T12:22:26Z</time>
      </trkpt>
      <trkpt lat="44.36439" lon="1.68545">
        <ele>292.38</ele>
        <time>2026-05-19T12:22:27Z</time>
      </trkpt>
      <trkpt lat="44.36441" lon="1.68547">
        <ele>291.9</ele>
        <time>2026-05-19T12:22:29Z</time>
      </trkpt>
      <trkpt lat="44.36442" lon="1.68548">
        <ele>291.9</ele>
        <time>2026-05-19T12:22:30Z</time>
      </trkpt>
      <trkpt lat="44.36443" lon="1.68549">
        <ele>291.9</ele>
        <time>2026-05-19T12:22:31Z</time>
      </trkpt>
      <trkpt lat="44.36456" lon="1.68566">
        <ele>290.94</ele>
        <time>2026-05-19T12:22:44Z</time>
      </trkpt>
      <trkpt lat="44.36459" lon="1.68568">
        <ele>290.94</ele>
        <time>2026-05-19T12:22:47Z</time>
      </trkpt>
      <trkpt lat="44.3646" lon="1.6857">
        <ele>290.46</ele>
        <time>2026-05-19T12:22:48Z</time>
      </trkpt>
      <trkpt lat="44.36461" lon="1.68571">
        <ele>290.46</ele>
        <time>2026-05-19T12:22:49Z</time>
      </trkpt>
      <trkpt lat="44.36473" lon="1.68587">
        <ele>290.46</ele>
        <time>2026-05-19T12:23:00Z</time>
      </trkpt>
      <trkpt lat="44.36481" lon="1.686">
        <ele>289.49</ele>
        <time>2026-05-19T12:23:09Z</time>
      </trkpt>
      <trkpt lat="44.36491" lon="1.68615">
        <ele>289.49</ele>
        <time>2026-05-19T12:23:20Z</time>
      </trkpt>
      <trkpt lat="44.36502" lon="1.68631">
        <ele>289.01</ele>
        <time>2026-05-19T12:23:32Z</time>
      </trkpt>
      <trkpt lat="44.36503" lon="1.68633">
        <ele>289.01</ele>
        <time>2026-05-19T12:23:33Z</time>
      </trkpt>
      <trkpt lat="44.36502" lon="1.68637">
        <ele>288.53</ele>
        <time>2026-05-19T12:23:35Z</time>
      </trkpt>
      <trkpt lat="44.36501" lon="1.6864">
        <ele>288.53</ele>
        <time>2026-05-19T12:23:39Z</time>
      </trkpt>
      <trkpt lat="44.36499" lon="1.68645">
        <ele>288.53</ele>
        <time>2026-05-19T12:23:43Z</time>
      </trkpt>
      <trkpt lat="44.36496" lon="1.68653">
        <ele>288.53</ele>
        <time>2026-05-19T12:23:54Z</time>
      </trkpt>
      <trkpt lat="44.36495" lon="1.68654">
        <ele>288.53</ele>
        <time>2026-05-19T12:23:55Z</time>
      </trkpt>
      <trkpt lat="44.36494" lon="1.68655">
        <ele>288.53</ele>
        <time>2026-05-19T12:23:56Z</time>
      </trkpt>
      <trkpt lat="44.36494" lon="1.68656">
        <ele>288.53</ele>
        <time>2026-05-19T12:23:57Z</time>
      </trkpt>
      <trkpt lat="44.36493" lon="1.68658">
        <ele>288.53</ele>
        <time>2026-05-19T12:23:58Z</time>
      </trkpt>
      <trkpt lat="44.36492" lon="1.6866">
        <ele>289.97</ele>
        <time>2026-05-19T12:23:59Z</time>
      </trkpt>
      <trkpt lat="44.36491" lon="1.68662">
        <ele>289.97</ele>
        <time>2026-05-19T12:24:00Z</time>
      </trkpt>
      <trkpt lat="44.36483" lon="1.68674">
        <ele>290.46</ele>
        <time>2026-05-19T12:24:11Z</time>
      </trkpt>
      <trkpt lat="44.36482" lon="1.68675">
        <ele>290.46</ele>
        <time>2026-05-19T12:24:12Z</time>
      </trkpt>
      <trkpt lat="44.36482" lon="1.68677">
        <ele>290.46</ele>
        <time>2026-05-19T12:24:13Z</time>
      </trkpt>
      <trkpt lat="44.36471" lon="1.68697">
        <ele>291.42</ele>
        <time>2026-05-19T12:24:28Z</time>
      </trkpt>
      <trkpt lat="44.3646" lon="1.68718">
        <ele>292.38</ele>
        <time>2026-05-19T12:24:43Z</time>
      </trkpt>
      <trkpt lat="44.36453" lon="1.68743">
        <ele>292.38</ele>
        <time>2026-05-19T12:24:57Z</time>
      </trkpt>
      <trkpt lat="44.3645" lon="1.68767">
        <ele>292.86</ele>
        <time>2026-05-19T12:25:10Z</time>
      </trkpt>
      <trkpt lat="44.36445" lon="1.68789">
        <ele>292.86</ele>
        <time>2026-05-19T12:25:22Z</time>
      </trkpt>
      <trkpt lat="44.36444" lon="1.6879">
        <ele>292.86</ele>
        <time>2026-05-19T12:25:23Z</time>
      </trkpt>
      <trkpt lat="44.36443" lon="1.68801">
        <ele>292.86</ele>
        <time>2026-05-19T12:25:29Z</time>
      </trkpt>
      <trkpt lat="44.36443" lon="1.68803">
        <ele>292.86</ele>
        <time>2026-05-19T12:25:30Z</time>
      </trkpt>
      <trkpt lat="44.36442" lon="1.68806">
        <ele>291.9</ele>
        <time>2026-05-19T12:25:32Z</time>
      </trkpt>
      <trkpt lat="44.36442" lon="1.68808">
        <ele>291.9</ele>
        <time>2026-05-19T12:25:33Z</time>
      </trkpt>
      <trkpt lat="44.36442" lon="1.6881">
        <ele>291.42</ele>
        <time>2026-05-19T12:25:34Z</time>
      </trkpt>
      <trkpt lat="44.36442" lon="1.68819">
        <ele>290.94</ele>
        <time>2026-05-19T12:25:39Z</time>
      </trkpt>
      <trkpt lat="44.36443" lon="1.68821">
        <ele>290.94</ele>
        <time>2026-05-19T12:25:40Z</time>
      </trkpt>
      <trkpt lat="44.36443" lon="1.68823">
        <ele>290.94</ele>
        <time>2026-05-19T12:25:41Z</time>
      </trkpt>
      <trkpt lat="44.3644" lon="1.68845">
        <ele>289.01</ele>
        <time>2026-05-19T12:25:53Z</time>
      </trkpt>
      <trkpt lat="44.36431" lon="1.68867">
        <ele>289.01</ele>
        <time>2026-05-19T12:26:10Z</time>
      </trkpt>
      <trkpt lat="44.36435" lon="1.68892">
        <ele>289.01</ele>
        <time>2026-05-19T12:26:21Z</time>
      </trkpt>
      <trkpt lat="44.36435" lon="1.68894">
        <ele>290.46</ele>
        <time>2026-05-19T12:26:22Z</time>
      </trkpt>
      <trkpt lat="44.36435" lon="1.68896">
        <ele>290.46</ele>
        <time>2026-05-19T12:26:23Z</time>
      </trkpt>
      <trkpt lat="44.36435" lon="1.68898">
        <ele>290.46</ele>
        <time>2026-05-19T12:26:24Z</time>
      </trkpt>
      <trkpt lat="44.36435" lon="1.689">
        <ele>290.46</ele>
        <time>2026-05-19T12:26:25Z</time>
      </trkpt>
      <trkpt lat="44.36435" lon="1.68917">
        <ele>292.86</ele>
        <time>2026-05-19T12:26:38Z</time>
      </trkpt>
      <trkpt lat="44.36439" lon="1.6894">
        <ele>293.82</ele>
        <time>2026-05-19T12:26:49Z</time>
      </trkpt>
      <trkpt lat="44.36439" lon="1.68948">
        <ele>294.3</ele>
        <time>2026-05-19T12:26:54Z</time>
      </trkpt>
      <trkpt lat="44.36439" lon="1.68949">
        <ele>294.3</ele>
        <time>2026-05-19T12:26:55Z</time>
      </trkpt>
      <trkpt lat="44.36442" lon="1.68972">
        <ele>296.22</ele>
        <time>2026-05-19T12:27:08Z</time>
      </trkpt>
      <trkpt lat="44.36444" lon="1.68983">
        <ele>295.74</ele>
        <time>2026-05-19T12:27:15Z</time>
      </trkpt>
      <trkpt lat="44.36444" lon="1.68985">
        <ele>296.22</ele>
        <time>2026-05-19T12:27:16Z</time>
      </trkpt>
      <trkpt lat="44.36443" lon="1.68987">
        <ele>296.7</ele>
        <time>2026-05-19T12:27:17Z</time>
      </trkpt>
      <trkpt lat="44.36444" lon="1.68989">
        <ele>296.7</ele>
        <time>2026-05-19T12:27:18Z</time>
      </trkpt>
      <trkpt lat="44.36444" lon="1.68991">
        <ele>296.7</ele>
        <time>2026-05-19T12:27:19Z</time>
      </trkpt>
      <trkpt lat="44.36444" lon="1.68993">
        <ele>296.7</ele>
        <time>2026-05-19T12:27:20Z</time>
      </trkpt>
      <trkpt lat="44.36445" lon="1.69003">
        <ele>296.7</ele>
        <time>2026-05-19T12:27:26Z</time>
      </trkpt>
      <trkpt lat="44.36445" lon="1.69005">
        <ele>297.18</ele>
        <time>2026-05-19T12:27:27Z</time>
      </trkpt>
      <trkpt lat="44.36448" lon="1.69026">
        <ele>297.67</ele>
        <time>2026-05-19T12:27:39Z</time>
      </trkpt>
      <trkpt lat="44.3645" lon="1.69045">
        <ele>297.67</ele>
        <time>2026-05-19T12:27:50Z</time>
      </trkpt>
      <trkpt lat="44.36456" lon="1.69063">
        <ele>297.67</ele>
        <time>2026-05-19T12:28:01Z</time>
      </trkpt>
      <trkpt lat="44.3647" lon="1.69085">
        <ele>296.22</ele>
        <time>2026-05-19T12:28:15Z</time>
      </trkpt>
      <trkpt lat="44.3648" lon="1.69105">
        <ele>295.74</ele>
        <time>2026-05-19T12:28:27Z</time>
      </trkpt>
      <trkpt lat="44.36488" lon="1.69126">
        <ele>295.74</ele>
        <time>2026-05-19T12:28:40Z</time>
      </trkpt>
      <trkpt lat="44.36495" lon="1.69139">
        <ele>295.74</ele>
        <time>2026-05-19T12:28:48Z</time>
      </trkpt>
      <trkpt lat="44.36495" lon="1.6914">
        <ele>295.74</ele>
        <time>2026-05-19T12:28:49Z</time>
      </trkpt>
      <trkpt lat="44.36507" lon="1.69161">
        <ele>295.74</ele>
        <time>2026-05-19T12:29:03Z</time>
      </trkpt>
      <trkpt lat="44.36514" lon="1.6918">
        <ele>295.74</ele>
        <time>2026-05-19T12:29:16Z</time>
      </trkpt>
      <trkpt lat="44.36513" lon="1.69181">
        <ele>295.74</ele>
        <time>2026-05-19T12:29:17Z</time>
      </trkpt>
      <trkpt lat="44.36512" lon="1.69181">
        <ele>295.74</ele>
        <time>2026-05-19T12:29:18Z</time>
      </trkpt>
      <trkpt lat="44.36509" lon="1.69187">
        <ele>296.7</ele>
        <time>2026-05-19T12:29:25Z</time>
      </trkpt>
      <trkpt lat="44.36509" lon="1.69189">
        <ele>296.7</ele>
        <time>2026-05-19T12:29:26Z</time>
      </trkpt>
      <trkpt lat="44.36508" lon="1.6919">
        <ele>296.7</ele>
        <time>2026-05-19T12:29:27Z</time>
      </trkpt>
      <trkpt lat="44.36497" lon="1.6921">
        <ele>297.67</ele>
        <time>2026-05-19T12:29:42Z</time>
      </trkpt>
      <trkpt lat="44.36494" lon="1.69216">
        <ele>298.15</ele>
        <time>2026-05-19T12:29:48Z</time>
      </trkpt>
      <trkpt lat="44.36493" lon="1.69218">
        <ele>298.15</ele>
        <time>2026-05-19T12:29:49Z</time>
      </trkpt>
      <trkpt lat="44.36492" lon="1.69219">
        <ele>298.15</ele>
        <time>2026-05-19T12:29:50Z</time>
      </trkpt>
      <trkpt lat="44.36491" lon="1.69221">
        <ele>298.15</ele>
        <time>2026-05-19T12:29:51Z</time>
      </trkpt>
      <trkpt lat="44.3649" lon="1.69222">
        <ele>298.63</ele>
        <time>2026-05-19T12:29:52Z</time>
      </trkpt>
      <trkpt lat="44.36482" lon="1.6924">
        <ele>299.11</ele>
        <time>2026-05-19T12:30:05Z</time>
      </trkpt>
      <trkpt lat="44.36477" lon="1.69261">
        <ele>300.55</ele>
        <time>2026-05-19T12:30:18Z</time>
      </trkpt>
      <trkpt lat="44.36478" lon="1.69268">
        <ele>300.55</ele>
        <time>2026-05-19T12:30:22Z</time>
      </trkpt>
      <trkpt lat="44.36478" lon="1.6927">
        <ele>300.55</ele>
        <time>2026-05-19T12:30:23Z</time>
      </trkpt>
      <trkpt lat="44.36481" lon="1.6929">
        <ele>301.99</ele>
        <time>2026-05-19T12:30:34Z</time>
      </trkpt>
      <trkpt lat="44.36486" lon="1.69315">
        <ele>302.47</ele>
        <time>2026-05-19T12:30:46Z</time>
      </trkpt>
      <trkpt lat="44.3649" lon="1.6934">
        <ele>302.47</ele>
        <time>2026-05-19T12:30:58Z</time>
      </trkpt>
      <trkpt lat="44.36495" lon="1.69361">
        <ele>302.47</ele>
        <time>2026-05-19T12:31:10Z</time>
      </trkpt>
      <trkpt lat="44.36499" lon="1.69377">
        <ele>301.03</ele>
        <time>2026-05-19T12:31:19Z</time>
      </trkpt>
      <trkpt lat="44.36501" lon="1.69381">
        <ele>300.07</ele>
        <time>2026-05-19T12:31:22Z</time>
      </trkpt>
      <trkpt lat="44.36512" lon="1.69405">
        <ele>299.11</ele>
        <time>2026-05-19T12:31:36Z</time>
      </trkpt>
      <trkpt lat="44.3652" lon="1.69426">
        <ele>297.67</ele>
        <time>2026-05-19T12:31:48Z</time>
      </trkpt>
      <trkpt lat="44.36525" lon="1.69448">
        <ele>296.22</ele>
        <time>2026-05-19T12:32:00Z</time>
      </trkpt>
      <trkpt lat="44.3653" lon="1.69469">
        <ele>295.26</ele>
        <time>2026-05-19T12:32:11Z</time>
      </trkpt>
      <trkpt lat="44.36537" lon="1.69492">
        <ele>294.3</ele>
        <time>2026-05-19T12:32:24Z</time>
      </trkpt>
      <trkpt lat="44.36541" lon="1.69519">
        <ele>293.82</ele>
        <time>2026-05-19T12:32:39Z</time>
      </trkpt>
      <trkpt lat="44.36542" lon="1.69533">
        <ele>293.82</ele>
        <time>2026-05-19T12:32:47Z</time>
      </trkpt>
      <trkpt lat="44.36542" lon="1.69535">
        <ele>293.82</ele>
        <time>2026-05-19T12:32:48Z</time>
      </trkpt>
      <trkpt lat="44.36541" lon="1.69538">
        <ele>293.82</ele>
        <time>2026-05-19T12:32:50Z</time>
      </trkpt>
      <trkpt lat="44.36541" lon="1.69543">
        <ele>293.82</ele>
        <time>2026-05-19T12:33:07Z</time>
      </trkpt>
      <trkpt lat="44.36538" lon="1.69539">
        <ele>293.82</ele>
        <time>2026-05-19T12:33:30Z</time>
      </trkpt>
      <trkpt lat="44.3654" lon="1.69558">
        <ele>293.34</ele>
        <time>2026-05-19T12:33:58Z</time>
      </trkpt>
      <trkpt lat="44.36536" lon="1.6959">
        <ele>294.3</ele>
        <time>2026-05-19T12:34:14Z</time>
      </trkpt>
      <trkpt lat="44.36533" lon="1.69617">
        <ele>294.3</ele>
        <time>2026-05-19T12:34:28Z</time>
      </trkpt>
      <trkpt lat="44.36533" lon="1.69646">
        <ele>294.3</ele>
        <time>2026-05-19T12:34:42Z</time>
      </trkpt>
      <trkpt lat="44.36533" lon="1.69675">
        <ele>294.78</ele>
        <time>2026-05-19T12:34:58Z</time>
      </trkpt>
      <trkpt lat="44.36534" lon="1.697">
        <ele>294.78</ele>
        <time>2026-05-19T12:35:12Z</time>
      </trkpt>
      <trkpt lat="44.36535" lon="1.69724">
        <ele>295.26</ele>
        <time>2026-05-19T12:35:26Z</time>
      </trkpt>
      <trkpt lat="44.36537" lon="1.69753">
        <ele>295.26</ele>
        <time>2026-05-19T12:35:41Z</time>
      </trkpt>
      <trkpt lat="44.36536" lon="1.69777">
        <ele>295.26</ele>
        <time>2026-05-19T12:35:54Z</time>
      </trkpt>
      <trkpt lat="44.36536" lon="1.6978">
        <ele>295.26</ele>
        <time>2026-05-19T12:35:55Z</time>
      </trkpt>
      <trkpt lat="44.36536" lon="1.69782">
        <ele>294.78</ele>
        <time>2026-05-19T12:35:56Z</time>
      </trkpt>
      <trkpt lat="44.36534" lon="1.69808">
        <ele>294.78</ele>
        <time>2026-05-19T12:36:10Z</time>
      </trkpt>
      <trkpt lat="44.36532" lon="1.69831">
        <ele>293.82</ele>
        <time>2026-05-19T12:36:23Z</time>
      </trkpt>
      <trkpt lat="44.36529" lon="1.69853">
        <ele>293.82</ele>
        <time>2026-05-19T12:36:36Z</time>
      </trkpt>
      <trkpt lat="44.36529" lon="1.69858">
        <ele>295.26</ele>
        <time>2026-05-19T12:36:40Z</time>
      </trkpt>
      <trkpt lat="44.36529" lon="1.69883">
        <ele>296.22</ele>
        <time>2026-05-19T12:36:54Z</time>
      </trkpt>
      <trkpt lat="44.36529" lon="1.69907">
        <ele>297.18</ele>
        <time>2026-05-19T12:37:07Z</time>
      </trkpt>
      <trkpt lat="44.3653" lon="1.6993">
        <ele>299.11</ele>
        <time>2026-05-19T12:37:20Z</time>
      </trkpt>
      <trkpt lat="44.36529" lon="1.69956">
        <ele>299.59</ele>
        <time>2026-05-19T12:37:34Z</time>
      </trkpt>
      <trkpt lat="44.36527" lon="1.6998">
        <ele>300.07</ele>
        <time>2026-05-19T12:37:48Z</time>
      </trkpt>
      <trkpt lat="44.36526" lon="1.70006">
        <ele>300.55</ele>
        <time>2026-05-19T12:38:03Z</time>
      </trkpt>
      <trkpt lat="44.36527" lon="1.7003">
        <ele>301.03</ele>
        <time>2026-05-19T12:38:16Z</time>
      </trkpt>
      <trkpt lat="44.36526" lon="1.70056">
        <ele>301.03</ele>
        <time>2026-05-19T12:38:29Z</time>
      </trkpt>
      <trkpt lat="44.36527" lon="1.70081">
        <ele>301.03</ele>
        <time>2026-05-19T12:38:43Z</time>
      </trkpt>
      <trkpt lat="44.36529" lon="1.70109">
        <ele>301.03</ele>
        <time>2026-05-19T12:38:57Z</time>
      </trkpt>
      <trkpt lat="44.36531" lon="1.70133">
        <ele>301.03</ele>
        <time>2026-05-19T12:39:11Z</time>
      </trkpt>
      <trkpt lat="44.36534" lon="1.70159">
        <ele>301.03</ele>
        <time>2026-05-19T12:39:25Z</time>
      </trkpt>
      <trkpt lat="44.36533" lon="1.70185">
        <ele>301.03</ele>
        <time>2026-05-19T12:39:37Z</time>
      </trkpt>
      <trkpt lat="44.36529" lon="1.70211">
        <ele>301.03</ele>
        <time>2026-05-19T12:39:51Z</time>
      </trkpt>
      <trkpt lat="44.36528" lon="1.70237">
        <ele>299.59</ele>
        <time>2026-05-19T12:40:05Z</time>
      </trkpt>
      <trkpt lat="44.36523" lon="1.70262">
        <ele>299.59</ele>
        <time>2026-05-19T12:40:20Z</time>
      </trkpt>
      <trkpt lat="44.36522" lon="1.70264">
        <ele>299.11</ele>
        <time>2026-05-19T12:40:21Z</time>
      </trkpt>
      <trkpt lat="44.36522" lon="1.70265">
        <ele>299.11</ele>
        <time>2026-05-19T12:40:22Z</time>
      </trkpt>
      <trkpt lat="44.36512" lon="1.70283">
        <ele>299.11</ele>
        <time>2026-05-19T12:40:35Z</time>
      </trkpt>
      <trkpt lat="44.36503" lon="1.70303">
        <ele>300.55</ele>
        <time>2026-05-19T12:40:49Z</time>
      </trkpt>
      <trkpt lat="44.36502" lon="1.70306">
        <ele>300.55</ele>
        <time>2026-05-19T12:40:51Z</time>
      </trkpt>
      <trkpt lat="44.36501" lon="1.70308">
        <ele>300.55</ele>
        <time>2026-05-19T12:40:52Z</time>
      </trkpt>
      <trkpt lat="44.365" lon="1.7031">
        <ele>300.55</ele>
        <time>2026-05-19T12:40:53Z</time>
      </trkpt>
      <trkpt lat="44.36499" lon="1.70311">
        <ele>301.03</ele>
        <time>2026-05-19T12:40:54Z</time>
      </trkpt>
      <trkpt lat="44.36498" lon="1.70313">
        <ele>301.03</ele>
        <time>2026-05-19T12:40:55Z</time>
      </trkpt>
      <trkpt lat="44.36497" lon="1.70315">
        <ele>301.03</ele>
        <time>2026-05-19T12:40:56Z</time>
      </trkpt>
      <trkpt lat="44.36491" lon="1.70332">
        <ele>302.47</ele>
        <time>2026-05-19T12:41:08Z</time>
      </trkpt>
      <trkpt lat="44.36483" lon="1.70355">
        <ele>303.43</ele>
        <time>2026-05-19T12:41:22Z</time>
      </trkpt>
      <trkpt lat="44.36478" lon="1.70369">
        <ele>304.39</ele>
        <time>2026-05-19T12:41:31Z</time>
      </trkpt>
      <trkpt lat="44.36477" lon="1.70371">
        <ele>304.39</ele>
        <time>2026-05-19T12:41:32Z</time>
      </trkpt>
      <trkpt lat="44.36476" lon="1.70372">
        <ele>304.88</ele>
        <time>2026-05-19T12:41:33Z</time>
      </trkpt>
      <trkpt lat="44.36475" lon="1.70374">
        <ele>304.88</ele>
        <time>2026-05-19T12:41:34Z</time>
      </trkpt>
      <trkpt lat="44.36474" lon="1.70375">
        <ele>304.88</ele>
        <time>2026-05-19T12:41:35Z</time>
      </trkpt>
      <trkpt lat="44.36473" lon="1.70377">
        <ele>304.88</ele>
        <time>2026-05-19T12:41:36Z</time>
      </trkpt>
      <trkpt lat="44.36464" lon="1.70396">
        <ele>305.84</ele>
        <time>2026-05-19T12:41:49Z</time>
      </trkpt>
      <trkpt lat="44.36454" lon="1.70414">
        <ele>306.8</ele>
        <time>2026-05-19T12:42:02Z</time>
      </trkpt>
      <trkpt lat="44.36442" lon="1.70432">
        <ele>308.24</ele>
        <time>2026-05-19T12:42:17Z</time>
      </trkpt>
      <trkpt lat="44.36431" lon="1.70451">
        <ele>309.2</ele>
        <time>2026-05-19T12:42:31Z</time>
      </trkpt>
      <trkpt lat="44.3642" lon="1.70473">
        <ele>310.16</ele>
        <time>2026-05-19T12:42:45Z</time>
      </trkpt>
      <trkpt lat="44.36412" lon="1.70491">
        <ele>311.12</ele>
        <time>2026-05-19T12:42:59Z</time>
      </trkpt>
      <trkpt lat="44.364" lon="1.70507">
        <ele>312.09</ele>
        <time>2026-05-19T12:43:12Z</time>
      </trkpt>
      <trkpt lat="44.36393" lon="1.70527">
        <ele>312.57</ele>
        <time>2026-05-19T12:43:25Z</time>
      </trkpt>
      <trkpt lat="44.36384" lon="1.70545">
        <ele>313.53</ele>
        <time>2026-05-19T12:43:40Z</time>
      </trkpt>
      <trkpt lat="44.36374" lon="1.7057">
        <ele>314.49</ele>
        <time>2026-05-19T12:43:55Z</time>
      </trkpt>
      <trkpt lat="44.36362" lon="1.70594">
        <ele>314.97</ele>
        <time>2026-05-19T12:44:10Z</time>
      </trkpt>
      <trkpt lat="44.3635" lon="1.70616">
        <ele>315.45</ele>
        <time>2026-05-19T12:44:24Z</time>
      </trkpt>
      <trkpt lat="44.36347" lon="1.70626">
        <ele>315.45</ele>
        <time>2026-05-19T12:44:30Z</time>
      </trkpt>
      <trkpt lat="44.36347" lon="1.70628">
        <ele>315.93</ele>
        <time>2026-05-19T12:44:31Z</time>
      </trkpt>
      <trkpt lat="44.36346" lon="1.7063">
        <ele>315.93</ele>
        <time>2026-05-19T12:44:32Z</time>
      </trkpt>
      <trkpt lat="44.36346" lon="1.70633">
        <ele>315.93</ele>
        <time>2026-05-19T12:44:33Z</time>
      </trkpt>
      <trkpt lat="44.36345" lon="1.70636">
        <ele>315.93</ele>
        <time>2026-05-19T12:44:34Z</time>
      </trkpt>
      <trkpt lat="44.36345" lon="1.70639">
        <ele>315.93</ele>
        <time>2026-05-19T12:44:35Z</time>
      </trkpt>
      <trkpt lat="44.36345" lon="1.70641">
        <ele>315.93</ele>
        <time>2026-05-19T12:44:36Z</time>
      </trkpt>
      <trkpt lat="44.36342" lon="1.70666">
        <ele>315.93</ele>
        <time>2026-05-19T12:44:49Z</time>
      </trkpt>
      <trkpt lat="44.3634" lon="1.70692">
        <ele>316.41</ele>
        <time>2026-05-19T12:45:03Z</time>
      </trkpt>
      <trkpt lat="44.3634" lon="1.70708">
        <ele>316.41</ele>
        <time>2026-05-19T12:45:17Z</time>
      </trkpt>
      <trkpt lat="44.36338" lon="1.70716">
        <ele>316.41</ele>
        <time>2026-05-19T12:45:43Z</time>
      </trkpt>
      <trkpt lat="44.36334" lon="1.70736">
        <ele>316.41</ele>
        <time>2026-05-19T12:45:55Z</time>
      </trkpt>
      <trkpt lat="44.36336" lon="1.70765">
        <ele>316.89</ele>
        <time>2026-05-19T12:46:09Z</time>
      </trkpt>
      <trkpt lat="44.36334" lon="1.70768">
        <ele>315.45</ele>
        <time>2026-05-19T12:46:15Z</time>
      </trkpt>
      <trkpt lat="44.36336" lon="1.70773">
        <ele>317.37</ele>
        <time>2026-05-19T12:46:53Z</time>
      </trkpt>
      <trkpt lat="44.36338" lon="1.70761">
        <ele>316.89</ele>
        <time>2026-05-19T12:47:07Z</time>
      </trkpt>
      <trkpt lat="44.36339" lon="1.70753">
        <ele>315.93</ele>
        <time>2026-05-19T12:47:21Z</time>
      </trkpt>
      <trkpt lat="44.36336" lon="1.70753">
        <ele>315.93</ele>
        <time>2026-05-19T12:47:31Z</time>
      </trkpt>
      <trkpt lat="44.36335" lon="1.70772">
        <ele>315.93</ele>
        <time>2026-05-19T12:47:43Z</time>
      </trkpt>
      <trkpt lat="44.36338" lon="1.70798">
        <ele>315.93</ele>
        <time>2026-05-19T12:47:56Z</time>
      </trkpt>
      <trkpt lat="44.36342" lon="1.70821">
        <ele>315.93</ele>
        <time>2026-05-19T12:48:08Z</time>
      </trkpt>
      <trkpt lat="44.36345" lon="1.70842">
        <ele>315.93</ele>
        <time>2026-05-19T12:48:20Z</time>
      </trkpt>
      <trkpt lat="44.36348" lon="1.70864">
        <ele>315.93</ele>
        <time>2026-05-19T12:48:33Z</time>
      </trkpt>
      <trkpt lat="44.36351" lon="1.70888">
        <ele>317.37</ele>
        <time>2026-05-19T12:48:47Z</time>
      </trkpt>
      <trkpt lat="44.36352" lon="1.70894">
        <ele>317.85</ele>
        <time>2026-05-19T12:48:52Z</time>
      </trkpt>
      <trkpt lat="44.36353" lon="1.70896">
        <ele>317.85</ele>
        <time>2026-05-19T12:48:53Z</time>
      </trkpt>
      <trkpt lat="44.36353" lon="1.7092">
        <ele>318.81</ele>
        <time>2026-05-19T12:49:06Z</time>
      </trkpt>
      <trkpt lat="44.36355" lon="1.70944">
        <ele>318.81</ele>
        <time>2026-05-19T12:49:20Z</time>
      </trkpt>
      <trkpt lat="44.36349" lon="1.70967">
        <ele>319.78</ele>
        <time>2026-05-19T12:49:34Z</time>
      </trkpt>
      <trkpt lat="44.36339" lon="1.70989">
        <ele>320.26</ele>
        <time>2026-05-19T12:49:48Z</time>
      </trkpt>
      <trkpt lat="44.36331" lon="1.71011">
        <ele>320.74</ele>
        <time>2026-05-19T12:50:01Z</time>
      </trkpt>
      <trkpt lat="44.36327" lon="1.71022">
        <ele>320.74</ele>
        <time>2026-05-19T12:50:10Z</time>
      </trkpt>
      <trkpt lat="44.36327" lon="1.71024">
        <ele>320.74</ele>
        <time>2026-05-19T12:50:11Z</time>
      </trkpt>
      <trkpt lat="44.36326" lon="1.71027">
        <ele>320.74</ele>
        <time>2026-05-19T12:50:12Z</time>
      </trkpt>
      <trkpt lat="44.36325" lon="1.71029">
        <ele>320.74</ele>
        <time>2026-05-19T12:50:13Z</time>
      </trkpt>
      <trkpt lat="44.36324" lon="1.71031">
        <ele>320.74</ele>
        <time>2026-05-19T12:50:14Z</time>
      </trkpt>
      <trkpt lat="44.36323" lon="1.71033">
        <ele>320.74</ele>
        <time>2026-05-19T12:50:15Z</time>
      </trkpt>
      <trkpt lat="44.36322" lon="1.71034">
        <ele>320.74</ele>
        <time>2026-05-19T12:50:16Z</time>
      </trkpt>
      <trkpt lat="44.36318" lon="1.71056">
        <ele>320.74</ele>
        <time>2026-05-19T12:50:28Z</time>
      </trkpt>
      <trkpt lat="44.36315" lon="1.71085">
        <ele>320.74</ele>
        <time>2026-05-19T12:50:44Z</time>
      </trkpt>
      <trkpt lat="44.36315" lon="1.7109">
        <ele>320.74</ele>
        <time>2026-05-19T12:50:46Z</time>
      </trkpt>
      <trkpt lat="44.36315" lon="1.71092">
        <ele>320.74</ele>
        <time>2026-05-19T12:50:47Z</time>
      </trkpt>
      <trkpt lat="44.36313" lon="1.71118">
        <ele>320.74</ele>
        <time>2026-05-19T12:51:01Z</time>
      </trkpt>
      <trkpt lat="44.36312" lon="1.71135">
        <ele>320.74</ele>
        <time>2026-05-19T12:51:11Z</time>
      </trkpt>
      <trkpt lat="44.36311" lon="1.71137">
        <ele>320.74</ele>
        <time>2026-05-19T12:51:12Z</time>
      </trkpt>
      <trkpt lat="44.36311" lon="1.71139">
        <ele>320.74</ele>
        <time>2026-05-19T12:51:13Z</time>
      </trkpt>
      <trkpt lat="44.3631" lon="1.71147">
        <ele>320.74</ele>
        <time>2026-05-19T12:51:17Z</time>
      </trkpt>
      <trkpt lat="44.36308" lon="1.71159">
        <ele>320.74</ele>
        <time>2026-05-19T12:51:25Z</time>
      </trkpt>
      <trkpt lat="44.36305" lon="1.7118">
        <ele>321.22</ele>
        <time>2026-05-19T12:51:37Z</time>
      </trkpt>
      <trkpt lat="44.36304" lon="1.71184">
        <ele>321.22</ele>
        <time>2026-05-19T12:51:39Z</time>
      </trkpt>
      <trkpt lat="44.36304" lon="1.71186">
        <ele>321.22</ele>
        <time>2026-05-19T12:51:40Z</time>
      </trkpt>
      <trkpt lat="44.36298" lon="1.71218">
        <ele>321.22</ele>
        <time>2026-05-19T12:51:57Z</time>
      </trkpt>
      <trkpt lat="44.36296" lon="1.71244">
        <ele>322.18</ele>
        <time>2026-05-19T12:52:11Z</time>
      </trkpt>
      <trkpt lat="44.36292" lon="1.7127">
        <ele>323.14</ele>
        <time>2026-05-19T12:52:27Z</time>
      </trkpt>
      <trkpt lat="44.36287" lon="1.71299">
        <ele>323.62</ele>
        <time>2026-05-19T12:52:44Z</time>
      </trkpt>
      <trkpt lat="44.36283" lon="1.71325">
        <ele>324.58</ele>
        <time>2026-05-19T12:52:58Z</time>
      </trkpt>
      <trkpt lat="44.3628" lon="1.71353">
        <ele>325.54</ele>
        <time>2026-05-19T12:53:14Z</time>
      </trkpt>
      <trkpt lat="44.36278" lon="1.7138">
        <ele>326.02</ele>
        <time>2026-05-19T12:53:28Z</time>
      </trkpt>
      <trkpt lat="44.36275" lon="1.71406">
        <ele>326.02</ele>
        <time>2026-05-19T12:53:42Z</time>
      </trkpt>
      <trkpt lat="44.36273" lon="1.71409">
        <ele>326.02</ele>
        <time>2026-05-19T12:53:44Z</time>
      </trkpt>
      <trkpt lat="44.36265" lon="1.7143">
        <ele>326.02</ele>
        <time>2026-05-19T12:53:57Z</time>
      </trkpt>
      <trkpt lat="44.36264" lon="1.71432">
        <ele>326.02</ele>
        <time>2026-05-19T12:53:58Z</time>
      </trkpt>
      <trkpt lat="44.36263" lon="1.71434">
        <ele>326.02</ele>
        <time>2026-05-19T12:53:59Z</time>
      </trkpt>
      <trkpt lat="44.36262" lon="1.71436">
        <ele>326.02</ele>
        <time>2026-05-19T12:54:00Z</time>
      </trkpt>
      <trkpt lat="44.36261" lon="1.71437">
        <ele>326.02</ele>
        <time>2026-05-19T12:54:01Z</time>
      </trkpt>
      <trkpt lat="44.36256" lon="1.71444">
        <ele>324.58</ele>
        <time>2026-05-19T12:54:05Z</time>
      </trkpt>
      <trkpt lat="44.36246" lon="1.7147">
        <ele>323.62</ele>
        <time>2026-05-19T12:54:20Z</time>
      </trkpt>
      <trkpt lat="44.3624" lon="1.71485">
        <ele>322.66</ele>
        <time>2026-05-19T12:54:36Z</time>
      </trkpt>
      <trkpt lat="44.36235" lon="1.71516">
        <ele>320.26</ele>
        <time>2026-05-19T12:54:52Z</time>
      </trkpt>
      <trkpt lat="44.36237" lon="1.7153">
        <ele>319.3</ele>
        <time>2026-05-19T12:55:06Z</time>
      </trkpt>
      <trkpt lat="44.36239" lon="1.7154">
        <ele>319.3</ele>
        <time>2026-05-19T12:55:12Z</time>
      </trkpt>
      <trkpt lat="44.36239" lon="1.71541">
        <ele>319.78</ele>
        <time>2026-05-19T12:55:13Z</time>
      </trkpt>
      <trkpt lat="44.3624" lon="1.71543">
        <ele>319.3</ele>
        <time>2026-05-19T12:55:14Z</time>
      </trkpt>
      <trkpt lat="44.36241" lon="1.7155">
        <ele>318.81</ele>
        <time>2026-05-19T12:55:18Z</time>
      </trkpt>
      <trkpt lat="44.36242" lon="1.71557">
        <ele>318.33</ele>
        <time>2026-05-19T12:55:28Z</time>
      </trkpt>
      <trkpt lat="44.36241" lon="1.71554">
        <ele>318.33</ele>
        <time>2026-05-19T12:55:30Z</time>
      </trkpt>
      <trkpt lat="44.36241" lon="1.71553">
        <ele>318.33</ele>
        <time>2026-05-19T12:55:31Z</time>
      </trkpt>
      <trkpt lat="44.36231" lon="1.71519">
        <ele>319.78</ele>
        <time>2026-05-19T12:55:51Z</time>
      </trkpt>
      <trkpt lat="44.36229" lon="1.71518">
        <ele>319.78</ele>
        <time>2026-05-19T12:55:53Z</time>
      </trkpt>
      <trkpt lat="44.36228" lon="1.71518">
        <ele>319.78</ele>
        <time>2026-05-19T12:55:54Z</time>
      </trkpt>
      <trkpt lat="44.36223" lon="1.71525">
        <ele>319.78</ele>
        <time>2026-05-19T12:56:00Z</time>
      </trkpt>
      <trkpt lat="44.36222" lon="1.71532">
        <ele>318.33</ele>
        <time>2026-05-19T12:56:03Z</time>
      </trkpt>
      <trkpt lat="44.36215" lon="1.71559">
        <ele>315.93</ele>
        <time>2026-05-19T12:56:20Z</time>
      </trkpt>
      <trkpt lat="44.36209" lon="1.71581">
        <ele>314.49</ele>
        <time>2026-05-19T12:56:34Z</time>
      </trkpt>
      <trkpt lat="44.36206" lon="1.71592">
        <ele>314.01</ele>
        <time>2026-05-19T12:56:40Z</time>
      </trkpt>
      <trkpt lat="44.36206" lon="1.71594">
        <ele>314.01</ele>
        <time>2026-05-19T12:56:41Z</time>
      </trkpt>
      <trkpt lat="44.36201" lon="1.71622">
        <ele>313.05</ele>
        <time>2026-05-19T12:56:55Z</time>
      </trkpt>
      <trkpt lat="44.36191" lon="1.71644">
        <ele>313.05</ele>
        <time>2026-05-19T12:57:08Z</time>
      </trkpt>
      <trkpt lat="44.36174" lon="1.71657">
        <ele>313.05</ele>
        <time>2026-05-19T12:57:22Z</time>
      </trkpt>
      <trkpt lat="44.36152" lon="1.71682">
        <ele>313.05</ele>
        <time>2026-05-19T12:57:38Z</time>
      </trkpt>
      <trkpt lat="44.36139" lon="1.71698">
        <ele>313.05</ele>
        <time>2026-05-19T12:57:53Z</time>
      </trkpt>
      <trkpt lat="44.36133" lon="1.71705">
        <ele>314.01</ele>
        <time>2026-05-19T12:57:58Z</time>
      </trkpt>
      <trkpt lat="44.36123" lon="1.71719">
        <ele>314.49</ele>
        <time>2026-05-19T12:58:11Z</time>
      </trkpt>
      <trkpt lat="44.36109" lon="1.71741">
        <ele>315.45</ele>
        <time>2026-05-19T12:58:28Z</time>
      </trkpt>
      <trkpt lat="44.36091" lon="1.71765">
        <ele>315.93</ele>
        <time>2026-05-19T12:58:45Z</time>
      </trkpt>
      <trkpt lat="44.36077" lon="1.71782">
        <ele>316.89</ele>
        <time>2026-05-19T12:58:58Z</time>
      </trkpt>
      <trkpt lat="44.36062" lon="1.71802">
        <ele>317.37</ele>
        <time>2026-05-19T12:59:14Z</time>
      </trkpt>
      <trkpt lat="44.36048" lon="1.71823">
        <ele>317.85</ele>
        <time>2026-05-19T12:59:29Z</time>
      </trkpt>
      <trkpt lat="44.36032" lon="1.71836">
        <ele>317.85</ele>
        <time>2026-05-19T12:59:42Z</time>
      </trkpt>
      <trkpt lat="44.36013" lon="1.7185">
        <ele>317.85</ele>
        <time>2026-05-19T12:59:58Z</time>
      </trkpt>
      <trkpt lat="44.36004" lon="1.71858">
        <ele>317.85</ele>
        <time>2026-05-19T13:00:09Z</time>
      </trkpt>
      <trkpt lat="44.36005" lon="1.71859">
        <ele>317.85</ele>
        <time>2026-05-19T13:00:10Z</time>
      </trkpt>
      <trkpt lat="44.36008" lon="1.71862">
        <ele>317.85</ele>
        <time>2026-05-19T13:00:23Z</time>
      </trkpt>
      <trkpt lat="44.36014" lon="1.71864">
        <ele>317.85</ele>
        <time>2026-05-19T13:00:31Z</time>
      </trkpt>
      <trkpt lat="44.36019" lon="1.71874">
        <ele>316.89</ele>
        <time>2026-05-19T13:00:38Z</time>
      </trkpt>
      <trkpt lat="44.36021" lon="1.71898">
        <ele>315.45</ele>
        <time>2026-05-19T13:00:53Z</time>
      </trkpt>
      <trkpt lat="44.36024" lon="1.7193">
        <ele>314.97</ele>
        <time>2026-05-19T13:01:10Z</time>
      </trkpt>
      <trkpt lat="44.36035" lon="1.71961">
        <ele>313.53</ele>
        <time>2026-05-19T13:01:27Z</time>
      </trkpt>
      <trkpt lat="44.36046" lon="1.71983">
        <ele>314.01</ele>
        <time>2026-05-19T13:01:42Z</time>
      </trkpt>
      <trkpt lat="44.36059" lon="1.72">
        <ele>314.01</ele>
        <time>2026-05-19T13:01:55Z</time>
      </trkpt>
      <trkpt lat="44.36078" lon="1.72021">
        <ele>314.01</ele>
        <time>2026-05-19T13:02:09Z</time>
      </trkpt>
      <trkpt lat="44.36087" lon="1.72037">
        <ele>314.97</ele>
        <time>2026-05-19T13:02:23Z</time>
      </trkpt>
      <trkpt lat="44.3609" lon="1.7206">
        <ele>315.93</ele>
        <time>2026-05-19T13:02:36Z</time>
      </trkpt>
      <trkpt lat="44.3609" lon="1.72063">
        <ele>315.93</ele>
        <time>2026-05-19T13:02:37Z</time>
      </trkpt>
      <trkpt lat="44.3609" lon="1.72064">
        <ele>316.41</ele>
        <time>2026-05-19T13:02:38Z</time>
      </trkpt>
      <trkpt lat="44.3609" lon="1.72067">
        <ele>316.41</ele>
        <time>2026-05-19T13:02:39Z</time>
      </trkpt>
      <trkpt lat="44.3609" lon="1.72069">
        <ele>316.41</ele>
        <time>2026-05-19T13:02:40Z</time>
      </trkpt>
      <trkpt lat="44.36091" lon="1.72071">
        <ele>316.41</ele>
        <time>2026-05-19T13:02:41Z</time>
      </trkpt>
      <trkpt lat="44.36092" lon="1.72073">
        <ele>316.41</ele>
        <time>2026-05-19T13:02:42Z</time>
      </trkpt>
      <trkpt lat="44.36095" lon="1.72094">
        <ele>316.89</ele>
        <time>2026-05-19T13:02:56Z</time>
      </trkpt>
      <trkpt lat="44.36095" lon="1.72124">
        <ele>317.85</ele>
        <time>2026-05-19T13:03:11Z</time>
      </trkpt>
      <trkpt lat="44.3609" lon="1.72152">
        <ele>317.37</ele>
        <time>2026-05-19T13:03:25Z</time>
      </trkpt>
      <trkpt lat="44.36088" lon="1.72156">
        <ele>317.37</ele>
        <time>2026-05-19T13:03:37Z</time>
      </trkpt>
      <trkpt lat="44.36068" lon="1.7216">
        <ele>317.37</ele>
        <time>2026-05-19T13:03:53Z</time>
      </trkpt>
      <trkpt lat="44.36059" lon="1.72161">
        <ele>317.37</ele>
        <time>2026-05-19T13:04:04Z</time>
      </trkpt>
      <trkpt lat="44.36052" lon="1.72162">
        <ele>317.37</ele>
        <time>2026-05-19T13:04:11Z</time>
      </trkpt>
      <trkpt lat="44.36051" lon="1.72162">
        <ele>317.37</ele>
        <time>2026-05-19T13:04:12Z</time>
      </trkpt>
      <trkpt lat="44.36049" lon="1.72162">
        <ele>317.37</ele>
        <time>2026-05-19T13:04:13Z</time>
      </trkpt>
      <trkpt lat="44.3603" lon="1.72164">
        <ele>317.85</ele>
        <time>2026-05-19T13:04:27Z</time>
      </trkpt>
      <trkpt lat="44.3601" lon="1.72165">
        <ele>318.33</ele>
        <time>2026-05-19T13:04:43Z</time>
      </trkpt>
      <trkpt lat="44.3599" lon="1.72167">
        <ele>319.3</ele>
        <time>2026-05-19T13:04:57Z</time>
      </trkpt>
      <trkpt lat="44.35969" lon="1.72172">
        <ele>319.78</ele>
        <time>2026-05-19T13:05:13Z</time>
      </trkpt>
      <trkpt lat="44.35968" lon="1.72173">
        <ele>319.78</ele>
        <time>2026-05-19T13:05:14Z</time>
      </trkpt>
      <trkpt lat="44.35966" lon="1.72174">
        <ele>320.26</ele>
        <time>2026-05-19T13:05:15Z</time>
      </trkpt>
      <trkpt lat="44.35947" lon="1.72184">
        <ele>320.74</ele>
        <time>2026-05-19T13:05:32Z</time>
      </trkpt>
      <trkpt lat="44.35945" lon="1.72185">
        <ele>320.74</ele>
        <time>2026-05-19T13:05:33Z</time>
      </trkpt>
      <trkpt lat="44.35936" lon="1.7219">
        <ele>321.22</ele>
        <time>2026-05-19T13:05:40Z</time>
      </trkpt>
      <trkpt lat="44.35935" lon="1.72191">
        <ele>321.22</ele>
        <time>2026-05-19T13:05:41Z</time>
      </trkpt>
      <trkpt lat="44.35933" lon="1.72192">
        <ele>321.22</ele>
        <time>2026-05-19T13:05:42Z</time>
      </trkpt>
      <trkpt lat="44.35932" lon="1.72192">
        <ele>321.22</ele>
        <time>2026-05-19T13:05:43Z</time>
      </trkpt>
      <trkpt lat="44.35931" lon="1.72193">
        <ele>321.22</ele>
        <time>2026-05-19T13:05:44Z</time>
      </trkpt>
      <trkpt lat="44.35917" lon="1.72203">
        <ele>321.22</ele>
        <time>2026-05-19T13:05:59Z</time>
      </trkpt>
      <trkpt lat="44.35915" lon="1.72203">
        <ele>321.22</ele>
        <time>2026-05-19T13:06:03Z</time>
      </trkpt>
      <trkpt lat="44.35914" lon="1.72207">
        <ele>321.22</ele>
        <time>2026-05-19T13:06:09Z</time>
      </trkpt>
      <trkpt lat="44.35915" lon="1.72208">
        <ele>321.22</ele>
        <time>2026-05-19T13:06:10Z</time>
      </trkpt>
      <trkpt lat="44.35915" lon="1.7221">
        <ele>321.22</ele>
        <time>2026-05-19T13:06:11Z</time>
      </trkpt>
      <trkpt lat="44.35915" lon="1.72212">
        <ele>321.22</ele>
        <time>2026-05-19T13:06:12Z</time>
      </trkpt>
      <trkpt lat="44.35915" lon="1.72214">
        <ele>321.22</ele>
        <time>2026-05-19T13:06:13Z</time>
      </trkpt>
      <trkpt lat="44.35915" lon="1.72223">
        <ele>321.22</ele>
        <time>2026-05-19T13:06:18Z</time>
      </trkpt>
      <trkpt lat="44.35915" lon="1.72225">
        <ele>321.22</ele>
        <time>2026-05-19T13:06:19Z</time>
      </trkpt>
      <trkpt lat="44.35915" lon="1.72227">
        <ele>319.78</ele>
        <time>2026-05-19T13:06:20Z</time>
      </trkpt>
      <trkpt lat="44.3591" lon="1.72239">
        <ele>319.78</ele>
        <time>2026-05-19T13:06:28Z</time>
      </trkpt>
      <trkpt lat="44.35909" lon="1.7224">
        <ele>318.81</ele>
        <time>2026-05-19T13:06:29Z</time>
      </trkpt>
      <trkpt lat="44.35909" lon="1.72242">
        <ele>318.81</ele>
        <time>2026-05-19T13:06:30Z</time>
      </trkpt>
      <trkpt lat="44.35901" lon="1.72265">
        <ele>317.85</ele>
        <time>2026-05-19T13:06:44Z</time>
      </trkpt>
      <trkpt lat="44.35891" lon="1.72291">
        <ele>317.85</ele>
        <time>2026-05-19T13:06:59Z</time>
      </trkpt>
      <trkpt lat="44.3589" lon="1.72293">
        <ele>317.85</ele>
        <time>2026-05-19T13:07:00Z</time>
      </trkpt>
      <trkpt lat="44.3589" lon="1.72295">
        <ele>317.85</ele>
        <time>2026-05-19T13:07:01Z</time>
      </trkpt>
      <trkpt lat="44.35891" lon="1.72296">
        <ele>317.85</ele>
        <time>2026-05-19T13:07:02Z</time>
      </trkpt>
      <trkpt lat="44.3589" lon="1.7232">
        <ele>317.37</ele>
        <time>2026-05-19T13:07:14Z</time>
      </trkpt>
      <trkpt lat="44.35892" lon="1.72325">
        <ele>317.37</ele>
        <time>2026-05-19T13:07:16Z</time>
      </trkpt>
      <trkpt lat="44.35898" lon="1.72335">
        <ele>317.37</ele>
        <time>2026-05-19T13:07:24Z</time>
      </trkpt>
      <trkpt lat="44.35898" lon="1.72337">
        <ele>317.37</ele>
        <time>2026-05-19T13:07:25Z</time>
      </trkpt>
      <trkpt lat="44.35907" lon="1.72363">
        <ele>316.89</ele>
        <time>2026-05-19T13:07:40Z</time>
      </trkpt>
      <trkpt lat="44.3591" lon="1.7238">
        <ele>316.89</ele>
        <time>2026-05-19T13:07:52Z</time>
      </trkpt>
      <trkpt lat="44.3591" lon="1.72381">
        <ele>316.41</ele>
        <time>2026-05-19T13:08:09Z</time>
      </trkpt>
      <trkpt lat="44.3591" lon="1.72383">
        <ele>316.41</ele>
        <time>2026-05-19T13:08:10Z</time>
      </trkpt>
      <trkpt lat="44.35913" lon="1.72393">
        <ele>316.41</ele>
        <time>2026-05-19T13:08:17Z</time>
      </trkpt>
      <trkpt lat="44.35915" lon="1.7241">
        <ele>315.93</ele>
        <time>2026-05-19T13:08:25Z</time>
      </trkpt>
      <trkpt lat="44.35914" lon="1.72411">
        <ele>315.93</ele>
        <time>2026-05-19T13:08:26Z</time>
      </trkpt>
      <trkpt lat="44.35912" lon="1.72412">
        <ele>315.93</ele>
        <time>2026-05-19T13:08:27Z</time>
      </trkpt>
      <trkpt lat="44.35885" lon="1.72424">
        <ele>315.93</ele>
        <time>2026-05-19T13:08:45Z</time>
      </trkpt>
      <trkpt lat="44.35867" lon="1.72432">
        <ele>315.93</ele>
        <time>2026-05-19T13:09:00Z</time>
      </trkpt>
      <trkpt lat="44.35853" lon="1.72436">
        <ele>317.37</ele>
        <time>2026-05-19T13:09:10Z</time>
      </trkpt>
      <trkpt lat="44.3583" lon="1.7244">
        <ele>317.85</ele>
        <time>2026-05-19T13:09:26Z</time>
      </trkpt>
      <trkpt lat="44.35811" lon="1.72435">
        <ele>317.85</ele>
        <time>2026-05-19T13:09:41Z</time>
      </trkpt>
      <trkpt lat="44.35792" lon="1.7243">
        <ele>318.33</ele>
        <time>2026-05-19T13:09:56Z</time>
      </trkpt>
      <trkpt lat="44.3578" lon="1.72423">
        <ele>318.33</ele>
        <time>2026-05-19T13:10:10Z</time>
      </trkpt>
      <trkpt lat="44.35783" lon="1.72422">
        <ele>318.33</ele>
        <time>2026-05-19T13:10:23Z</time>
      </trkpt>
      <trkpt lat="44.35781" lon="1.72418">
        <ele>318.81</ele>
        <time>2026-05-19T13:10:28Z</time>
      </trkpt>
      <trkpt lat="44.35778" lon="1.72416">
        <ele>319.3</ele>
        <time>2026-05-19T13:10:30Z</time>
      </trkpt>
      <trkpt lat="44.35773" lon="1.7241">
        <ele>319.3</ele>
        <time>2026-05-19T13:10:35Z</time>
      </trkpt>
      <trkpt lat="44.35771" lon="1.72408">
        <ele>319.3</ele>
        <time>2026-05-19T13:10:36Z</time>
      </trkpt>
      <trkpt lat="44.35762" lon="1.72399">
        <ele>319.78</ele>
        <time>2026-05-19T13:10:44Z</time>
      </trkpt>
      <trkpt lat="44.35762" lon="1.72397">
        <ele>319.78</ele>
        <time>2026-05-19T13:10:45Z</time>
      </trkpt>
      <trkpt lat="44.35761" lon="1.72395">
        <ele>319.78</ele>
        <time>2026-05-19T13:10:46Z</time>
      </trkpt>
      <trkpt lat="44.35761" lon="1.72392">
        <ele>319.78</ele>
        <time>2026-05-19T13:10:47Z</time>
      </trkpt>
      <trkpt lat="44.35761" lon="1.7239">
        <ele>319.78</ele>
        <time>2026-05-19T13:10:48Z</time>
      </trkpt>
      <trkpt lat="44.35759" lon="1.72393">
        <ele>320.26</ele>
        <time>2026-05-19T13:10:58Z</time>
      </trkpt>
      <trkpt lat="44.35771" lon="1.7241">
        <ele>320.26</ele>
        <time>2026-05-19T13:11:29Z</time>
      </trkpt>
      <trkpt lat="44.35764" lon="1.72399">
        <ele>320.26</ele>
        <time>2026-05-19T13:11:51Z</time>
      </trkpt>
      <trkpt lat="44.35754" lon="1.72402">
        <ele>320.26</ele>
        <time>2026-05-19T13:12:18Z</time>
      </trkpt>
      <trkpt lat="44.35765" lon="1.72404">
        <ele>320.26</ele>
        <time>2026-05-19T13:12:37Z</time>
      </trkpt>
      <trkpt lat="44.35763" lon="1.72406">
        <ele>320.26</ele>
        <time>2026-05-19T13:12:38Z</time>
      </trkpt>
      <trkpt lat="44.35762" lon="1.72408">
        <ele>320.26</ele>
        <time>2026-05-19T13:12:39Z</time>
      </trkpt>
      <trkpt lat="44.3576" lon="1.72414">
        <ele>320.26</ele>
        <time>2026-05-19T13:12:44Z</time>
      </trkpt>
      <trkpt lat="44.35762" lon="1.72418">
        <ele>320.26</ele>
        <time>2026-05-19T13:12:59Z</time>
      </trkpt>
      <trkpt lat="44.35764" lon="1.72417">
        <ele>320.26</ele>
        <time>2026-05-19T13:13:25Z</time>
      </trkpt>
      <trkpt lat="44.35765" lon="1.72413">
        <ele>320.26</ele>
        <time>2026-05-19T13:13:41Z</time>
      </trkpt>
      <trkpt lat="44.35765" lon="1.72419">
        <ele>318.81</ele>
        <time>2026-05-19T13:13:53Z</time>
      </trkpt>
      <trkpt lat="44.35765" lon="1.72424">
        <ele>318.81</ele>
        <time>2026-05-19T13:14:15Z</time>
      </trkpt>
      <trkpt lat="44.35762" lon="1.7242">
        <ele>318.33</ele>
        <time>2026-05-19T13:14:43Z</time>
      </trkpt>
      <trkpt lat="44.35763" lon="1.72408">
        <ele>317.85</ele>
        <time>2026-05-19T13:15:25Z</time>
      </trkpt>
      <trkpt lat="44.35761" lon="1.72409">
        <ele>317.85</ele>
        <time>2026-05-19T13:16:06Z</time>
      </trkpt>
      <trkpt lat="44.35762" lon="1.7241">
        <ele>317.37</ele>
        <time>2026-05-19T13:16:47Z</time>
      </trkpt>
      <trkpt lat="44.35762" lon="1.72413">
        <ele>317.37</ele>
        <time>2026-05-19T13:17:28Z</time>
      </trkpt>
      <trkpt lat="44.35764" lon="1.72418">
        <ele>318.81</ele>
        <time>2026-05-19T13:17:53Z</time>
      </trkpt>
    </trkseg>
  </trk>
</gpx>